<
# Wetter Temperatur Luftdruck Luftfeuchtigkeit Sichtweite Windgeschwindigkeit Windrichtung Zeit
1 Clear 20 1003 30 0 8 238 08:20 14.07.2020
2 Clear 20 1003 30 0 8 238 07:45 14.07.2020
3 Clear 20 1004 29 0 8.38 219 07:19 14.07.2020
4 Clear 20 1004 29 0 8.38 219 06:58 14.07.2020
5 Clear 20 1005 30 0 7.64 204 06:27 14.07.2020
6 Clear 20 1005 30 0 7.64 204 05:50 14.07.2020
7 Clear 19 1005 33 0 5.92 196 04:52 14.07.2020
8 Clear 19 1005 33 0 5.92 196 04:33 14.07.2020
9 Clear 15 1006 47 0 2.24 174 03:29 14.07.2020
10 Clouds 14 1006 58 0 2.31 158 02:27 14.07.2020
11 Clouds 14 1006 56 0 2.51 150 01:41 14.07.2020
12 Clouds 12 1007 65 0 2.64 150 01:22 14.07.2020
13 Clouds 12 1007 65 0 2.64 150 00:42 14.07.2020
14 Clouds 11 1006 66 0 3.25 164 00:22 14.07.2020
15 Clouds 11 1006 66 0 3.25 164 23:39 13.07.2020
16 Clouds 12 1006 73 0 3.48 149 23:19 13.07.2020
17 Clouds 12 1006 73 0 3.48 149 22:57 13.07.2020
18 Clouds 12 1006 73 0 3.48 149 22:39 13.07.2020
19 Rain 12 1005 79 0 2.48 137 22:19 13.07.2020
20 Rain 12 1005 79 0 2.48 137 21:54 13.07.2020
21 Rain 12 1005 79 0 2.48 137 21:36 13.07.2020
22 Rain 13 1006 82 0 0.61 86 21:18 13.07.2020
23 Rain 13 1005 74 0 1.16 168 21:18 13.07.2020
24 Rain 13 1005 74 0 1.16 168 20:42 13.07.2020
25 Rain 15 1005 68 0 1.22 35 20:23 13.07.2020
26 Rain 15 1005 68 0 1.22 35 19:59 13.07.2020
27 Rain 15 1005 68 0 1.22 35 19:41 13.07.2020
28 Rain 14 1005 70 0 0.31 274 19:22 13.07.2020
29 Rain 14 1005 70 0 0.31 274 18:56 13.07.2020
30 Rain 14 1005 70 0 0.31 274 18:38 13.07.2020
31 Rain 14 1005 70 0 0.31 274 18:38 13.07.2020
32 Clouds 15 1005 67 0 0.82 132 18:19 13.07.2020
33 Clouds 15 1005 67 0 0.82 132 17:43 13.07.2020
34 Clouds 15 1004 67 0 1.2 97 17:22 13.07.2020
35 Clouds 15 1004 67 0 1.2 97 16:59 13.07.2020
36 Clouds 15 1004 67 0 1.2 97 16:41 13.07.2020
37 Rain 16 1004 66 0 1.44 66 16:20 13.07.2020
38 Rain 16 1004 66 0 1.44 66 15:57 13.07.2020
39 Rain 16 1004 66 0 1.44 66 15:38 13.07.2020
40 Rain 16 1003 61 0 3.26 178 15:20 13.07.2020
41 Rain 16 1003 61 0 3.26 178 14:57 13.07.2020
42 Rain 16 1003 61 0 3.26 178 14:39 13.07.2020
43 Clouds 22 1003 42 0 1.25 27 14:20 13.07.2020
44 Clouds 22 1003 42 0 1.25 27 13:43 13.07.2020
45 Clouds 23 1002 34 0 2.29 265 13:22 13.07.2020
46 Clouds 23 1002 34 0 2.29 265 12:57 13.07.2020
47 Clouds 23 1002 34 0 2.29 265 12:39 13.07.2020
48 Clouds 23 1002 37 0 2.4 268 12:21 13.07.2020
49 Clouds 23 1002 37 0 2.4 268 11:46 13.07.2020
50 Clouds 24 1002 35 0 3.51 236 11:27 13.07.2020
51 Clouds 24 1002 35 0 3.51 236 10:59 13.07.2020
52 Clouds 24 1002 35 0 3.51 236 10:37 13.07.2020
53 Clouds 22 1002 41 0 2 266 10:19 13.07.2020
54 Clouds 22 1002 41 0 2 266 09:41 13.07.2020
55 Clouds 24 1002 32 0 7.11 212 09:23 13.07.2020
56 Clouds 23 1002 37 0 5.02 214 08:51 13.07.2020
57 Clouds 23 1002 37 0 5.02 214 08:32 13.07.2020
58 Clouds 24 1002 33 0 4.45 204 07:34 13.07.2020
59 Rain 22 1003 38 0 4.64 222 06:56 13.07.2020
60 Rain 22 1003 38 0 4.64 222 06:38 13.07.2020
61 Clouds 24 1004 33 0 4.71 215 06:20 13.07.2020
62 Clouds 24 1004 33 0 4.71 215 06:20 13.07.2020
63 Clouds 22 1005 37 0 2.26 180 04:35 13.07.2020
64 Rain 17 1006 58 0 2.05 104 01:53 13.07.2020
65 Rain 16 1006 64 0 1.74 99 01:26 13.07.2020
66 Rain 16 1006 64 0 1.74 99 00:57 13.07.2020
67 Rain 14 1006 65 0 1.6 101 00:25 13.07.2020
68 Rain 14 1006 65 0 1.6 101 23:57 12.07.2020
69 Rain 14 1006 65 0 1.6 101 23:39 12.07.2020
70 Rain 14 1006 64 0 1.61 114 23:21 12.07.2020
71 Rain 14 1006 64 0 1.61 114 22:39 12.07.2020
72 Rain 15 1006 62 0 0.99 82 22:20 12.07.2020
73 Rain 15 1006 62 0 0.99 82 21:58 12.07.2020
74 Rain 15 1006 62 0 0.99 82 21:40 12.07.2020
75 Rain 15 1006 62 0 0.99 82 21:40 12.07.2020
76 Rain 14 1006 60 0 2.07 91 21:20 12.07.2020
77 Rain 14 1006 60 0 2.07 91 20:58 12.07.2020
78 Rain 14 1006 60 0 2.07 91 20:58 12.07.2020
79 Rain 14 1006 60 0 2.07 91 20:39 12.07.2020
80 Rain 14 1006 61 0 1.64 96 20:20 12.07.2020
81 Rain 14 1006 61 0 1.64 96 19:55 12.07.2020
82 Rain 14 1006 61 0 1.64 96 19:36 12.07.2020
83 Clouds 14 1006 59 0 1.43 122 19:18 12.07.2020
84 Clouds 14 1006 59 0 1.43 122 18:42 12.07.2020
85 Clouds 15 1006 57 0 1.13 109 18:19 12.07.2020
86 Clouds 15 1006 57 0 1.13 109 17:57 12.07.2020
87 Clouds 15 1006 57 0 1.13 109 17:36 12.07.2020
88 Clouds 16 1006 53 0 0.93 135 17:18 12.07.2020
89 Clouds 16 1006 53 0 0.93 135 16:42 12.07.2020
90 Clouds 17 1005 51 0 2.17 113 16:20 12.07.2020
91 Clouds 17 1005 51 0 2.17 113 15:43 12.07.2020
92 Clouds 19 1004 46 0 2.86 43 15:24 12.07.2020
93 Clouds 19 1004 46 0 2.86 43 14:46 12.07.2020
94 Clouds 23 1004 35 0 2.13 8 14:27 12.07.2020
95 Clouds 23 1003 34 0 2.35 296 13:57 12.07.2020
96 Clouds 23 1003 34 0 2.35 296 13:39 12.07.2020
97 Clouds 25 1002 25 0 3.38 282 13:20 12.07.2020
98 Clouds 25 1002 25 0 3.38 282 12:54 12.07.2020
99 Clouds 25 1002 25 0 3.38 282 12:36 12.07.2020
100 Clouds 26 1001 22 0 2.74 266 12:18 12.07.2020
101 Clouds 26 1001 22 0 2.74 266 11:42 12.07.2020
102 Clouds 25 1001 23 0 2.87 248 11:19 12.07.2020
103 Clouds 25 1001 23 0 2.87 248 10:42 12.07.2020
104 Clouds 26 1001 23 0 4.27 239 10:21 12.07.2020
105 Clouds 26 1001 23 0 4.27 239 09:54 12.07.2020
106 Clouds 26 1001 22 0 4.94 225 09:36 12.07.2020
107 Clouds 26 1001 24 0 4.92 235 09:18 12.07.2020
108 Clouds 26 1001 22 0 5.34 219 08:41 12.07.2020
109 Clear 25 1002 23 0 5.82 212 08:22 12.07.2020
110 Clear 25 1002 23 0 5.82 212 07:54 12.07.2020
111 Clear 25 1002 23 0 5.82 212 07:36 12.07.2020
112 Clear 25 1002 23 0 4.92 210 07:18 12.07.2020
113 Clear 25 1002 23 0 4.92 210 06:47 12.07.2020
114 Clear 24 1003 27 0 2.61 215 06:19 12.07.2020
115 Clear 23 1003 31 0 2 197 05:22 12.07.2020
116 Clear 21 1003 37 0 1.57 147 04:29 12.07.2020
117 Clear 21 1003 37 0 1.57 147 03:53 12.07.2020
118 Clear 21 1003 37 0 1.57 147 03:31 12.07.2020
119 Clear 20 1004 42 0 1.72 116 02:45 12.07.2020
120 Clear 18 1004 46 0 2.03 105 01:36 12.07.2020
121 Clear 15 1003 54 0 1.72 95 00:41 12.07.2020
122 Clear 13 1003 54 0 1.7 100 00:22 12.07.2020
123 Clear 13 1003 54 0 1.7 100 23:55 11.07.2020
124 Clear 13 1003 54 0 1.7 100 23:37 11.07.2020
125 Clear 13 1003 53 0 1.79 95 23:18 11.07.2020
126 Clear 13 1003 53 0 1.79 95 22:44 11.07.2020
127 Clear 14 1003 53 0 1.91 81 22:25 11.07.2020
128 Clear 14 1003 53 0 1.91 81 21:57 11.07.2020
129 Clear 14 1003 53 0 1.91 81 21:38 11.07.2020
130 Clear 14 1002 46 0 2.11 78 21:20 11.07.2020
131 Clear 14 1002 46 0 2.11 78 20:55 11.07.2020
132 Clear 14 1002 46 0 2.11 78 20:37 11.07.2020
133 Clouds 14 1002 45 0 2.13 74 20:18 11.07.2020
134 Clouds 14 1002 45 0 2.13 74 19:50 11.07.2020
135 Clouds 14 1002 45 0 2.13 74 19:31 11.07.2020
136 Clouds 15 1002 45 0 2.05 84 18:58 11.07.2020
137 Clouds 15 1002 45 0 2.05 84 18:40 11.07.2020
138 Clouds 15 1002 44 0 2.19 92 18:22 11.07.2020
139 Clouds 15 1002 44 0 2.19 92 17:58 11.07.2020
140 Clouds 15 1002 44 0 2.19 92 17:38 11.07.2020
141 Rain 15 1001 44 0 2.01 103 17:19 11.07.2020
142 Rain 15 1001 44 0 2.01 103 16:56 11.07.2020
143 Rain 15 1001 44 0 2.01 103 16:37 11.07.2020
144 Rain 16 1001 43 0 0.77 97 16:18 11.07.2020
145 Rain 16 1001 43 0 0.77 97 15:42 11.07.2020
146 Clear 18 1000 42 0 0.19 63 15:21 11.07.2020
147 Clear 18 1000 42 0 0.19 63 14:58 11.07.2020
148 Clear 18 1000 42 0 0.19 63 14:39 11.07.2020
149 Clear 23 1000 37 0 0.07 359 14:21 11.07.2020
150 Clear 23 1000 37 0 0.07 359 13:44 11.07.2020
151 Clear 24 999 23 0 0.87 263 13:22 11.07.2020
152 Clear 24 999 23 0 0.87 263 12:59 11.07.2020
153 Clear 24 999 23 0 0.87 263 12:40 11.07.2020
154 Clear 24 999 22 0 1.53 260 12:21 11.07.2020
155 Clear 24 999 22 0 1.53 260 11:56 11.07.2020
156 Clear 24 999 22 0 1.53 260 11:38 11.07.2020
157 Clear 24 1000 22 0 2.18 261 11:19 11.07.2020
158 Clear 24 1000 22 0 2.18 261 10:43 11.07.2020
159 Clear 24 999 23 0 2.84 261 10:25 11.07.2020
160 Clear 24 999 23 0 2.84 261 09:45 11.07.2020
161 Clear 24 999 22 0 2.82 258 09:21 11.07.2020
162 Clear 24 999 22 0 2.82 258 08:59 11.07.2020
163 Clear 24 999 22 0 2.82 258 08:37 11.07.2020
164 Clear 23 1000 23 0 1.97 250 08:19 11.07.2020
165 Clear 23 1000 23 0 1.97 250 07:42 11.07.2020
166 Clear 23 1001 25 0 1.34 241 07:23 11.07.2020
167 Clear 23 1001 25 0 1.34 241 06:56 11.07.2020
168 Clear 22 1001 28 0 0.78 221 06:22 11.07.2020
169 Clear 21 1001 31 0 0.67 178 05:22 11.07.2020
170 Clear 21 1001 31 0 0.67 178 04:55 11.07.2020
171 Clear 21 1001 31 0 0.67 178 04:32 11.07.2020
172 Clear 17 1002 42 0 1.26 104 03:24 11.07.2020
173 Clear 17 1002 42 0 1.26 104 02:38 11.07.2020
174 Clear 15 1003 51 0 1.69 91 01:37 11.07.2020
175 Clear 12 1002 61 0 1.76 86 01:18 11.07.2020
176 Clear 12 1002 61 0 1.76 86 00:41 11.07.2020
177 Clear 10 1002 67 0 1.56 85 00:22 11.07.2020
178 Clear 10 1002 67 0 1.56 85 23:57 10.07.2020
179 Clear 10 1002 67 0 1.56 85 23:39 10.07.2020
180 Clear 10 1002 67 0 1.61 86 23:19 10.07.2020
181 Clear 10 1002 67 0 1.61 86 22:45 10.07.2020
182 Clear 10 1002 66 0 1.76 85 22:21 10.07.2020
183 Clear 10 1002 66 0 1.76 85 21:56 10.07.2020
184 Clear 10 1002 67 0 1.84 83 21:36 10.07.2020
185 Clear 11 1002 65 0 1.76 85 21:18 10.07.2020
186 Clear 11 1002 66 0 1.83 83 20:41 10.07.2020
187 Clear 11 1003 65 0 1.7 79 20:23 10.07.2020
188 Clear 11 1003 65 0 1.7 79 19:57 10.07.2020
189 Clear 11 1003 65 0 1.7 79 19:39 10.07.2020
190 Clear 11 1003 64 0 1.52 82 19:20 10.07.2020
191 Clear 11 1003 64 0 1.52 82 18:42 10.07.2020
192 Clear 12 1003 62 0 1.52 83 18:22 10.07.2020
193 Clear 12 1003 62 0 1.52 83 17:58 10.07.2020
194 Clear 12 1003 62 0 1.52 83 17:40 10.07.2020
195 Clouds 12 1002 59 0 1.21 74 17:21 10.07.2020
196 Clouds 12 1002 59 0 1.21 74 16:44 10.07.2020
197 Clouds 14 1002 54 0 0.89 40 16:21 10.07.2020
198 Clouds 14 1002 54 0 0.89 40 15:55 10.07.2020
199 Clouds 14 1002 54 0 0.89 40 15:37 10.07.2020
200 Clouds 16 1002 49 0 1.27 322 15:18 10.07.2020
201 Clouds 16 1002 49 0 1.27 322 14:41 10.07.2020
202 Clouds 19 1001 38 0 2.26 285 14:20 10.07.2020
203 Clouds 19 1001 38 0 2.26 285 13:58 10.07.2020
204 Clouds 19 1001 38 0 2.26 285 13:39 10.07.2020
205 Clouds 21 1001 31 0 2.98 296 13:21 10.07.2020
206 Clouds 21 1001 31 0 2.98 296 12:57 10.07.2020
207 Clouds 21 1001 31 0 2.98 296 12:37 10.07.2020
208 Clouds 21 1001 30 0 3.53 293 12:19 10.07.2020
209 Clouds 21 1001 30 0 3.53 293 11:42 10.07.2020
210 Clouds 21 1001 30 0 3.41 283 11:21 10.07.2020
211 Clouds 21 1001 30 0 3.41 283 10:58 10.07.2020
212 Clouds 21 1001 30 0 3.41 283 10:39 10.07.2020
213 Clouds 21 1001 31 0 3.05 273 10:20 10.07.2020
214 Clouds 21 1001 31 0 3.05 273 09:41 10.07.2020
215 Clear 20 1001 33 0 2.88 271 09:23 10.07.2020
216 Clear 20 1001 33 0 2.88 271 08:59 10.07.2020
217 Clear 20 1001 33 0 2.88 271 08:41 10.07.2020
218 Clear 20 1002 36 0 3.06 273 08:22 10.07.2020
219 Clear 20 1002 36 0 3.06 273 07:45 10.07.2020
220 Clear 19 1003 40 0 2.98 270 07:23 10.07.2020
221 Clear 19 1003 40 0 2.98 270 06:54 10.07.2020
222 Clear 19 1003 40 0 2.98 270 06:54 10.07.2020
223 Clear 19 1003 40 0 2.98 270 06:36 10.07.2020
224 Clear 16 1004 50 0 1.4 258 05:27 10.07.2020
225 Clear 15 1005 55 0 0.61 267 03:44 10.07.2020
226 Clear 14 1005 60 0 0.27 12 02:53 10.07.2020
227 Clouds 12 1005 66 0 0.78 87 01:57 10.07.2020
228 Clouds 10 1006 77 0 0.99 84 00:54 10.07.2020
229 Clouds 7 1006 80 0 0.99 97 00:22 10.07.2020
230 Clouds 7 1006 80 0 0.99 97 23:55 09.07.2020
231 Clouds 7 1006 80 0 0.99 97 23:37 09.07.2020
232 Clouds 7 1006 80 0 0.89 87 23:18 09.07.2020
233 Clouds 7 1006 80 0 0.89 87 22:56 09.07.2020
234 Clouds 7 1006 80 0 0.89 87 22:38 09.07.2020
235 Clouds 8 1005 80 0 0.45 52 22:19 09.07.2020
236 Clouds 8 1005 80 0 0.45 52 21:39 09.07.2020
237 Clouds 8 1005 82 0 0.33 67 21:20 09.07.2020
238 Clouds 8 1005 82 0 0.33 67 21:20 09.07.2020
239 Clouds 8 1005 82 0 0.33 67 20:59 09.07.2020
240 Clouds 8 1005 82 0 0.33 67 20:39 09.07.2020
241 Clouds 9 1005 82 0 0.63 53 20:21 09.07.2020
242 Clouds 9 1005 82 0 0.63 53 19:43 09.07.2020
243 Clouds 9 1005 82 0 1.03 59 19:22 09.07.2020
244 Clouds 9 1005 82 0 1.03 59 19:22 09.07.2020
245 Clouds 9 1005 82 0 1.03 59 18:56 09.07.2020
246 Clouds 9 1005 82 0 1.03 59 18:38 09.07.2020
247 Clouds 11 1005 79 0 1.15 83 18:18 09.07.2020
248 Clouds 11 1005 79 0 1.15 83 17:43 09.07.2020
249 Rain 12 1005 76 0 0.98 40 17:22 09.07.2020
250 Rain 12 1005 76 0 0.98 40 16:56 09.07.2020
251 Rain 12 1005 76 0 0.98 40 16:38 09.07.2020
252 Rain 12 1004 72 0 1.21 320 16:19 09.07.2020
253 Rain 12 1004 72 0 1.21 320 15:57 09.07.2020
254 Rain 12 1004 72 0 1.21 320 15:37 09.07.2020
255 Rain 13 1004 67 0 1.26 306 15:18 09.07.2020
256 Rain 13 1004 67 0 1.26 306 14:57 09.07.2020
257 Rain 13 1004 67 0 1.26 306 14:39 09.07.2020
258 Rain 13 1004 67 0 1.26 306 14:39 09.07.2020
259 Rain 16 1003 57 0 1.12 289 14:20 09.07.2020
260 Rain 16 1003 57 0 1.12 289 13:56 09.07.2020
261 Rain 16 1003 57 0 1.12 289 13:38 09.07.2020
262 Clouds 16 1003 51 0 0.78 319 13:18 09.07.2020
263 Clouds 16 1003 51 0 0.78 319 12:41 09.07.2020
264 Clouds 16 1003 52 0 0.73 343 12:23 09.07.2020
265 Clouds 16 1003 52 0 0.73 343 11:57 09.07.2020
266 Clouds 16 1003 52 0 0.73 343 11:38 09.07.2020
267 Clouds 15 1003 56 0 1.02 48 11:18 09.07.2020
268 Clouds 15 1003 56 0 1.02 48 10:55 09.07.2020
269 Clouds 15 1003 56 0 1.02 48 10:37 09.07.2020
270 Clouds 14 1003 61 0 1.84 64 10:19 09.07.2020
271 Clouds 14 1003 61 0 1.84 64 09:42 09.07.2020
272 Rain 13 1004 64 0 2.34 48 09:22 09.07.2020
273 Rain 16 1003 51 0 2.01 63 08:49 09.07.2020
274 Rain 16 1004 53 0 2.66 59 08:26 09.07.2020
275 Rain 16 1004 53 0 2.66 59 07:50 09.07.2020
276 Rain 16 1004 53 0 2.66 59 07:30 09.07.2020
277 Rain 15 1004 56 0 2.9 49 06:58 09.07.2020
278 Rain 15 1005 57 0 2.83 32 06:20 09.07.2020
279 Rain 15 1005 57 0 2.83 32 05:47 09.07.2020
280 Clouds 14 1005 61 0 1.28 330 04:28 09.07.2020
281 Clouds 13 1005 65 0 1.29 328 02:37 09.07.2020
282 Rain 11 1005 76 0 1.44 354 01:40 09.07.2020
283 Rain 11 1006 77 0 1.51 25 00:56 09.07.2020
284 Rain 11 1006 77 0 1.51 25 00:37 09.07.2020
285 Clouds 9 1005 80 0 1.9 33 00:18 09.07.2020
286 Clouds 9 1005 80 0 1.9 33 23:43 08.07.2020
287 Clouds 9 1005 81 0 1.68 19 23:24 08.07.2020
288 Clouds 9 1005 81 0 1.68 19 22:54 08.07.2020
289 Clouds 9 1005 81 0 1.68 19 22:36 08.07.2020
290 Clouds 9 1005 81 0 1.68 19 22:36 08.07.2020
291 Clouds 9 1006 80 0 1.34 354 22:18 08.07.2020
292 Clouds 9 1006 80 0 1.34 354 21:39 08.07.2020
293 Clouds 8 1006 81 0 1.03 20 21:21 08.07.2020
294 Clouds 8 1006 81 0 1.03 20 20:58 08.07.2020
295 Clouds 8 1006 81 0 1.03 20 20:39 08.07.2020
296 Clouds 8 1006 81 0 1.03 20 20:39 08.07.2020
297 Clouds 9 1006 81 0 0.7 17 20:21 08.07.2020
298 Clouds 9 1006 81 0 0.7 17 19:43 08.07.2020
299 Clouds 9 1006 80 0 0.32 35 19:25 08.07.2020
300 Clouds 9 1006 80 0 0.32 35 18:58 08.07.2020
301 Clouds 9 1006 80 0 0.32 35 18:40 08.07.2020
302 Clouds 9 1007 80 0 0.35 22 18:20 08.07.2020
303 Clouds 9 1007 80 0 0.35 22 17:56 08.07.2020
304 Clouds 9 1007 80 0 0.35 22 17:38 08.07.2020
305 Clouds 10 1006 78 0 0.44 73 17:19 08.07.2020
306 Clouds 10 1006 78 0 0.44 73 16:54 08.07.2020
307 Clouds 10 1006 78 0 0.44 73 16:36 08.07.2020
308 Clouds 11 1006 74 0 0.91 91 16:18 08.07.2020
309 Clouds 11 1006 74 0 0.91 91 15:41 08.07.2020
310 Clouds 11 1006 72 0 0.95 120 15:20 08.07.2020
311 Clouds 11 1006 72 0 0.95 120 14:59 08.07.2020
312 Clouds 11 1006 72 0 0.95 120 14:41 08.07.2020
313 Clouds 11 1006 72 0 0.91 147 14:19 08.07.2020
314 Clouds 11 1006 72 0 0.91 147 13:45 08.07.2020
315 Rain 12 1006 69 0 0.3 21 13:27 08.07.2020
316 Rain 12 1006 69 0 0.3 21 12:46 08.07.2020
317 Clouds 12 1006 69 0 1.48 336 12:22 08.07.2020
318 Clouds 12 1006 69 0 1.48 336 12:22 08.07.2020
319 Clouds 12 1006 69 0 1.48 336 11:59 08.07.2020
320 Clouds 12 1006 69 0 1.48 336 11:38 08.07.2020
321 Clouds 11 1006 70 0 2.04 328 11:20 08.07.2020
322 Clouds 11 1006 70 0 2.04 328 10:55 08.07.2020
323 Clouds 11 1006 70 0 2.04 328 10:36 08.07.2020
324 Rain 10 1006 76 0 1.78 338 10:18 08.07.2020
325 Rain 10 1006 76 0 1.78 338 09:41 08.07.2020
326 Rain 9 1006 81 0 1.99 216 09:21 08.07.2020
327 Rain 9 1006 81 0 1.99 216 08:43 08.07.2020
328 Rain 9 1006 80 0 3 212 08:24 08.07.2020
329 Rain 9 1006 80 0 3 212 07:47 08.07.2020
330 Rain 10 1006 78 0 2.82 263 07:24 08.07.2020
331 Rain 10 1006 78 0 2.82 263 06:55 08.07.2020
332 Rain 10 1006 78 0 2.82 263 06:35 08.07.2020
333 Rain 11 1006 76 0 4.03 265 05:55 08.07.2020
334 Rain 11 1006 79 0 3.49 231 05:24 08.07.2020
335 Rain 11 1006 79 0 3.49 231 04:36 08.07.2020
336 Rain 12 1005 79 0 4.8 240 02:48 08.07.2020
337 Rain 13 1006 75 0 1.56 174 01:52 08.07.2020
338 Rain 13 1006 75 0 1.56 174 01:32 08.07.2020
339 Rain 13 1005 69 0 0.78 190 00:28 08.07.2020
340 Rain 13 1005 69 0 0.78 190 23:59 07.07.2020
341 Rain 13 1005 69 0 0.78 190 23:40 07.07.2020
342 Rain 13 1005 61 0 1.01 43 23:19 07.07.2020
343 Rain 13 1005 61 0 1.01 43 22:43 07.07.2020
344 Clouds 14 1004 56 0 1.84 33 22:24 07.07.2020
345 Clouds 14 1004 56 0 1.84 33 21:59 07.07.2020
346 Clouds 14 1004 56 0 1.84 33 21:40 07.07.2020
347 Clouds 13 1005 56 0 2.39 34 21:21 07.07.2020
348 Clouds 13 1005 56 0 2.39 34 20:57 07.07.2020
349 Clouds 13 1005 56 0 2.39 34 20:39 07.07.2020
350 Clouds 13 1005 57 0 2.14 36 20:21 07.07.2020
351 Clouds 13 1005 57 0 2.14 36 19:41 07.07.2020
352 Clouds 13 1005 57 0 1.63 29 19:21 07.07.2020
353 Clouds 13 1005 57 0 1.63 29 18:58 07.07.2020
354 Clouds 13 1005 57 0 1.63 29 18:40 07.07.2020
355 Clouds 14 1005 55 0 1.55 31 18:21 07.07.2020
356 Clouds 14 1005 55 0 1.55 31 17:58 07.07.2020
357 Clouds 14 1005 55 0 1.55 31 17:39 07.07.2020
358 Clouds 14 1005 54 0 1.58 22 17:20 07.07.2020
359 Clouds 14 1005 54 0 1.58 22 16:58 07.07.2020
360 Clouds 14 1005 54 0 1.58 22 16:38 07.07.2020
361 Clouds 15 1005 52 0 1.67 0 16:20 07.07.2020
362 Clouds 15 1005 52 0 1.67 0 15:42 07.07.2020
363 Clear 17 1004 47 0 2.21 353 15:20 07.07.2020
364 Clear 17 1004 47 0 2.21 353 14:47 07.07.2020
365 Clouds 21 1003 37 0 4.08 334 14:27 07.07.2020
366 Clear 22 1003 34 0 3.2 271 13:59 07.07.2020
367 Clear 22 1003 34 0 3.2 271 13:38 07.07.2020
368 Clear 23 1003 30 0 5.4 264 13:18 07.07.2020
369 Clear 23 1003 30 0 5.4 264 12:40 07.07.2020
370 Clear 24 1002 29 0 5.44 272 12:22 07.07.2020
371 Clear 24 1002 29 0 5.44 272 11:50 07.07.2020
372 Clear 24 1002 30 0 6 271 11:26 07.07.2020
373 Clear 24 1002 30 0 6 271 10:59 07.07.2020
374 Clear 24 1002 30 0 6 271 10:41 07.07.2020
375 Clear 24 1002 30 0 7.2 254 10:22 07.07.2020
376 Clear 24 1002 30 0 7.2 254 09:59 07.07.2020
377 Clear 24 1002 30 0 7.2 254 09:38 07.07.2020
378 Clear 24 1003 29 0 7.32 246 09:20 07.07.2020
379 Clear 24 1002 29 0 7.72 246 08:42 07.07.2020
380 Clear 24 1003 30 0 7.81 243 08:23 07.07.2020
381 Clear 24 1003 30 0 7.81 243 07:45 07.07.2020
382 Clear 23 1003 31 0 8.31 236 07:23 07.07.2020
383 Clear 23 1003 31 0 8.31 236 06:49 07.07.2020
384 Clear 23 1003 31 0 8.31 236 06:30 07.07.2020
385 Clear 22 1004 33 0 8.17 233 05:53 07.07.2020
386 Clear 22 1004 34 0 6.87 233 05:22 07.07.2020
387 Clear 22 1004 34 0 6.87 233 04:40 07.07.2020
388 Clouds 21 1005 37 0 5.52 227 03:40 07.07.2020
389 Clouds 19 1005 41 0 3.36 188 02:27 07.07.2020
390 Clouds 16 1005 49 0 2.86 171 01:23 07.07.2020
391 Clouds 16 1005 49 0 2.86 171 00:43 07.07.2020
392 Clouds 15 1005 49 0 3.8 164 00:24 07.07.2020
393 Clouds 15 1005 49 0 3.8 164 23:59 06.07.2020
394 Clouds 15 1005 49 0 3.8 164 23:40 06.07.2020
395 Clouds 14 1005 48 0 3.67 150 23:22 06.07.2020
396 Clouds 14 1005 48 0 3.67 150 22:41 06.07.2020
397 Clouds 14 1005 48 0 3.67 150 22:41 06.07.2020
398 Clouds 14 1004 49 0 2.63 121 22:20 06.07.2020
399 Clouds 14 1004 49 0 2.63 121 21:58 06.07.2020
400 Clouds 14 1004 49 0 2.63 121 21:39 06.07.2020
401 Clouds 17 1004 38 0 2.31 128 21:19 06.07.2020
402 Clouds 17 1004 38 0 2.31 128 20:59 06.07.2020
403 Clouds 17 1004 38 0 2.31 128 20:39 06.07.2020
404 Clouds 18 1004 35 0 2.79 110 20:20 06.07.2020
405 Clouds 18 1004 35 0 2.79 110 19:57 06.07.2020
406 Clouds 18 1004 35 0 2.79 110 19:38 06.07.2020
407 Clouds 19 1004 34 0 4.38 117 19:20 06.07.2020
408 Clouds 19 1004 34 0 4.38 117 18:55 06.07.2020
409 Clouds 19 1004 34 0 4.38 117 18:36 06.07.2020
410 Clouds 17 1004 37 0 2.84 147 18:18 06.07.2020
411 Clouds 17 1004 37 0 2.84 147 17:41 06.07.2020
412 Clouds 17 1004 38 0 1.64 157 17:23 06.07.2020
413 Clouds 17 1004 38 0 1.64 157 16:55 06.07.2020
414 Clouds 17 1004 38 0 1.64 157 16:37 06.07.2020
415 Clouds 16 1003 41 0 0.97 206 16:18 06.07.2020
416 Clouds 16 1003 41 0 0.97 206 15:42 06.07.2020
417 Clouds 20 1002 37 0 2.01 242 15:24 06.07.2020
418 Clouds 20 1002 37 0 2.01 242 14:57 06.07.2020
419 Clouds 20 1002 37 0 2.01 242 14:37 06.07.2020
420 Clouds 23 1000 31 0 3.22 255 14:19 06.07.2020
421 Clouds 23 1000 31 0 3.22 255 13:46 06.07.2020
422 Clouds 25 1000 24 0 6.29 242 13:27 06.07.2020
423 Clouds 25 1000 24 0 6.29 242 12:57 06.07.2020
424 Clouds 25 1000 24 0 6.29 242 12:39 06.07.2020
425 Clouds 26 1000 22 0 7.71 243 12:18 06.07.2020
426 Clouds 26 1000 22 0 7.71 243 11:57 06.07.2020
427 Clouds 26 1000 22 0 7.71 243 11:37 06.07.2020
428 Clouds 27 1000 20 0 5.66 227 11:19 06.07.2020
429 Clouds 27 1000 20 0 5.66 227 10:42 06.07.2020
430 Clouds 27 1000 20 0 5.66 227 10:42 06.07.2020
431 Clouds 27 1000 21 0 6.16 225 10:21 06.07.2020
432 Clouds 27 1000 21 0 6.16 225 09:56 06.07.2020
433 Clouds 27 1000 21 0 6.16 225 09:38 06.07.2020
434 Clouds 27 999 23 0 6.95 229 09:20 06.07.2020
435 Clouds 27 999 23 0 6.95 229 08:41 06.07.2020
436 Clouds 26 1000 23 0 6.66 225 08:23 06.07.2020
437 Clouds 26 1000 23 0 6.66 225 07:54 06.07.2020
438 Clouds 26 1000 23 0 6.66 225 07:36 06.07.2020
439 Clouds 26 1001 24 0 6.88 207 06:57 06.07.2020
440 Clouds 26 1001 24 0 6.88 207 06:39 06.07.2020
441 Clouds 26 1001 26 0 5.67 200 06:19 06.07.2020
442 Clouds 24 1002 28 0 3.8 188 05:29 06.07.2020
443 Clouds 24 1002 28 0 3.8 188 04:48 06.07.2020
444 Clear 20 1003 38 0 2.17 122 02:58 06.07.2020
445 Clouds 18 1003 46 0 2.5 104 02:19 06.07.2020
446 Clouds 15 1003 52 0 2.5 100 00:59 06.07.2020
447 Clouds 15 1003 52 0 2.5 100 00:32 06.07.2020
448 Clouds 13 1002 54 0 2.53 91 23:59 05.07.2020
449 Clouds 13 1002 54 0 2.53 91 23:40 05.07.2020
450 Clouds 13 1002 54 0 2.59 96 23:22 05.07.2020
451 Clouds 13 1002 54 0 2.59 96 22:58 05.07.2020
452 Clouds 13 1002 54 0 2.59 96 22:38 05.07.2020
453 Clouds 14 1002 52 0 2.58 90 22:19 05.07.2020
454 Clouds 14 1002 52 0 2.58 90 21:56 05.07.2020
455 Clouds 14 1002 52 0 2.58 90 21:37 05.07.2020
456 Clouds 15 1002 49 0 2.56 88 21:18 05.07.2020
457 Clouds 15 1003 46 0 2.53 79 20:42 05.07.2020
458 Clouds 15 1003 43 0 2.6 80 20:24 05.07.2020
459 Clouds 15 1003 43 0 2.6 80 19:58 05.07.2020
460 Clouds 15 1003 43 0 2.6 80 19:40 05.07.2020
461 Clouds 15 1003 40 0 2.84 84 19:20 05.07.2020
462 Clouds 15 1003 40 0 2.84 84 18:55 05.07.2020
463 Clouds 15 1003 40 0 2.84 84 18:36 05.07.2020
464 Clouds 16 1002 37 0 3.08 73 18:18 05.07.2020
465 Clouds 16 1002 37 0 3.08 73 17:42 05.07.2020
466 Clouds 16 1002 37 0 3.08 73 17:42 05.07.2020
467 Clouds 16 1002 37 0 3.32 65 17:19 05.07.2020
468 Clouds 16 1002 37 0 3.32 65 16:45 05.07.2020
469 Clouds 17 1002 38 0 3.21 56 16:26 05.07.2020
470 Clouds 17 1002 38 0 3.21 56 15:59 05.07.2020
471 Clouds 17 1002 38 0 3.21 56 15:39 05.07.2020
472 Clouds 19 1001 37 0 4.52 44 15:19 05.07.2020
473 Clouds 19 1001 37 0 4.52 44 14:42 05.07.2020
474 Clouds 23 1000 31 0 4.29 32 14:23 05.07.2020
475 Clouds 23 1001 32 0 2.96 25 13:58 05.07.2020
476 Clouds 23 1001 32 0 2.96 25 13:40 05.07.2020
477 Clouds 24 1001 24 0 3.48 13 13:20 05.07.2020
478 Clouds 24 1001 24 0 3.48 13 12:42 05.07.2020
479 Clouds 25 1001 21 0 3.07 349 12:20 05.07.2020
480 Clouds 25 1001 21 0 3.07 349 11:55 05.07.2020
481 Clouds 25 1001 21 0 3.07 349 11:37 05.07.2020
482 Clouds 25 1001 20 0 2.51 329 11:18 05.07.2020
483 Clouds 25 1001 20 0 2.51 329 10:54 05.07.2020
484 Clouds 25 1001 20 0 2.51 329 10:36 05.07.2020
485 Clouds 25 1002 19 0 1.83 310 10:18 05.07.2020
486 Clouds 25 1002 19 0 1.83 310 09:41 05.07.2020
487 Clouds 25 1002 19 0 1.83 310 09:41 05.07.2020
488 Clouds 25 1002 20 0 1.92 292 09:20 05.07.2020
489 Clouds 25 1002 20 0 1.92 292 08:55 05.07.2020
490 Clouds 25 1002 20 0 1.92 292 08:37 05.07.2020
491 Clear 25 1003 21 0 1.65 294 07:56 05.07.2020
492 Clear 25 1003 21 0 1.65 294 07:30 05.07.2020
493 Clear 24 1003 22 0 0.93 312 06:55 05.07.2020
494 Clear 23 1004 24 0 0.73 9 06:29 05.07.2020
495 Clear 21 1005 31 0 0.72 35 03:57 05.07.2020
496 Clear 19 1006 35 0 1.26 77 02:59 05.07.2020
497 Clear 19 1006 35 0 1.26 77 02:36 05.07.2020
498 Clouds 17 1006 41 0 1.87 67 01:43 05.07.2020
499 Clouds 14 1006 48 0 2.18 67 01:22 05.07.2020
500 Clouds 14 1006 48 0 2.18 67 00:45 05.07.2020
501 Clouds 12 1006 52 0 1.73 69 00:26 05.07.2020
502 Clouds 12 1006 52 0 1.73 69 23:54 04.07.2020
503 Clouds 12 1006 52 0 1.73 69 23:31 04.07.2020
504 Clouds 11 1006 58 0 0.74 109 22:59 04.07.2020
505 Clouds 11 1006 58 0 0.74 109 22:40 04.07.2020
506 Clouds 11 1007 55 0 0.62 106 22:22 04.07.2020
507 Clouds 11 1007 55 0 0.62 106 21:58 04.07.2020
508 Clouds 11 1007 55 0 0.62 106 21:39 04.07.2020
509 Clouds 12 1007 54 0 1.32 72 21:20 04.07.2020
510 Clouds 12 1007 54 0 1.32 72 20:42 04.07.2020
511 Clear 13 1007 51 0 1.65 71 20:21 04.07.2020
512 Clear 13 1007 51 0 1.65 71 19:56 04.07.2020
513 Clear 13 1007 51 0 1.65 71 19:37 04.07.2020
514 Clear 14 1007 49 0 2.24 63 19:19 04.07.2020
515 Clear 14 1007 49 0 2.24 63 18:43 04.07.2020
516 Clear 14 1007 48 0 2.22 67 18:22 04.07.2020
517 Clear 14 1007 48 0 2.22 67 17:45 04.07.2020
518 Clear 15 1007 47 0 2.49 62 17:26 04.07.2020
519 Clear 15 1007 47 0 2.49 62 17:26 04.07.2020
520 Clear 15 1007 47 0 2.49 62 16:59 04.07.2020
521 Clear 15 1007 47 0 2.49 62 16:39 04.07.2020
522 Clear 16 1006 44 0 3.43 58 16:21 04.07.2020
523 Clear 16 1006 44 0 3.43 58 15:57 04.07.2020
524 Clear 16 1006 44 0 3.43 58 15:38 04.07.2020
525 Clear 18 1005 40 0 3.43 32 15:20 04.07.2020
526 Clear 18 1005 40 0 3.43 32 14:55 04.07.2020
527 Clear 18 1005 40 0 3.43 32 14:55 04.07.2020
528 Clear 18 1005 40 0 3.43 32 14:55 04.07.2020
529 Clear 18 1005 40 0 3.43 32 14:36 04.07.2020
530 Clouds 22 1004 33 0 3.47 7 14:18 04.07.2020
531 Clouds 22 1004 33 0 3.47 7 13:41 04.07.2020
532 Clouds 23 1004 25 0 4.48 343 13:19 04.07.2020
533 Clouds 23 1004 25 0 4.48 343 12:43 04.07.2020
534 Clouds 23 1004 25 0 4.48 343 12:43 04.07.2020
535 Clouds 24 1004 23 0 5.35 328 12:24 04.07.2020
536 Clouds 24 1004 23 0 5.35 328 11:59 04.07.2020
537 Clouds 24 1004 23 0 5.35 328 11:40 04.07.2020
538 Clouds 25 1004 21 0 6.25 320 11:22 04.07.2020
539 Clouds 25 1004 21 0 6.25 320 10:55 04.07.2020
540 Clouds 25 1004 21 0 6.25 320 10:36 04.07.2020
541 Clear 25 1005 20 0 5.66 310 10:18 04.07.2020
542 Clear 25 1005 20 0 5.66 310 09:40 04.07.2020
543 Clouds 25 1005 21 0 5.06 309 09:20 04.07.2020
544 Clouds 25 1005 21 0 5.06 309 08:50 04.07.2020
545 Clouds 25 1005 21 0 5.06 309 08:32 04.07.2020
546 Clear 24 1005 22 0 3.86 294 07:56 04.07.2020
547 Clear 24 1005 22 0 3.86 294 07:38 04.07.2020
548 Clear 23 1006 25 0 2.86 284 06:57 04.07.2020
549 Clear 22 1007 28 0 2.5 281 06:23 04.07.2020
550 Clear 22 1007 28 0 2.5 281 05:41 04.07.2020
551 Clear 21 1007 32 0 2.14 278 05:19 04.07.2020
552 Clear 19 1008 36 0 1.36 269 03:47 04.07.2020
553 Clear 18 1008 41 0 0.31 87 02:39 04.07.2020
554 Clear 16 1009 47 0 1.3 87 01:38 04.07.2020
555 Clear 13 1009 58 0 1.52 96 00:47 04.07.2020
556 Clouds 10 1009 63 0 1.34 101 00:29 04.07.2020
557 Clouds 10 1009 63 0 1.34 101 23:54 03.07.2020
558 Clouds 10 1009 63 0 1.34 101 23:36 03.07.2020
559 Clouds 10 1009 63 0 1.34 101 23:36 03.07.2020
560 Clouds 10 1008 65 0 1.5 107 23:18 03.07.2020
561 Clouds 10 1008 65 0 1.5 107 22:41 03.07.2020
562 Clouds 11 1008 63 0 1.57 104 22:23 03.07.2020
563 Clouds 11 1008 63 0 1.57 104 21:56 03.07.2020
564 Clouds 11 1008 63 0 1.57 104 21:37 03.07.2020
565 Clouds 11 1009 66 0 1.6 98 21:18 03.07.2020
566 Clouds 11 1009 66 0 1.6 98 21:18 03.07.2020
567 Clouds 11 1009 66 0 1.6 98 20:42 03.07.2020
568 Clouds 11 1009 66 0 1.73 91 20:24 03.07.2020
569 Clouds 11 1009 66 0 1.73 91 19:42 03.07.2020
570 Clouds 12 1009 66 0 1.99 99 19:22 03.07.2020
571 Clouds 12 1009 66 0 1.99 99 18:58 03.07.2020
572 Clouds 12 1009 66 0 1.99 99 18:40 03.07.2020
573 Clouds 12 1009 66 0 1.96 93 18:22 03.07.2020
574 Clouds 12 1009 66 0 1.96 93 17:45 03.07.2020
575 Clouds 13 1009 65 0 2.05 91 17:23 03.07.2020
576 Clouds 13 1009 65 0 2.05 91 16:58 03.07.2020
577 Clouds 13 1009 65 0 2.05 91 16:39 03.07.2020
578 Clouds 14 1009 62 0 2.45 96 16:19 03.07.2020
579 Clouds 14 1009 62 0 2.45 96 15:39 03.07.2020
580 Clouds 16 1008 59 0 2.51 90 15:20 03.07.2020
581 Clouds 16 1008 59 0 2.51 90 14:55 03.07.2020
582 Clouds 18 1007 43 0 2.1 31 14:36 03.07.2020
583 Clouds 18 1007 43 0 2.1 31 14:36 03.07.2020
584 Clouds 21 1007 34 0 2.86 334 14:18 03.07.2020
585 Clouds 21 1007 34 0 2.86 334 13:41 03.07.2020
586 Clouds 23 1007 27 0 4.05 309 13:22 03.07.2020
587 Clouds 23 1007 27 0 4.05 309 12:43 03.07.2020
588 Clouds 23 1007 28 0 2.82 323 12:22 03.07.2020
589 Clouds 23 1007 28 0 2.82 323 11:54 03.07.2020
590 Clouds 23 1007 28 0 2.82 323 11:36 03.07.2020
591 Clouds 22 1006 29 0 2.51 334 11:18 03.07.2020
592 Clouds 22 1006 29 0 2.51 334 10:42 03.07.2020
593 Clouds 23 1006 29 0 3.1 329 10:21 03.07.2020
594 Clouds 23 1006 29 0 3.1 329 09:59 03.07.2020
595 Clouds 23 1006 29 0 3.1 329 09:39 03.07.2020
596 Clouds 22 1006 29 0 3.99 294 09:20 03.07.2020
597 Clouds 23 1006 28 0 3.78 289 08:56 03.07.2020
598 Clouds 23 1006 28 0 3.78 289 08:37 03.07.2020
599 Clouds 22 1007 30 0 4.1 275 08:18 03.07.2020
600 Clouds 22 1007 30 0 4.1 275 07:43 03.07.2020
601 Clouds 22 1007 28 0 3.97 275 07:21 03.07.2020
602 Clouds 22 1007 28 0 3.97 275 06:30 03.07.2020
603 Clouds 22 1008 25 0 2.77 267 05:42 03.07.2020
604 Clouds 20 1008 30 0 1.36 227 03:59 03.07.2020
605 Clouds 19 1008 35 0 0.86 156 02:55 03.07.2020
606 Clouds 19 1009 34 0 1.32 142 02:31 03.07.2020
607 Clouds 17 1009 39 0 1.51 111 01:41 03.07.2020
608 Clouds 15 1009 49 0 1.23 98 01:20 03.07.2020
609 Clouds 15 1009 49 0 1.23 98 00:41 03.07.2020
610 Clouds 12 1008 51 0 1.18 84 23:56 02.07.2020
611 Clouds 12 1008 51 0 1.18 84 23:37 02.07.2020
612 Clouds 12 1008 51 0 1.27 84 23:18 02.07.2020
613 Clouds 12 1008 51 0 1.27 84 22:54 02.07.2020
614 Clouds 12 1008 51 0 1.27 84 22:36 02.07.2020
615 Clouds 12 1008 52 0 1.56 83 22:18 02.07.2020
616 Clouds 12 1008 52 0 1.56 83 21:42 02.07.2020
617 Clouds 12 1007 57 0 1.74 76 21:20 02.07.2020
618 Clouds 12 1007 57 0 1.74 76 20:58 02.07.2020
619 Clouds 12 1007 57 0 1.74 76 20:40 02.07.2020
620 Clouds 13 1007 59 0 1.92 69 20:20 02.07.2020
621 Clouds 13 1007 59 0 1.92 69 19:43 02.07.2020
622 Clouds 13 1008 61 0 2.03 66 19:24 02.07.2020
623 Clouds 13 1008 61 0 2.03 66 18:59 02.07.2020
624 Clouds 13 1008 61 0 2.03 66 18:40 02.07.2020
625 Clouds 13 1008 62 0 2.19 57 18:22 02.07.2020
626 Clouds 13 1008 62 0 2.19 57 17:57 02.07.2020
627 Clouds 13 1008 62 0 2.19 57 17:38 02.07.2020
628 Clouds 14 1007 60 0 2.31 54 17:18 02.07.2020
629 Clouds 14 1007 60 0 2.31 54 16:43 02.07.2020
630 Clouds 15 1006 57 0 2.71 44 16:21 02.07.2020
631 Clouds 15 1006 57 0 2.71 44 15:59 02.07.2020
632 Clouds 15 1006 57 0 2.71 44 15:38 02.07.2020
633 Clouds 17 1005 48 0 2.61 15 15:20 02.07.2020
634 Clouds 17 1005 48 0 2.61 15 14:45 02.07.2020
635 Clouds 21 1005 32 0 2.72 319 14:23 02.07.2020
636 Clouds 20 1005 41 0 4.21 24 13:57 02.07.2020
637 Clouds 20 1005 41 0 4.21 24 13:39 02.07.2020
638 Clouds 22 1005 31 0 3.13 32 13:19 02.07.2020
639 Clouds 22 1005 31 0 3.13 32 12:56 02.07.2020
640 Clouds 22 1005 31 0 3.13 32 12:38 02.07.2020
641 Clouds 23 1005 25 0 1.21 33 12:19 02.07.2020
642 Clouds 23 1005 25 0 1.21 33 11:41 02.07.2020
643 Clouds 23 1005 23 0 0.17 12 11:23 02.07.2020
644 Clouds 23 1005 23 0 0.17 12 10:45 02.07.2020
645 Clouds 24 1005 22 0 3.48 204 10:27 02.07.2020
646 Clouds 24 1005 22 0 3.48 204 09:56 02.07.2020
647 Clouds 24 1005 22 0 3.48 204 09:37 02.07.2020
648 Clouds 24 1005 24 0 3.02 210 09:19 02.07.2020
649 Clouds 23 1005 26 0 1.78 246 08:42 02.07.2020
650 Clouds 22 1005 29 0 1.77 245 08:22 02.07.2020
651 Clouds 22 1005 29 0 1.77 245 07:45 02.07.2020
652 Clouds 22 1006 28 0 1.75 205 07:27 02.07.2020
653 Clouds 22 1006 28 0 1.75 205 06:58 02.07.2020
654 Clouds 22 1006 28 0 1.75 205 06:39 02.07.2020
655 Clouds 22 1007 29 0 1.52 210 06:19 02.07.2020
656 Clouds 22 1007 29 0 1.52 210 05:42 02.07.2020
657 Clouds 20 1008 36 0 1.25 183 03:35 02.07.2020
658 Clouds 18 1008 41 0 0.94 128 02:38 02.07.2020
659 Clear 13 1009 55 0 1.88 83 00:46 02.07.2020
660 Clear 11 1009 54 0 2.09 89 00:22 02.07.2020
661 Clear 11 1009 54 0 2.09 89 23:45 01.07.2020
662 Clear 11 1009 49 0 2.36 95 23:27 01.07.2020
663 Clear 11 1009 49 0 2.36 95 22:56 01.07.2020
664 Clear 11 1009 49 0 2.36 95 22:38 01.07.2020
665 Clear 12 1009 46 0 2.32 98 22:19 01.07.2020
666 Clear 12 1009 46 0 2.32 98 21:58 01.07.2020
667 Clear 12 1009 46 0 2.32 98 21:40 01.07.2020
668 Clear 12 1009 46 0 1.9 102 21:21 01.07.2020
669 Clear 12 1009 53 0 1.86 88 20:54 01.07.2020
670 Clear 12 1009 53 0 1.86 88 20:36 01.07.2020
671 Clouds 12 1009 59 0 1.59 81 20:18 01.07.2020
672 Clouds 12 1009 59 0 1.59 81 19:42 01.07.2020
673 Clouds 12 1008 59 0 2.03 56 19:23 01.07.2020
674 Clouds 12 1008 59 0 2.03 56 18:58 01.07.2020
675 Clouds 12 1008 59 0 2.03 56 18:40 01.07.2020
676 Clouds 13 1008 54 0 2.24 48 18:21 01.07.2020
677 Clouds 13 1008 54 0 2.24 48 17:55 01.07.2020
678 Clouds 13 1008 54 0 2.24 48 17:37 01.07.2020
679 Clouds 13 1008 45 0 1.37 41 17:18 01.07.2020
680 Clouds 13 1008 45 0 1.37 41 16:42 01.07.2020
681 Clouds 14 1007 40 0 0.26 355 16:24 01.07.2020
682 Clouds 14 1007 40 0 0.26 355 15:43 01.07.2020
683 Clouds 17 1007 42 0 0.56 267 15:25 01.07.2020
684 Clouds 17 1007 42 0 0.56 267 14:58 01.07.2020
685 Clouds 17 1007 42 0 0.56 267 14:39 01.07.2020
686 Clouds 21 1007 32 0 1.53 211 14:20 01.07.2020
687 Clouds 21 1007 32 0 1.53 211 13:55 01.07.2020
688 Clouds 21 1007 32 0 1.53 211 13:36 01.07.2020
689 Clouds 22 1006 24 0 3.61 214 13:18 01.07.2020
690 Clouds 22 1006 24 0 3.61 214 12:41 01.07.2020
691 Clouds 22 1006 23 0 4.53 214 12:23 01.07.2020
692 Clouds 22 1006 23 0 4.53 214 12:23 01.07.2020
693 Clouds 22 1006 23 0 4.53 214 12:23 01.07.2020
694 Clouds 22 1006 23 0 4.53 214 11:58 01.07.2020
695 Clouds 22 1006 23 0 4.53 214 11:40 01.07.2020
696 Clouds 22 1006 26 0 3.91 203 11:21 01.07.2020
697 Clouds 22 1006 26 0 3.91 203 10:55 01.07.2020
698 Clouds 22 1006 26 0 3.91 203 10:55 01.07.2020
699 Clouds 22 1006 26 0 3.91 203 10:36 01.07.2020
700 Clouds 21 1006 30 0 2.98 192 10:18 01.07.2020
701 Clouds 21 1006 30 0 2.98 192 09:38 01.07.2020
702 Clouds 21 1006 34 0 2.29 193 09:20 01.07.2020
703 Clouds 21 1006 34 0 2.29 193 09:20 01.07.2020
704 Clouds 20 1006 35 0 1.92 207 08:57 01.07.2020
705 Clouds 20 1006 35 0 1.92 207 08:39 01.07.2020
706 Clouds 20 1006 38 0 2.65 203 08:19 01.07.2020
707 Clouds 20 1006 38 0 2.65 203 07:41 01.07.2020
708 Clouds 20 1007 40 0 3.42 200 07:22 01.07.2020
709 Clouds 20 1007 40 0 3.42 200 06:54 01.07.2020
710 Clouds 20 1007 40 0 3.42 200 06:32 01.07.2020
711 Clouds 20 1008 39 0 3.58 182 05:44 01.07.2020
712 Clouds 19 1008 42 0 3.9 169 04:26 01.07.2020
713 Clouds 19 1008 42 0 3.9 169 03:40 01.07.2020
714 Clouds 18 1009 47 0 3.28 154 03:20 01.07.2020
715 Clouds 16 1009 57 0 1.88 113 01:56 01.07.2020
716 Rain 14 1009 67 0 2.03 110 00:48 01.07.2020
717 Clouds 12 1009 70 0 2.01 116 00:27 01.07.2020
718 Clouds 12 1009 70 0 2.01 116 23:57 30.06.2020
719 Clouds 12 1009 70 0 2.01 116 23:39 30.06.2020
720 Clouds 12 1009 68 0 1.91 113 23:19 30.06.2020
721 Clouds 12 1009 68 0 1.91 113 22:42 30.06.2020
722 Clouds 13 1009 67 0 1.72 108 22:19 30.06.2020
723 Clouds 13 1009 67 0 1.72 108 21:41 30.06.2020
724 Clouds 12 1009 70 0 1.91 113 21:19 30.06.2020
725 Clouds 12 1009 70 0 1.91 113 20:57 30.06.2020
726 Clouds 12 1009 70 0 1.91 113 20:39 30.06.2020
727 Clouds 13 1009 71 0 1.71 106 20:20 30.06.2020
728 Clouds 13 1009 71 0 1.71 106 19:43 30.06.2020
729 Clouds 13 1009 72 0 2.02 103 19:20 30.06.2020
730 Clouds 13 1009 72 0 2.02 103 18:54 30.06.2020
731 Clouds 13 1009 72 0 2.02 103 18:36 30.06.2020
732 Clouds 14 1009 72 0 2.31 82 18:18 30.06.2020
733 Clouds 14 1009 72 0 2.31 82 17:38 30.06.2020
734 Clouds 14 1010 73 0 2.11 63 17:19 30.06.2020
735 Clouds 14 1010 73 0 2.11 63 16:55 30.06.2020
736 Clouds 14 1010 73 0 2.11 63 16:36 30.06.2020
737 Clouds 14 1010 75 0 2.66 84 16:18 30.06.2020
738 Clouds 14 1010 75 0 2.66 84 15:41 30.06.2020
739 Rain 14 1009 75 0 2.72 60 15:22 30.06.2020
740 Rain 14 1009 75 0 2.72 60 14:58 30.06.2020
741 Rain 14 1009 75 0 2.72 60 14:39 30.06.2020
742 Rain 14 1009 82 0 3.18 14 14:18 30.06.2020
743 Rain 14 1009 82 0 3.18 14 14:18 30.06.2020
744 Rain 18 1009 54 0 2.43 42 13:41 30.06.2020
745 Rain 19 1008 48 0 3.65 200 13:21 30.06.2020
746 Rain 19 1008 48 0 3.65 200 12:59 30.06.2020
747 Rain 19 1008 48 0 3.65 200 12:40 30.06.2020
748 Clouds 21 1008 40 0 3.22 227 12:21 30.06.2020
749 Clouds 21 1008 40 0 3.22 227 12:21 30.06.2020
750 Clouds 21 1008 40 0 3.22 227 12:21 30.06.2020
751 Clouds 21 1008 40 0 3.22 227 11:58 30.06.2020
752 Clouds 21 1008 40 0 3.22 227 11:39 30.06.2020
753 Clouds 21 1008 40 0 3.22 227 11:39 30.06.2020
754 Clouds 20 1007 41 0 4.83 244 11:19 30.06.2020
755 Clouds 20 1007 41 0 4.83 244 10:58 30.06.2020
756 Clouds 20 1007 41 0 4.83 244 10:58 30.06.2020
757 Clear 15 1007 45 0 2.49 58 16:40 28.06.2020
758 Clouds 16 1006 44 0 2.49 59 16:22 28.06.2020
759 Clouds 16 1006 44 0 2.49 59 15:56 28.06.2020
760 Clouds 16 1006 44 0 2.49 59 15:38 28.06.2020
761 Clouds 16 1006 44 0 2.49 59 15:38 28.06.2020
762 Clouds 19 1005 42 0 3.22 50 15:18 28.06.2020
763 Clouds 19 1005 42 0 3.22 50 14:46 28.06.2020
764 Clouds 21 1004 35 0 3.84 35 14:27 28.06.2020
765 Clouds 22 1005 35 0 2.44 40 13:58 28.06.2020
766 Clouds 22 1005 35 0 2.44 40 13:37 28.06.2020
767 Clouds 22 1005 35 0 2.44 40 13:37 28.06.2020
768 Clouds 23 1004 29 0 3.2 23 13:19 28.06.2020
769 Clouds 23 1004 29 0 3.2 23 12:56 28.06.2020
770 Clouds 23 1004 29 0 3.2 23 12:37 28.06.2020
771 Clouds 23 1005 28 0 3.57 4 12:18 28.06.2020
772 Clouds 23 1005 28 0 3.57 4 11:55 28.06.2020
773 Clouds 23 1005 28 0 3.57 4 11:37 28.06.2020
774 Clouds 24 1004 26 0 3.28 351 11:19 28.06.2020
775 Clouds 24 1004 26 0 3.28 351 10:42 28.06.2020
776 Clouds 24 1004 25 0 3.49 325 10:23 28.06.2020
777 Clouds 24 1004 25 0 3.49 325 09:59 28.06.2020
778 Clouds 24 1004 25 0 3.49 325 09:39 28.06.2020
779 Clouds 24 1004 24 0 3.74 318 09:20 28.06.2020
780 Clouds 24 1004 22 0 2.43 318 08:44 28.06.2020
781 Clear 24 1004 22 0 1.85 297 08:24 28.06.2020
782 Clear 24 1004 22 0 1.85 297 07:45 28.06.2020
783 Clear 23 1005 24 0 1.77 303 07:27 28.06.2020
784 Clear 23 1005 24 0 1.77 303 06:34 28.06.2020
785 Clear 22 1005 27 0 1.64 308 05:55 28.06.2020
786 Clear 21 1005 32 0 1.24 293 05:25 28.06.2020
787 Clear 17 1007 44 0 0.73 86 03:23 28.06.2020
788 Clear 15 1007 51 0 1.39 89 02:28 28.06.2020
789 Clear 15 1007 51 0 1.39 89 01:46 28.06.2020
790 Clear 12 1007 62 0 1.68 89 01:22 28.06.2020
791 Clear 12 1007 62 0 1.68 89 00:42 28.06.2020
792 Clear 10 1007 69 0 1.77 95 00:21 28.06.2020
793 Clear 10 1007 69 0 1.77 95 23:40 27.06.2020
794 Clear 10 1007 70 0 1.96 98 23:21 27.06.2020
795 Clear 10 1007 70 0 1.96 98 22:54 27.06.2020
796 Clear 10 1007 70 0 1.96 98 22:36 27.06.2020
797 Clear 10 1006 68 0 2.14 99 22:18 27.06.2020
798 Clear 10 1006 68 0 2.14 99 21:42 27.06.2020
799 Clear 11 1006 67 0 2.04 95 21:20 27.06.2020
800 Clouds 11 1007 69 0 1.69 101 20:56 27.06.2020
801 Clouds 11 1007 69 0 1.69 101 20:37 27.06.2020
802 Clouds 12 1007 66 0 1.93 98 20:18 27.06.2020
803 Clouds 12 1007 66 0 1.93 98 19:38 27.06.2020
804 Clouds 12 1007 63 0 1.79 95 19:19 27.06.2020
805 Clouds 12 1007 63 0 1.79 95 18:59 27.06.2020
806 Clouds 12 1007 63 0 1.79 95 18:40 27.06.2020
807 Clouds 13 1007 63 0 1.32 116 18:20 27.06.2020
808 Clouds 13 1007 63 0 1.32 116 17:41 27.06.2020
809 Clouds 13 1006 59 0 1.94 124 17:21 27.06.2020
810 Clouds 13 1006 59 0 1.94 124 16:59 27.06.2020
811 Clouds 13 1006 59 0 1.94 124 16:39 27.06.2020
812 Clouds 14 1005 56 0 2.3 120 16:20 27.06.2020
813 Clouds 14 1005 56 0 2.3 120 15:45 27.06.2020
814 Clouds 17 1004 47 0 3.14 154 15:24 27.06.2020
815 Clouds 17 1004 47 0 3.14 154 15:24 27.06.2020
816 Clouds 17 1004 47 0 3.14 154 14:59 27.06.2020
817 Clouds 17 1004 47 0 3.14 154 14:39 27.06.2020
818 Clouds 21 1004 35 0 2.89 182 14:20 27.06.2020
819 Clouds 21 1003 32 0 1.36 254 13:54 27.06.2020
820 Clouds 21 1003 32 0 1.36 254 13:36 27.06.2020
821 Clouds 22 1003 23 0 2.13 252 13:18 27.06.2020
822 Clouds 22 1003 23 0 2.13 252 12:41 27.06.2020
823 Clouds 22 1004 22 0 2.61 250 12:22 27.06.2020
824 Clouds 22 1004 22 0 2.61 250 11:59 27.06.2020
825 Clouds 22 1004 22 0 2.61 250 11:59 27.06.2020
826 Clouds 22 1004 22 0 2.61 250 11:40 27.06.2020
827 Clouds 22 1004 22 0 2.9 246 11:21 27.06.2020
828 Clouds 22 1004 22 0 2.9 246 10:41 27.06.2020
829 Clouds 22 1003 23 0 3.22 249 10:19 27.06.2020
830 Clouds 22 1003 23 0 3.22 249 09:59 27.06.2020
831 Clouds 22 1003 23 0 3.22 249 09:39 27.06.2020
832 Clouds 22 1003 23 0 3.82 244 09:20 27.06.2020
833 Clouds 22 1003 23 0 3.82 244 08:44 27.06.2020
834 Clouds 22 1004 25 0 4.64 243 08:23 27.06.2020
835 Clouds 22 1004 25 0 4.64 243 07:48 27.06.2020
836 Clouds 21 1005 26 0 4.75 243 07:26 27.06.2020
837 Clouds 21 1005 26 0 4.75 243 06:52 27.06.2020
838 Clouds 21 1005 26 0 4.75 243 06:33 27.06.2020
839 Clouds 19 1006 33 0 3.25 224 04:51 27.06.2020
840 Clouds 18 1007 39 0 2.75 201 04:18 27.06.2020
841 Clouds 18 1007 39 0 2.75 201 03:46 27.06.2020
842 Clouds 16 1007 46 0 1.63 163 02:42 27.06.2020
843 Clouds 14 1007 54 0 1.45 124 02:23 27.06.2020
844 Clouds 12 1008 64 0 1.19 150 01:28 27.06.2020
845 Clouds 12 1008 64 0 1.19 150 00:47 27.06.2020
846 Clouds 9 1007 71 0 1.21 168 23:47 26.06.2020
847 Clouds 9 1008 71 0 1.37 179 23:27 26.06.2020
848 Clouds 9 1008 71 0 1.37 179 22:58 26.06.2020
849 Clouds 9 1008 71 0 1.37 179 22:39 26.06.2020
850 Clouds 10 1007 69 0 1.71 153 22:21 26.06.2020
851 Clouds 10 1007 69 0 1.71 153 21:58 26.06.2020
852 Clouds 10 1007 69 0 1.71 153 21:39 26.06.2020
853 Clouds 10 1006 71 0 1.72 145 21:20 26.06.2020
854 Clouds 10 1006 71 0 1.72 145 20:47 26.06.2020
855 Clouds 11 1006 72 0 1.85 147 20:27 26.06.2020
856 Clouds 11 1006 72 0 1.85 147 19:55 26.06.2020
857 Clouds 11 1006 72 0 1.85 147 19:37 26.06.2020
858 Clouds 11 1007 70 0 2.27 162 19:18 26.06.2020
859 Clouds 11 1007 70 0 2.27 162 18:40 26.06.2020
860 Clouds 12 1007 64 0 2.43 185 18:21 26.06.2020
861 Clouds 12 1007 64 0 2.43 185 17:44 26.06.2020
862 Clouds 14 1006 55 0 2.76 166 17:26 26.06.2020
863 Clouds 14 1006 55 0 2.76 166 16:55 26.06.2020
864 Clouds 14 1006 55 0 2.76 166 16:36 26.06.2020
865 Clouds 14 1005 57 0 2.12 128 16:18 26.06.2020
866 Clouds 14 1005 57 0 2.12 128 15:41 26.06.2020
867 Clouds 15 1005 56 0 2.86 108 15:21 26.06.2020
868 Clouds 15 1005 56 0 2.86 108 14:57 26.06.2020
869 Clouds 15 1005 56 0 2.86 108 14:38 26.06.2020
870 Clouds 19 1004 43 0 2.02 138 14:20 26.06.2020
871 Clouds 19 1004 43 0 2.02 138 13:44 26.06.2020
872 Clouds 20 1004 33 0 1 203 13:23 26.06.2020
873 Clouds 20 1004 33 0 1 203 13:23 26.06.2020
874 Clouds 20 1004 33 0 1 203 12:56 26.06.2020
875 Clouds 20 1004 33 0 1 203 12:38 26.06.2020
876 Clouds 20 1004 36 0 0.42 203 12:19 26.06.2020
877 Clouds 20 1004 36 0 0.42 203 11:56 26.06.2020
878 Clouds 20 1004 36 0 0.42 203 11:38 26.06.2020
879 Rain 19 1004 44 0 0.33 63 11:19 26.06.2020
880 Rain 19 1004 44 0 0.33 63 10:56 26.06.2020
881 Rain 19 1004 44 0 0.33 63 10:37 26.06.2020
882 Rain 19 1004 44 0 0.33 63 10:37 26.06.2020
883 Rain 17 1004 53 0 0.84 89 10:18 26.06.2020
884 Rain 17 1004 53 0 0.84 89 09:41 26.06.2020
885 Rain 14 1003 67 0 1.34 61 09:20 26.06.2020
886 Rain 14 1003 67 0 1.34 61 08:46 26.06.2020
887 Rain 15 1003 61 0 2.88 9 08:27 26.06.2020
888 Rain 15 1003 61 0 2.88 9 07:48 26.06.2020
889 Rain 16 1004 56 0 3.37 302 07:23 26.06.2020
890 Rain 15 1004 53 0 1.72 333 06:52 26.06.2020
891 Rain 16 1004 56 0 3.37 302 06:30 26.06.2020
892 Clouds 17 1005 50 0 4.29 283 05:53 26.06.2020
893 Clouds 18 1005 39 0 2.68 280 05:21 26.06.2020
894 Clouds 17 1006 39 0 0.66 185 02:32 26.06.2020
895 Rain 16 1006 43 0 1.47 138 01:35 26.06.2020
896 Rain 15 1006 46 0 1.93 105 00:50 26.06.2020
897 Rain 15 1006 46 0 1.93 105 00:30 26.06.2020
898 Clouds 13 1006 45 0 2.24 94 23:47 25.06.2020
899 Clouds 12 1006 46 0 2.2 90 23:22 25.06.2020
900 Clouds 12 1006 46 0 2.2 90 22:58 25.06.2020
901 Clouds 12 1006 46 0 2.2 90 22:39 25.06.2020
902 Clear 12 1006 47 0 2.16 93 22:20 25.06.2020
903 Clear 12 1006 47 0 2.16 93 21:57 25.06.2020
904 Clear 12 1006 47 0 2.16 93 21:39 25.06.2020
905 Clear 12 1005 47 0 1.94 92 21:20 25.06.2020
906 Clouds 12 1006 46 0 2.07 89 20:57 25.06.2020
907 Clouds 12 1006 46 0 2.07 89 20:37 25.06.2020
908 Clouds 13 1006 45 0 2.33 87 20:19 25.06.2020
909 Clouds 13 1006 45 0 2.33 87 19:41 25.06.2020
910 Clouds 13 1006 44 0 2.37 88 19:20 25.06.2020
911 Clouds 13 1006 44 0 2.37 88 18:59 25.06.2020
912 Clouds 13 1006 44 0 2.37 88 18:39 25.06.2020
913 Clouds 14 1006 41 0 2.49 80 18:20 25.06.2020
914 Clouds 14 1006 41 0 2.49 80 17:44 25.06.2020
915 Clouds 14 1006 40 0 2 79 17:20 25.06.2020
916 Clouds 14 1006 40 0 2 79 17:20 25.06.2020
917 Clouds 14 1006 40 0 2 79 16:58 25.06.2020
918 Clouds 14 1006 40 0 2 79 16:37 25.06.2020
919 Clouds 15 1005 37 0 1.51 68 16:19 25.06.2020
920 Clouds 15 1005 37 0 1.51 68 15:43 25.06.2020
921 Clouds 18 1004 36 0 1 27 15:24 25.06.2020
922 Clouds 18 1004 36 0 1 27 14:54 25.06.2020
923 Clouds 18 1004 38 0 1.7 41 14:36 25.06.2020
924 Clouds 22 1003 28 0 1.23 323 14:18 25.06.2020
925 Clouds 22 1003 29 0 0.73 352 13:42 25.06.2020
926 Clouds 23 1003 23 0 1.61 305 13:20 25.06.2020
927 Clouds 23 1003 23 0 1.61 305 12:58 25.06.2020
928 Clouds 23 1003 23 0 1.61 305 12:40 25.06.2020
929 Clouds 23 1003 23 0 2.32 307 12:19 25.06.2020
930 Clouds 23 1003 23 0 2.32 307 11:42 25.06.2020
931 Clouds 23 1002 22 0 2.8 305 11:22 25.06.2020
932 Clouds 23 1002 22 0 2.8 305 10:44 25.06.2020
933 Clouds 23 1002 21 0 2.62 297 10:26 25.06.2020
934 Clouds 23 1002 21 0 2.62 297 09:58 25.06.2020
935 Clouds 23 1002 21 0 2.62 297 09:40 25.06.2020
936 Clouds 23 1003 21 0 1.68 287 09:18 25.06.2020
937 Clouds 23 1003 21 0 1.68 287 08:43 25.06.2020
938 Clear 22 1004 22 0 1.92 290 08:19 25.06.2020
939 Clear 22 1004 22 0 1.92 290 07:44 25.06.2020
940 Clear 22 1005 23 0 2.06 293 07:26 25.06.2020
941 Clear 22 1005 23 0 2.06 293 06:46 25.06.2020
942 Clear 21 1005 24 0 1.87 289 06:26 25.06.2020
943 Clear 21 1005 24 0 1.87 289 05:40 25.06.2020
944 Clear 19 1007 30 0 0.13 87 03:55 25.06.2020
945 Clear 17 1007 34 0 1.18 86 03:25 25.06.2020
946 Clear 17 1007 34 0 1.18 86 02:41 25.06.2020
947 Clear 15 1007 40 0 1.85 87 01:43 25.06.2020
948 Clear 12 1007 50 0 2.03 83 00:59 25.06.2020
949 Clear 12 1007 50 0 2.03 83 00:40 25.06.2020
950 Clear 10 1008 53 0 1.92 80 00:18 25.06.2020
951 Clear 10 1008 53 0 1.92 80 23:41 24.06.2020
952 Clear 9 1008 53 0 1.87 83 23:23 24.06.2020
953 Clear 9 1008 53 0 1.87 83 22:56 24.06.2020
954 Clear 9 1008 53 0 1.87 83 22:37 24.06.2020
955 Clear 10 1008 52 0 1.98 80 22:18 24.06.2020
956 Clear 10 1008 52 0 1.98 80 21:55 24.06.2020
957 Clear 10 1008 53 0 1.89 85 21:36 24.06.2020
958 Clear 10 1008 52 0 1.75 85 21:18 24.06.2020
959 Clear 10 1008 52 0 1.75 85 20:56 24.06.2020
960 Clear 10 1008 52 0 1.75 85 20:37 24.06.2020
961 Clouds 10 1008 51 0 1.68 82 20:19 24.06.2020
962 Clouds 10 1008 51 0 1.68 82 19:55 24.06.2020
963 Clouds 10 1008 51 0 1.68 82 19:36 24.06.2020
964 Clouds 11 1008 49 0 1.78 76 19:18 24.06.2020
965 Clouds 11 1008 49 0 1.78 76 18:56 24.06.2020
966 Clouds 11 1008 49 0 1.78 76 18:37 24.06.2020
967 Clouds 11 1008 49 0 1.44 78 18:18 24.06.2020
968 Clouds 11 1008 49 0 1.44 78 17:41 24.06.2020
969 Clouds 12 1007 48 0 0.81 73 17:19 24.06.2020
970 Clouds 12 1007 48 0 0.81 73 16:56 24.06.2020
971 Clouds 12 1007 48 0 0.81 73 16:56 24.06.2020
972 Clouds 12 1007 48 0 0.81 73 16:56 24.06.2020
973 Clouds 12 1007 48 0 0.81 73 16:38 24.06.2020
974 Clouds 13 1007 43 0 0.84 57 16:20 24.06.2020
975 Clouds 13 1007 43 0 0.84 57 15:56 24.06.2020
976 Clouds 13 1007 43 0 0.84 57 15:38 24.06.2020
977 Clouds 16 1006 41 0 1.04 42 15:19 24.06.2020
978 Clouds 16 1006 41 0 1.04 42 14:43 24.06.2020
979 Clouds 20 1006 33 0 1.49 347 14:24 24.06.2020
980 Clouds 20 1006 33 0 1.49 347 13:43 24.06.2020
981 Clouds 20 1006 28 0 2.26 327 13:22 24.06.2020
982 Clouds 20 1006 28 0 2.26 327 12:57 24.06.2020
983 Clouds 20 1006 28 0 2.26 327 12:38 24.06.2020
984 Clouds 21 1006 28 0 2.48 320 12:20 24.06.2020
985 Clouds 21 1006 28 0 2.48 320 11:55 24.06.2020
986 Clouds 21 1006 28 0 2.48 320 11:37 24.06.2020
987 Clouds 20 1006 29 0 2.65 309 11:18 24.06.2020
988 Clouds 20 1006 29 0 2.65 309 10:41 24.06.2020
989 Clouds 20 1006 31 0 3.16 296 10:19 24.06.2020
990 Clouds 20 1006 31 0 3.16 296 10:19 24.06.2020
991 Clouds 20 1006 31 0 3.16 296 09:43 24.06.2020
992 Clouds 20 1007 29 0 3.05 292 09:22 24.06.2020
993 Clouds 20 1007 28 0 2.16 299 08:43 24.06.2020
994 Clear 20 1008 30 0 1.64 311 08:21 24.06.2020
995 Clear 20 1008 30 0 1.64 311 07:51 24.06.2020
996 Clear 20 1008 30 0 1.64 311 07:31 24.06.2020
997 Clear 19 1009 32 0 1.52 322 06:51 24.06.2020
998 Clear 18 1009 36 0 1.36 341 06:26 24.06.2020
999 Clear 18 1009 36 0 1.36 341 05:57 24.06.2020
1000 Clear 16 1010 41 0 1.06 349 04:46 24.06.2020
1001 Clear 14 1010 49 0 0.64 349 04:28 24.06.2020
1002 Clear 14 1010 49 0 0.64 349 03:34 24.06.2020
1003 Clear 13 1011 56 0 0.35 309 02:50 24.06.2020
1004 Clear 11 1011 62 0 0.5 57 01:41 24.06.2020
1005 Clear 8 1012 74 0 1.4 55 00:47 24.06.2020
1006 Clear 5 1012 80 0 1.33 42 00:27 24.06.2020
1007 Clear 5 1012 80 0 1.33 42 23:46 23.06.2020
1008 Clear 5 1011 81 0 0.99 51 23:20 23.06.2020
1009 Clear 5 1011 81 0 0.99 51 22:54 23.06.2020
1010 Clear 5 1011 81 0 0.99 51 22:36 23.06.2020
1011 Clear 5 1011 80 0 1.33 60 22:18 23.06.2020
1012 Clear 5 1011 80 0 1.33 60 22:18 23.06.2020
1013 Clear 5 1011 80 0 1.33 60 21:40 23.06.2020
1014 Clear 6 1010 79 0 1.75 35 21:19 23.06.2020
1015 Clear 6 1010 79 0 1.75 35 20:55 23.06.2020
1016 Clear 6 1010 79 0 1.75 35 20:37 23.06.2020
1017 Clouds 6 1011 79 0 1.81 35 20:18 23.06.2020
1018 Clouds 6 1011 79 0 1.81 35 19:45 23.06.2020
1019 Clouds 7 1011 76 0 1.81 37 19:27 23.06.2020
1020 Clouds 7 1011 76 0 1.81 37 18:42 23.06.2020
1021 Clouds 7 1011 77 0 2.1 31 18:19 23.06.2020
1022 Clouds 7 1011 77 0 2.1 31 17:58 23.06.2020
1023 Clouds 7 1011 77 0 2.1 31 17:39 23.06.2020
1024 Clouds 7 1010 74 0 1.8 29 17:20 23.06.2020
1025 Clouds 7 1010 74 0 1.8 29 16:55 23.06.2020
1026 Clouds 7 1010 74 0 1.8 29 16:37 23.06.2020
1027 Clouds 8 1010 72 0 1.65 24 16:18 23.06.2020
1028 Clouds 8 1010 72 0 1.65 24 15:43 23.06.2020
1029 Clear 10 1009 62 0 2.82 28 15:24 23.06.2020
1030 Clear 10 1009 62 0 2.82 28 14:56 23.06.2020
1031 Clear 10 1009 62 0 2.82 28 14:38 23.06.2020
1032 Clouds 12 1008 51 0 4.6 26 14:18 23.06.2020
1033 Clouds 12 1008 51 0 4.6 26 13:46 23.06.2020
1034 Clouds 13 1007 47 0 5.07 11 13:26 23.06.2020
1035 Clouds 13 1007 47 0 5.07 11 12:59 23.06.2020
1036 Clouds 13 1007 47 0 5.07 11 12:59 23.06.2020
1037 Clouds 13 1007 47 0 5.07 11 12:40 23.06.2020
1038 Clouds 14 1007 44 0 4.83 6 12:21 23.06.2020
1039 Clouds 14 1007 44 0 4.83 6 11:43 23.06.2020
1040 Clouds 14 1007 44 0 5.27 17 11:23 23.06.2020
1041 Clouds 14 1007 44 0 5.27 17 10:59 23.06.2020
1042 Clouds 14 1007 44 0 5.27 17 10:41 23.06.2020
1043 Clouds 14 1007 43 0 6.15 5 10:22 23.06.2020
1044 Clouds 14 1007 43 0 6.15 5 09:57 23.06.2020
1045 Clouds 14 1007 43 0 6.15 5 09:38 23.06.2020
1046 Clouds 15 1007 36 0 5.03 353 09:20 23.06.2020
1047 Clouds 13 1007 43 0 5.84 355 09:20 23.06.2020
1048 Clouds 15 1007 36 0 5.03 353 08:46 23.06.2020
1049 Clouds 14 1008 36 0 3.35 345 08:26 23.06.2020
1050 Clouds 14 1008 36 0 3.35 345 07:49 23.06.2020
1051 Clouds 13 1008 38 0 2.54 337 07:25 23.06.2020
1052 Clouds 13 1008 38 0 2.54 337 06:53 23.06.2020
1053 Clouds 13 1008 38 0 2.54 337 06:32 23.06.2020
1054 Clouds 12 1009 40 0 1.93 329 05:59 23.06.2020
1055 Clouds 11 1009 45 0 1.8 311 05:26 23.06.2020
1056 Clouds 8 1009 56 0 1.54 287 03:22 23.06.2020
1057 Clouds 8 1009 56 0 1.54 287 02:49 23.06.2020
1058 Clouds 7 1009 58 0 1.19 337 02:29 23.06.2020
1059 Clouds 6 1010 66 0 0.72 348 01:46 23.06.2020
1060 Clouds 4 1010 75 0 0.72 319 01:24 23.06.2020
1061 Clouds 4 1010 75 0 0.72 319 00:41 23.06.2020
1062 Clouds 3 1010 82 0 0.6 332 00:20 23.06.2020
1063 Clouds 3 1010 82 0 0.6 332 23:54 22.06.2020
1064 Clouds 3 1010 82 0 0.6 332 23:54 22.06.2020
1065 Clouds 3 1010 82 0 0.6 332 23:36 22.06.2020
1066 Snow 4 1010 79 0 0.67 93 23:18 22.06.2020
1067 Snow 4 1010 79 0 0.67 93 22:54 22.06.2020
1068 Snow 4 1010 79 0 0.67 93 22:36 22.06.2020
1069 Snow 5 1009 77 0 1.48 82 22:18 22.06.2020
1070 Snow 5 1009 77 0 1.48 82 22:18 22.06.2020
1071 Snow 5 1009 77 0 1.48 82 21:40 22.06.2020
1072 Clouds 5 1010 67 0 0.9 77 21:22 22.06.2020
1073 Clouds 5 1010 67 0 0.9 77 20:58 22.06.2020
1074 Clouds 5 1010 67 0 0.9 77 20:40 22.06.2020
1075 Clouds 5 1010 69 0 1.21 58 20:20 22.06.2020
1076 Clouds 5 1010 69 0 1.21 58 19:44 22.06.2020
1077 Clouds 4 1010 71 0 1.18 68 19:19 22.06.2020
1078 Clouds 4 1010 71 0 1.18 68 18:57 22.06.2020
1079 Clouds 4 1010 71 0 1.18 68 18:37 22.06.2020
1080 Clouds 6 1009 63 0 1.52 110 18:19 22.06.2020
1081 Clouds 6 1009 63 0 1.52 110 17:55 22.06.2020
1082 Clouds 6 1009 63 0 1.52 110 17:37 22.06.2020
1083 Clouds 6 1009 66 0 1.76 84 17:18 22.06.2020
1084 Clouds 6 1009 66 0 1.76 84 16:43 22.06.2020
1085 Clouds 6 1008 66 0 3.2 108 16:19 22.06.2020
1086 Clouds 6 1008 66 0 3.2 108 15:57 22.06.2020
1087 Clouds 6 1008 66 0 3.2 108 15:39 22.06.2020
1088 Snow 8 1007 55 0 3.55 138 15:21 22.06.2020
1089 Snow 8 1007 55 0 3.55 138 14:39 22.06.2020
1090 Clouds 11 1007 39 0 3.19 246 14:20 22.06.2020
1091 Clouds 12 1007 38 0 3.14 271 13:57 22.06.2020
1092 Clouds 12 1007 38 0 3.14 271 13:38 22.06.2020
1093 Clouds 13 1007 36 0 2.99 273 13:20 22.06.2020
1094 Clouds 13 1007 36 0 2.99 273 12:43 22.06.2020
1095 Clouds 13 1007 35 0 3.53 261 12:23 22.06.2020
1096 Clouds 13 1007 35 0 3.53 261 11:58 22.06.2020
1097 Clouds 13 1007 35 0 3.53 261 11:37 22.06.2020
1098 Clouds 13 1006 35 0 4.54 254 11:18 22.06.2020
1099 Clouds 13 1006 35 0 4.54 254 10:55 22.06.2020
1100 Clouds 13 1006 35 0 4.54 254 10:36 22.06.2020
1101 Clouds 13 1006 35 0 4.54 254 10:36 22.06.2020
1102 Clouds 13 1005 35 0 6.16 245 10:18 22.06.2020
1103 Clouds 13 1005 35 0 6.16 245 09:42 22.06.2020
1104 Clouds 13 1005 37 0 9.04 253 09:22 22.06.2020
1105 Clouds 13 1005 37 0 9.04 253 08:59 22.06.2020
1106 Clouds 13 1005 37 0 9.04 253 08:39 22.06.2020
1107 Clouds 13 1005 35 0 9.19 233 08:20 22.06.2020
1108 Clouds 13 1005 35 0 9.19 233 07:52 22.06.2020
1109 Clouds 13 1005 35 0 9.19 233 07:33 22.06.2020
1110 Clouds 13 1005 35 0 7.34 197 06:46 22.06.2020
1111 Clouds 13 1006 36 0 4.38 240 06:27 22.06.2020
1112 Clouds 13 1006 36 0 4.38 240 05:58 22.06.2020
1113 Clouds 13 1006 36 0 4.38 240 05:30 22.06.2020
1114 Clouds 11 1006 41 0 2.19 184 02:56 22.06.2020
1115 Clouds 9 1006 44 0 1.34 122 01:34 22.06.2020
1116 Clouds 7 1007 54 0 1.37 115 00:41 22.06.2020
1117 Clouds 5 1007 60 0 1.9 128 23:59 21.06.2020
1118 Clouds 5 1007 60 0 1.9 128 23:40 21.06.2020
1119 Clouds 5 1007 57 0 2.28 134 23:22 21.06.2020
1120 Clouds 5 1007 57 0 2.28 134 22:57 21.06.2020
1121 Clouds 5 1007 57 0 2.28 134 22:38 21.06.2020
1122 Clear 5 1006 57 0 2.13 143 22:19 21.06.2020
1123 Clear 5 1006 57 0 2.13 143 22:19 21.06.2020
1124 Clear 5 1006 57 0 2.13 143 21:58 21.06.2020
1125 Clear 5 1006 57 0 2.13 143 21:40 21.06.2020
1126 Clear 6 1006 54 0 2.68 156 21:21 21.06.2020
1127 Clear 6 1006 54 0 2.68 156 21:21 21.06.2020
1128 Clear 6 1006 54 0 2.68 156 20:59 21.06.2020
1129 Clear 6 1006 54 0 2.68 156 20:38 21.06.2020
1130 Clear 7 1006 53 0 3.13 155 20:19 21.06.2020
1131 Clear 7 1006 53 0 3.13 155 19:56 21.06.2020
1132 Clear 7 1006 53 0 3.13 155 19:38 21.06.2020
1133 Clear 8 1006 53 0 3.01 161 19:19 21.06.2020
1134 Clear 8 1006 53 0 3.01 161 18:54 21.06.2020
1135 Clear 8 1006 53 0 3.01 161 18:36 21.06.2020
1136 Clear 8 1007 56 0 1.78 156 18:18 21.06.2020
1137 Clear 8 1007 56 0 1.78 156 17:40 21.06.2020
1138 Clear 8 1007 56 0 1.78 156 17:39 21.06.2020
1139 Clear 8 1006 56 0 0.6 174 17:20 21.06.2020
1140 Clear 8 1006 56 0 0.6 174 16:43 21.06.2020
1141 Clouds 9 1005 52 0 1.37 255 16:24 21.06.2020
1142 Clouds 9 1005 52 0 1.37 255 15:59 21.06.2020
1143 Clouds 9 1005 52 0 1.37 255 15:37 21.06.2020
1144 Clouds 12 1005 47 0 1.52 259 15:19 21.06.2020
1145 Clouds 12 1005 47 0 1.52 259 14:39 21.06.2020
1146 Rain 13 1004 41 0 6.28 248 14:20 21.06.2020
1147 Rain 13 1004 41 0 6.28 248 13:59 21.06.2020
1148 Rain 13 1004 41 0 6.28 248 13:40 21.06.2020
1149 Rain 15 1002 47 0 7.84 250 13:21 21.06.2020
1150 Rain 15 1002 47 0 7.84 250 12:45 21.06.2020
1151 Rain 17 1001 40 0 5.39 252 12:26 21.06.2020
1152 Rain 17 1001 40 0 5.39 252 11:59 21.06.2020
1153 Rain 17 1001 40 0 5.39 252 11:41 21.06.2020
1154 Clouds 18 1000 37 0 10.86 232 11:23 21.06.2020
1155 Clouds 18 1000 37 0 10.86 232 10:57 21.06.2020
1156 Clouds 18 1000 37 0 10.86 232 10:38 21.06.2020
1157 Clouds 20 1000 26 0 3.91 234 10:20 21.06.2020
1158 Clouds 20 1000 26 0 3.91 234 09:43 21.06.2020
1159 Clouds 20 1000 28 0 3.13 238 09:22 21.06.2020
1160 Clouds 20 1000 28 0 3.13 238 09:22 21.06.2020
1161 Clouds 20 1000 27 0 3.78 245 08:57 21.06.2020
1162 Clouds 20 1000 27 0 3.78 245 08:39 21.06.2020
1163 Clouds 19 1001 32 0 3.77 251 08:19 21.06.2020
1164 Clouds 19 1001 32 0 3.77 251 07:41 21.06.2020
1165 Clear 19 1002 33 0 3.28 255 07:23 21.06.2020
1166 Clear 19 1002 33 0 3.28 255 06:50 21.06.2020
1167 Clear 18 1002 36 0 2.3 268 06:19 21.06.2020
1168 Clear 18 1002 36 0 2.3 268 05:57 21.06.2020
1169 Clear 16 1003 43 0 1.01 238 04:29 21.06.2020
1170 Clear 14 1004 48 0 0.26 194 03:19 21.06.2020
1171 Clear 14 1004 48 0 0.26 194 02:33 21.06.2020
1172 Clear 12 1005 57 0 0.82 81 01:37 21.06.2020
1173 Clear 10 1005 69 0 1.04 110 01:18 21.06.2020
1174 Clear 10 1005 69 0 1.04 110 00:42 21.06.2020
1175 Clear 7 1005 78 0 0.86 127 00:23 21.06.2020
1176 Clear 7 1005 78 0 0.86 127 23:45 20.06.2020
1177 Clear 7 1005 79 0 0.74 123 23:22 20.06.2020
1178 Clear 7 1005 79 0 0.74 123 22:57 20.06.2020
1179 Clear 7 1005 79 0 0.74 123 22:39 20.06.2020
1180 Clear 7 1005 78 0 0.73 110 22:20 20.06.2020
1181 Clear 7 1005 78 0 0.73 110 21:58 20.06.2020
1182 Clear 7 1005 78 0 0.73 110 21:39 20.06.2020
1183 Clear 8 1005 74 0 1.03 76 21:20 20.06.2020
1184 Clear 8 1005 74 0 1.03 76 21:20 20.06.2020
1185 Clear 8 1005 74 0 1.03 76 20:58 20.06.2020
1186 Clear 8 1005 74 0 1.03 76 20:40 20.06.2020
1187 Clear 8 1004 74 0 0.71 27 20:20 20.06.2020
1188 Clear 8 1004 74 0 0.71 27 19:55 20.06.2020
1189 Clear 8 1004 74 0 0.71 27 19:37 20.06.2020
1190 Clear 9 1004 74 0 0.72 350 19:19 20.06.2020
1191 Clear 9 1004 74 0 0.72 350 18:42 20.06.2020
1192 Clear 9 1005 73 0 0.97 323 18:20 20.06.2020
1193 Clear 9 1005 73 0 0.97 323 17:57 20.06.2020
1194 Clear 9 1005 73 0 0.97 323 17:39 20.06.2020
1195 Clear 10 1005 71 0 1.37 328 17:20 20.06.2020
1196 Clear 10 1005 71 0 1.37 328 16:42 20.06.2020
1197 Clouds 11 1004 68 0 2.36 343 16:19 20.06.2020
1198 Clouds 11 1004 68 0 2.36 343 15:57 20.06.2020
1199 Clouds 11 1004 68 0 2.36 343 15:39 20.06.2020
1200 Clouds 14 1003 60 0 2.49 321 15:18 20.06.2020
1201 Clouds 14 1003 60 0 2.49 321 14:42 20.06.2020
1202 Rain 16 1003 50 0 2.49 288 14:21 20.06.2020
1203 Rain 16 1002 53 0 4.23 291 13:42 20.06.2020
1204 Rain 16 1002 51 0 4.01 300 13:23 20.06.2020
1205 Rain 16 1002 51 0 4.01 300 12:57 20.06.2020
1206 Rain 16 1002 51 0 4.01 300 12:38 20.06.2020
1207 Rain 18 1002 46 0 6.6 283 12:19 20.06.2020
1208 Rain 18 1002 46 0 6.6 283 11:55 20.06.2020
1209 Rain 18 1002 46 0 6.6 283 11:36 20.06.2020
1210 Rain 20 1002 36 0 4.88 278 11:18 20.06.2020
1211 Rain 20 1002 36 0 4.88 278 10:42 20.06.2020
1212 Rain 20 1002 33 0 5.55 262 10:20 20.06.2020
1213 Rain 20 1002 33 0 5.55 262 09:43 20.06.2020
1214 Clouds 20 1002 33 0 1.68 248 09:25 20.06.2020
1215 -273 0 0 0 0 0 08:59 20.06.2020
1216 Clouds 20 1002 35 0 2.69 286 08:40 20.06.2020
1217 Clouds 20 1002 34 0 1.56 276 08:22 20.06.2020
1218 Clouds 20 1002 34 0 1.56 276 07:51 20.06.2020
1219 Clouds 20 1002 34 0 1.56 276 07:51 20.06.2020
1220 Clouds 20 1003 33 0 1.43 271 07:26 20.06.2020
1221 Clouds 20 1003 33 0 1.43 271 06:49 20.06.2020
1222 Clouds 19 1003 35 0 0.7 54 06:22 20.06.2020
1223 Clouds 19 1003 35 0 0.7 54 05:48 20.06.2020
1224 Clouds 16 1004 41 0 2.18 69 04:29 20.06.2020
1225 Clouds 15 1005 43 0 1.64 60 01:58 20.06.2020
1226 Clouds 15 1005 43 0 1.64 60 01:40 20.06.2020
1227 Clouds 13 1006 48 0 1.88 59 00:49 20.06.2020
1228 Clouds 12 1006 49 0 1.78 52 00:20 20.06.2020
1229 Clouds 12 1006 49 0 1.78 52 23:46 19.06.2020
1230 Clouds 12 1006 43 0 1.8 61 23:21 19.06.2020
1231 Clouds 12 1006 43 0 1.8 61 22:57 19.06.2020
1232 Clouds 12 1006 43 0 1.8 61 22:38 19.06.2020
1233 Clouds 13 1006 40 0 2 67 22:20 19.06.2020
1234 Clouds 13 1006 40 0 2 67 21:55 19.06.2020
1235 Clouds 13 1006 40 0 2 67 21:37 19.06.2020
1236 Clouds 12 1006 41 0 2.28 64 21:18 19.06.2020
1237 Clouds 12 1006 41 0 2.28 64 20:56 19.06.2020
1238 Clouds 12 1006 41 0 2.28 64 20:38 19.06.2020
1239 Clouds 12 1006 42 0 2.16 69 20:20 19.06.2020
1240 Clouds 12 1006 42 0 2.16 69 19:54 19.06.2020
1241 Clouds 12 1006 42 0 2.16 69 19:36 19.06.2020
1242 Clouds 12 1007 41 0 2.42 57 19:18 19.06.2020
1243 Clouds 12 1007 41 0 2.42 57 18:40 19.06.2020
1244 Clouds 13 1007 39 0 2.66 41 18:21 19.06.2020
1245 Clouds 13 1007 39 0 2.66 41 17:43 19.06.2020
1246 Clouds 13 1007 38 0 2.48 27 17:23 19.06.2020
1247 -273 0 0 0 0 0 16:59 19.06.2020
1248 Clouds 13 1007 38 0 2.48 27 16:59 19.06.2020
1249 Clouds 13 1007 38 0 2.48 27 16:41 19.06.2020
1250 Clouds 13 1006 38 0 2.55 16 16:22 19.06.2020
1251 Clouds 13 1006 38 0 2.55 16 15:49 19.06.2020
1252 Clouds 16 1004 35 0 3.02 345 15:27 19.06.2020
1253 Clouds 16 1004 35 0 3.02 345 14:59 19.06.2020
1254 Clouds 16 1004 35 0 3.02 345 14:41 19.06.2020
1255 Clouds 19 1004 29 0 1.62 285 14:21 19.06.2020
1256 Clouds 19 1004 29 0 1.62 285 13:59 19.06.2020
1257 Clouds 19 1004 29 0 1.62 285 13:40 19.06.2020
1258 Clouds 21 1004 24 0 2.73 229 13:22 19.06.2020
1259 Clouds 21 1004 24 0 2.73 229 12:45 19.06.2020
1260 Clouds 21 1004 24 0 2.64 199 12:22 19.06.2020
1261 Clouds 21 1004 24 0 2.64 199 11:56 19.06.2020
1262 Clouds 21 1004 24 0 2.64 199 11:36 19.06.2020
1263 Clouds 20 1004 26 0 2.29 186 11:18 19.06.2020
1264 Clouds 20 1004 26 0 2.29 186 10:43 19.06.2020
1265 Clouds 19 1004 30 0 2.33 177 10:25 19.06.2020
1266 Clouds 19 1004 30 0 2.33 177 09:56 19.06.2020
1267 Clouds 19 1004 30 0 2.33 177 09:37 19.06.2020
1268 Clouds 18 1004 31 0 3.49 216 09:19 19.06.2020
1269 Clouds 21 1004 24 0 4.88 249 08:41 19.06.2020
1270 Clouds 21 1004 26 0 5.03 260 08:23 19.06.2020
1271 Clouds 21 1004 26 0 5.03 260 07:42 19.06.2020
1272 Rain 21 1005 27 0 4.14 270 07:22 19.06.2020
1273 Rain 21 1005 27 0 4.14 270 06:59 19.06.2020
1274 Rain 20 1005 33 0 3.03 270 06:23 19.06.2020
1275 Rain 20 1005 33 0 3.03 270 05:34 19.06.2020
1276 Rain 18 1005 48 0 2.59 257 04:21 19.06.2020
1277 Clouds 15 1005 54 0 0.47 62 02:24 19.06.2020
1278 Clouds 14 1005 64 0 1.19 89 00:46 19.06.2020
1279 Clouds 11 1005 72 0 1.11 77 00:22 19.06.2020
1280 Clouds 11 1005 72 0 1.11 77 23:58 18.06.2020
1281 Clouds 11 1005 72 0 1.11 77 23:39 18.06.2020
1282 Clouds 11 1005 71 0 1.41 109 23:21 18.06.2020
1283 Clouds 11 1005 71 0 1.41 109 22:41 18.06.2020
1284 Clear 11 1005 71 0 1.88 110 22:21 18.06.2020
1285 Clear 11 1005 71 0 1.88 110 21:57 18.06.2020
1286 Clear 11 1005 71 0 1.88 110 21:38 18.06.2020
1287 Clouds 11 1005 71 0 1.98 110 21:19 18.06.2020
1288 Clouds 12 1005 66 0 1.69 110 20:43 18.06.2020
1289 Clouds 12 1005 67 0 1.54 115 20:22 18.06.2020
1290 Clouds 12 1005 67 0 1.54 115 19:58 18.06.2020
1291 Clouds 12 1005 67 0 1.54 115 19:40 18.06.2020
1292 Clouds 12 1004 70 0 1.45 117 19:20 18.06.2020
1293 Clouds 12 1004 70 0 1.45 117 18:42 18.06.2020
1294 Rain 13 1004 72 0 1.3 88 18:23 18.06.2020
1295 Rain 13 1004 72 0 1.3 88 17:57 18.06.2020
1296 Rain 13 1004 72 0 1.3 88 17:39 18.06.2020
1297 Rain 14 1004 66 0 2.54 60 17:21 18.06.2020
1298 Rain 14 1004 66 0 2.54 60 16:44 18.06.2020
1299 Rain 14 1004 63 0 1.91 20 16:25 18.06.2020
1300 Rain 14 1004 63 0 1.91 20 15:59 18.06.2020
1301 Rain 14 1004 63 0 1.91 20 15:40 18.06.2020
1302 Clouds 16 1003 54 0 0.98 160 15:20 18.06.2020
1303 Clouds 16 1003 54 0 0.98 160 14:57 18.06.2020
1304 Clouds 16 1003 54 0 0.98 160 14:57 18.06.2020
1305 Clouds 16 1003 54 0 0.98 160 14:38 18.06.2020
1306 Rain 20 1001 36 0 5.93 220 14:20 18.06.2020
1307 Rain 20 1001 36 0 5.93 220 13:48 18.06.2020
1308 Clouds 24 1001 23 0 6.57 221 13:29 18.06.2020
1309 Clouds 24 1001 23 0 6.57 221 12:58 18.06.2020
1310 Clouds 24 1001 23 0 6.57 221 12:40 18.06.2020
1311 Clouds 24 1001 23 0 6.57 221 12:40 18.06.2020
1312 Clouds 25 1000 23 0 8.52 214 12:20 18.06.2020
1313 Clouds 25 1000 23 0 8.52 214 11:57 18.06.2020
1314 Clouds 25 1000 23 0 8.52 214 11:38 18.06.2020
1315 Clouds 25 1000 22 0 8.2 217 11:19 18.06.2020
1316 Clouds 25 1000 22 0 8.2 217 10:40 18.06.2020
1317 Clouds 25 1000 23 0 9.43 217 10:19 18.06.2020
1318 Clouds 25 1000 23 0 9.43 217 10:19 18.06.2020
1319 Clouds 25 1000 23 0 9.43 217 09:47 18.06.2020
1320 Clouds 25 1000 22 0 9.68 230 09:27 18.06.2020
1321 Clouds 25 1000 22 0 7.39 239 08:58 18.06.2020
1322 Clouds 25 1000 22 0 7.39 239 08:38 18.06.2020
1323 Clouds 26 1001 20 0 6.98 251 08:20 18.06.2020
1324 Clouds 26 1001 20 0 6.98 251 07:45 18.06.2020
1325 Clouds 25 1001 21 0 5.87 247 07:26 18.06.2020
1326 Clouds 25 1001 21 0 5.87 247 06:42 18.06.2020
1327 Clouds 24 1002 22 0 5.17 247 05:34 18.06.2020
1328 Clouds 22 1003 28 0 3.52 221 04:21 18.06.2020
1329 Clouds 17 1004 39 0 1.53 125 01:49 18.06.2020
1330 Clouds 15 1004 47 0 1.82 113 01:27 18.06.2020
1331 Clouds 15 1004 47 0 1.82 113 00:54 18.06.2020
1332 Clouds 15 1004 47 0 1.82 113 00:32 18.06.2020
1333 Clouds 13 1004 46 0 2.41 105 23:56 17.06.2020
1334 Clouds 13 1004 46 0 2.41 105 23:38 17.06.2020
1335 Clouds 13 1004 43 0 2.73 97 23:19 17.06.2020
1336 Clouds 13 1004 43 0 2.73 97 22:57 17.06.2020
1337 Clouds 13 1004 43 0 2.73 97 22:37 17.06.2020
1338 Clouds 13 1004 45 0 2.36 96 22:19 17.06.2020
1339 Clouds 13 1004 45 0 2.36 96 21:40 17.06.2020
1340 Clouds 14 1004 44 0 2.5 105 21:22 17.06.2020
1341 Clouds 13 1004 45 0 2.7 101 20:56 17.06.2020
1342 Clouds 13 1004 45 0 2.7 101 20:37 17.06.2020
1343 Clouds 14 1005 45 0 2.71 89 20:19 17.06.2020
1344 Clouds 14 1005 45 0 2.71 89 19:43 17.06.2020
1345 Clouds 14 1005 45 0 2.8 86 19:22 17.06.2020
1346 Clouds 14 1005 45 0 2.8 86 18:56 17.06.2020
1347 Clouds 14 1005 45 0 2.8 86 18:38 17.06.2020
1348 Clouds 14 1005 45 0 2.8 86 18:38 17.06.2020
1349 Clouds 14 1005 45 0 2.8 86 18:38 17.06.2020
1350 Clouds 14 1005 45 0 2.8 86 18:38 17.06.2020
1351 Clouds 14 1005 47 0 2.69 73 18:19 17.06.2020
1352 Clouds 14 1005 47 0 2.69 73 17:42 17.06.2020
1353 Clouds 15 1005 48 0 3.01 63 17:22 17.06.2020
1354 Clouds 15 1005 48 0 3.01 63 16:56 17.06.2020
1355 Clouds 15 1005 48 0 3.01 63 16:38 17.06.2020
1356 Clouds 16 1004 47 0 3.57 52 16:20 17.06.2020
1357 Clouds 16 1004 47 0 3.57 52 15:40 17.06.2020
1358 Clouds 18 1003 42 0 3.57 50 15:21 17.06.2020
1359 -273 0 0 0 0 0 14:59 17.06.2020
1360 Clouds 18 1003 42 0 3.57 50 14:40 17.06.2020
1361 Clouds 18 1003 42 0 3.57 50 14:40 17.06.2020
1362 Clouds 23 1003 25 0 1.89 297 14:21 17.06.2020
1363 Clouds 23 1003 25 0 1.89 297 13:58 17.06.2020
1364 Clouds 23 1003 25 0 1.89 297 13:40 17.06.2020
1365 Clouds 25 1003 19 0 2.83 269 13:21 17.06.2020
1366 Clouds 25 1003 19 0 2.83 269 12:55 17.06.2020
1367 Clouds 25 1003 19 0 2.83 269 12:37 17.06.2020
1368 Clouds 25 1003 18 0 2.95 261 12:19 17.06.2020
1369 Clouds 25 1003 18 0 2.95 261 11:44 17.06.2020
1370 Clouds 25 1003 18 0 3.53 265 11:24 17.06.2020
1371 Clouds 25 1003 18 0 3.53 265 10:55 17.06.2020
1372 Clouds 25 1003 18 0 3.53 265 10:36 17.06.2020
1373 Clouds 25 1003 19 0 3.21 282 10:18 17.06.2020
1374 Clouds 25 1003 19 0 3.21 282 09:41 17.06.2020
1375 Clouds 25 1003 19 0 3.12 273 09:21 17.06.2020
1376 Clouds 25 1003 19 0 3.12 273 08:59 17.06.2020
1377 Clouds 25 1003 19 0 3.12 273 08:41 17.06.2020
1378 Clouds 24 1004 20 0 2.59 271 08:19 17.06.2020
1379 Clouds 24 1004 20 0 2.59 271 07:43 17.06.2020
1380 Clouds 24 1005 21 0 2.15 269 07:22 17.06.2020
1381 Clouds 24 1005 21 0 2.15 269 06:56 17.06.2020
1382 Clouds 24 1005 21 0 2.15 269 06:38 17.06.2020
1383 Clouds 23 1005 22 0 1.56 262 06:20 17.06.2020
1384 Clouds 22 1006 24 0 0.93 230 05:29 17.06.2020
1385 Clouds 18 1007 37 0 1.08 85 03:28 17.06.2020
1386 Clouds 16 1008 46 0 1.48 73 01:52 17.06.2020
1387 Clear 13 1008 56 0 1.76 82 00:46 17.06.2020
1388 Clear 10 1008 62 0 1.65 76 00:23 17.06.2020
1389 Clear 10 1008 62 0 1.65 76 23:56 16.06.2020
1390 Clear 10 1008 62 0 1.65 76 23:37 16.06.2020
1391 Clear 10 1008 63 0 1.75 81 23:19 16.06.2020
1392 Clear 10 1008 63 0 1.75 81 22:55 16.06.2020
1393 Clear 10 1008 63 0 1.75 81 22:37 16.06.2020
1394 Clear 11 1008 62 0 1.81 73 22:18 16.06.2020
1395 Clear 11 1008 62 0 1.81 73 21:47 16.06.2020
1396 Clear 11 1008 62 0 1.62 60 21:24 16.06.2020
1397 Clear 11 1008 60 0 1.9 67 20:57 16.06.2020
1398 Clear 11 1008 60 0 1.9 67 20:39 16.06.2020
1399 Clear 12 1007 58 0 2.17 64 20:19 16.06.2020
1400 Clear 12 1007 58 0 2.17 64 20:19 16.06.2020
1401 Clear 12 1007 58 0 2.17 64 19:57 16.06.2020
1402 Clear 12 1007 58 0 2.17 64 19:39 16.06.2020
1403 Clear 13 1008 55 0 2.64 68 19:21 16.06.2020
1404 Clear 13 1008 55 0 2.64 68 18:55 16.06.2020
1405 Clear 13 1008 55 0 2.64 68 18:36 16.06.2020
1406 Clear 13 1008 53 0 3 63 18:18 16.06.2020
1407 Clear 13 1008 53 0 3 63 17:54 16.06.2020
1408 Clear 13 1008 53 0 3 63 17:36 16.06.2020
1409 Clear 14 1008 47 0 2.92 43 17:18 16.06.2020
1410 Clear 14 1008 47 0 2.92 43 16:42 16.06.2020
1411 Clear 15 1007 38 0 2.72 347 16:20 16.06.2020
1412 Clear 15 1007 38 0 2.72 347 15:58 16.06.2020
1413 Clear 15 1007 38 0 2.72 347 15:39 16.06.2020
1414 Clear 17 1006 35 0 3.76 315 15:21 16.06.2020
1415 Clear 17 1006 35 0 3.76 315 14:57 16.06.2020
1416 Clear 17 1006 35 0 3.76 315 14:38 16.06.2020
1417 Clouds 21 1005 30 0 3.85 304 14:20 16.06.2020
1418 Clouds 21 1005 30 0 3.85 304 13:46 16.06.2020
1419 Clouds 22 1004 24 0 4.76 312 13:26 16.06.2020
1420 Clouds 22 1004 24 0 4.76 312 12:55 16.06.2020
1421 Clouds 22 1004 24 0 4.76 312 12:37 16.06.2020
1422 Clouds 23 1004 24 0 4.55 299 12:18 16.06.2020
1423 Clouds 23 1004 24 0 4.55 299 11:42 16.06.2020
1424 Clouds 23 1004 26 0 4.53 291 11:23 16.06.2020
1425 Clouds 23 1004 26 0 4.53 291 10:59 16.06.2020
1426 Clouds 23 1004 26 0 4.53 291 10:41 16.06.2020
1427 Clouds 22 1004 29 0 5.15 281 10:20 16.06.2020
1428 Clouds 22 1004 29 0 5.15 281 09:47 16.06.2020
1429 Clouds 23 1004 25 0 4.96 277 09:26 16.06.2020
1430 Clouds 23 1004 25 0 4.96 277 08:58 16.06.2020
1431 Clouds 23 1004 25 0 4.96 277 08:58 16.06.2020
1432 Clouds 23 1004 25 0 4.96 277 08:40 16.06.2020
1433 Clouds 22 1005 26 0 4.72 272 08:22 16.06.2020
1434 Clouds 22 1005 26 0 4.72 272 07:42 16.06.2020
1435 Clear 22 1005 26 0 3.43 262 07:24 16.06.2020
1436 Clear 22 1005 26 0 3.43 262 06:34 16.06.2020
1437 Clear 21 1006 29 0 2.14 264 05:52 16.06.2020
1438 Clear 19 1006 33 0 1.74 264 05:19 16.06.2020
1439 Clear 18 1006 36 0 1.21 248 04:26 16.06.2020
1440 Clear 16 1006 41 0 0.95 220 02:46 16.06.2020
1441 Clouds 15 1006 44 0 1 120 01:34 16.06.2020
1442 Clouds 12 1006 55 0 1.64 104 00:58 16.06.2020
1443 Clouds 10 1006 60 0 1.63 98 00:27 16.06.2020
1444 Clouds 10 1006 60 0 1.63 98 23:57 15.06.2020
1445 Clouds 10 1006 60 0 1.63 98 23:57 15.06.2020
1446 Clouds 10 1006 60 0 1.63 98 23:38 15.06.2020
1447 Clouds 10 1006 60 0 1.71 110 23:20 15.06.2020
1448 Clouds 10 1006 60 0 1.71 110 22:42 15.06.2020
1449 Rain 10 1006 62 0 1.62 97 22:23 15.06.2020
1450 Rain 10 1006 62 0 1.62 97 21:58 15.06.2020
1451 Rain 10 1006 62 0 1.62 97 21:38 15.06.2020
1452 Clouds 12 1006 55 0 1.77 111 21:20 15.06.2020
1453 Clouds 12 1006 55 0 1.77 111 21:20 15.06.2020
1454 Clouds 12 1006 55 0 1.77 111 20:59 15.06.2020
1455 Clouds 12 1006 55 0 1.77 111 20:39 15.06.2020
1456 Rain 12 1006 53 0 2.38 125 20:19 15.06.2020
1457 Rain 12 1006 53 0 2.38 125 19:57 15.06.2020
1458 Rain 12 1006 53 0 2.38 125 19:39 15.06.2020
1459 Rain 11 1006 57 0 0.64 158 19:21 15.06.2020
1460 Rain 11 1006 57 0 0.64 158 18:57 15.06.2020
1461 Rain 11 1006 57 0 0.64 158 18:39 15.06.2020
1462 Rain 13 1006 41 0 1.51 154 18:19 15.06.2020
1463 Rain 13 1006 41 0 1.51 154 17:56 15.06.2020
1464 Rain 13 1006 41 0 1.51 154 17:56 15.06.2020
1465 Rain 13 1006 41 0 1.51 154 17:37 15.06.2020
1466 Clouds 15 1006 35 0 2.78 174 17:19 15.06.2020
1467 Clouds 15 1006 35 0 2.78 174 16:42 15.06.2020
1468 Clouds 16 1005 32 0 2.35 196 16:19 15.06.2020
1469 Clouds 16 1005 32 0 2.35 196 15:57 15.06.2020
1470 Clouds 16 1005 32 0 2.35 196 15:39 15.06.2020
1471 Clouds 18 1004 32 0 2.13 234 15:19 15.06.2020
1472 Clouds 18 1004 32 0 2.13 234 14:55 15.06.2020
1473 Clouds 18 1004 32 0 2.13 234 14:37 15.06.2020
1474 Clouds 21 1004 26 0 2.9 250 14:18 15.06.2020
1475 Clouds 21 1004 25 0 4.26 253 13:42 15.06.2020
1476 Clouds 22 1003 22 0 5.17 255 13:24 15.06.2020
1477 Clouds 22 1003 22 0 5.17 255 12:58 15.06.2020
1478 Clouds 22 1003 22 0 5.17 255 12:39 15.06.2020
1479 Clouds 22 1004 23 0 5.93 235 12:21 15.06.2020
1480 Clouds 22 1004 23 0 5.93 235 11:45 15.06.2020
1481 Clouds 22 1004 23 0 7.33 229 11:26 15.06.2020
1482 Clouds 22 1004 23 0 7.33 229 11:26 15.06.2020
1483 Clouds 22 1004 23 0 7.33 229 10:57 15.06.2020
1484 Clouds 22 1004 23 0 7.33 229 10:38 15.06.2020
1485 Clouds 22 1005 23 0 8.45 219 10:19 15.06.2020
1486 Clouds 22 1005 23 0 8.45 219 10:19 15.06.2020
1487 Clouds 22 1005 23 0 8.45 219 09:42 15.06.2020
1488 Clouds 23 1005 23 0 7.55 229 09:22 15.06.2020
1489 Clouds 23 1005 23 0 7.55 229 08:43 15.06.2020
1490 Clouds 22 1006 24 0 7.51 226 08:25 15.06.2020
1491 Clouds 22 1006 24 0 7.51 226 07:51 15.06.2020
1492 Clouds 22 1006 24 0 7.51 226 07:33 15.06.2020
1493 Clouds 21 1007 24 0 5.69 217 06:57 15.06.2020
1494 Clouds 21 1007 24 0 5.69 217 06:57 15.06.2020
1495 Clouds 21 1008 26 0 4.6 185 06:27 15.06.2020
1496 Clouds 21 1008 26 0 4.6 185 05:50 15.06.2020
1497 Clouds 20 1008 28 0 5.94 163 05:28 15.06.2020
1498 Clouds 19 1009 28 0 5.58 152 04:22 15.06.2020
1499 Clouds 19 1009 28 0 5.58 152 03:48 15.06.2020
1500 Clouds 19 1009 28 0 5.58 152 03:48 15.06.2020
1501 Clouds 18 1009 31 0 3.39 159 02:56 15.06.2020
1502 Clouds 16 1010 38 0 4.78 144 02:24 15.06.2020
1503 Clouds 16 1010 38 0 4.78 144 01:41 15.06.2020
1504 Clouds 15 1010 39 0 2.57 155 01:23 15.06.2020
1505 Clouds 15 1010 39 0 2.57 155 00:43 15.06.2020
1506 Clouds 13 1010 40 0 1.58 109 00:23 15.06.2020
1507 Clouds 13 1010 40 0 1.58 109 23:56 14.06.2020
1508 Clouds 13 1010 40 0 1.58 109 23:38 14.06.2020
1509 Clouds 13 1010 41 0 1.89 87 23:20 14.06.2020
1510 Clouds 13 1010 41 0 1.89 87 22:56 14.06.2020
1511 Clouds 13 1010 41 0 1.89 87 22:37 14.06.2020
1512 Clouds 13 1010 40 0 0.49 348 22:18 14.06.2020
1513 Clouds 13 1010 40 0 0.49 348 21:55 14.06.2020
1514 Clouds 14 1010 39 0 0.65 286 21:36 14.06.2020
1515 Clouds 13 1010 39 0 1.26 237 21:18 14.06.2020
1516 Clouds 13 1010 39 0 1.26 237 20:55 14.06.2020
1517 Clouds 13 1010 39 0 1.26 237 20:36 14.06.2020
1518 Clouds 13 1010 37 0 1.81 206 20:18 14.06.2020
1519 Clouds 13 1010 37 0 1.81 206 19:54 14.06.2020
1520 Clouds 13 1010 37 0 1.81 206 19:36 14.06.2020
1521 Clouds 14 1010 34 0 2.11 179 19:18 14.06.2020
1522 Clouds 14 1010 34 0 2.11 179 18:55 14.06.2020
1523 Clouds 14 1010 34 0 2.11 179 18:36 14.06.2020
1524 Clouds 15 1010 32 0 2.39 127 18:18 14.06.2020
1525 Clouds 15 1010 32 0 2.39 127 17:40 14.06.2020
1526 Clouds 15 1010 32 0 1.84 140 17:20 14.06.2020
1527 Clouds 15 1010 32 0 1.84 140 16:58 14.06.2020
1528 Clouds 15 1010 32 0 1.84 140 16:39 14.06.2020
1529 Clouds 15 1009 31 0 1.45 178 16:19 14.06.2020
1530 Clouds 15 1009 31 0 1.45 178 15:55 14.06.2020
1531 Clouds 15 1009 31 0 1.45 178 15:36 14.06.2020
1532 Clouds 17 1008 30 0 0.83 217 15:18 14.06.2020
1533 Clouds 17 1008 30 0 0.83 217 14:41 14.06.2020
1534 Clouds 22 1007 24 0 1.3 240 14:23 14.06.2020
1535 Clouds 22 1007 22 0 2.18 259 13:59 14.06.2020
1536 Clouds 22 1007 22 0 2.18 259 13:40 14.06.2020
1537 Clouds 22 1007 22 0 2.18 259 13:40 14.06.2020
1538 Clouds 23 1007 19 0 3.41 244 13:21 14.06.2020
1539 Clouds 23 1007 19 0 3.41 244 12:57 14.06.2020
1540 Clouds 23 1007 19 0 3.41 244 12:39 14.06.2020
1541 Clouds 24 1007 18 0 3.43 242 12:21 14.06.2020
1542 Clouds 24 1007 18 0 3.43 242 11:57 14.06.2020
1543 Clouds 24 1007 18 0 3.43 242 11:38 14.06.2020
1544 Clouds 24 1008 18 0 3.8 243 11:20 14.06.2020
1545 Clouds 24 1008 18 0 3.8 243 10:42 14.06.2020
1546 Clouds 24 1008 18 0 3.95 243 10:20 14.06.2020
1547 Clouds 24 1008 18 0 3.95 243 09:51 14.06.2020
1548 Clouds 24 1009 18 0 3.96 247 09:26 14.06.2020
1549 Clouds 24 1008 19 0 4.16 246 08:59 14.06.2020
1550 Clouds 24 1008 19 0 4.16 246 08:41 14.06.2020
1551 Clear 23 1009 19 0 3.67 251 08:18 14.06.2020
1552 Clear 23 1009 19 0 3.67 251 07:51 14.06.2020
1553 Clear 23 1009 19 0 3.67 251 07:32 14.06.2020
1554 Clear 23 1009 20 0 3.26 253 06:35 14.06.2020
1555 Clear 22 1010 22 0 2.66 247 05:44 14.06.2020
1556 Clear 21 1011 24 0 1.93 227 04:59 14.06.2020
1557 Clear 21 1011 24 0 1.93 227 04:33 14.06.2020
1558 Clear 18 1012 34 0 1.34 109 03:27 14.06.2020
1559 Clear 18 1012 34 0 1.34 109 02:30 14.06.2020
1560 Clear 16 1012 41 0 1.78 97 01:45 14.06.2020
1561 Clear 13 1012 50 0 1.81 94 01:23 14.06.2020
1562 Clear 13 1012 50 0 1.81 94 00:39 14.06.2020
1563 Clear 10 1012 53 0 1.8 94 00:19 14.06.2020
1564 Clear 10 1012 53 0 1.8 94 23:43 13.06.2020
1565 Clear 10 1012 52 0 1.72 95 23:24 13.06.2020
1566 Clear 10 1012 52 0 1.72 95 22:57 13.06.2020
1567 Clear 10 1012 52 0 1.72 95 22:37 13.06.2020
1568 Clear 10 1012 50 0 1.88 94 22:18 13.06.2020
1569 Clear 10 1012 50 0 1.88 94 22:18 13.06.2020
1570 Clear 10 1012 50 0 1.88 94 21:55 13.06.2020
1571 Clear 10 1012 50 0 1.88 94 21:37 13.06.2020
1572 Clear 11 1012 48 0 1.94 96 21:18 13.06.2020
1573 Clear 11 1012 48 0 1.94 96 20:42 13.06.2020
1574 Clear 11 1012 46 0 1.7 104 20:19 13.06.2020
1575 Clear 11 1012 46 0 1.7 104 19:54 13.06.2020
1576 Clear 11 1012 46 0 1.7 104 19:36 13.06.2020
1577 Clear 11 1012 45 0 1.53 105 19:18 13.06.2020
1578 Clear 11 1012 45 0 1.53 105 19:18 13.06.2020
1579 Clear 11 1012 45 0 1.53 105 18:41 13.06.2020
1580 Clouds 12 1012 44 0 1.2 102 18:21 13.06.2020
1581 Clouds 12 1012 44 0 1.2 102 18:00 13.06.2020
1582 Clouds 12 1012 44 0 1.2 102 17:41 13.06.2020
1583 Clouds 12 1012 43 0 0.57 101 17:23 13.06.2020
1584 Clouds 12 1012 43 0 0.57 101 16:56 13.06.2020
1585 Clouds 12 1012 43 0 0.57 101 16:38 13.06.2020
1586 Clouds 13 1012 40 0 0.72 186 16:19 13.06.2020
1587 Clouds 13 1012 40 0 0.72 186 15:45 13.06.2020
1588 Clouds 16 1011 34 0 2.07 213 15:27 13.06.2020
1589 Clouds 16 1011 34 0 2.07 213 14:59 13.06.2020
1590 Clouds 16 1011 34 0 2.07 213 14:41 13.06.2020
1591 Clouds 20 1011 30 0 0.85 291 14:20 13.06.2020
1592 Clouds 20 1011 30 0 0.85 291 13:44 13.06.2020
1593 Clouds 21 1010 24 0 1.68 286 13:26 13.06.2020
1594 Clouds 21 1010 24 0 1.68 286 12:55 13.06.2020
1595 Clouds 21 1010 24 0 1.68 286 12:37 13.06.2020
1596 Clouds 21 1010 24 0 1.98 268 12:19 13.06.2020
1597 Clouds 21 1010 24 0 1.98 268 11:40 13.06.2020
1598 Clouds 21 1010 24 0 1.77 259 11:19 13.06.2020
1599 Clouds 21 1010 24 0 1.77 259 10:58 13.06.2020
1600 Clouds 21 1010 24 0 1.77 259 10:39 13.06.2020
1601 Clouds 21 1011 24 0 1.51 250 10:20 13.06.2020
1602 Clouds 21 1011 24 0 1.51 250 09:45 13.06.2020
1603 Clear 20 1012 26 0 1.43 263 09:27 13.06.2020
1604 Clear 20 1011 26 0 1.45 260 08:56 13.06.2020
1605 Clear 20 1011 26 0 1.45 260 08:37 13.06.2020
1606 Clear 20 1012 27 0 1.53 284 08:19 13.06.2020
1607 Clear 20 1012 27 0 1.53 284 07:42 13.06.2020
1608 Clear 19 1013 30 0 1.82 290 07:23 13.06.2020
1609 Clear 19 1013 30 0 1.82 290 06:44 13.06.2020
1610 Clear 17 1013 33 0 1.53 284 06:24 13.06.2020
1611 Clear 16 1014 38 0 1.03 274 05:27 13.06.2020
1612 Clear 16 1014 38 0 1.03 274 04:34 13.06.2020
1613 Clear 13 1015 50 0 0.38 138 02:55 13.06.2020
1614 Clear 13 1015 50 0 0.38 138 02:37 13.06.2020
1615 Clear 11 1016 55 0 1.09 94 01:47 13.06.2020
1616 Clear 9 1016 66 0 1.59 78 01:22 13.06.2020
1617 Clear 9 1016 66 0 1.59 78 00:45 13.06.2020
1618 Clear 6 1016 73 0 1.68 74 00:26 13.06.2020
1619 Clear 6 1016 73 0 1.68 74 23:55 12.06.2020
1620 Clear 6 1016 73 0 1.68 74 23:37 12.06.2020
1621 Clear 6 1016 75 0 1.43 71 23:18 12.06.2020
1622 Clear 6 1016 75 0 1.43 71 22:41 12.06.2020
1623 Clear 6 1016 74 0 1.32 64 22:19 12.06.2020
1624 Clear 6 1016 74 0 1.32 64 21:50 12.06.2020
1625 Clear 7 1016 72 0 1.41 59 21:27 12.06.2020
1626 Clear 6 1016 74 0 1.36 53 20:59 12.06.2020
1627 Clear 6 1016 74 0 1.36 53 20:41 12.06.2020
1628 Clear 7 1016 70 0 1.61 51 20:22 12.06.2020
1629 Clear 7 1016 70 0 1.61 51 19:57 12.06.2020
1630 Clear 7 1016 70 0 1.61 51 19:57 12.06.2020
1631 Clear 7 1016 70 0 1.61 51 19:38 12.06.2020
1632 Clear 7 1016 68 0 1.83 48 19:18 12.06.2020
1633 Clear 7 1016 68 0 1.83 48 18:39 12.06.2020
1634 Clear 8 1015 65 0 2.04 38 18:19 12.06.2020
1635 Clear 8 1015 65 0 2.04 38 17:58 12.06.2020
1636 Clear 8 1015 65 0 2.04 38 17:38 12.06.2020
1637 Clear 9 1015 61 0 2.27 31 17:18 12.06.2020
1638 Clear 9 1015 61 0 2.27 31 16:41 12.06.2020
1639 Clear 10 1015 57 0 2.42 18 16:20 12.06.2020
1640 Clear 10 1015 57 0 2.42 18 15:48 12.06.2020
1641 Clear 12 1014 50 0 2.97 6 15:25 12.06.2020
1642 Clear 12 1014 50 0 2.97 6 14:56 12.06.2020
1643 Clear 12 1014 50 0 2.97 6 14:38 12.06.2020
1644 Clouds 15 1013 40 0 4.64 8 14:20 12.06.2020
1645 Clouds 15 1013 40 0 4.64 8 13:42 12.06.2020
1646 Clouds 16 1012 36 0 4.89 6 13:21 12.06.2020
1647 Clouds 16 1012 36 0 4.89 6 12:41 12.06.2020
1648 Clouds 16 1012 36 0 4.89 6 12:41 12.06.2020
1649 Clouds 16 1012 36 0 4.89 6 12:41 12.06.2020
1650 Clouds 16 1011 35 0 5.46 360 12:20 12.06.2020
1651 Clouds 16 1011 35 0 5.46 360 11:58 12.06.2020
1652 Clouds 16 1011 35 0 5.46 360 11:39 12.06.2020
1653 Clouds 16 1012 34 0 6.38 358 11:21 12.06.2020
1654 Clouds 16 1012 34 0 6.38 358 10:46 12.06.2020
1655 Clouds 16 1012 34 0 5.94 350 10:24 12.06.2020
1656 Clouds 16 1012 34 0 5.94 350 09:47 12.06.2020
1657 Clouds 16 1012 32 0 6.21 331 09:21 12.06.2020
1658 Clouds 16 1012 32 0 6.21 331 08:45 12.06.2020
1659 Clear 16 1013 32 0 5.32 331 08:25 12.06.2020
1660 Clear 16 1013 32 0 5.32 331 07:44 12.06.2020
1661 Clear 14 1013 33 0 4.09 330 07:26 12.06.2020
1662 Clear 14 1013 33 0 4.09 330 06:56 12.06.2020
1663 Clear 14 1013 33 0 4.09 330 06:30 12.06.2020
1664 Clear 13 1013 35 0 3.16 321 05:55 12.06.2020
1665 Clear 13 1013 35 0 3.16 321 05:37 12.06.2020
1666 Clear 11 1014 41 0 2.68 306 05:19 12.06.2020
1667 Clear 8 1015 53 0 1.46 315 03:24 12.06.2020
1668 Clouds 6 1015 61 0 1.1 355 01:57 12.06.2020
1669 Clouds 6 1015 61 0 1.1 355 01:29 12.06.2020
1670 Clear 4 1015 69 0 1.4 27 00:47 12.06.2020
1671 Clear 2 1016 83 0 1.45 18 00:26 12.06.2020
1672 Clear 2 1016 83 0 1.45 18 00:26 12.06.2020
1673 Clear 2 1016 83 0 1.45 18 23:59 11.06.2020
1674 Clear 2 1016 83 0 1.45 18 23:59 11.06.2020
1675 Clear 2 1016 83 0 1.45 18 23:41 11.06.2020
1676 Clear 1 1015 85 0 1.23 15 23:21 11.06.2020
1677 Clear 1 1015 85 0 1.23 15 22:59 11.06.2020
1678 Clear 1 1015 85 0 1.23 15 22:39 11.06.2020
1679 Clear 2 1015 82 0 1.3 33 22:20 11.06.2020
1680 Clear 2 1015 82 0 1.3 33 21:56 11.06.2020
1681 Clear 2 1015 82 0 1.3 33 21:38 11.06.2020
1682 Clear 2 1015 78 0 1.51 26 21:20 11.06.2020
1683 Clear 2 1015 78 0 1.51 26 21:20 11.06.2020
1684 Clear 2 1015 78 0 1.51 26 20:45 11.06.2020
1685 Clouds 3 1015 75 0 1.78 21 20:22 11.06.2020
1686 Clouds 3 1015 75 0 1.78 21 19:55 11.06.2020
1687 Clouds 3 1015 75 0 1.78 21 19:37 11.06.2020
1688 Clouds 3 1015 75 0 1.78 21 19:37 11.06.2020
1689 Clouds 4 1014 73 0 1.91 17 19:18 11.06.2020
1690 Clouds 4 1014 73 0 1.91 17 18:42 11.06.2020
1691 Clouds 4 1014 69 0 2.07 13 18:24 11.06.2020
1692 Clouds 4 1014 69 0 2.07 13 17:57 11.06.2020
1693 Clouds 4 1014 69 0 2.07 13 17:38 11.06.2020
1694 Clouds 5 1013 65 0 2.86 5 17:19 11.06.2020
1695 Clouds 5 1013 65 0 2.86 5 16:57 11.06.2020
1696 Clouds 5 1013 65 0 2.86 5 16:38 11.06.2020
1697 Clouds 6 1013 60 0 3.63 0 16:20 11.06.2020
1698 Clouds 6 1013 60 0 3.63 0 15:43 11.06.2020
1699 Clouds 8 1012 53 0 3.9 349 15:25 11.06.2020
1700 Clouds 8 1012 53 0 3.9 349 14:58 11.06.2020
1701 Clouds 8 1012 53 0 3.9 349 14:38 11.06.2020
1702 Clouds 10 1011 45 0 4.69 336 14:20 11.06.2020
1703 Clouds 10 1011 45 0 4.69 336 13:55 11.06.2020
1704 Clouds 10 1011 45 0 4.69 336 13:37 11.06.2020
1705 Clouds 11 1010 43 0 5.65 326 13:18 11.06.2020
1706 Clouds 11 1010 43 0 5.65 326 12:54 11.06.2020
1707 Clouds 11 1010 43 0 5.65 326 12:36 11.06.2020
1708 Clouds 12 1010 40 0 6.44 320 12:18 11.06.2020
1709 Clouds 12 1010 40 0 6.44 320 11:56 11.06.2020
1710 Clouds 12 1010 40 0 6.44 320 11:37 11.06.2020
1711 Clouds 12 1010 38 0 7.07 318 11:18 11.06.2020
1712 Clouds 12 1010 38 0 7.07 318 10:42 11.06.2020
1713 Clouds 13 1011 35 0 6.57 300 10:19 11.06.2020
1714 Clouds 13 1011 35 0 6.57 300 09:45 11.06.2020
1715 Clouds 13 1011 35 0 6.57 300 09:45 11.06.2020
1716 Clouds 13 1011 34 0 6.38 283 09:26 11.06.2020
1717 Clouds 13 1012 34 0 7 290 08:55 11.06.2020
1718 Clouds 13 1012 34 0 7 290 08:36 11.06.2020
1719 Clouds 13 1012 35 0 5.57 277 08:18 11.06.2020
1720 Clouds 13 1012 35 0 5.57 277 07:41 11.06.2020
1721 Clouds 12 1012 38 0 4.71 270 07:22 11.06.2020
1722 Clouds 12 1012 38 0 4.71 270 06:31 11.06.2020
1723 Clouds 11 1012 42 0 3.96 266 05:54 11.06.2020
1724 Clouds 10 1012 46 0 3.6 267 04:37 11.06.2020
1725 Clouds 8 1013 56 0 1.72 245 03:25 11.06.2020
1726 Clouds 8 1013 56 0 1.72 245 02:46 11.06.2020
1727 Clouds 7 1013 58 0 0.62 294 01:56 11.06.2020
1728 Clouds 7 1013 58 0 0.62 294 01:35 11.06.2020
1729 Clouds 6 1012 63 0 0.57 323 00:56 11.06.2020
1730 Clouds 6 1012 63 0 0.57 323 00:38 11.06.2020
1731 Clouds 5 1012 70 0 0.9 301 00:18 11.06.2020
1732 Clouds 5 1012 70 0 0.9 301 23:39 10.06.2020
1733 Clouds 4 1012 74 0 1.49 27 23:21 10.06.2020
1734 Clouds 4 1012 74 0 1.49 27 22:41 10.06.2020
1735 Clouds 5 1012 70 0 2.13 29 22:22 10.06.2020
1736 Clouds 5 1012 70 0 2.13 29 21:59 10.06.2020
1737 Clouds 5 1012 70 0 2.13 29 21:41 10.06.2020
1738 Clouds 5 1012 68 0 1.61 32 21:19 10.06.2020
1739 Clouds 5 1011 69 0 1.69 22 20:58 10.06.2020
1740 Clouds 5 1011 69 0 1.69 22 20:40 10.06.2020
1741 Clouds 5 1011 69 0 1.69 22 20:40 10.06.2020
1742 Clouds 6 1012 65 0 1.66 28 20:21 10.06.2020
1743 Clouds 6 1012 65 0 1.66 28 19:58 10.06.2020
1744 Clouds 6 1012 65 0 1.66 28 19:38 10.06.2020
1745 Clouds 6 1011 63 0 1.8 33 19:18 10.06.2020
1746 Clouds 6 1011 63 0 1.8 33 18:42 10.06.2020
1747 Clouds 7 1011 59 0 2.38 28 18:22 10.06.2020
1748 Clouds 7 1011 59 0 2.38 28 17:59 10.06.2020
1749 Clouds 7 1011 59 0 2.38 28 17:41 10.06.2020
1750 Clouds 8 1010 55 0 2.54 13 17:20 10.06.2020
1751 Clouds 8 1010 55 0 2.54 13 16:59 10.06.2020
1752 Clouds 8 1010 55 0 2.54 13 16:40 10.06.2020
1753 Clouds 10 1009 48 0 3.15 343 16:20 10.06.2020
1754 Clouds 10 1009 48 0 3.15 343 16:20 10.06.2020
1755 Clouds 10 1009 48 0 3.15 343 15:57 10.06.2020
1756 Clouds 10 1009 48 0 3.15 343 15:37 10.06.2020
1757 Clouds 11 1008 43 0 3.61 316 15:19 10.06.2020
1758 Clouds 11 1008 43 0 3.61 316 14:40 10.06.2020
1759 Clouds 14 1007 37 0 4.32 316 14:21 10.06.2020
1760 Clouds 14 1007 37 0 4.32 316 13:56 10.06.2020
1761 Clouds 14 1007 37 0 4.32 316 13:38 10.06.2020
1762 Clouds 15 1006 34 0 5.74 307 13:20 10.06.2020
1763 Clouds 15 1006 34 0 5.74 307 12:41 10.06.2020
1764 Clouds 16 1005 32 0 5.6 292 12:18 10.06.2020
1765 Clouds 16 1005 32 0 5.6 292 11:46 10.06.2020
1766 Clouds 16 1005 32 0 5.8 280 11:20 10.06.2020
1767 Clouds 16 1005 32 0 5.8 280 10:59 10.06.2020
1768 Clouds 16 1005 32 0 5.8 280 10:41 10.06.2020
1769 Clouds 16 1006 32 0 5.14 269 10:22 10.06.2020
1770 Clouds 16 1006 32 0 5.14 269 09:57 10.06.2020
1771 Clouds 16 1006 32 0 5.14 269 09:37 10.06.2020
1772 Clouds 15 1007 35 0 3.6 265 09:19 10.06.2020
1773 Clouds 15 1007 33 0 4.8 258 08:42 10.06.2020
1774 Clouds 15 1008 35 0 3.52 251 08:23 10.06.2020
1775 Clouds 15 1008 35 0 3.52 251 07:43 10.06.2020
1776 Clouds 13 1008 38 0 2.57 253 07:23 10.06.2020
1777 Clouds 13 1008 38 0 2.57 253 06:55 10.06.2020
1778 Clouds 13 1008 38 0 2.57 253 06:37 10.06.2020
1779 Clouds 12 1009 40 0 2.29 260 06:18 10.06.2020
1780 Clouds 12 1009 40 0 2.29 260 06:18 10.06.2020
1781 Clouds 12 1009 40 0 2.29 260 05:32 10.06.2020
1782 Clouds 12 1009 43 0 1.94 263 04:49 10.06.2020
1783 Clouds 11 1010 46 0 2.36 279 04:28 10.06.2020
1784 Clouds 9 1011 58 0 0.79 309 02:33 10.06.2020
1785 Clouds 8 1011 63 0 0.76 332 01:42 10.06.2020
1786 Clouds 7 1011 67 0 1.95 100 00:55 10.06.2020
1787 Clouds 7 1011 67 0 1.95 100 00:37 10.06.2020
1788 Clouds 6 1010 70 0 1.63 74 00:18 10.06.2020
1789 Clouds 6 1010 70 0 1.63 74 23:41 09.06.2020
1790 Clouds 5 1010 72 0 1.89 48 23:23 09.06.2020
1791 Clouds 5 1010 72 0 1.89 48 22:57 09.06.2020
1792 Clouds 5 1010 72 0 1.89 48 22:39 09.06.2020
1793 Clouds 5 1010 70 0 3.03 45 22:20 09.06.2020
1794 Clouds 5 1010 70 0 3.03 45 21:57 09.06.2020
1795 Clouds 5 1010 70 0 3.03 45 21:39 09.06.2020
1796 Clear 7 1009 55 0 2.88 12 21:21 09.06.2020
1797 Clear 7 1009 55 0 2.88 12 20:57 09.06.2020
1798 Clear 7 1009 55 0 2.88 12 20:39 09.06.2020
1799 Clouds 7 1009 54 0 0.97 87 20:20 09.06.2020
1800 Clouds 7 1009 54 0 0.97 87 19:58 09.06.2020
1801 Clouds 7 1009 54 0 0.97 87 19:39 09.06.2020
1802 Clouds 8 1008 50 0 2.18 129 19:20 09.06.2020
1803 Clouds 8 1008 50 0 2.18 129 18:57 09.06.2020
1804 Clouds 8 1008 50 0 2.18 129 18:39 09.06.2020
1805 Clouds 8 1008 48 0 2.52 140 18:19 09.06.2020
1806 Clouds 8 1008 48 0 2.52 140 17:55 09.06.2020
1807 Clouds 8 1008 48 0 2.52 140 17:37 09.06.2020
1808 Clouds 9 1007 46 0 2.36 153 17:18 09.06.2020
1809 Clouds 9 1007 46 0 2.36 153 16:42 09.06.2020
1810 Clouds 9 1007 47 0 1.61 169 16:23 09.06.2020
1811 Clouds 9 1007 47 0 1.61 169 15:56 09.06.2020
1812 Clouds 9 1007 47 0 1.61 169 15:37 09.06.2020
1813 Clouds 11 1007 44 0 1.73 231 15:19 09.06.2020
1814 Clouds 11 1007 44 0 1.73 231 14:42 09.06.2020
1815 Clear 14 1007 35 0 3.21 260 14:21 09.06.2020
1816 Clouds 15 1007 34 0 3.43 263 13:59 09.06.2020
1817 Clouds 15 1007 34 0 3.43 263 13:41 09.06.2020
1818 Clouds 15 1007 31 0 6.03 269 13:21 09.06.2020
1819 Clouds 15 1007 31 0 6.03 269 12:56 09.06.2020
1820 Clouds 15 1007 31 0 6.03 269 12:37 09.06.2020
1821 Clouds 16 1007 30 0 7.1 269 12:18 09.06.2020
1822 Clouds 16 1007 30 0 7.1 269 11:55 09.06.2020
1823 Clouds 16 1007 30 0 7.1 269 11:36 09.06.2020
1824 Clouds 16 1007 31 0 7.38 260 11:18 09.06.2020
1825 Clouds 16 1007 31 0 7.38 260 10:43 09.06.2020
1826 Clear 15 1008 32 0 7.28 252 10:25 09.06.2020
1827 Clear 15 1008 32 0 7.28 252 09:44 09.06.2020
1828 Clear 15 1009 34 0 6.63 249 09:25 09.06.2020
1829 Clouds 15 1008 33 0 6.43 247 08:57 09.06.2020
1830 Clouds 15 1008 33 0 6.43 247 08:38 09.06.2020
1831 Clear 14 1009 35 0 5.8 246 08:20 09.06.2020
1832 Clear 14 1009 35 0 5.8 246 07:39 09.06.2020
1833 Clear 13 1010 38 0 5 254 07:20 09.06.2020
1834 Clear 13 1010 38 0 5 254 06:54 09.06.2020
1835 Clear 13 1010 38 0 5 254 06:35 09.06.2020
1836 Clear 11 1011 42 0 3.87 267 05:36 09.06.2020
1837 Clear 8 1013 50 0 2.9 272 03:47 09.06.2020
1838 Clear 6 1015 58 0 1.55 257 01:44 09.06.2020
1839 Clear 4 1015 67 0 0.82 269 01:20 09.06.2020
1840 Clear 4 1015 67 0 0.82 269 00:55 09.06.2020
1841 Clear 4 1015 67 0 0.82 269 00:36 09.06.2020
1842 Clear 1 1015 81 0 0.71 294 00:18 09.06.2020
1843 Clear 1 1015 81 0 0.71 294 23:40 08.06.2020
1844 Clear 1 1015 79 0 1.2 301 23:19 08.06.2020
1845 Clear 1 1015 79 0 1.2 301 22:54 08.06.2020
1846 Clear 1 1015 79 0 1.2 301 22:36 08.06.2020
1847 Clear 2 1014 79 0 1.03 296 22:18 08.06.2020
1848 Clear 2 1014 79 0 1.03 296 21:54 08.06.2020
1849 Clear 2 1014 79 0 1.03 296 21:36 08.06.2020
1850 Clear 2 1015 76 0 1.32 322 21:18 08.06.2020
1851 Clear 2 1014 78 0 1.1 302 20:54 08.06.2020
1852 Clear 2 1014 78 0 1.1 302 20:36 08.06.2020
1853 Clouds 3 1015 74 0 1.36 302 20:18 08.06.2020
1854 Clouds 3 1015 74 0 1.36 302 19:41 08.06.2020
1855 Clouds 3 1015 72 0 0.98 278 19:20 08.06.2020
1856 Clouds 3 1015 72 0 0.98 278 18:41 08.06.2020
1857 Clouds 4 1015 68 0 1.56 342 18:20 08.06.2020
1858 Clouds 4 1015 68 0 1.56 342 17:57 08.06.2020
1859 Clouds 4 1015 68 0 1.56 342 17:39 08.06.2020
1860 Clouds 6 1014 62 0 1.44 345 17:20 08.06.2020
1861 Clouds 6 1014 62 0 1.44 345 16:46 08.06.2020
1862 Clouds 6 1013 63 0 1.45 20 16:25 08.06.2020
1863 Clouds 6 1013 63 0 1.45 20 15:59 08.06.2020
1864 Clouds 6 1013 63 0 1.45 20 15:41 08.06.2020
1865 Clouds 8 1012 54 0 2.48 336 15:21 08.06.2020
1866 Clouds 8 1012 54 0 2.48 336 15:21 08.06.2020
1867 Clouds 8 1012 54 0 2.48 336 14:56 08.06.2020
1868 Clouds 8 1012 54 0 2.48 336 14:56 08.06.2020
1869 Clouds 8 1012 54 0 2.48 336 14:38 08.06.2020
1870 Clouds 8 1012 54 0 2.48 336 14:38 08.06.2020
1871 Rain 10 1011 45 0 4.29 303 14:18 08.06.2020
1872 Rain 10 1011 45 0 4.29 303 13:42 08.06.2020
1873 Rain 11 1011 43 0 4.08 290 13:21 08.06.2020
1874 Rain 11 1011 43 0 4.08 290 12:42 08.06.2020
1875 Rain 11 1011 46 0 6.36 287 12:20 08.06.2020
1876 Rain 11 1011 46 0 6.36 287 11:58 08.06.2020
1877 Rain 11 1011 46 0 6.36 287 11:40 08.06.2020
1878 Rain 11 1010 46 0 6.67 289 11:21 08.06.2020
1879 Rain 11 1010 46 0 6.67 289 10:56 08.06.2020
1880 Rain 11 1010 46 0 6.67 289 10:37 08.06.2020
1881 Rain 11 1010 45 0 7.17 296 10:19 08.06.2020
1882 Rain 11 1010 45 0 7.17 296 09:47 08.06.2020
1883 Rain 10 1011 47 0 4.4 298 09:23 08.06.2020
1884 Rain 10 1011 47 0 4.4 298 08:50 08.06.2020
1885 Snow 11 1012 43 0 6.56 265 08:25 08.06.2020
1886 Snow 11 1012 43 0 6.56 265 07:59 08.06.2020
1887 Snow 11 1012 43 0 6.56 265 07:39 08.06.2020
1888 Clouds 10 1013 45 0 3.91 245 07:20 08.06.2020
1889 Clouds 10 1013 45 0 3.91 245 06:39 08.06.2020
1890 Clear 9 1014 51 0 2.33 249 05:55 08.06.2020
1891 Clear 7 1014 56 0 1.69 245 05:23 08.06.2020
1892 Clear 5 1016 67 0 0.8 212 03:26 08.06.2020
1893 Clear 4 1017 73 0 0.99 139 02:26 08.06.2020
1894 Clear 4 1017 73 0 1.03 136 01:43 08.06.2020
1895 Clear 2 1018 80 0 1.12 117 00:57 08.06.2020
1896 Clear 0 1018 93 0 0.98 116 00:25 08.06.2020
1897 Clear 0 1018 93 0 0.98 116 23:39 07.06.2020
1898 Clear 0 1018 93 0 1.06 96 23:19 07.06.2020
1899 Clear 0 1018 93 0 1.06 96 22:58 07.06.2020
1900 Clear 0 1018 93 0 1.06 96 22:38 07.06.2020
1901 Clear 0 1017 93 0 0.87 72 22:18 07.06.2020
1902 Clear 0 1017 93 0 0.87 72 21:58 07.06.2020
1903 Clear 0 1017 93 0 0.87 72 21:58 07.06.2020
1904 Clear 0 1017 93 0 0.87 72 21:37 07.06.2020
1905 Clear 0 1017 91 0 1 62 21:19 07.06.2020
1906 Clear 0 1017 91 0 1 62 20:40 07.06.2020
1907 Clouds 1 1017 89 0 1.26 39 20:21 07.06.2020
1908 Clouds 1 1017 89 0 1.26 39 19:58 07.06.2020
1909 Clouds 1 1017 89 0 1.26 39 19:39 07.06.2020
1910 Clouds 1 1017 88 0 1.33 22 19:21 07.06.2020
1911 Clouds 1 1017 88 0 1.33 22 18:59 07.06.2020
1912 Clouds 1 1017 88 0 1.33 22 18:38 07.06.2020
1913 Clouds 2 1016 84 0 1.73 30 18:20 07.06.2020
1914 Clouds 2 1016 84 0 1.73 30 17:57 07.06.2020
1915 Clouds 2 1016 84 0 1.73 30 17:38 07.06.2020
1916 Clouds 2 1015 80 0 2.46 11 17:20 07.06.2020
1917 Clouds 2 1015 80 0 2.46 11 16:43 07.06.2020
1918 Clouds 3 1014 75 0 2.62 347 16:22 07.06.2020
1919 Clouds 3 1014 75 0 2.62 347 15:44 07.06.2020
1920 Clouds 5 1013 68 0 2.77 330 15:22 07.06.2020
1921 Clouds 5 1013 68 0 2.77 330 14:41 07.06.2020
1922 Snow 7 1013 59 0 3.62 328 14:23 07.06.2020
1923 Snow 7 1013 60 0 3.37 321 14:23 07.06.2020
1924 Snow 7 1013 60 0 3.37 321 14:23 07.06.2020
1925 Snow 7 1013 60 0 3.37 321 14:23 07.06.2020
1926 Snow 7 1013 59 0 3.62 328 13:55 07.06.2020
1927 Snow 8 1012 56 0 4.34 314 13:24 07.06.2020
1928 Snow 8 1012 56 0 4.34 314 12:59 07.06.2020
1929 Snow 8 1012 56 0 4.34 314 12:41 07.06.2020
1930 Snow 8 1012 56 0 3.03 295 12:22 07.06.2020
1931 Snow 8 1012 56 0 3.03 295 11:55 07.06.2020
1932 Snow 8 1012 56 0 3.03 295 11:55 07.06.2020
1933 Snow 8 1012 56 0 3.03 295 11:37 07.06.2020
1934 Snow 6 1011 64 0 1.94 223 11:19 07.06.2020
1935 Snow 6 1011 64 0 1.94 223 10:54 07.06.2020
1936 Snow 6 1011 64 0 1.94 223 10:36 07.06.2020
1937 Snow 6 1011 68 0 2.68 235 10:18 07.06.2020
1938 Snow 6 1011 68 0 2.68 235 09:41 07.06.2020
1939 Snow 6 1011 61 0 2.04 32 09:21 07.06.2020
1940 Snow 6 1011 61 0 2.04 32 08:59 07.06.2020
1941 Snow 6 1011 61 0 2.04 32 08:40 07.06.2020
1942 Snow 5 1011 67 0 2.04 24 08:22 07.06.2020
1943 Snow 5 1011 67 0 2.04 24 07:41 07.06.2020
1944 Snow 6 1012 66 0 1.84 248 06:56 07.06.2020
1945 Snow 6 1012 61 0 4.18 227 06:21 07.06.2020
1946 Snow 6 1012 62 0 4.83 223 04:22 07.06.2020
1947 Snow 6 1012 62 0 4.83 223 03:50 07.06.2020
1948 Snow 5 1012 66 0 6.36 238 02:26 07.06.2020
1949 Snow 3 1012 81 0 1.46 314 01:39 07.06.2020
1950 Snow 2 1011 85 0 1.37 352 01:21 07.06.2020
1951 Snow 2 1011 85 0 1.37 352 00:39 07.06.2020
1952 Snow 2 1011 83 0 2.54 336 00:18 07.06.2020
1953 Snow 2 1011 83 0 2.54 336 23:38 06.06.2020
1954 Clouds 3 1009 74 0 2.77 338 23:20 06.06.2020
1955 Clouds 3 1009 74 0 2.77 338 22:58 06.06.2020
1956 Clouds 3 1009 74 0 2.77 338 22:39 06.06.2020
1957 Clouds 5 1008 63 0 2.75 13 22:20 06.06.2020
1958 Clouds 5 1008 63 0 2.75 13 21:56 06.06.2020
1959 Clouds 5 1008 63 0 2.75 13 21:38 06.06.2020
1960 Clouds 5 1008 64 0 3.26 310 21:19 06.06.2020
1961 Clouds 5 1008 64 0 3.26 310 20:40 06.06.2020
1962 Clouds 5 1008 64 0 3.26 310 20:40 06.06.2020
1963 Clouds 5 1008 64 0 1.21 360 20:20 06.06.2020
1964 Clouds 5 1008 64 0 1.21 360 19:58 06.06.2020
1965 Clouds 5 1008 64 0 1.21 360 19:40 06.06.2020
1966 Clouds 6 1007 57 0 2.59 6 19:21 06.06.2020
1967 Clouds 6 1007 57 0 2.59 6 18:56 06.06.2020
1968 Clouds 6 1007 57 0 2.59 6 18:37 06.06.2020
1969 Clouds 8 1006 50 0 4.13 357 18:18 06.06.2020
1970 Clouds 8 1006 50 0 4.13 357 17:43 06.06.2020
1971 Clouds 8 1006 46 0 3.58 347 17:20 06.06.2020
1972 Clouds 8 1006 46 0 3.58 347 16:57 06.06.2020
1973 Clouds 8 1006 46 0 3.58 347 16:38 06.06.2020
1974 Clouds 8 1004 45 0 3.18 353 16:20 06.06.2020
1975 Clouds 8 1004 45 0 3.18 353 15:45 06.06.2020
1976 Clouds 10 1003 42 0 2.41 334 15:21 06.06.2020
1977 Clouds 10 1003 42 0 2.41 334 14:59 06.06.2020
1978 Clouds 10 1003 42 0 2.41 334 14:38 06.06.2020
1979 Clouds 12 1003 33 0 3.4 287 14:19 06.06.2020
1980 Clouds 12 1003 33 0 3.4 287 13:48 06.06.2020
1981 Clouds 13 1003 31 0 3.96 287 13:19 06.06.2020
1982 Clouds 13 1003 31 0 3.96 287 12:58 06.06.2020
1983 Clouds 13 1003 31 0 3.96 287 12:39 06.06.2020
1984 Clouds 14 1003 30 0 5.65 291 12:20 06.06.2020
1985 Clouds 14 1003 30 0 5.65 291 11:56 06.06.2020
1986 Clouds 14 1003 30 0 5.65 291 11:37 06.06.2020
1987 Clouds 14 1003 29 0 6.97 272 11:18 06.06.2020
1988 Clouds 14 1003 29 0 6.97 272 10:56 06.06.2020
1989 Clouds 14 1003 29 0 6.97 272 10:38 06.06.2020
1990 Clouds 15 1003 29 0 7.39 261 10:20 06.06.2020
1991 Clouds 15 1003 29 0 7.39 261 09:44 06.06.2020
1992 Clouds 15 1004 29 0 6.5 263 09:25 06.06.2020
1993 Clouds 15 1004 29 0 6.5 263 08:49 06.06.2020
1994 Clouds 14 1004 30 0 6 261 08:25 06.06.2020
1995 Clouds 14 1004 30 0 6 261 07:57 06.06.2020
1996 Clouds 14 1004 30 0 6 261 07:39 06.06.2020
1997 Clouds 13 1005 33 0 4.78 263 07:20 06.06.2020
1998 Clouds 13 1005 33 0 4.78 263 06:45 06.06.2020
1999 Clouds 12 1006 36 0 4.58 272 06:26 06.06.2020
2000 Clouds 12 1006 36 0 4.58 272 05:44 06.06.2020
2001 Clouds 11 1006 39 0 4.97 276 05:23 06.06.2020
2002 Clouds 10 1005 44 0 3.73 281 03:46 06.06.2020
2003 Clouds 9 1005 50 0 3.95 261 02:36 06.06.2020
2004 Clouds 9 1004 54 0 2.54 259 01:23 06.06.2020
2005 Clouds 9 1004 54 0 2.54 259 00:59 06.06.2020
2006 Clouds 9 1004 54 0 2.54 259 00:40 06.06.2020
2007 Clouds 10 1002 57 0 4.77 272 00:22 06.06.2020
2008 Clouds 10 1002 57 0 4.77 272 23:40 05.06.2020
2009 Clouds 12 1000 67 0 2.75 208 23:20 05.06.2020
2010 Clouds 12 1000 67 0 2.75 208 22:58 05.06.2020
2011 Clouds 12 1000 67 0 2.75 208 22:39 05.06.2020
2012 Rain 12 998 65 0 1.73 195 22:21 05.06.2020
2013 Rain 12 998 65 0 1.73 195 21:55 05.06.2020
2014 Rain 12 998 65 0 1.73 195 21:37 05.06.2020
2015 Rain 11 996 67 0 1.18 238 21:18 05.06.2020
2016 Rain 11 996 67 0 1.18 238 20:44 05.06.2020
2017 Clouds 12 996 64 0 2.01 189 20:22 05.06.2020
2018 Clouds 12 996 64 0 2.01 189 19:57 05.06.2020
2019 Clouds 12 996 64 0 2.01 189 19:39 05.06.2020
2020 Clouds 13 996 60 0 2.46 170 19:20 05.06.2020
2021 Clouds 13 996 60 0 2.46 170 18:40 05.06.2020
2022 Clouds 12 997 62 0 0.85 177 18:21 05.06.2020
2023 Clouds 12 997 62 0 0.85 177 17:59 05.06.2020
2024 Clouds 12 997 62 0 0.85 177 17:40 05.06.2020
2025 Rain 12 997 64 0 1.92 175 17:20 05.06.2020
2026 Rain 12 997 64 0 1.92 175 16:45 05.06.2020
2027 Rain 13 997 62 0 2.74 117 16:26 05.06.2020
2028 Rain 13 997 62 0 2.74 117 15:59 05.06.2020
2029 Rain 13 997 62 0 2.74 117 15:38 05.06.2020
2030 Clear 14 997 57 0 2.46 124 15:20 05.06.2020
2031 Clear 14 997 57 0 2.46 124 14:57 05.06.2020
2032 Clear 14 997 57 0 2.46 124 14:39 05.06.2020
2033 Clouds 19 995 33 0 4.53 212 14:21 05.06.2020
2034 Clouds 19 995 33 0 4.53 212 13:44 05.06.2020
2035 Clouds 20 995 29 0 5.89 225 13:26 05.06.2020
2036 Clouds 20 995 29 0 5.89 225 12:55 05.06.2020
2037 Clouds 20 995 29 0 5.89 225 12:37 05.06.2020
2038 Clouds 20 995 27 0 4.95 243 12:18 05.06.2020
2039 Clouds 20 995 27 0 4.95 243 11:42 05.06.2020
2040 Clouds 20 995 27 0 4.57 268 11:23 05.06.2020
2041 Clouds 20 995 27 0 4.57 268 10:57 05.06.2020
2042 Clouds 20 995 27 0 4.57 268 10:39 05.06.2020
2043 Clouds 20 995 25 0 9.22 255 10:19 05.06.2020
2044 Clouds 20 995 25 0 9.22 255 09:56 05.06.2020
2045 Clouds 20 995 25 0 9.22 255 09:37 05.06.2020
2046 Clouds 22 996 22 0 7.52 237 09:18 05.06.2020
2047 Clouds 22 996 22 0 7.52 237 08:56 05.06.2020
2048 Clouds 22 996 22 0 7.52 237 08:38 05.06.2020
2049 Clouds 22 997 23 0 6.18 245 08:18 05.06.2020
2050 Clouds 22 997 23 0 6.18 245 07:44 05.06.2020
2051 Clouds 21 998 23 0 6.57 243 07:25 05.06.2020
2052 Clouds 21 998 23 0 6.57 243 06:36 05.06.2020
2053 Clouds 19 999 27 0 3.6 238 05:22 05.06.2020
2054 Clouds 17 999 30 0 2.15 218 04:27 05.06.2020
2055 Clouds 16 1000 36 0 1.67 189 03:20 05.06.2020
2056 Clouds 14 1001 39 0 1.68 180 02:26 05.06.2020
2057 Clouds 14 1001 38 0 1.98 144 01:57 05.06.2020
2058 Clouds 14 1001 38 0 1.98 144 01:30 05.06.2020
2059 Clouds 11 1002 47 0 1.23 146 00:43 05.06.2020
2060 Clouds 8 1002 54 0 0.92 192 00:21 05.06.2020
2061 Clouds 8 1002 54 0 0.92 192 23:47 04.06.2020
2062 Clouds 8 1002 54 0 0.92 192 23:28 04.06.2020
2063 Clouds 10 1002 47 0 2.04 168 22:56 04.06.2020
2064 Clouds 10 1002 47 0 2.04 168 22:37 04.06.2020
2065 Clouds 10 1002 45 0 1.87 186 22:18 04.06.2020
2066 Clouds 10 1002 45 0 1.87 186 21:56 04.06.2020
2067 Clouds 10 1002 45 0 1.87 186 21:38 04.06.2020
2068 Clouds 10 1002 44 0 1.3 166 21:19 04.06.2020
2069 Clouds 10 1001 44 0 1.59 189 20:55 04.06.2020
2070 Clouds 10 1001 44 0 1.59 189 20:36 04.06.2020
2071 Clouds 11 1001 41 0 1.62 169 20:18 04.06.2020
2072 Clouds 11 1001 41 0 1.62 169 19:40 04.06.2020
2073 Clouds 11 1001 40 0 1.72 162 19:21 04.06.2020
2074 Clouds 11 1001 40 0 1.72 162 18:56 04.06.2020
2075 Clouds 11 1001 40 0 1.72 162 18:38 04.06.2020
2076 Clear 12 1001 39 0 1.83 159 18:20 04.06.2020
2077 Clear 12 1001 39 0 1.83 159 17:42 04.06.2020
2078 Clear 12 1001 38 0 1.65 163 17:21 04.06.2020
2079 Clear 12 1001 38 0 1.65 163 16:56 04.06.2020
2080 Clear 12 1001 38 0 1.65 163 16:38 04.06.2020
2081 Clear 12 1000 37 0 1.89 204 16:18 04.06.2020
2082 Clear 12 1000 37 0 1.89 204 15:43 04.06.2020
2083 Clear 15 1000 33 0 2.58 246 15:24 04.06.2020
2084 Clear 15 1000 33 0 2.58 246 14:40 04.06.2020
2085 Clouds 19 1000 27 0 4.01 256 14:21 04.06.2020
2086 Clouds 19 1000 27 0 4.01 256 13:56 04.06.2020
2087 Clouds 19 1000 27 0 4.01 256 13:38 04.06.2020
2088 Clouds 20 999 25 0 6.01 259 13:20 04.06.2020
2089 Clouds 20 999 25 0 6.01 259 12:55 04.06.2020
2090 Clouds 20 999 25 0 6.01 259 12:37 04.06.2020
2091 Clouds 20 999 25 0 6.01 259 12:37 04.06.2020
2092 Clouds 21 1000 24 0 7.85 257 12:18 04.06.2020
2093 Clouds 21 1000 24 0 7.85 257 11:41 04.06.2020
2094 Clouds 21 1000 24 0 7.85 257 11:41 04.06.2020
2095 Clouds 21 1000 24 0 7.73 256 11:20 04.06.2020
2096 Clouds 21 1000 24 0 7.73 256 10:59 04.06.2020
2097 Clouds 21 1000 24 0 7.73 256 10:39 04.06.2020
2098 Clouds 21 1001 24 0 7.61 257 10:20 04.06.2020
2099 Clouds 21 1001 24 0 7.61 257 09:46 04.06.2020
2100 Clouds 21 1001 24 0 7.91 252 09:28 04.06.2020
2101 Clouds 21 1001 24 0 7.91 252 08:51 04.06.2020
2102 Clouds 21 1001 24 0 7.91 252 08:31 04.06.2020
2103 Clouds 21 1002 25 0 7.07 247 07:59 04.06.2020
2104 Clouds 21 1002 25 0 7.07 247 07:31 04.06.2020
2105 Clouds 20 1003 27 0 6.44 247 06:45 04.06.2020
2106 Clouds 20 1003 27 0 6.44 247 06:45 04.06.2020
2107 Clouds 19 1003 29 0 5 238 06:26 04.06.2020
2108 Clouds 19 1003 29 0 5 238 05:51 04.06.2020
2109 Clouds 19 1003 29 0 5 238 05:31 04.06.2020
2110 Clouds 16 1004 35 0 1.91 206 03:31 04.06.2020
2111 Clouds 13 1006 39 0 1.16 117 01:59 04.06.2020
2112 Clouds 11 1007 48 0 1.14 93 01:20 04.06.2020
2113 Clouds 11 1007 48 0 1.14 93 00:53 04.06.2020
2114 Clear 8 1007 57 0 0.78 109 23:56 03.06.2020
2115 Clear 8 1007 57 0 0.78 109 23:36 03.06.2020
2116 Clear 8 1007 56 0 0.84 98 23:18 03.06.2020
2117 Clear 8 1007 56 0 0.84 98 22:40 03.06.2020
2118 Clear 8 1007 54 0 0.97 60 22:19 03.06.2020
2119 Clear 8 1007 54 0 0.97 60 21:59 03.06.2020
2120 Clear 8 1007 54 0 0.97 60 21:59 03.06.2020
2121 Clear 8 1007 54 0 0.97 60 21:40 03.06.2020
2122 Clear 9 1007 51 0 1.19 57 21:21 03.06.2020
2123 Clear 9 1007 51 0 1.19 57 21:21 03.06.2020
2124 Clear 9 1007 53 0 0.79 111 20:58 03.06.2020
2125 Clear 9 1007 53 0 0.79 111 20:39 03.06.2020
2126 Clouds 9 1007 49 0 1.16 137 20:20 03.06.2020
2127 Clouds 9 1007 49 0 1.16 137 19:57 03.06.2020
2128 Clouds 9 1007 49 0 1.16 137 19:37 03.06.2020
2129 Clouds 9 1007 49 0 1.16 137 19:37 03.06.2020
2130 Clouds 10 1007 47 0 0.96 131 19:19 03.06.2020
2131 Clouds 10 1007 47 0 0.96 131 18:55 03.06.2020
2132 Clouds 10 1007 47 0 0.96 131 18:37 03.06.2020
2133 Clouds 11 1007 45 0 0.89 90 18:18 03.06.2020
2134 Clouds 11 1007 45 0 0.89 90 17:42 03.06.2020
2135 Clouds 11 1007 44 0 1.06 98 17:21 03.06.2020
2136 Clouds 11 1007 44 0 1.06 98 16:56 03.06.2020
2137 Clouds 11 1007 44 0 1.06 98 16:38 03.06.2020
2138 Clouds 12 1005 40 0 1.58 5 16:18 03.06.2020
2139 Clouds 12 1005 40 0 1.58 5 16:18 03.06.2020
2140 Clouds 12 1005 40 0 1.58 5 15:41 03.06.2020
2141 Clouds 15 1004 35 0 1.77 347 15:21 03.06.2020
2142 Clouds 15 1004 35 0 1.77 347 14:57 03.06.2020
2143 Clouds 15 1004 35 0 1.77 347 14:38 03.06.2020
2144 Clouds 18 1004 28 0 2.5 318 14:20 03.06.2020
2145 Clouds 18 1004 28 0 2.5 318 13:38 03.06.2020
2146 Clear 19 1004 26 0 4.4 322 13:19 03.06.2020
2147 Clear 19 1004 26 0 4.4 322 12:43 03.06.2020
2148 Clear 20 1004 25 0 5.92 311 12:22 03.06.2020
2149 Clear 20 1004 25 0 5.92 311 11:57 03.06.2020
2150 Clear 20 1004 25 0 5.92 311 11:38 03.06.2020
2151 Clear 21 1004 23 0 6.2 304 11:20 03.06.2020
2152 Clear 21 1004 23 0 6.2 304 10:41 03.06.2020
2153 Clear 21 1004 23 0 5.86 306 10:22 03.06.2020
2154 Clear 21 1004 23 0 5.86 306 09:45 03.06.2020
2155 Clouds 20 1004 23 0 4.32 310 09:20 03.06.2020
2156 Clouds 20 1004 23 0 4.32 310 08:58 03.06.2020
2157 -273 0 0 0 0 0 08:58 03.06.2020
2158 Clouds 20 1004 23 0 4.32 310 08:58 03.06.2020
2159 Clouds 20 1004 23 0 4.32 310 08:58 03.06.2020
2160 Clouds 20 1004 23 0 4.32 310 08:58 03.06.2020
2161 Clouds 20 1004 23 0 4.32 310 08:40 03.06.2020
2162 Clouds 20 1005 25 0 4.08 314 08:19 03.06.2020
2163 Clouds 20 1005 25 0 4.08 314 07:42 03.06.2020
2164 Clear 19 1006 27 0 3.81 330 07:20 03.06.2020
2165 Clear 19 1006 27 0 3.81 330 06:52 03.06.2020
2166 Clear 19 1006 27 0 3.81 330 06:30 03.06.2020
2167 Clear 18 1007 30 0 3.75 338 05:47 03.06.2020
2168 Clear 17 1008 36 0 3.47 346 04:56 03.06.2020
2169 Clear 15 1008 47 0 2.56 348 03:50 03.06.2020
2170 Clear 14 1008 55 0 2.17 317 02:57 03.06.2020
2171 Clouds 12 1008 64 0 1.63 265 01:52 03.06.2020
2172 Clouds 11 1007 70 0 1.9 240 00:43 03.06.2020
2173 Clouds 10 1007 72 0 1.25 220 00:25 03.06.2020
2174 Clouds 10 1007 72 0 1.25 220 23:51 02.06.2020
2175 Clouds 10 1007 72 0 0.14 319 23:28 02.06.2020
2176 Clouds 10 1007 72 0 0.14 319 23:28 02.06.2020
2177 Clouds 10 1007 72 0 0.14 319 22:57 02.06.2020
2178 Clouds 10 1007 72 0 0.14 319 22:38 02.06.2020
2179 Clouds 11 1006 64 0 1.86 2 22:19 02.06.2020
2180 Clouds 11 1006 64 0 1.86 2 21:56 02.06.2020
2181 Clouds 11 1006 64 0 1.86 2 21:37 02.06.2020
2182 Clouds 11 1006 59 0 0.89 322 21:19 02.06.2020
2183 Clouds 13 1005 50 0 3.35 350 20:55 02.06.2020
2184 Clouds 13 1005 50 0 3.35 350 20:36 02.06.2020
2185 Clouds 10 1005 55 0 0.6 0 20:18 02.06.2020
2186 Clouds 10 1005 55 0 0.6 0 19:42 02.06.2020
2187 Clouds 10 1005 56 0 0.7 99 19:24 02.06.2020
2188 Clouds 10 1005 56 0 0.7 99 18:57 02.06.2020
2189 Clouds 10 1005 56 0 0.7 99 18:39 02.06.2020
2190 Clouds 11 1005 51 0 1.49 65 18:20 02.06.2020
2191 Clouds 11 1005 51 0 1.49 65 17:55 02.06.2020
2192 Clouds 11 1005 51 0 1.49 65 17:37 02.06.2020
2193 Clouds 12 1006 48 0 1.32 9 17:18 02.06.2020
2194 Clouds 12 1006 48 0 1.32 9 16:40 02.06.2020
2195 Clouds 14 1005 42 0 1.79 296 16:21 02.06.2020
2196 Clouds 14 1005 42 0 1.79 296 15:58 02.06.2020
2197 Clouds 14 1005 42 0 1.79 296 15:38 02.06.2020
2198 Clouds 16 1005 38 0 2.46 272 15:20 02.06.2020
2199 Clouds 16 1005 38 0 2.46 272 14:45 02.06.2020
2200 Clouds 19 1004 34 0 3.77 283 14:27 02.06.2020
2201 Clouds 19 1004 34 0 3.77 283 13:55 02.06.2020
2202 Clouds 19 1004 34 0 3.77 283 13:36 02.06.2020
2203 Clouds 20 1004 30 0 6.63 283 13:18 02.06.2020
2204 Clouds 20 1004 30 0 6.63 283 12:40 02.06.2020
2205 Clouds 20 1004 29 0 6.43 282 12:22 02.06.2020
2206 Clouds 20 1004 29 0 6.43 282 11:59 02.06.2020
2207 Clouds 20 1004 29 0 6.43 282 11:40 02.06.2020
2208 Clouds 20 1004 29 0 5.35 276 11:20 02.06.2020
2209 Clouds 20 1004 29 0 5.35 276 10:50 02.06.2020
2210 Clouds 20 1004 29 0 5.35 276 10:29 02.06.2020
2211 Clouds 20 1004 29 0 5.6 273 09:59 02.06.2020
2212 Clouds 20 1004 29 0 5.6 273 09:40 02.06.2020
2213 Clouds 19 1005 33 0 5.63 274 09:20 02.06.2020
2214 Clouds 19 1005 33 0 5.63 274 08:51 02.06.2020
2215 Clouds 19 1007 32 0 6.51 290 08:23 02.06.2020
2216 Clouds 19 1007 32 0 6.51 290 07:54 02.06.2020
2217 Clouds 19 1007 32 0 6.51 290 07:30 02.06.2020
2218 Clouds 18 1008 35 0 6.01 304 06:51 02.06.2020
2219 Clouds 18 1008 35 0 6.01 304 06:31 02.06.2020
2220 Clouds 16 1009 40 0 4.45 318 05:27 02.06.2020
2221 Clouds 15 1009 46 0 2.83 325 03:29 02.06.2020
2222 Clear 13 1009 51 0 2.31 346 02:30 02.06.2020
2223 Clouds 12 1009 50 0 1.03 298 01:34 02.06.2020
2224 Clouds 7 1010 66 0 0.68 28 00:26 02.06.2020
2225 Clouds 7 1010 66 0 0.68 28 23:59 01.06.2020
2226 Clouds 7 1010 66 0 0.68 28 23:38 01.06.2020
2227 Clouds 7 1010 62 0 0.89 336 23:18 01.06.2020
2228 Clouds 7 1010 62 0 0.89 336 22:56 01.06.2020
2229 Clouds 7 1010 62 0 0.89 336 22:37 01.06.2020
2230 Clouds 8 1009 57 0 0.65 295 22:18 01.06.2020
2231 Clouds 8 1009 57 0 0.65 295 21:41 01.06.2020
2232 Clouds 8 1009 55 0 1.42 24 21:20 01.06.2020
2233 Clouds 8 1009 55 0 1.42 24 20:58 01.06.2020
2234 Clouds 8 1009 55 0 1.42 24 20:40 01.06.2020
2235 Clouds 9 1009 52 0 1.79 29 20:19 01.06.2020
2236 Clouds 9 1009 52 0 1.79 29 19:56 01.06.2020
2237 Clouds 9 1009 52 0 1.79 29 19:38 01.06.2020
2238 Clouds 10 1009 45 0 2.64 9 19:19 01.06.2020
2239 Clouds 10 1009 45 0 2.64 9 18:55 01.06.2020
2240 Clouds 10 1009 45 0 2.64 9 18:37 01.06.2020
2241 Clouds 11 1008 41 0 1.85 315 18:18 01.06.2020
2242 Clouds 11 1008 41 0 1.85 315 17:40 01.06.2020
2243 Clouds 11 1008 43 0 1.63 245 17:20 01.06.2020
2244 Clouds 11 1008 43 0 1.63 245 16:42 01.06.2020
2245 Clouds 11 1008 43 0 1.63 245 16:42 01.06.2020
2246 Clear 12 1007 40 0 2.39 244 16:24 01.06.2020
2247 Clear 12 1007 40 0 2.39 244 15:59 01.06.2020
2248 Clear 12 1007 40 0 2.39 244 15:40 01.06.2020
2249 Clear 14 1006 35 0 3.4 262 15:21 01.06.2020
2250 Clear 14 1006 35 0 3.4 262 14:58 01.06.2020
2251 Clear 14 1006 35 0 3.4 262 14:40 01.06.2020
2252 Clear 17 1005 30 0 5.03 272 14:21 01.06.2020
2253 Clear 17 1005 30 0 5.03 272 13:55 01.06.2020
2254 Clear 17 1005 30 0 5.03 272 13:37 01.06.2020
2255 Clear 17 1005 30 0 5.03 272 13:37 01.06.2020
2256 Clear 18 1005 26 0 8.39 278 13:18 01.06.2020
2257 Clear 18 1005 26 0 8.39 278 13:18 01.06.2020
2258 Clear 18 1005 26 0 8.39 278 12:54 01.06.2020
2259 Clear 18 1005 26 0 8.39 278 12:36 01.06.2020
2260 Clear 19 1006 25 0 9.19 282 12:18 01.06.2020
2261 Clear 19 1006 25 0 9.19 282 11:39 01.06.2020
2262 Clear 19 1006 25 0 9.05 277 11:21 01.06.2020
2263 Clear 19 1006 25 0 9.05 277 10:57 01.06.2020
2264 Clear 19 1006 25 0 9.05 277 10:37 01.06.2020
2265 Clear 19 1007 25 0 8.78 271 10:18 01.06.2020
2266 Clear 19 1007 25 0 8.78 271 09:46 01.06.2020
2267 Clear 19 1007 26 0 7.85 268 09:27 01.06.2020
2268 Clouds 19 1007 26 0 7.81 270 08:59 01.06.2020
2269 Clouds 19 1007 26 0 7.81 270 08:40 01.06.2020
2270 Clouds 18 1008 27 0 7.92 276 08:22 01.06.2020
2271 Clouds 18 1008 27 0 7.92 276 07:42 01.06.2020
2272 Clouds 17 1010 29 0 5.57 259 07:24 01.06.2020
2273 Clouds 17 1010 29 0 5.57 259 06:51 01.06.2020
2274 Clouds 15 1011 33 0 3.55 263 05:58 01.06.2020
2275 Clouds 13 1012 36 0 2.61 262 05:22 01.06.2020
2276 Clouds 12 1012 41 0 1.21 239 04:18 01.06.2020
2277 Clouds 12 1012 41 0 1.21 239 03:42 01.06.2020
2278 Clouds 10 1012 47 0 0.69 148 02:57 01.06.2020
2279 Clear 8 1012 55 0 1.43 103 01:40 01.06.2020
2280 Clear 6 1014 64 0 1.41 97 01:18 01.06.2020
2281 Clear 6 1014 64 0 1.41 97 00:56 01.06.2020
2282 Clear 6 1014 64 0 1.41 97 00:37 01.06.2020
2283 Clear 3 1014 77 0 1.1 115 00:19 01.06.2020
2284 Clear 3 1014 77 0 1.1 115 23:41 31.05.2020
2285 Clear 3 1014 78 0 0.87 143 23:22 31.05.2020
2286 Clear 3 1014 78 0 0.87 143 22:59 31.05.2020
2287 Clear 3 1014 78 0 0.87 143 22:41 31.05.2020
2288 Clear 3 1014 77 0 0.78 132 22:22 31.05.2020
2289 Clear 3 1014 77 0 0.78 132 21:57 31.05.2020
2290 Clear 3 1014 77 0 0.78 132 21:39 31.05.2020
2291 Clear 3 1014 76 0 0.88 73 21:20 31.05.2020
2292 Clear 3 1014 76 0 0.88 73 20:45 31.05.2020
2293 Clouds 3 1014 74 0 1.04 61 20:25 31.05.2020
2294 Clouds 3 1014 74 0 1.04 61 19:56 31.05.2020
2295 Clouds 3 1014 74 0 1.04 61 19:38 31.05.2020
2296 Clouds 4 1014 72 0 0.95 67 19:20 31.05.2020
2297 Clouds 4 1014 72 0 0.95 67 18:45 31.05.2020
2298 Clear 4 1014 72 0 0.63 68 18:25 31.05.2020
2299 Clear 4 1014 72 0 0.63 68 17:59 31.05.2020
2300 Clear 4 1014 72 0 0.63 68 17:40 31.05.2020
2301 Clear 5 1014 70 0 0.79 44 17:21 31.05.2020
2302 Clear 5 1014 70 0 0.79 44 16:41 31.05.2020
2303 Clear 6 1013 64 0 2.15 28 16:21 31.05.2020
2304 Clear 6 1013 64 0 2.15 28 15:55 31.05.2020
2305 Clear 6 1013 64 0 2.15 28 15:36 31.05.2020
2306 Clear 8 1011 55 0 4.26 353 15:18 31.05.2020
2307 Clear 8 1011 55 0 4.26 353 14:41 31.05.2020
2308 Rain 10 1010 49 0 7.03 342 14:19 31.05.2020
2309 Rain 10 1010 49 0 7.03 342 13:55 31.05.2020
2310 Rain 10 1010 49 0 7.03 342 13:37 31.05.2020
2311 Rain 11 1010 46 0 7.8 336 13:19 31.05.2020
2312 Rain 11 1010 46 0 7.8 336 12:43 31.05.2020
2313 Rain 11 1009 44 0 9.43 331 12:24 31.05.2020
2314 Rain 11 1009 44 0 9.43 331 11:55 31.05.2020
2315 Rain 11 1009 44 0 9.43 331 11:36 31.05.2020
2316 Rain 11 1009 43 0 11.46 317 11:18 31.05.2020
2317 Rain 11 1009 43 0 11.46 317 10:43 31.05.2020
2318 Rain 11 1009 43 0 11.17 312 10:25 31.05.2020
2319 Rain 11 1009 43 0 11.17 312 10:25 31.05.2020
2320 Rain 11 1009 43 0 11.17 312 09:58 31.05.2020
2321 Rain 11 1009 43 0 11.17 312 09:40 31.05.2020
2322 Rain 10 1008 47 0 7.31 318 09:20 31.05.2020
2323 Rain 10 1008 47 0 7.31 318 08:42 31.05.2020
2324 Rain 10 1008 47 0 7.22 328 08:24 31.05.2020
2325 Rain 10 1008 47 0 7.22 328 07:49 31.05.2020
2326 Rain 9 1008 56 0 4.4 334 07:22 31.05.2020
2327 Rain 9 1008 56 0 4.4 334 06:57 31.05.2020
2328 Rain 9 1008 56 0 4.4 334 06:35 31.05.2020
2329 Rain 9 1007 58 0 6.54 310 05:49 31.05.2020
2330 Rain 9 1007 58 0 6.54 310 05:31 31.05.2020
2331 Clouds 13 1006 40 0 2.28 240 04:18 31.05.2020
2332 Clouds 13 1006 40 0 2.28 240 03:29 31.05.2020
2333 Clouds 11 1005 45 0 0.53 182 02:46 31.05.2020
2334 Clouds 9 1004 51 0 1.4 83 01:46 31.05.2020
2335 Clouds 8 1005 57 0 1.98 57 00:41 31.05.2020
2336 Clouds 7 1006 59 0 2.25 34 00:23 31.05.2020
2337 Clouds 7 1006 59 0 2.25 34 23:42 30.05.2020
2338 Clouds 7 1007 57 0 2.45 59 23:23 30.05.2020
2339 Clouds 7 1007 57 0 2.45 59 22:56 30.05.2020
2340 Clouds 7 1007 57 0 2.45 59 22:37 30.05.2020
2341 Clouds 7 1007 57 0 2.27 53 22:19 30.05.2020
2342 Clouds 7 1007 57 0 2.27 53 21:42 30.05.2020
2343 Clouds 7 1008 55 0 3.44 57 21:22 30.05.2020
2344 Clouds 7 1008 55 0 3.44 57 20:57 30.05.2020
2345 Clouds 7 1008 55 0 3.44 57 20:39 30.05.2020
2346 Clouds 7 1008 53 0 2.94 55 20:21 30.05.2020
2347 Clouds 7 1008 53 0 2.94 55 19:55 30.05.2020
2348 Clouds 7 1008 53 0 2.94 55 19:37 30.05.2020
2349 Clouds 7 1008 50 0 2.38 58 19:18 30.05.2020
2350 Clouds 7 1008 50 0 2.38 58 18:43 30.05.2020
2351 Clouds 8 1009 48 0 1.67 85 18:19 30.05.2020
2352 Clouds 8 1009 48 0 1.67 85 17:42 30.05.2020
2353 Clouds 7 1009 50 0 1.34 123 17:24 30.05.2020
2354 Clouds 7 1009 50 0 1.34 123 16:57 30.05.2020
2355 Clouds 7 1009 50 0 1.34 123 16:38 30.05.2020
2356 Clouds 8 1009 47 0 1.75 174 16:20 30.05.2020
2357 Clouds 8 1009 47 0 1.75 174 15:42 30.05.2020
2358 Clouds 10 1008 43 0 2.36 211 15:24 30.05.2020
2359 Clouds 10 1008 43 0 2.36 211 14:43 30.05.2020
2360 Clouds 12 1008 38 0 3.39 244 14:24 30.05.2020
2361 Clouds 12 1007 37 0 3.09 243 13:44 30.05.2020
2362 Clouds 13 1008 34 0 4.01 261 13:24 30.05.2020
2363 Clouds 13 1008 34 0 4.01 261 12:42 30.05.2020
2364 Clouds 13 1008 33 0 4.65 270 12:21 30.05.2020
2365 Clouds 13 1008 33 0 4.65 270 11:57 30.05.2020
2366 Clouds 13 1008 33 0 4.65 270 11:39 30.05.2020
2367 Clouds 14 1009 31 0 5.12 276 11:21 30.05.2020
2368 Clouds 14 1009 31 0 5.12 276 10:41 30.05.2020
2369 Clear 14 1010 31 0 5.18 280 10:21 30.05.2020
2370 Clear 14 1010 31 0 5.18 280 09:50 30.05.2020
2371 Clear 14 1010 31 0 5.18 280 09:31 30.05.2020
2372 Clear 13 1009 32 0 4.52 268 08:51 30.05.2020
2373 Clear 13 1009 32 0 4.52 268 08:32 30.05.2020
2374 Clear 11 1010 35 0 3.88 258 07:49 30.05.2020
2375 Clear 10 1012 40 0 3.33 250 07:25 30.05.2020
2376 Clear 10 1012 40 0 3.33 250 06:52 30.05.2020
2377 Clear 8 1013 45 0 2.86 252 06:23 30.05.2020
2378 Clear 8 1013 45 0 2.86 252 05:49 30.05.2020
2379 Clear 5 1015 58 0 1.78 258 03:46 30.05.2020
2380 Clear 4 1016 65 0 1.17 252 02:30 30.05.2020
2381 Clear 3 1016 72 0 0.52 241 01:49 30.05.2020
2382 Clear 2 1017 80 0 0.19 61 00:38 30.05.2020
2383 Clear -1 1018 91 0 0.57 46 00:19 30.05.2020
2384 Clear -1 1018 91 0 0.57 46 23:57 29.05.2020
2385 Clear -1 1018 91 0 0.57 46 23:38 29.05.2020
2386 Clear -1 1017 90 0 1.05 44 23:18 29.05.2020
2387 Clear -1 1017 90 0 1.05 44 22:41 29.05.2020
2388 Clear 0 1017 89 0 1.34 24 22:19 29.05.2020
2389 Clear 0 1017 89 0 1.34 24 21:58 29.05.2020
2390 Clear 0 1017 89 0 1.34 24 21:39 29.05.2020
2391 Clear 0 1017 87 0 1.28 4 21:20 29.05.2020
2392 Clouds 0 1017 86 0 1.53 16 20:45 29.05.2020
2393 Clouds 1 1017 84 0 1.34 357 20:21 29.05.2020
2394 Clouds 1 1017 84 0 1.34 357 19:59 29.05.2020
2395 Clouds 1 1017 84 0 1.34 357 19:59 29.05.2020
2396 Clouds 1 1017 84 0 1.34 357 19:41 29.05.2020
2397 Clouds 1 1017 83 0 0.87 8 19:23 29.05.2020
2398 Clouds 1 1017 83 0 0.87 8 18:47 29.05.2020
2399 Clouds 1 1017 83 0 0.87 8 18:47 29.05.2020
2400 Clouds 1 1017 80 0 1.38 24 18:20 29.05.2020
2401 Clouds 1 1017 80 0 1.38 24 17:57 29.05.2020
2402 Clouds 1 1017 80 0 1.38 24 17:38 29.05.2020
2403 Clouds 2 1016 75 0 2.12 21 17:19 29.05.2020
2404 Clouds 2 1016 75 0 2.12 21 16:44 29.05.2020
2405 Clouds 3 1015 70 0 3.06 16 16:25 29.05.2020
2406 Clouds 3 1015 70 0 3.06 16 15:57 29.05.2020
2407 Clouds 3 1015 70 0 3.06 16 15:38 29.05.2020
2408 Clouds 5 1014 62 0 3.69 3 15:19 29.05.2020
2409 Clouds 5 1014 62 0 3.69 3 14:50 29.05.2020
2410 Clouds 6 1013 55 0 6.18 0 14:23 29.05.2020
2411 Clouds 7 1012 54 0 6.38 5 13:58 29.05.2020
2412 Clouds 7 1012 54 0 6.38 5 13:58 29.05.2020
2413 Clouds 7 1012 54 0 6.38 5 13:39 29.05.2020
2414 Clouds 7 1011 52 0 6.62 357 13:18 29.05.2020
2415 Clouds 7 1011 52 0 6.62 357 12:43 29.05.2020
2416 Clouds 8 1011 50 0 6.43 350 12:24 29.05.2020
2417 Clouds 8 1011 50 0 6.43 350 11:45 29.05.2020
2418 Snow 8 1011 49 0 6.03 347 11:27 29.05.2020
2419 Snow 8 1011 49 0 6.03 347 10:58 29.05.2020
2420 Snow 8 1011 49 0 6.03 347 10:38 29.05.2020
2421 Snow 8 1011 51 0 6.43 347 10:19 29.05.2020
2422 Snow 8 1011 51 0 6.43 347 09:44 29.05.2020
2423 Snow 8 1011 50 0 6.56 357 09:20 29.05.2020
2424 Snow 8 1011 50 0 6.56 357 08:56 29.05.2020
2425 Snow 8 1011 50 0 6.56 357 08:37 29.05.2020
2426 Snow 7 1011 52 0 6.38 354 08:19 29.05.2020
2427 Snow 7 1011 52 0 6.38 354 07:39 29.05.2020
2428 Snow 7 1011 54 0 5.33 352 07:21 29.05.2020
2429 Snow 7 1011 54 0 5.33 352 06:47 29.05.2020
2430 Snow 7 1012 55 0 4.69 351 06:27 29.05.2020
2431 Snow 7 1012 55 0 4.69 351 05:51 29.05.2020
2432 Clouds 4 1014 70 0 2.68 340 02:39 29.05.2020
2433 Clouds 3 1014 76 0 2.18 337 01:30 29.05.2020
2434 Clouds 1 1014 85 0 2.33 351 00:59 29.05.2020
2435 Clouds 1 1014 85 0 2.33 351 00:40 29.05.2020
2436 Clouds 0 1014 91 0 2.32 4 00:18 29.05.2020
2437 Clouds 0 1014 91 0 2.32 4 23:39 28.05.2020
2438 Clouds 1 1014 87 0 2.64 7 23:19 28.05.2020
2439 Clouds 1 1014 87 0 2.64 7 22:44 28.05.2020
2440 Clouds 1 1013 85 0 2.71 10 22:26 28.05.2020
2441 Clouds 1 1013 85 0 2.71 10 21:57 28.05.2020
2442 Clouds 1 1013 85 0 2.71 10 21:39 28.05.2020
2443 Clouds 2 1012 82 0 2.64 360 21:20 28.05.2020
2444 Clouds 2 1012 82 0 2.64 360 20:57 28.05.2020
2445 Clouds 2 1012 82 0 2.64 360 20:39 28.05.2020
2446 Clouds 2 1012 80 0 2.62 5 20:18 28.05.2020
2447 Clouds 2 1012 80 0 2.62 5 19:55 28.05.2020
2448 Clouds 2 1012 80 0 2.62 5 19:37 28.05.2020
2449 Clouds 2 1012 80 0 2.79 2 19:19 28.05.2020
2450 Clouds 2 1012 80 0 2.79 2 18:42 28.05.2020
2451 Clouds 3 1012 79 0 3.11 1 18:23 28.05.2020
2452 Clouds 3 1012 79 0 3.11 1 17:43 28.05.2020
2453 Clouds 3 1012 79 0 3.11 1 17:43 28.05.2020
2454 Clouds 3 1012 76 0 3.5 0 17:23 28.05.2020
2455 Clouds 3 1012 76 0 3.5 0 16:59 28.05.2020
2456 Clouds 3 1012 76 0 3.5 0 16:39 28.05.2020
2457 Clouds 4 1011 72 0 3.88 0 16:20 28.05.2020
2458 Clouds 4 1011 72 0 3.88 0 15:46 28.05.2020
2459 Clouds 5 1010 67 0 4.25 7 15:25 28.05.2020
2460 Clouds 5 1010 67 0 4.25 7 14:57 28.05.2020
2461 Clouds 5 1010 67 0 4.25 7 14:39 28.05.2020
2462 Clouds 6 1009 62 0 4.61 10 14:21 28.05.2020
2463 Clouds 6 1009 62 0 4.61 10 13:43 28.05.2020
2464 Clouds 7 1008 58 0 4.4 7 13:25 28.05.2020
2465 Clouds 7 1008 58 0 4.4 7 12:43 28.05.2020
2466 Clouds 8 1008 56 0 4.3 358 12:19 28.05.2020
2467 Clouds 8 1008 56 0 4.3 358 11:45 28.05.2020
2468 Snow 7 1008 56 0 4.24 354 11:26 28.05.2020
2469 Snow 7 1008 56 0 4.24 354 10:58 28.05.2020
2470 Snow 7 1008 56 0 4.24 354 10:40 28.05.2020
2471 Snow 7 1008 58 0 3.84 349 10:22 28.05.2020
2472 Snow 7 1008 58 0 3.84 349 09:40 28.05.2020
2473 Rain 6 1008 68 0 1.8 329 09:22 28.05.2020
2474 Rain 6 1008 68 0 1.8 329 08:52 28.05.2020
2475 Rain 6 1008 68 0 1.8 329 08:32 28.05.2020
2476 Rain 6 1009 71 0 1.84 282 07:58 28.05.2020
2477 Rain 6 1009 71 0 1.84 282 07:38 28.05.2020
2478 Snow 6 1009 73 0 1.87 273 07:20 28.05.2020
2479 Snow 6 1009 73 0 1.87 273 06:39 28.05.2020
2480 Snow 4 1010 77 0 1.64 324 06:20 28.05.2020
2481 Snow 4 1010 77 0 1.64 324 05:37 28.05.2020
2482 Snow 3 1009 78 0 2.22 350 04:34 28.05.2020
2483 Snow 4 1009 78 0 2.41 344 03:51 28.05.2020
2484 Rain 6 1007 76 0 1.87 277 02:49 28.05.2020
2485 Rain 7 1005 80 0 3.99 222 01:56 28.05.2020
2486 Rain 7 1004 79 0 3.63 203 01:27 28.05.2020
2487 Rain 7 1004 79 0 3.63 203 00:46 28.05.2020
2488 Rain 7 1003 80 0 2.12 230 00:19 28.05.2020
2489 Rain 7 1003 80 0 2.12 230 23:40 27.05.2020
2490 Rain 8 1002 79 0 5.02 254 23:21 27.05.2020
2491 Rain 8 1002 79 0 5.02 254 23:21 27.05.2020
2492 Rain 8 1002 79 0 5.02 254 22:59 27.05.2020
2493 Rain 8 1002 79 0 5.02 254 22:40 27.05.2020
2494 Rain 10 1001 73 0 4.23 227 22:22 27.05.2020
2495 Rain 10 1001 73 0 4.23 227 21:43 27.05.2020
2496 Rain 10 1002 75 0 4.26 221 21:24 27.05.2020
2497 Rain 10 1002 75 0 4.26 221 20:59 27.05.2020
2498 Rain 10 1002 75 0 4.26 221 20:41 27.05.2020
2499 Rain 11 1002 67 0 4.24 228 20:23 27.05.2020
2500 Rain 11 1002 67 0 4.24 228 19:59 27.05.2020
2501 Rain 11 1002 67 0 4.24 228 19:41 27.05.2020
2502 Clouds 12 1003 64 0 2.69 216 19:19 27.05.2020
2503 Clouds 12 1003 64 0 2.69 216 19:19 27.05.2020
2504 Clouds 12 1003 64 0 2.69 216 18:41 27.05.2020
2505 Clouds 11 1003 68 0 1.46 188 18:20 27.05.2020
2506 Clouds 11 1003 68 0 1.46 188 17:57 27.05.2020
2507 Clouds 11 1003 68 0 1.46 188 17:38 27.05.2020
2508 Clouds 11 1004 65 0 0.4 45 17:19 27.05.2020
2509 Clouds 11 1004 65 0 0.4 45 16:55 27.05.2020
2510 Clouds 11 1004 65 0 0.4 45 16:37 27.05.2020
2511 Rain 11 1003 66 0 1.46 300 16:18 27.05.2020
2512 Rain 11 1003 66 0 1.46 300 15:41 27.05.2020
2513 Rain 12 1002 61 0 3.24 31 15:21 27.05.2020
2514 Rain 12 1002 61 0 3.24 31 14:45 27.05.2020
2515 Clouds 17 1001 39 0 10.32 314 14:22 27.05.2020
2516 Clouds 18 1000 34 0 7.95 298 14:22 27.05.2020
2517 Clouds 17 1001 39 0 10.32 314 14:22 27.05.2020
2518 Clouds 18 1000 34 0 7.95 298 13:57 27.05.2020
2519 Clouds 18 1000 34 0 7.95 298 13:38 27.05.2020
2520 Clouds 20 999 26 0 7.86 250 13:20 27.05.2020
2521 Clouds 20 999 26 0 7.86 250 12:41 27.05.2020
2522 Clouds 21 999 26 0 8.87 259 12:23 27.05.2020
2523 Clouds 21 999 26 0 8.87 259 11:42 27.05.2020
2524 Clouds 21 999 26 0 9.65 260 11:24 27.05.2020
2525 Clouds 21 999 26 0 9.65 260 10:59 27.05.2020
2526 Clouds 21 999 26 0 9.65 260 10:41 27.05.2020
2527 Clouds 21 1000 25 0 9.99 259 10:23 27.05.2020
2528 Clouds 21 1000 25 0 9.99 259 09:55 27.05.2020
2529 Clouds 21 1000 25 0 9.99 259 09:37 27.05.2020
2530 Clouds 20 1001 26 0 7.94 255 09:18 27.05.2020
2531 Clouds 20 1001 26 0 7.94 255 08:40 27.05.2020
2532 Clouds 21 1003 28 0 7.75 252 08:22 27.05.2020
2533 Clouds 21 1003 28 0 7.75 252 07:52 27.05.2020
2534 Clouds 21 1003 28 0 7.75 252 07:34 27.05.2020
2535 Clear 20 1004 29 0 6.53 250 06:55 27.05.2020
2536 Clear 19 1005 32 0 5.02 243 06:24 27.05.2020
2537 Clear 19 1005 32 0 5.02 243 05:50 27.05.2020
2538 Clear 17 1007 35 0 3.4 226 05:23 27.05.2020
2539 Clear 14 1010 45 0 1.64 189 02:46 27.05.2020
2540 Clear 13 1011 50 0 1.57 146 02:24 27.05.2020
2541 Clear 13 1011 48 0 1.63 144 01:31 27.05.2020
2542 Clear 13 1011 48 0 1.63 144 01:31 27.05.2020
2543 Clear 10 1012 60 0 1.25 148 00:47 27.05.2020
2544 Clear 8 1012 66 0 1.02 154 00:21 27.05.2020
2545 Clear 8 1012 66 0 1.02 154 23:58 26.05.2020
2546 Clear 8 1012 66 0 1.02 154 23:58 26.05.2020
2547 Clear 8 1012 66 0 1.02 154 23:39 26.05.2020
2548 Clear 8 1013 67 0 0.79 166 23:20 26.05.2020
2549 Clear 8 1013 67 0 0.79 166 22:42 26.05.2020
2550 Clear 8 1014 64 0 1.02 164 22:23 26.05.2020
2551 Clear 8 1014 64 0 1.02 164 21:59 26.05.2020
2552 Clear 8 1014 64 0 1.02 164 21:41 26.05.2020
2553 Clouds 8 1015 56 0 1.19 154 21:22 26.05.2020
2554 Clouds 8 1015 56 0 1.19 154 21:22 26.05.2020
2555 Clouds 8 1015 56 0 1.19 154 20:59 26.05.2020
2556 Clouds 8 1015 56 0 1.19 154 20:41 26.05.2020
2557 Clouds 9 1016 56 0 0.61 173 20:20 26.05.2020
2558 Clouds 9 1016 56 0 0.61 173 19:41 26.05.2020
2559 Clouds 9 1017 55 0 0.09 101 19:21 26.05.2020
2560 -273 0 0 0 0 0 18:58 26.05.2020
2561 Clouds 9 1017 55 0 0.09 101 18:39 26.05.2020
2562 Clouds 10 1017 53 0 0.96 7 18:20 26.05.2020
2563 Clouds 10 1017 53 0 0.96 7 17:42 26.05.2020
2564 Clouds 11 1018 48 0 1.36 3 17:23 26.05.2020
2565 Clouds 11 1018 48 0 1.36 3 16:49 26.05.2020
2566 Clouds 13 1018 43 0 1.92 10 16:23 26.05.2020
2567 Clouds 13 1018 43 0 1.92 10 15:59 26.05.2020
2568 Clouds 13 1018 43 0 1.92 10 15:40 26.05.2020
2569 Clouds 14 1017 38 0 3.6 358 15:20 26.05.2020
2570 Clouds 14 1017 38 0 3.6 358 15:20 26.05.2020
2571 Clouds 14 1017 38 0 3.6 358 14:55 26.05.2020
2572 Clouds 14 1017 38 0 3.6 358 14:36 26.05.2020
2573 Clouds 17 1016 32 0 3.92 354 14:18 26.05.2020
2574 Clouds 17 1016 32 0 3.92 354 13:40 26.05.2020
2575 Clouds 18 1016 28 0 5.15 351 13:22 26.05.2020
2576 Clouds 18 1016 28 0 5.15 351 12:44 26.05.2020
2577 Clouds 19 1016 25 0 5.78 351 12:23 26.05.2020
2578 Clouds 19 1016 25 0 5.78 351 11:59 26.05.2020
2579 Clouds 19 1016 25 0 5.78 351 11:40 26.05.2020
2580 Clouds 19 1016 25 0 5.78 351 11:40 26.05.2020
2581 Clouds 19 1016 24 0 5.46 348 11:19 26.05.2020
2582 Clouds 19 1016 24 0 5.46 348 10:47 26.05.2020
2583 Clouds 19 1017 24 0 5.47 347 10:19 26.05.2020
2584 Clouds 19 1017 24 0 5.47 347 09:57 26.05.2020
2585 Clouds 19 1017 24 0 6.13 352 09:37 26.05.2020
2586 Clouds 19 1017 25 0 5.74 349 09:18 26.05.2020
2587 Clouds 19 1017 25 0 5.74 349 08:40 26.05.2020
2588 Clouds 18 1018 28 0 4.65 344 08:21 26.05.2020
2589 Clouds 18 1018 28 0 4.65 344 07:42 26.05.2020
2590 Clouds 17 1019 31 0 4.1 335 07:23 26.05.2020
2591 Clouds 17 1019 31 0 4.1 335 06:52 26.05.2020
2592 Clouds 16 1020 33 0 3.04 328 06:28 26.05.2020
2593 Clouds 16 1020 33 0 3.04 328 05:41 26.05.2020
2594 Clouds 15 1020 36 0 2.42 307 05:18 26.05.2020
2595 Clouds 15 1020 36 0 2.42 307 04:47 26.05.2020
2596 Clouds 14 1021 39 0 1.89 286 04:28 26.05.2020
2597 Clouds 14 1021 39 0 1.89 286 03:34 26.05.2020
2598 Clouds 13 1021 41 0 1.18 272 02:34 26.05.2020
2599 Clouds 12 1021 44 0 0.4 139 01:42 26.05.2020
2600 Clouds 9 1021 53 0 1.04 128 00:39 26.05.2020
2601 Clouds 7 1022 60 0 0.81 135 00:20 26.05.2020
2602 -273 0 0 0 0 0 23:58 25.05.2020
2603 Clouds 7 1022 60 0 0.81 135 23:38 25.05.2020
2604 Clear 7 1022 61 0 0.23 96 23:19 25.05.2020
2605 Clear 7 1022 61 0 0.23 96 22:56 25.05.2020
2606 Clear 7 1022 61 0 0.23 96 22:37 25.05.2020
2607 Clear 7 1022 59 0 0.91 93 22:19 25.05.2020
2608 Clear 7 1022 59 0 0.91 93 21:58 25.05.2020
2609 Clear 7 1022 59 0 0.91 93 21:38 25.05.2020
2610 Clear 8 1022 58 0 1.09 59 21:18 25.05.2020
2611 Clear 8 1022 58 0 1.09 59 20:58 25.05.2020
2612 Clear 8 1022 58 0 1.09 59 20:40 25.05.2020
2613 Clouds 8 1022 57 0 1.17 36 20:20 25.05.2020
2614 Clouds 8 1022 57 0 1.17 36 19:42 25.05.2020
2615 Clouds 8 1022 56 0 1.29 56 19:20 25.05.2020
2616 Clouds 8 1022 56 0 1.29 56 18:58 25.05.2020
2617 Clouds 8 1022 56 0 1.29 56 18:40 25.05.2020
2618 Clouds 9 1022 56 0 1.47 63 18:21 25.05.2020
2619 Clouds 9 1022 56 0 1.47 63 17:44 25.05.2020
2620 Clouds 9 1022 55 0 1.72 60 17:26 25.05.2020
2621 Clouds 9 1022 55 0 1.72 60 16:59 25.05.2020
2622 Clouds 9 1022 55 0 1.72 60 16:40 25.05.2020
2623 Clouds 9 1022 55 0 1.72 60 16:40 25.05.2020
2624 Clouds 10 1021 53 0 1.83 67 16:22 25.05.2020
2625 Clouds 10 1021 53 0 1.83 67 16:22 25.05.2020
2626 Clouds 10 1021 53 0 1.83 67 15:55 25.05.2020
2627 Clouds 10 1021 53 0 1.83 67 15:36 25.05.2020
2628 Rain 11 1020 52 0 4.38 56 15:18 25.05.2020
2629 Rain 11 1020 52 0 4.38 56 14:42 25.05.2020
2630 Clouds 17 1019 31 0 4.09 0 14:23 25.05.2020
2631 Clouds 17 1019 30 0 2.42 14 13:56 25.05.2020
2632 Clouds 17 1019 30 0 2.42 14 13:37 25.05.2020
2633 Clouds 17 1019 30 0 2.42 14 13:37 25.05.2020
2634 Clouds 17 1019 30 0 2.42 14 13:37 25.05.2020
2635 Clouds 17 1019 30 0 2.42 14 13:37 25.05.2020
2636 Clouds 18 1019 27 0 3.78 19 13:19 25.05.2020
2637 Clouds 18 1019 27 0 3.78 19 12:40 25.05.2020
2638 Clouds 18 1019 26 0 4.16 16 12:21 25.05.2020
2639 Clouds 18 1019 26 0 4.16 16 11:57 25.05.2020
2640 Clouds 18 1019 26 0 4.16 16 11:37 25.05.2020
2641 Clouds 18 1018 26 0 4.69 19 11:18 25.05.2020
2642 Clouds 18 1018 26 0 4.69 19 10:41 25.05.2020
2643 Clouds 18 1019 27 0 4.91 21 10:21 25.05.2020
2644 Clouds 18 1019 27 0 4.91 21 09:57 25.05.2020
2645 Clouds 18 1019 27 0 4.91 21 09:38 25.05.2020
2646 Clouds 18 1019 26 0 5.51 19 09:19 25.05.2020
2647 Clouds 18 1019 26 0 5.51 19 08:44 25.05.2020
2648 Clouds 18 1019 27 0 5.55 22 08:25 25.05.2020
2649 Clouds 18 1019 27 0 5.55 22 07:59 25.05.2020
2650 Clouds 18 1019 27 0 5.55 22 07:41 25.05.2020
2651 Clouds 17 1020 28 0 5.42 25 07:20 25.05.2020
2652 Clouds 17 1020 28 0 5.42 25 06:46 25.05.2020
2653 Clouds 17 1021 30 0 5.4 24 06:27 25.05.2020
2654 Clouds 14 1022 36 0 3 11 03:46 25.05.2020
2655 Clouds 13 1022 40 0 2.07 11 03:22 25.05.2020
2656 Clouds 13 1022 40 0 2.07 11 02:44 25.05.2020
2657 Clouds 11 1022 44 0 1.68 23 01:42 25.05.2020
2658 Clouds 9 1022 51 0 1.49 38 00:58 25.05.2020
2659 Clouds 9 1022 51 0 1.49 38 00:33 25.05.2020
2660 Clouds 7 1022 58 0 1.01 41 23:59 24.05.2020
2661 Clouds 7 1022 58 0 1.01 41 23:39 24.05.2020
2662 Clouds 8 1022 55 0 1.51 46 23:21 24.05.2020
2663 Clouds 8 1022 55 0 1.51 46 22:58 24.05.2020
2664 Clouds 8 1022 55 0 1.51 46 22:40 24.05.2020
2665 Clouds 8 1022 53 0 1.28 69 22:18 24.05.2020
2666 Clouds 8 1022 53 0 1.28 69 21:55 24.05.2020
2667 Clouds 8 1022 53 0 1.28 69 21:37 24.05.2020
2668 Clouds 9 1022 53 0 1.32 46 21:18 24.05.2020
2669 Clouds 8 1022 54 0 1.28 63 20:43 24.05.2020
2670 Clouds 8 1022 54 0 1.28 63 20:43 24.05.2020
2671 Clouds 9 1022 53 0 1.97 52 20:21 24.05.2020
2672 Clouds 9 1022 53 0 1.97 52 19:58 24.05.2020
2673 Clouds 9 1022 53 0 1.97 52 19:40 24.05.2020
2674 Clouds 9 1022 51 0 2.04 60 19:19 24.05.2020
2675 Clouds 9 1022 51 0 2.04 60 18:44 24.05.2020
2676 Clouds 9 1021 51 0 1.99 46 18:24 24.05.2020
2677 Clouds 9 1021 51 0 1.99 46 17:59 24.05.2020
2678 Clouds 9 1021 51 0 1.99 46 17:40 24.05.2020
2679 Clouds 10 1021 45 0 3.14 14 17:21 24.05.2020
2680 Clouds 10 1021 45 0 3.14 14 16:56 24.05.2020
2681 Clouds 10 1021 45 0 3.14 14 16:38 24.05.2020
2682 Clear 11 1020 44 0 2.28 24 16:19 24.05.2020
2683 Clear 11 1020 44 0 2.28 24 15:56 24.05.2020
2684 Clear 11 1020 44 0 2.28 24 15:38 24.05.2020
2685 Clear 12 1019 41 0 2.42 39 15:18 24.05.2020
2686 Clear 12 1019 41 0 2.42 39 14:45 24.05.2020
2687 Clouds 15 1018 33 0 3.8 37 14:24 24.05.2020
2688 Clouds 15 1018 33 0 3.8 37 13:58 24.05.2020
2689 Clouds 15 1018 33 0 3.8 37 13:39 24.05.2020
2690 Clouds 16 1018 31 0 5.62 34 13:21 24.05.2020
2691 Clouds 16 1018 31 0 5.62 34 12:59 24.05.2020
2692 Clouds 16 1018 31 0 5.62 34 12:40 24.05.2020
2693 Clouds 17 1018 28 0 5.43 33 12:22 24.05.2020
2694 Clouds 17 1018 28 0 5.43 33 11:59 24.05.2020
2695 Clouds 17 1018 28 0 5.43 33 11:41 24.05.2020
2696 Clouds 17 1018 27 0 5.19 37 11:22 24.05.2020
2697 Clouds 17 1018 27 0 5.19 37 10:56 24.05.2020
2698 Clouds 17 1018 27 0 5.19 37 10:37 24.05.2020
2699 Clouds 16 1018 28 0 4.7 40 10:19 24.05.2020
2700 Clouds 16 1018 28 0 4.7 40 09:41 24.05.2020
2701 Clouds 16 1019 29 0 4.37 39 09:18 24.05.2020
2702 Clouds 16 1019 29 0 4.1 34 08:56 24.05.2020
2703 Clouds 16 1019 29 0 4.1 34 08:38 24.05.2020
2704 Clouds 15 1020 30 0 3.43 38 08:19 24.05.2020
2705 Clouds 15 1020 30 0 3.43 38 07:44 24.05.2020
2706 Clouds 15 1021 31 0 3.44 51 07:25 24.05.2020
2707 Clouds 15 1021 31 0 3.44 51 06:48 24.05.2020
2708 Clouds 15 1021 31 0 3.44 51 06:29 24.05.2020
2709 Clear 13 1022 36 0 3.59 61 04:54 24.05.2020
2710 Clear 11 1022 40 0 3.07 61 03:41 24.05.2020
2711 Clear 10 1022 45 0 2.55 54 02:42 24.05.2020
2712 Clear 8 1022 53 0 1.7 60 01:46 24.05.2020
2713 Clear 6 1022 61 0 1.63 66 00:39 24.05.2020
2714 Clear 4 1022 70 0 1.46 72 00:21 24.05.2020
2715 Clear 4 1022 70 0 1.46 72 23:44 23.05.2020
2716 Clear 5 1021 69 0 1.3 83 23:24 23.05.2020
2717 Clear 5 1021 69 0 1.3 83 22:58 23.05.2020
2718 Clear 5 1021 69 0 1.3 83 22:38 23.05.2020
2719 Clear 5 1021 68 0 1.21 86 22:20 23.05.2020
2720 Clear 5 1021 68 0 1.21 86 21:57 23.05.2020
2721 Clear 5 1021 68 0 1.21 86 21:38 23.05.2020
2722 Clear 6 1021 66 0 1.59 78 21:20 23.05.2020
2723 Clear 6 1021 66 0 1.59 78 21:20 23.05.2020
2724 Clear 6 1021 66 0 1.28 92 21:20 23.05.2020
2725 Clear 6 1021 66 0 1.28 92 21:20 23.05.2020
2726 Clear 6 1021 66 0 1.59 78 20:58 23.05.2020
2727 Clear 6 1021 66 0 1.59 78 20:38 23.05.2020
2728 Clouds 6 1021 65 0 1.37 95 20:19 23.05.2020
2729 Clouds 6 1021 65 0 1.37 95 19:42 23.05.2020
2730 Clouds 7 1021 62 0 1.32 90 19:20 23.05.2020
2731 Clouds 7 1021 62 0 1.32 90 18:59 23.05.2020
2732 Clouds 7 1021 62 0 1.32 90 18:40 23.05.2020
2733 Clouds 7 1021 62 0 1.32 90 18:40 23.05.2020
2734 Clouds 7 1021 58 0 1.22 75 18:22 23.05.2020
2735 Clouds 7 1021 58 0 1.22 75 17:56 23.05.2020
2736 Clouds 7 1021 58 0 1.22 75 17:38 23.05.2020
2737 Clouds 8 1020 55 0 1.56 79 17:19 23.05.2020
2738 Clouds 8 1020 55 0 1.56 79 16:56 23.05.2020
2739 Clouds 8 1020 55 0 1.56 79 16:38 23.05.2020
2740 Clouds 9 1020 52 0 1.98 99 16:19 23.05.2020
2741 Clouds 9 1020 52 0 1.98 99 15:42 23.05.2020
2742 Rain 10 1019 49 0 2.45 107 15:24 23.05.2020
2743 Rain 10 1019 49 0 2.45 107 14:58 23.05.2020
2744 Rain 10 1019 49 0 2.45 107 14:39 23.05.2020
2745 Rain 10 1018 55 0 0.88 141 14:21 23.05.2020
2746 Rain 10 1018 55 0 0.88 141 13:40 23.05.2020
2747 Rain 11 1017 53 0 1.83 245 13:19 23.05.2020
2748 Rain 11 1017 53 0 1.83 245 12:56 23.05.2020
2749 Rain 11 1017 53 0 1.83 245 12:37 23.05.2020
2750 Rain 11 1017 51 0 3.69 215 12:18 23.05.2020
2751 Rain 11 1017 51 0 3.69 215 11:43 23.05.2020
2752 Rain 13 1017 44 0 4.15 213 11:21 23.05.2020
2753 Rain 13 1017 44 0 4.15 213 10:57 23.05.2020
2754 Rain 13 1017 44 0 4.15 213 10:39 23.05.2020
2755 Rain 14 1017 36 0 3.94 245 10:19 23.05.2020
2756 Rain 14 1017 36 0 3.94 245 09:56 23.05.2020
2757 Rain 14 1017 36 0 3.94 245 09:38 23.05.2020
2758 Clouds 15 1017 31 0 2.01 312 09:19 23.05.2020
2759 Clouds 15 1017 31 0 2.01 312 08:42 23.05.2020
2760 Clouds 15 1017 31 0 3 345 08:19 23.05.2020
2761 Clouds 15 1017 31 0 3 345 08:19 23.05.2020
2762 Clouds 15 1017 31 0 3 345 07:46 23.05.2020
2763 Clouds 15 1018 31 0 3.77 358 07:28 23.05.2020
2764 Clouds 15 1018 31 0 3.77 358 06:53 23.05.2020
2765 Clouds 15 1018 31 0 3.77 358 06:35 23.05.2020
2766 Rain 13 1019 37 0 2.13 336 04:49 23.05.2020
2767 Rain 12 1019 42 0 1.37 318 03:29 23.05.2020
2768 Rain 11 1019 47 0 0.61 305 02:56 23.05.2020
2769 Clouds 10 1019 51 0 0.85 77 01:55 23.05.2020
2770 Clouds 8 1019 58 0 1.27 101 01:20 23.05.2020
2771 Clouds 8 1019 58 0 1.27 101 00:45 23.05.2020
2772 Clouds 7 1019 62 0 1.22 111 00:23 23.05.2020
2773 Clouds 7 1019 62 0 1.22 111 23:56 22.05.2020
2774 Clouds 7 1019 62 0 1.22 111 23:38 22.05.2020
2775 Clouds 8 1018 57 0 1.31 100 23:18 22.05.2020
2776 Clouds 8 1018 57 0 1.31 100 22:42 22.05.2020
2777 Clouds 8 1018 56 0 1.13 93 22:21 22.05.2020
2778 Clouds 8 1018 56 0 1.13 93 21:56 22.05.2020
2779 Clouds 8 1018 56 0 1.13 93 21:38 22.05.2020
2780 Clouds 9 1018 54 0 1.47 79 21:20 22.05.2020
2781 Clouds 9 1018 54 0 1.47 79 20:45 22.05.2020
2782 Clouds 9 1017 52 0 1.59 86 20:21 22.05.2020
2783 Clouds 9 1017 52 0 1.59 86 19:54 22.05.2020
2784 Clouds 9 1017 52 0 1.59 86 19:36 22.05.2020
2785 Clouds 9 1017 54 0 1.83 85 19:18 22.05.2020
2786 Clouds 9 1017 54 0 1.83 85 18:39 22.05.2020
2787 Clouds 9 1016 57 0 2.17 93 18:19 22.05.2020
2788 Clouds 9 1016 57 0 2.17 93 17:41 22.05.2020
2789 Clouds 10 1016 55 0 2.41 105 17:20 22.05.2020
2790 Clouds 10 1016 55 0 2.41 105 17:00 22.05.2020
2791 Clouds 10 1016 55 0 2.41 105 16:41 22.05.2020
2792 Clear 11 1015 46 0 2.11 90 16:20 22.05.2020
2793 Clear 11 1015 46 0 2.11 90 16:20 22.05.2020
2794 Clear 11 1015 46 0 2.11 90 15:57 22.05.2020
2795 Clear 11 1015 46 0 2.11 90 15:39 22.05.2020
2796 Clear 13 1014 41 0 2.79 67 15:18 22.05.2020
2797 Clear 13 1014 41 0 2.79 67 14:41 22.05.2020
2798 Clouds 16 1013 32 0 5.86 45 14:23 22.05.2020
2799 Clouds 16 1013 32 0 5.86 45 13:45 22.05.2020
2800 Clouds 17 1012 28 0 4.89 37 13:20 22.05.2020
2801 Clouds 17 1012 28 0 4.89 37 12:44 22.05.2020
2802 Clear 18 1012 25 0 3.47 18 12:25 22.05.2020
2803 Clear 18 1012 25 0 3.47 18 11:56 22.05.2020
2804 Clear 18 1012 25 0 3.47 18 11:37 22.05.2020
2805 Clear 19 1011 24 0 3.34 9 11:19 22.05.2020
2806 Clear 19 1011 24 0 3.34 9 10:41 22.05.2020
2807 Clear 18 1011 24 0 3.34 14 10:22 22.05.2020
2808 Clear 18 1011 24 0 3.34 14 09:59 22.05.2020
2809 Clear 18 1011 24 0 3.34 14 09:59 22.05.2020
2810 Clear 18 1011 24 0 3.34 14 09:40 22.05.2020
2811 Clear 18 1011 25 0 3.23 26 09:18 22.05.2020
2812 Clear 18 1012 26 0 2.81 29 08:43 22.05.2020
2813 Clear 18 1012 26 0 2.81 29 08:43 22.05.2020
2814 Clear 17 1012 27 0 2.95 39 08:20 22.05.2020
2815 Clear 17 1012 27 0 2.95 39 07:54 22.05.2020
2816 Clear 16 1013 29 0 3.17 41 07:24 22.05.2020
2817 Clear 16 1013 29 0 3.17 41 06:55 22.05.2020
2818 Clear 16 1013 29 0 3.17 41 06:33 22.05.2020
2819 Clear 15 1013 32 0 4.23 43 05:38 22.05.2020
2820 Clear 14 1014 35 0 5.14 42 04:50 22.05.2020
2821 Clear 13 1014 39 0 4.98 36 04:19 22.05.2020
2822 Clear 13 1014 39 0 4.98 36 03:45 22.05.2020
2823 Clear 12 1014 46 0 3.35 27 02:59 22.05.2020
2824 Clouds 10 1013 53 0 3.04 34 01:52 22.05.2020
2825 Clouds 8 1013 61 0 3.06 37 01:24 22.05.2020
2826 Clouds 8 1013 61 0 3.06 37 00:34 22.05.2020
2827 Clouds 8 1013 64 0 3.04 34 23:59 21.05.2020
2828 Clouds 8 1013 64 0 3.04 34 23:41 21.05.2020
2829 Clouds 9 1012 61 0 2.66 36 23:23 21.05.2020
2830 Clouds 9 1012 61 0 2.66 36 22:57 21.05.2020
2831 Clouds 9 1012 61 0 2.66 36 22:57 21.05.2020
2832 Clouds 9 1012 61 0 2.66 36 22:37 21.05.2020
2833 Clouds 9 1012 60 0 2.9 37 22:19 21.05.2020
2834 Clouds 9 1012 60 0 2.9 37 21:48 21.05.2020
2835 Clouds 9 1012 56 0 3.02 34 21:27 21.05.2020
2836 Clouds 9 1012 55 0 2.76 32 20:58 21.05.2020
2837 Clouds 9 1012 55 0 2.76 32 20:40 21.05.2020
2838 Clouds 10 1012 50 0 2.75 35 20:21 21.05.2020
2839 Clouds 10 1012 50 0 2.75 35 20:21 21.05.2020
2840 Clouds 10 1012 50 0 2.75 35 19:40 21.05.2020
2841 Clouds 11 1012 46 0 3.13 35 19:20 21.05.2020
2842 Clouds 11 1012 46 0 3.13 35 18:58 21.05.2020
2843 Clouds 11 1012 46 0 3.13 35 18:37 21.05.2020
2844 Clouds 12 1012 41 0 3.12 34 18:18 21.05.2020
2845 Clouds 12 1012 41 0 3.12 34 17:55 21.05.2020
2846 Clouds 12 1012 41 0 3.12 34 17:36 21.05.2020
2847 Clouds 13 1012 39 0 2.84 18 17:18 21.05.2020
2848 Clouds 13 1012 39 0 2.84 18 16:41 21.05.2020
2849 Clear 14 1011 37 0 3.45 20 16:22 21.05.2020
2850 Clear 14 1011 37 0 3.45 20 15:41 21.05.2020
2851 Clear 15 1010 32 0 4.07 10 15:22 21.05.2020
2852 Clear 15 1010 32 0 4.07 10 14:42 21.05.2020
2853 Clear 19 1010 26 0 3.6 336 14:23 21.05.2020
2854 Clear 19 1010 26 0 3.6 336 13:58 21.05.2020
2855 Clear 19 1010 26 0 3.6 336 13:38 21.05.2020
2856 Clear 20 1009 23 0 5.43 318 13:18 21.05.2020
2857 Clear 20 1009 23 0 5.43 318 12:40 21.05.2020
2858 Clear 21 1010 21 0 6.22 312 12:21 21.05.2020
2859 Clear 21 1010 21 0 6.22 312 11:57 21.05.2020
2860 Clear 21 1010 21 0 6.22 312 11:39 21.05.2020
2861 Clear 21 1010 21 0 6.51 303 11:20 21.05.2020
2862 Clear 21 1010 21 0 6.51 303 10:43 21.05.2020
2863 Clear 21 1010 20 0 6.81 298 10:23 21.05.2020
2864 Clear 21 1010 20 0 6.81 298 09:59 21.05.2020
2865 Clear 21 1010 20 0 6.81 298 09:40 21.05.2020
2866 Clear 21 1010 20 0 6.81 298 09:40 21.05.2020
2867 Clear 21 1010 20 0 6.81 298 09:40 21.05.2020
2868 Clear 21 1011 20 0 6.85 295 09:22 21.05.2020
2869 Clear 22 1010 20 0 6.74 296 08:50 21.05.2020
2870 Clear 22 1010 20 0 6.74 296 08:31 21.05.2020
2871 Clear 21 1012 20 0 5.86 288 07:59 21.05.2020
2872 Clear 21 1012 20 0 5.86 288 07:37 21.05.2020
2873 Clear 20 1013 22 0 4.29 276 07:18 21.05.2020
2874 Clear 20 1013 22 0 4.29 276 06:30 21.05.2020
2875 Clear 19 1014 25 0 3.27 275 05:50 21.05.2020
2876 Clear 16 1015 30 0 1.27 262 03:49 21.05.2020
2877 Clear 15 1015 33 0 0.06 326 03:21 21.05.2020
2878 Clear 15 1015 33 0 0.06 326 03:21 21.05.2020
2879 Clear 15 1016 33 0 0.01 234 02:31 21.05.2020
2880 Clear 13 1016 37 0 1.04 92 01:51 21.05.2020
2881 Clear 9 1016 48 0 1.23 98 01:24 21.05.2020
2882 Clear 9 1016 48 0 1.23 98 00:54 21.05.2020
2883 Clear 7 1016 54 0 1.3 77 00:27 21.05.2020
2884 Clear 7 1016 54 0 1.3 77 23:59 20.05.2020
2885 Clear 7 1016 54 0 1.3 77 23:59 20.05.2020
2886 Clear 7 1016 54 0 1.3 77 23:38 20.05.2020
2887 Clear 8 1016 51 0 1.53 64 23:18 20.05.2020
2888 Clear 8 1016 51 0 1.53 64 22:42 20.05.2020
2889 Clear 9 1016 49 0 1.77 54 22:24 20.05.2020
2890 Clear 9 1016 49 0 1.77 54 21:58 20.05.2020
2891 Clear 9 1016 49 0 1.77 54 21:38 20.05.2020
2892 Clear 9 1016 46 0 1.79 45 21:19 20.05.2020
2893 Clear 9 1016 46 0 1.79 45 20:44 20.05.2020
2894 Clear 10 1016 44 0 1.83 35 20:23 20.05.2020
2895 Clear 10 1016 44 0 1.83 35 19:44 20.05.2020
2896 Clear 10 1016 42 0 1.7 31 19:25 20.05.2020
2897 Clear 10 1016 42 0 1.7 31 18:59 20.05.2020
2898 Clear 10 1016 42 0 1.7 31 18:40 20.05.2020
2899 Clear 11 1015 41 0 1.64 44 18:20 20.05.2020
2900 Clear 11 1015 41 0 1.64 44 18:20 20.05.2020
2901 Clear 11 1015 41 0 1.64 44 17:40 20.05.2020
2902 Clear 11 1015 39 0 1.77 48 17:21 20.05.2020
2903 Clear 11 1015 39 0 1.77 48 16:55 20.05.2020
2904 Clear 11 1015 39 0 1.77 48 16:37 20.05.2020
2905 Clear 12 1014 37 0 2.18 41 16:18 20.05.2020
2906 Clear 12 1014 37 0 2.18 41 15:42 20.05.2020
2907 Clear 14 1013 33 0 2.51 22 15:23 20.05.2020
2908 Clear 14 1013 33 0 2.51 22 14:44 20.05.2020
2909 Clear 18 1012 27 0 2.79 9 14:22 20.05.2020
2910 Clear 18 1012 27 0 3.09 3 13:55 20.05.2020
2911 Clear 18 1012 27 0 3.09 3 13:36 20.05.2020
2912 Clear 19 1011 24 0 5.08 4 13:18 20.05.2020
2913 Clear 19 1011 24 0 5.08 4 12:41 20.05.2020
2914 Clear 20 1011 23 0 5.68 0 12:20 20.05.2020
2915 Clear 20 1011 23 0 5.68 0 11:37 20.05.2020
2916 Clouds 20 1011 22 0 6.29 355 11:18 20.05.2020
2917 Clouds 20 1011 22 0 6.29 355 10:44 20.05.2020
2918 Clear 20 1011 22 0 5.85 354 10:22 20.05.2020
2919 Clear 20 1011 22 0 5.85 354 09:46 20.05.2020
2920 Clouds 20 1011 22 0 6.38 354 09:23 20.05.2020
2921 Clear 20 1010 23 0 6.14 350 08:59 20.05.2020
2922 Clear 20 1010 23 0 6.14 350 08:41 20.05.2020
2923 Clouds 20 1011 24 0 6.37 346 08:19 20.05.2020
2924 Clouds 20 1011 24 0 6.37 346 07:49 20.05.2020
2925 Clouds 19 1012 25 0 6.36 347 07:22 20.05.2020
2926 Clouds 19 1012 25 0 6.36 347 06:46 20.05.2020
2927 Clouds 19 1012 26 0 6.06 347 05:39 20.05.2020
2928 Clouds 18 1012 28 0 5.79 352 04:37 20.05.2020
2929 Clouds 17 1012 30 0 3.76 351 03:54 20.05.2020
2930 Clouds 15 1011 34 0 1.87 354 02:34 20.05.2020
2931 Clouds 13 1011 38 0 1.37 19 01:32 20.05.2020
2932 Clouds 11 1011 45 0 1.56 47 00:46 20.05.2020
2933 Clouds 9 1011 50 0 2.04 47 00:24 20.05.2020
2934 Clouds 9 1011 50 0 2.04 47 23:45 19.05.2020
2935 Clouds 9 1010 48 0 2.11 33 23:21 19.05.2020
2936 Clouds 9 1010 48 0 2.11 33 22:57 19.05.2020
2937 Clouds 9 1010 48 0 2.11 33 22:39 19.05.2020
2938 Clouds 10 1010 47 0 1.67 30 22:20 19.05.2020
2939 Clouds 10 1010 47 0 1.67 30 21:59 19.05.2020
2940 Clouds 10 1010 47 0 1.67 30 21:38 19.05.2020
2941 Clear 10 1010 45 0 1.77 35 21:20 19.05.2020
2942 Clear 10 1010 45 0 1.77 35 20:58 19.05.2020
2943 Clear 10 1010 45 0 1.77 35 20:58 19.05.2020
2944 Clear 10 1010 45 0 1.77 35 20:40 19.05.2020
2945 Clear 10 1010 42 0 1.95 30 20:22 19.05.2020
2946 Clear 10 1010 42 0 1.95 30 19:56 19.05.2020
2947 Clear 10 1010 42 0 1.95 30 19:37 19.05.2020
2948 Clear 11 1010 40 0 1.93 36 19:19 19.05.2020
2949 Clear 11 1010 40 0 1.93 36 18:42 19.05.2020
2950 Clear 12 1010 39 0 2.13 38 18:21 19.05.2020
2951 Clear 12 1010 39 0 2.13 38 17:44 19.05.2020
2952 Clouds 13 1009 37 0 2.58 36 17:22 19.05.2020
2953 Clouds 13 1009 37 0 2.58 36 16:59 19.05.2020
2954 Clouds 13 1009 37 0 2.58 36 16:39 19.05.2020
2955 Clouds 14 1008 35 0 3.11 23 16:21 19.05.2020
2956 Clouds 14 1008 35 0 3.11 23 15:48 19.05.2020
2957 Clouds 15 1007 31 0 3.59 9 15:23 19.05.2020
2958 Clouds 15 1007 31 0 3.59 9 14:59 19.05.2020
2959 Clouds 15 1007 31 0 3.59 9 14:41 19.05.2020
2960 Clouds 19 1007 26 0 4.19 355 14:21 19.05.2020
2961 Clouds 19 1006 26 0 3.88 349 13:58 19.05.2020
2962 Clouds 19 1006 26 0 3.88 349 13:40 19.05.2020
2963 Clouds 20 1006 23 0 5.49 343 13:21 19.05.2020
2964 Clouds 20 1006 23 0 5.49 343 12:58 19.05.2020
2965 Clouds 20 1006 23 0 5.49 343 12:39 19.05.2020
2966 Clouds 21 1006 22 0 4.51 330 12:21 19.05.2020
2967 Clouds 21 1006 22 0 4.51 330 11:55 19.05.2020
2968 Clouds 21 1006 22 0 4.51 330 11:37 19.05.2020
2969 Clouds 21 1007 23 0 3.21 317 11:19 19.05.2020
2970 Clouds 21 1007 23 0 3.21 317 10:45 19.05.2020
2971 Clouds 21 1007 23 0 3.4 302 10:27 19.05.2020
2972 Clouds 21 1007 23 0 3.4 302 09:56 19.05.2020
2973 Clouds 21 1007 23 0 3.4 302 09:38 19.05.2020
2974 Clouds 20 1008 29 0 4.43 260 09:20 19.05.2020
2975 Clouds 20 1008 29 0 4.43 260 08:42 19.05.2020
2976 Clouds 19 1009 31 0 4.83 248 08:23 19.05.2020
2977 Clouds 19 1009 31 0 4.83 248 07:43 19.05.2020
2978 Clouds 19 1009 29 0 3.26 264 07:25 19.05.2020
2979 Clouds 19 1009 29 0 3.26 264 06:45 19.05.2020
2980 Clouds 18 1010 32 0 2.91 263 06:24 19.05.2020
2981 Clouds 18 1010 32 0 2.91 263 05:40 19.05.2020
2982 Clouds 17 1010 37 0 2.21 250 04:55 19.05.2020
2983 Clouds 16 1010 41 0 1.36 225 04:18 19.05.2020
2984 Clouds 12 1010 53 0 2.53 108 01:30 19.05.2020
2985 Clouds 11 1010 60 0 1.84 124 00:43 19.05.2020
2986 Rain 11 1010 60 0 1.61 219 00:22 19.05.2020
2987 Rain 11 1010 60 0 1.61 219 23:40 18.05.2020
2988 Clouds 11 1010 55 0 0.26 256 23:21 18.05.2020
2989 Clouds 11 1010 55 0 0.26 256 23:00 18.05.2020
2990 Clouds 11 1010 55 0 0.26 256 22:40 18.05.2020
2991 Clouds 11 1010 54 0 1.03 66 22:21 18.05.2020
2992 Clouds 11 1010 54 0 1.03 66 22:21 18.05.2020
2993 Clouds 11 1010 54 0 1.03 66 21:43 18.05.2020
2994 Clouds 9 1010 64 0 1.04 100 21:22 18.05.2020
2995 Clouds 9 1010 64 0 1.04 100 20:59 18.05.2020
2996 Clouds 9 1010 64 0 1.04 100 20:41 18.05.2020
2997 Clouds 9 1011 61 0 0.97 88 20:21 18.05.2020
2998 Clouds 8 1011 63 0 0.63 91 19:57 18.05.2020
2999 Clouds 9 1011 61 0 0.97 88 19:38 18.05.2020
3000 Clouds 10 1011 60 0 1.21 65 19:18 18.05.2020
3001 Clouds 10 1011 60 0 1.21 65 18:45 18.05.2020
3002 Clouds 10 1011 60 0 1.67 68 18:24 18.05.2020
3003 Clouds 11 1011 56 0 1.28 46 17:41 18.05.2020
3004 Clouds 11 1011 56 0 0.81 18 17:18 18.05.2020
3005 Clouds 11 1011 56 0 0.81 18 16:57 18.05.2020
3006 Clouds 11 1011 56 0 0.81 18 16:38 18.05.2020
3007 Clouds 11 1010 54 0 0.78 313 16:18 18.05.2020
3008 Clouds 11 1010 54 0 0.78 313 15:57 18.05.2020
3009 Clouds 11 1010 54 0 0.78 313 15:57 18.05.2020
3010 Clouds 11 1010 54 0 0.78 313 15:37 18.05.2020
3011 Clouds 12 1009 53 0 0.36 209 15:19 18.05.2020
3012 Clouds 12 1009 53 0 0.36 209 14:43 18.05.2020
3013 Clouds 16 1009 43 0 1.17 142 14:25 18.05.2020
3014 Clouds 14 1009 48 0 1.4 95 13:58 18.05.2020
3015 Clouds 14 1009 48 0 1.4 95 13:39 18.05.2020
3016 Clouds 14 1009 46 0 2.28 96 13:19 18.05.2020
3017 Clouds 14 1009 46 0 2.28 96 12:56 18.05.2020
3018 Clouds 14 1009 46 0 2.28 96 12:38 18.05.2020
3019 Clouds 14 1009 51 0 3.43 97 12:18 18.05.2020
3020 Clouds 14 1009 51 0 3.43 97 11:47 18.05.2020
3021 Rain 13 1009 57 0 3.08 76 11:27 18.05.2020
3022 Rain 13 1009 57 0 3.08 76 10:58 18.05.2020
3023 Rain 13 1009 57 0 3.08 76 10:40 18.05.2020
3024 Rain 13 1010 56 0 2.65 342 10:22 18.05.2020
3025 Rain 13 1010 56 0 2.65 342 09:43 18.05.2020
3026 Clouds 16 1010 44 0 1.5 39 09:24 18.05.2020
3027 Rain 16 1010 40 0 2.88 333 08:45 18.05.2020
3028 Clouds 16 1011 41 0 1.34 73 08:26 18.05.2020
3029 Clouds 16 1011 41 0 1.34 73 07:54 18.05.2020
3030 Clouds 14 1012 50 0 0.97 66 07:26 18.05.2020
3031 Clouds 14 1012 50 0 0.97 66 06:51 18.05.2020
3032 Clouds 14 1012 50 0 0.97 66 06:33 18.05.2020
3033 Rain 13 1012 57 0 1.19 86 05:49 18.05.2020
3034 Rain 12 1012 61 0 0.72 10 04:52 18.05.2020
3035 Rain 13 1013 59 0 1.09 282 03:31 18.05.2020
3036 Clouds 13 1013 55 0 0.54 292 02:21 18.05.2020
3037 Clouds 12 1014 54 0 1.18 233 00:55 18.05.2020
3038 Clouds 11 1014 54 0 1.69 240 00:25 18.05.2020
3039 Clouds 11 1014 54 0 1.69 240 23:57 17.05.2020
3040 Clouds 11 1014 54 0 1.69 240 23:39 17.05.2020
3041 Clouds 10 1013 57 0 0.8 102 23:20 17.05.2020
3042 Clouds 10 1013 57 0 0.8 102 22:56 17.05.2020
3043 Clouds 10 1013 57 0 0.8 102 22:37 17.05.2020
3044 Clouds 11 1013 54 0 1.2 76 22:18 17.05.2020
3045 Clouds 11 1013 54 0 1.2 76 21:43 17.05.2020
3046 Clouds 11 1013 52 0 1.3 87 21:21 17.05.2020
3047 Clouds 11 1013 52 0 1.3 87 20:59 17.05.2020
3048 Clouds 11 1013 52 0 1.3 87 20:41 17.05.2020
3049 Clouds 12 1013 50 0 1.63 76 20:20 17.05.2020
3050 Clouds 12 1013 50 0 1.63 76 19:55 17.05.2020
3051 Clouds 12 1013 50 0 1.63 76 19:37 17.05.2020
3052 Clouds 12 1013 50 0 1.63 76 19:37 17.05.2020
3053 Clouds 13 1014 47 0 1.96 74 19:18 17.05.2020
3054 Clouds 13 1014 47 0 1.96 74 18:39 17.05.2020
3055 Clouds 14 1014 44 0 2.26 74 18:21 17.05.2020
3056 Clouds 14 1014 44 0 2.26 74 17:56 17.05.2020
3057 Clouds 14 1014 44 0 2.26 74 17:37 17.05.2020
3058 Clouds 14 1014 42 0 2.32 66 17:18 17.05.2020
3059 Clouds 14 1014 42 0 2.32 66 16:40 17.05.2020
3060 Clouds 15 1013 39 0 2.38 65 16:20 17.05.2020
3061 Clouds 15 1013 39 0 2.38 65 15:56 17.05.2020
3062 Clouds 15 1013 39 0 2.38 65 15:37 17.05.2020
3063 Clouds 16 1013 38 0 2.47 58 15:18 17.05.2020
3064 Clouds 16 1013 38 0 2.47 58 14:42 17.05.2020
3065 Clouds 18 1012 33 0 2.77 34 14:24 17.05.2020
3066 Clouds 19 1011 27 0 2.43 12 14:24 17.05.2020
3067 Clouds 19 1011 27 0 2.43 12 13:57 17.05.2020
3068 Clouds 19 1011 27 0 2.43 12 13:37 17.05.2020
3069 Clouds 20 1011 25 0 2.76 360 13:18 17.05.2020
3070 Clouds 16 1013 34 0 1.59 42 04:21 17.05.2020
3071 Clouds 14 1014 38 0 1.95 54 02:29 17.05.2020
3072 Clouds 14 1014 38 0 1.95 54 02:29 17.05.2020
3073 Clouds 12 1014 43 0 2.1 55 01:56 17.05.2020
3074 Clouds 9 1014 52 0 1.92 63 00:58 17.05.2020
3075 Clouds 9 1014 52 0 1.92 63 00:40 17.05.2020
3076 Clouds 7 1013 57 0 1.94 63 23:57 16.05.2020
3077 Clouds 7 1013 57 0 1.94 63 23:39 16.05.2020
3078 Clouds 8 1012 55 0 1.88 54 23:20 16.05.2020
3079 Clouds 8 1012 55 0 1.88 54 22:58 16.05.2020
3080 Clouds 8 1012 55 0 1.88 54 22:39 16.05.2020
3081 Clouds 8 1012 53 0 1.92 53 22:19 16.05.2020
3082 Clouds 8 1012 53 0 1.92 53 21:45 16.05.2020
3083 Clouds 9 1012 50 0 1.92 54 21:25 16.05.2020
3084 Clouds 9 1012 50 0 1.92 54 21:25 16.05.2020
3085 Clouds 9 1012 50 0 1.92 54 20:57 16.05.2020
3086 Clouds 9 1012 50 0 1.92 54 20:39 16.05.2020
3087 Clouds 9 1012 47 0 2.15 53 20:20 16.05.2020
3088 Clouds 9 1012 47 0 2.15 53 19:56 16.05.2020
3089 Clouds 9 1012 47 0 2.15 53 19:37 16.05.2020
3090 Clouds 10 1012 46 0 2.39 53 19:19 16.05.2020
3091 Clouds 10 1012 46 0 2.39 53 18:41 16.05.2020
3092 Clear 10 1012 46 0 2.14 48 18:22 16.05.2020
3093 Clear 10 1012 46 0 2.14 48 17:55 16.05.2020
3094 Clear 10 1012 46 0 2.14 48 17:37 16.05.2020
3095 Clouds 11 1012 44 0 2.51 48 17:18 16.05.2020
3096 Clouds 11 1012 44 0 2.51 48 16:39 16.05.2020
3097 Clouds 12 1012 40 0 2.82 35 16:20 16.05.2020
3098 Clouds 12 1012 40 0 2.82 35 15:56 16.05.2020
3099 Clouds 12 1012 40 0 2.82 35 15:38 16.05.2020
3100 Clouds 13 1011 36 0 3.34 12 15:19 16.05.2020
3101 Clouds 13 1011 36 0 3.34 12 14:43 16.05.2020
3102 Clouds 16 1011 29 0 4.17 357 14:20 16.05.2020
3103 Clouds 17 1010 29 0 3.44 340 13:56 16.05.2020
3104 Clouds 17 1010 29 0 3.44 340 13:37 16.05.2020
3105 Clouds 18 1009 24 0 5.31 332 13:19 16.05.2020
3106 Clouds 18 1009 24 0 5.31 332 12:44 16.05.2020
3107 Clouds 19 1009 23 0 5.74 327 12:20 16.05.2020
3108 Clouds 19 1009 23 0 5.74 327 11:56 16.05.2020
3109 Clouds 19 1009 23 0 5.74 327 11:37 16.05.2020
3110 Clouds 19 1010 23 0 5.62 325 11:18 16.05.2020
3111 Clouds 19 1010 23 0 5.62 325 10:54 16.05.2020
3112 Clouds 19 1010 23 0 5.62 325 10:36 16.05.2020
3113 Clouds 20 1010 23 0 6.12 326 10:18 16.05.2020
3114 Clouds 20 1010 23 0 6.12 326 09:40 16.05.2020
3115 Clouds 20 1010 23 0 6.35 328 09:18 16.05.2020
3116 Clouds 20 1010 23 0 6.18 326 08:42 16.05.2020
3117 Clear 19 1010 23 0 6.45 319 08:21 16.05.2020
3118 Clear 19 1010 23 0 6.45 319 07:45 16.05.2020
3119 Clear 18 1011 26 0 5 306 07:25 16.05.2020
3120 Clear 18 1011 26 0 5 306 06:57 16.05.2020
3121 Clear 18 1011 26 0 5 306 06:36 16.05.2020
3122 Clear 15 1012 31 0 2.81 308 06:18 16.05.2020
3123 Clear 15 1012 31 0 2.81 308 05:31 16.05.2020
3124 Clear 12 1014 36 0 1.09 310 03:36 16.05.2020
3125 Clear 10 1014 39 0 0.56 13 02:59 16.05.2020
3126 Clear 9 1015 42 0 0.91 26 02:20 16.05.2020
3127 Clear 9 1015 42 0 0.91 26 01:45 16.05.2020
3128 Clear 5 1015 56 0 0.57 342 01:22 16.05.2020
3129 Clear 5 1015 56 0 0.57 342 00:44 16.05.2020
3130 Clear 3 1015 59 0 1.07 23 00:21 16.05.2020
3131 Clear 3 1015 59 0 1.07 23 00:21 16.05.2020
3132 Clear 3 1015 59 0 1.07 23 23:41 15.05.2020
3133 Clear 4 1015 56 0 1.47 32 23:20 15.05.2020
3134 Clear 4 1015 56 0 1.47 32 23:20 15.05.2020
3135 Clear 4 1015 56 0 1.47 32 22:57 15.05.2020
3136 Clear 4 1015 56 0 1.47 32 22:38 15.05.2020
3137 Clear 4 1014 56 0 1.12 24 22:18 15.05.2020
3138 Clear 4 1014 56 0 1.12 24 21:40 15.05.2020
3139 Clear 4 1014 56 0 0.8 6 21:21 15.05.2020
3140 Clear 4 1015 55 0 0.92 18 20:58 15.05.2020
3141 Clear 4 1014 56 0 0.86 27 20:40 15.05.2020
3142 Clear 4 1014 55 0 0.77 2 20:22 15.05.2020
3143 Clear 4 1014 55 0 0.77 2 19:55 15.05.2020
3144 Clear 4 1014 55 0 0.77 2 19:37 15.05.2020
3145 Clear 5 1014 54 0 0.73 3 19:18 15.05.2020
3146 Clear 5 1014 54 0 0.73 3 18:42 15.05.2020
3147 Clear 5 1014 53 0 0.66 323 18:23 15.05.2020
3148 Clear 5 1014 53 0 0.8 330 17:40 15.05.2020
3149 Clear 5 1013 52 0 0.79 313 17:19 15.05.2020
3150 Clear 5 1013 51 0 0.82 295 16:57 15.05.2020
3151 Clear 5 1013 51 0 0.82 295 16:38 15.05.2020
3152 Clouds 6 1013 49 0 0.99 321 16:19 15.05.2020
3153 Clouds 6 1013 49 0 0.99 321 15:54 15.05.2020
3154 Clear 6 1013 50 0 0.85 339 15:36 15.05.2020
3155 Clouds 8 1012 43 0 2.11 346 15:18 15.05.2020
3156 Clouds 8 1012 43 0 2.11 346 15:18 15.05.2020
3157 Clouds 7 1012 44 0 1.94 332 14:41 15.05.2020
3158 Clouds 10 1011 35 0 4.07 330 14:23 15.05.2020
3159 Clouds 10 1011 35 0 3.95 339 13:58 15.05.2020
3160 Clouds 10 1011 35 0 3.95 339 13:39 15.05.2020
3161 Clouds 11 1011 32 0 5.8 332 13:19 15.05.2020
3162 Clouds 11 1011 32 0 5.8 332 12:39 15.05.2020
3163 Clouds 12 1010 30 0 7.69 325 12:18 15.05.2020
3164 Clouds 12 1010 30 0 7.69 325 11:57 15.05.2020
3165 Clouds 12 1010 30 0 7.69 325 11:38 15.05.2020
3166 Clouds 12 1010 30 0 8.54 324 11:20 15.05.2020
3167 Clouds 12 1010 30 0 8.54 324 10:58 15.05.2020
3168 Clouds 12 1010 30 0 8.54 324 10:39 15.05.2020
3169 Clouds 12 1010 30 0 9.07 324 10:20 15.05.2020
3170 Clouds 12 1010 30 0 9.07 324 09:58 15.05.2020
3171 Clouds 12 1010 30 0 9.07 324 09:37 15.05.2020
3172 Clouds 12 1010 31 0 7.9 328 09:18 15.05.2020
3173 Clouds 12 1010 31 0 7.9 328 08:39 15.05.2020
3174 Clouds 11 1010 32 0 8.26 331 08:20 15.05.2020
3175 Clouds 11 1010 32 0 8.26 331 07:59 15.05.2020
3176 Clouds 11 1010 32 0 8.26 331 07:40 15.05.2020
3177 Clouds 10 1011 33 0 8.39 332 07:21 15.05.2020
3178 Clouds 10 1011 33 0 8.39 332 06:32 15.05.2020
3179 Clouds 9 1011 36 0 9.17 333 05:33 15.05.2020
3180 Clouds 8 1011 42 0 8.05 337 03:52 15.05.2020
3181 Clear 6 1010 47 0 5.95 335 02:58 15.05.2020
3182 Clear 5 1010 58 0 4.58 326 01:37 15.05.2020
3183 Clear 4 1010 70 0 0.5 353 01:18 15.05.2020
3184 Clear 4 1010 70 0 0.5 353 00:41 15.05.2020
3185 Clear 3 1009 77 0 0.63 34 00:22 15.05.2020
3186 Clear 3 1009 77 0 0.63 34 23:41 14.05.2020
3187 Clear 4 1008 72 0 1.74 15 23:19 14.05.2020
3188 Clear 4 1008 72 0 1.74 15 22:55 14.05.2020
3189 Clear 4 1008 72 0 1.74 15 22:37 14.05.2020
3190 Clear 5 1007 66 0 2.79 357 22:18 14.05.2020
3191 Clear 5 1007 66 0 2.79 357 21:42 14.05.2020
3192 Clear 5 1007 66 0 2.79 357 21:42 14.05.2020
3193 Clear 6 1006 62 0 2.56 303 21:20 14.05.2020
3194 Clear 6 1006 62 0 2.56 303 20:58 14.05.2020
3195 Clear 6 1006 62 0 2.56 303 20:39 14.05.2020
3196 Clouds 8 1005 60 0 2.73 309 20:20 14.05.2020
3197 Clouds 8 1005 60 0 2.73 309 19:57 14.05.2020
3198 Clouds 8 1005 60 0 2.73 309 19:38 14.05.2020
3199 Clouds 8 1004 66 0 1.85 325 19:20 14.05.2020
3200 Clouds 8 1004 66 0 1.85 325 18:57 14.05.2020
3201 Clouds 8 1004 66 0 1.85 325 18:38 14.05.2020
3202 Clouds 8 1004 66 0 1.85 325 18:38 14.05.2020
3203 Rain 9 1003 63 0 1.79 10 18:19 14.05.2020
3204 Rain 9 1003 63 0 1.79 10 17:56 14.05.2020
3205 Rain 9 1003 63 0 1.79 10 17:56 14.05.2020
3206 Rain 9 1003 63 0 1.79 10 17:37 14.05.2020
3207 Rain 10 1002 59 0 7.76 345 17:18 14.05.2020
3208 Rain 10 1002 59 0 7.76 345 16:39 14.05.2020
3209 Clear 12 1001 40 0 3.45 275 16:21 14.05.2020
3210 Clear 12 1001 40 0 3.45 275 15:59 14.05.2020
3211 Clear 12 1001 40 0 3.45 275 15:40 14.05.2020
3212 Clear 13 1000 37 0 3.74 273 15:20 14.05.2020
3213 Clear 13 1000 37 0 3.74 273 14:56 14.05.2020
3214 Clear 13 1000 37 0 3.74 273 14:38 14.05.2020
3215 Clouds 15 999 32 0 6.34 292 14:20 14.05.2020
3216 Clouds 15 999 32 0 6.34 292 13:56 14.05.2020
3217 Clouds 15 999 32 0 6.34 292 13:38 14.05.2020
3218 Clouds 17 999 29 0 8.63 296 13:18 14.05.2020
3219 Clouds 17 999 29 0 8.63 296 12:57 14.05.2020
3220 Clouds 17 999 29 0 8.63 296 12:37 14.05.2020
3221 Clouds 18 999 27 0 8.98 297 12:18 14.05.2020
3222 Clouds 18 999 27 0 8.98 297 11:55 14.05.2020
3223 Clouds 18 999 27 0 8.98 297 11:37 14.05.2020
3224 Clouds 18 999 26 0 9.18 296 11:19 14.05.2020
3225 Clouds 18 999 26 0 9.18 296 10:41 14.05.2020
3226 Clouds 18 999 26 0 8.95 290 10:23 14.05.2020
3227 Clouds 18 999 26 0 8.95 290 09:45 14.05.2020
3228 Clouds 18 1000 26 0 8.82 290 09:25 14.05.2020
3229 Clouds 18 1000 26 0 8.82 290 08:59 14.05.2020
3230 Clouds 18 1000 26 0 8.82 290 08:37 14.05.2020
3231 Clear 18 1001 26 0 8.03 288 08:18 14.05.2020
3232 Clear 18 1001 26 0 8.03 288 07:44 14.05.2020
3233 Clear 18 1002 27 0 7.45 285 07:21 14.05.2020
3234 Clear 18 1002 27 0 7.45 285 06:43 14.05.2020
3235 Clear 17 1003 29 0 6.67 289 06:24 14.05.2020
3236 Clear 17 1003 29 0 6.67 289 05:42 14.05.2020
3237 Clear 16 1004 31 0 6.24 294 04:45 14.05.2020
3238 Clear 15 1004 35 0 3.89 293 03:43 14.05.2020
3239 Clear 13 1005 39 0 0.92 261 03:20 14.05.2020
3240 Clear 13 1005 40 0 1.12 245 02:35 14.05.2020
3241 Clear 11 1006 45 0 0.75 168 01:49 14.05.2020
3242 Clear 8 1006 57 0 0.46 161 00:53 14.05.2020
3243 Clear 6 1006 63 0 0.32 77 00:27 14.05.2020
3244 Clear 6 1006 63 0 0.32 77 23:45 13.05.2020
3245 Clear 6 1006 61 0 0.74 60 23:24 13.05.2020
3246 Clear 6 1006 61 0 0.74 60 22:59 13.05.2020
3247 Clear 6 1006 61 0 0.74 60 22:41 13.05.2020
3248 Clear 7 1006 59 0 1.08 68 22:21 13.05.2020
3249 Clear 7 1006 59 0 1.08 68 21:58 13.05.2020
3250 Clear 7 1006 59 0 1.08 68 21:39 13.05.2020
3251 Clear 7 1007 58 0 0.82 55 21:19 13.05.2020
3252 Clear 7 1007 58 0 0.79 71 20:55 13.05.2020
3253 Clear 7 1007 58 0 0.79 71 20:55 13.05.2020
3254 Clear 7 1007 58 0 0.79 71 20:37 13.05.2020
3255 Clouds 8 1007 57 0 0.87 72 20:18 13.05.2020
3256 Clouds 8 1007 57 0 0.87 72 19:41 13.05.2020
3257 Clouds 8 1008 55 0 1.02 72 19:22 13.05.2020
3258 Clouds 8 1008 55 0 1.02 72 18:44 13.05.2020
3259 Clouds 9 1008 53 0 1.08 97 18:22 13.05.2020
3260 Clouds 9 1008 53 0 1.08 97 18:22 13.05.2020
3261 Clouds 9 1008 53 0 1.08 97 17:58 13.05.2020
3262 Clouds 9 1008 53 0 1.08 97 17:38 13.05.2020
3263 Clouds 9 1007 52 0 1.35 127 17:18 13.05.2020
3264 Clouds 9 1007 52 0 1.35 127 16:40 13.05.2020
3265 Clouds 10 1006 50 0 1.81 127 16:19 13.05.2020
3266 Clouds 10 1006 50 0 1.81 127 15:55 13.05.2020
3267 Clouds 10 1006 50 0 1.81 127 15:36 13.05.2020
3268 Clouds 10 1006 50 0 1.81 127 15:36 13.05.2020
3269 Clouds 12 1006 45 0 1.69 123 15:18 13.05.2020
3270 Clouds 12 1006 45 0 1.69 123 14:42 13.05.2020
3271 Clouds 12 1006 45 0 1.69 123 14:42 13.05.2020
3272 Clouds 14 1006 37 0 1.83 73 14:23 13.05.2020
3273 Clouds 16 1005 33 0 4.43 356 13:58 13.05.2020
3274 Clouds 16 1005 33 0 4.43 356 13:40 13.05.2020
3275 Clouds 17 1005 30 0 4.23 352 13:21 13.05.2020
3276 Clouds 17 1005 30 0 4.23 352 13:21 13.05.2020
3277 Clouds 17 1005 30 0 4.23 352 12:57 13.05.2020
3278 Clouds 17 1005 30 0 4.23 352 12:39 13.05.2020
3279 Clouds 17 1005 30 0 4.18 357 12:18 13.05.2020
3280 Clouds 17 1005 30 0 4.18 357 11:56 13.05.2020
3281 Clouds 17 1005 30 0 4.18 357 11:36 13.05.2020
3282 Clouds 17 1005 29 0 7.12 341 11:18 13.05.2020
3283 Clouds 17 1005 29 0 7.12 341 10:56 13.05.2020
3284 Clouds 17 1005 29 0 7.12 341 10:38 13.05.2020
3285 Clouds 18 1005 26 0 6.27 332 10:18 13.05.2020
3286 Clouds 18 1005 26 0 6.27 332 09:43 13.05.2020
3287 Clouds 19 1005 25 0 5.08 348 09:23 13.05.2020
3288 Clouds 19 1004 25 0 5.52 329 08:57 13.05.2020
3289 Clouds 19 1004 25 0 5.52 329 08:37 13.05.2020
3290 Clouds 19 1005 24 0 3.43 334 08:18 13.05.2020
3291 Clouds 19 1005 24 0 3.43 334 07:43 13.05.2020
3292 Clouds 18 1005 24 0 2.39 341 07:25 13.05.2020
3293 Clouds 18 1005 24 0 2.39 341 06:47 13.05.2020
3294 Clouds 18 1006 25 0 1.96 357 06:27 13.05.2020
3295 Clouds 17 1006 28 0 1.51 21 04:56 13.05.2020
3296 Clouds 15 1007 34 0 1.55 41 03:27 13.05.2020
3297 Clouds 15 1007 34 0 1.55 41 02:32 13.05.2020
3298 Clouds 13 1007 38 0 1.63 54 01:37 13.05.2020
3299 Clouds 10 1007 46 0 1.36 63 00:50 13.05.2020
3300 Clouds 8 1008 50 0 1.31 67 00:20 13.05.2020
3301 Clouds 8 1008 50 0 1.31 67 23:40 12.05.2020
3302 Clouds 9 1007 48 0 1.36 58 23:21 12.05.2020
3303 Clouds 9 1007 48 0 1.36 58 23:21 12.05.2020
3304 Clouds 9 1007 48 0 1.36 58 23:21 12.05.2020
3305 -273 0 0 0 0 0 22:59 12.05.2020
3306 Clouds 9 1007 48 0 1.36 58 22:41 12.05.2020
3307 Clouds 10 1007 47 0 1.51 56 22:21 12.05.2020
3308 Clouds 10 1007 47 0 1.51 56 21:56 12.05.2020
3309 Clouds 10 1007 47 0 1.51 56 21:37 12.05.2020
3310 Clouds 10 1007 47 0 1.51 56 21:37 12.05.2020
3311 Clouds 10 1008 45 0 1.81 65 21:19 12.05.2020
3312 Clouds 10 1008 45 0 1.9 65 20:57 12.05.2020
3313 Clouds 10 1008 45 0 1.9 65 20:38 12.05.2020
3314 Clouds 11 1009 42 0 2.41 58 20:20 12.05.2020
3315 Clouds 11 1009 42 0 2.41 58 19:56 12.05.2020
3316 Clouds 11 1009 42 0 2.41 58 19:37 12.05.2020
3317 Clouds 11 1009 41 0 2.59 56 19:19 12.05.2020
3318 Clouds 11 1009 41 0 2.59 56 18:43 12.05.2020
3319 Clouds 12 1009 40 0 2.43 56 18:24 12.05.2020
3320 Clouds 12 1009 40 0 2.43 56 17:58 12.05.2020
3321 Clouds 12 1009 40 0 2.43 56 17:39 12.05.2020
3322 Clouds 12 1009 39 0 2.37 61 17:21 12.05.2020
3323 Clouds 12 1009 39 0 2.37 61 16:43 12.05.2020
3324 Clouds 13 1009 36 0 3.08 54 16:23 12.05.2020
3325 Clouds 13 1009 36 0 3.08 54 15:56 12.05.2020
3326 Clouds 13 1009 36 0 3.08 54 15:37 12.05.2020
3327 Clouds 14 1008 32 0 2.77 35 15:18 12.05.2020
3328 Clouds 14 1008 32 0 2.77 35 15:18 12.05.2020
3329 Clouds 14 1008 32 0 2.77 35 14:55 12.05.2020
3330 Clouds 13 1008 34 0 0.65 45 14:36 12.05.2020
3331 Clouds 17 1008 27 0 2.18 2 14:18 12.05.2020
3332 Clouds 17 1007 27 0 0.94 332 13:55 12.05.2020
3333 Clouds 17 1007 27 0 0.94 332 13:37 12.05.2020
3334 Clouds 19 1007 22 0 1.89 316 13:18 12.05.2020
3335 Clouds 19 1007 22 0 1.89 316 12:56 12.05.2020
3336 Clouds 19 1007 22 0 1.89 316 12:38 12.05.2020
3337 Clouds 19 1008 21 0 2.16 303 12:20 12.05.2020
3338 Clouds 19 1008 21 0 2.16 303 11:57 12.05.2020
3339 Clouds 19 1008 21 0 2.16 303 11:57 12.05.2020
3340 Clouds 19 1008 21 0 2.16 303 11:37 12.05.2020
3341 Clouds 19 1008 21 0 2.32 297 11:19 12.05.2020
3342 Clouds 19 1008 21 0 2.32 297 10:55 12.05.2020
3343 Clouds 19 1008 21 0 2.32 297 10:37 12.05.2020
3344 Clear 19 1008 21 0 2.39 296 10:18 12.05.2020
3345 Clear 19 1008 21 0 2.39 296 09:56 12.05.2020
3346 Clear 19 1008 21 0 2.39 296 09:38 12.05.2020
3347 Clouds 19 1009 22 0 2.62 280 09:19 12.05.2020
3348 Clouds 19 1009 22 0 2.62 280 08:40 12.05.2020
3349 Clouds 18 1009 23 0 2.19 285 08:21 12.05.2020
3350 Clouds 18 1009 23 0 2.19 285 07:45 12.05.2020
3351 Clouds 17 1010 24 0 1.93 292 07:27 12.05.2020
3352 Clouds 17 1010 24 0 1.93 292 06:56 12.05.2020
3353 Clouds 17 1010 24 0 1.93 292 06:37 12.05.2020
3354 Clouds 17 1012 26 0 1.54 303 06:18 12.05.2020
3355 Clouds 17 1012 26 0 1.54 303 05:45 12.05.2020
3356 Clouds 14 1013 31 0 0.68 326 03:49 12.05.2020
3357 Clouds 13 1014 34 0 0.37 58 02:58 12.05.2020
3358 Clouds 11 1014 39 0 0.98 70 02:26 12.05.2020
3359 Clouds 11 1014 39 0 0.98 70 02:26 12.05.2020
3360 Clouds 11 1014 39 0 0.98 70 01:33 12.05.2020
3361 Clouds 7 1014 52 0 0.9 67 00:57 12.05.2020
3362 Clouds 5 1015 55 0 0.91 55 00:21 12.05.2020
3363 Clouds 5 1015 55 0 0.91 55 23:55 11.05.2020
3364 Clouds 5 1015 55 0 0.91 55 23:37 11.05.2020
3365 Clouds 5 1015 54 0 0.88 67 23:18 11.05.2020
3366 Clouds 5 1015 54 0 0.88 67 22:54 11.05.2020
3367 Clouds 5 1015 54 0 0.88 67 22:36 11.05.2020
3368 Clouds 6 1015 52 0 0.84 85 22:18 11.05.2020
3369 Clouds 6 1015 52 0 0.84 85 21:54 11.05.2020
3370 Clouds 6 1015 52 0 0.73 110 21:36 11.05.2020
3371 Clouds 6 1015 51 0 0.79 109 21:18 11.05.2020
3372 Clouds 6 1015 51 0 0.79 109 20:42 11.05.2020
3373 Clear 7 1016 49 0 0.81 120 20:21 11.05.2020
3374 Clear 7 1016 49 0 0.81 120 19:58 11.05.2020
3375 Clear 7 1016 49 0 0.81 120 19:40 11.05.2020
3376 Clear 7 1016 47 0 0.83 143 19:21 11.05.2020
3377 Clear 7 1016 47 0 0.83 143 18:56 11.05.2020
3378 Clear 7 1016 47 0 0.83 143 18:38 11.05.2020
3379 Clear 8 1016 45 0 0.91 143 18:18 11.05.2020
3380 Clear 8 1016 45 0 0.91 143 17:57 11.05.2020
3381 Clear 8 1016 45 0 0.91 143 17:38 11.05.2020
3382 Clear 9 1016 43 0 0.32 109 17:19 11.05.2020
3383 Clear 9 1016 43 0 0.32 109 16:42 11.05.2020
3384 Clear 10 1016 40 0 0.54 289 16:23 11.05.2020
3385 Clear 10 1016 40 0 0.54 289 15:59 11.05.2020
3386 Clear 10 1016 40 0 0.54 289 15:40 11.05.2020
3387 Clear 12 1016 36 0 1.63 262 15:19 11.05.2020
3388 Clear 12 1016 36 0 1.63 262 14:56 11.05.2020
3389 Clear 12 1016 36 0 1.63 262 14:56 11.05.2020
3390 Clear 12 1016 36 0 1.63 262 14:38 11.05.2020
3391 Clear 15 1016 29 0 3.35 269 14:19 11.05.2020
3392 Clear 15 1016 29 0 3.35 269 13:42 11.05.2020
3393 Clear 17 1016 25 0 4.78 278 13:22 11.05.2020
3394 Clear 17 1016 25 0 4.78 278 12:58 11.05.2020
3395 Clear 17 1016 25 0 4.78 278 12:40 11.05.2020
3396 Clear 18 1016 24 0 4.39 273 12:22 11.05.2020
3397 Clear 18 1016 24 0 4.39 273 11:57 11.05.2020
3398 Clear 18 1016 24 0 4.39 273 11:38 11.05.2020
3399 Clear 18 1016 24 0 4.39 273 11:38 11.05.2020
3400 Clear 18 1016 23 0 4.39 262 11:20 11.05.2020
3401 Clear 18 1016 23 0 4.39 262 10:56 11.05.2020
3402 Clear 18 1016 23 0 4.39 262 10:38 11.05.2020
3403 Clear 18 1017 24 0 3.8 258 10:20 11.05.2020
3404 Clear 18 1017 24 0 3.8 258 09:56 11.05.2020
3405 Clear 18 1017 24 0 3.8 258 09:37 11.05.2020
3406 Clear 17 1018 25 0 3.11 263 09:18 11.05.2020
3407 Clear 17 1018 25 0 3.11 263 09:18 11.05.2020
3408 Clear 17 1018 25 0 3.11 263 08:42 11.05.2020
3409 Clear 16 1019 27 0 2.34 276 08:23 11.05.2020
3410 Clear 16 1019 27 0 2.34 276 07:56 11.05.2020
3411 Clear 16 1019 27 0 2.34 276 07:38 11.05.2020
3412 Clear 15 1020 29 0 1.88 287 07:20 11.05.2020
3413 Clear 15 1020 29 0 1.88 287 06:34 11.05.2020
3414 Clear 14 1021 32 0 1.58 288 05:51 11.05.2020
3415 Clear 12 1022 35 0 1.2 291 05:21 11.05.2020
3416 Clear 11 1023 38 0 0.77 292 03:52 11.05.2020
3417 Clear 10 1024 42 0 0.16 46 02:36 11.05.2020
3418 Clear 8 1025 47 0 0.8 85 01:55 11.05.2020
3419 Clear 4 1025 63 0 0.77 74 00:57 11.05.2020
3420 Clear 4 1025 63 0 0.77 74 00:38 11.05.2020
3421 Clear 2 1025 68 0 0.71 80 00:18 11.05.2020
3422 Clear 2 1025 68 0 0.71 80 23:39 10.05.2020
3423 Clear 3 1025 66 0 0.6 93 23:19 10.05.2020
3424 Clear 3 1025 66 0 0.6 93 22:54 10.05.2020
3425 Clear 3 1025 66 0 0.6 93 22:36 10.05.2020
3426 Clear 3 1025 64 0 0.48 131 22:18 10.05.2020
3427 Clear 3 1025 64 0 0.48 131 21:41 10.05.2020
3428 Clear 4 1025 62 0 0.58 160 21:18 10.05.2020
3429 Clear 4 1026 63 0 0.5 156 20:42 10.05.2020
3430 Clear 4 1026 60 0 0.58 161 20:24 10.05.2020
3431 Clear 4 1026 60 0 0.58 161 19:56 10.05.2020
3432 Clear 4 1026 60 0 0.58 161 19:38 10.05.2020
3433 Clear 5 1026 58 0 0.44 140 19:20 10.05.2020
3434 Clear 5 1026 58 0 0.44 140 19:20 10.05.2020
3435 Clear 5 1026 58 0 0.44 140 18:55 10.05.2020
3436 Clear 5 1026 58 0 0.44 140 18:36 10.05.2020
3437 Clear 6 1026 56 0 0.51 64 18:18 10.05.2020
3438 Clear 6 1026 56 0 0.51 64 17:57 10.05.2020
3439 Clear 6 1026 56 0 0.51 64 17:37 10.05.2020
3440 Clear 7 1026 52 0 1.41 30 17:19 10.05.2020
3441 Clear 7 1026 52 0 1.41 30 16:43 10.05.2020
3442 Clear 8 1025 47 0 2.28 4 16:21 10.05.2020
3443 Clear 8 1025 47 0 2.28 4 15:58 10.05.2020
3444 Clear 8 1025 47 0 2.28 4 15:39 10.05.2020
3445 Clear 8 1025 47 0 2.28 4 15:39 10.05.2020
3446 Clear 9 1025 43 0 2.8 342 15:20 10.05.2020
3447 Clear 9 1025 43 0 2.8 342 14:56 10.05.2020
3448 Clear 9 1025 43 0 2.8 342 14:37 10.05.2020
3449 Clear 12 1024 37 0 3.83 325 14:19 10.05.2020
3450 Clear 12 1024 37 0 3.83 325 13:57 10.05.2020
3451 Clear 12 1024 37 0 3.83 325 13:36 10.05.2020
3452 Clear 13 1024 32 0 4.53 323 13:18 10.05.2020
3453 Clear 13 1024 32 0 4.53 323 12:42 10.05.2020
3454 Clear 14 1024 31 0 4.15 314 12:22 10.05.2020
3455 Clear 14 1024 31 0 4.15 314 11:59 10.05.2020
3456 Clear 14 1024 31 0 4.15 314 11:40 10.05.2020
3457 Clear 14 1024 31 0 3.88 298 11:21 10.05.2020
3458 Clear 14 1024 31 0 3.88 298 10:55 10.05.2020
3459 Clear 14 1024 31 0 3.88 298 10:55 10.05.2020
3460 Clear 14 1024 31 0 3.88 298 10:37 10.05.2020
3461 Clear 13 1024 31 0 3.49 288 10:19 10.05.2020
3462 Clear 13 1024 31 0 3.49 288 09:42 10.05.2020
3463 Clear 12 1024 33 0 3.38 273 09:23 10.05.2020
3464 Clear 12 1024 33 0 3.38 273 08:57 10.05.2020
3465 Clear 12 1024 33 0 3.38 273 08:39 10.05.2020
3466 Clouds 11 1025 35 0 2.64 277 08:20 10.05.2020
3467 Clouds 11 1025 35 0 2.64 277 07:40 10.05.2020
3468 Clouds 10 1026 38 0 2.24 284 07:19 10.05.2020
3469 Clouds 10 1026 38 0 2.24 284 06:50 10.05.2020
3470 Clouds 8 1027 41 0 2.15 293 06:24 10.05.2020
3471 Clouds 8 1027 41 0 2.15 293 05:45 10.05.2020
3472 Clouds 7 1027 45 0 2.01 290 04:45 10.05.2020
3473 Clouds 6 1028 48 0 1.37 279 04:25 10.05.2020
3474 Clouds 6 1028 48 0 1.37 279 03:47 10.05.2020
3475 Clouds 5 1028 52 0 0.64 301 02:59 10.05.2020
3476 Clouds 3 1028 56 0 0.8 40 02:25 10.05.2020
3477 Clouds 3 1029 56 0 0.76 32 01:58 10.05.2020
3478 Clouds 3 1029 56 0 0.76 32 01:39 10.05.2020
3479 Clouds 0 1029 71 0 1.1 39 01:18 10.05.2020
3480 Clouds 0 1029 71 0 1.1 39 00:52 10.05.2020
3481 Clouds -1 1029 72 0 1.34 38 00:21 10.05.2020
3482 Clouds -1 1029 72 0 1.34 38 23:40 09.05.2020
3483 Clouds -1 1028 71 0 1.58 30 23:22 09.05.2020
3484 Clouds -1 1028 71 0 1.58 30 22:58 09.05.2020
3485 Clouds -1 1028 71 0 1.58 30 22:39 09.05.2020
3486 Clear 0 1027 70 0 1.8 36 22:21 09.05.2020
3487 Clear 0 1027 70 0 1.8 36 21:56 09.05.2020
3488 Clear 0 1027 70 0 1.8 36 21:38 09.05.2020
3489 Clear 0 1027 69 0 1.9 34 21:19 09.05.2020
3490 Clear 0 1027 69 0 1.9 34 20:56 09.05.2020
3491 Clear 0 1027 69 0 1.9 34 20:37 09.05.2020
3492 Clear 0 1026 68 0 2 28 20:19 09.05.2020
3493 Clear 0 1026 68 0 2 28 19:40 09.05.2020
3494 Clear 1 1026 66 0 2.12 38 19:21 09.05.2020
3495 Clear 1 1026 66 0 2.12 38 18:58 09.05.2020
3496 Clear 1 1026 66 0 2.12 38 18:40 09.05.2020
3497 Clear 2 1025 62 0 2.62 42 18:21 09.05.2020
3498 Clear 2 1025 62 0 2.62 42 17:44 09.05.2020
3499 Clear 2 1024 59 0 3.01 45 17:23 09.05.2020
3500 Clear 2 1024 59 0 3.01 45 16:55 09.05.2020
3501 Clear 2 1024 59 0 3.01 45 16:37 09.05.2020
3502 Clear 3 1023 55 0 3.6 40 16:18 09.05.2020
3503 Clear 3 1023 55 0 3.6 40 15:41 09.05.2020
3504 Clear 4 1021 50 0 4.39 35 15:22 09.05.2020
3505 Clear 4 1021 50 0 4.39 35 14:45 09.05.2020
3506 Clouds 6 1020 45 0 5.69 35 14:20 09.05.2020
3507 Clouds 6 1020 45 0 5.69 35 14:00 09.05.2020
3508 Clouds 6 1020 45 0 5.69 35 13:41 09.05.2020
3509 Clouds 7 1019 42 0 5.82 31 13:22 09.05.2020
3510 Clouds 7 1019 42 0 5.82 31 12:58 09.05.2020
3511 Clouds 7 1019 42 0 5.82 31 12:39 09.05.2020
3512 Clouds 7 1019 42 0 5.82 31 12:39 09.05.2020
3513 Clouds 7 1019 40 0 5.57 25 12:21 09.05.2020
3514 Clouds 7 1019 40 0 5.57 25 11:44 09.05.2020
3515 Clouds 8 1019 38 0 5.2 19 11:20 09.05.2020
3516 Clouds 8 1019 38 0 5.2 19 10:48 09.05.2020
3517 Clouds 8 1019 38 0 4.81 12 10:27 09.05.2020
3518 Clouds 8 1019 38 0 4.81 12 09:59 09.05.2020
3519 Clouds 8 1019 38 0 4.81 12 09:41 09.05.2020
3520 Clouds 7 1020 39 0 4.51 12 09:19 09.05.2020
3521 Clouds 8 1020 38 0 4.15 14 08:52 09.05.2020
3522 Clouds 8 1020 38 0 4.15 14 08:34 09.05.2020
3523 Clear 7 1021 40 0 3.64 20 07:55 09.05.2020
3524 Clear 7 1021 40 0 3.64 20 07:37 09.05.2020
3525 Clear 6 1022 42 0 3.4 30 07:19 09.05.2020
3526 Clear 5 1023 45 0 3.3 38 06:26 09.05.2020
3527 Clear 5 1023 45 0 3.3 38 05:50 09.05.2020
3528 Clear 4 1024 49 0 3.18 39 04:58 09.05.2020
3529 Clear 3 1024 53 0 2.78 33 03:39 09.05.2020
3530 Clear 2 1025 60 0 2.27 32 02:53 09.05.2020
3531 Clear 1 1025 69 0 2 30 02:23 09.05.2020
3532 Clouds 1 1025 69 0 2 33 01:47 09.05.2020
3533 Clouds -1 1025 76 0 2.08 38 01:20 09.05.2020
3534 Clouds -1 1025 76 0 2.08 38 00:40 09.05.2020
3535 Clear -2 1025 78 0 2.03 37 23:58 08.05.2020
3536 Clear -2 1025 78 0 2.03 37 23:39 08.05.2020
3537 Clear -2 1024 78 0 1.96 39 23:20 08.05.2020
3538 Clear -2 1024 78 0 1.96 39 22:55 08.05.2020
3539 Clear -2 1024 78 0 1.96 39 22:36 08.05.2020
3540 Clear -2 1024 78 0 1.93 38 22:18 08.05.2020
3541 Clear -2 1024 78 0 1.93 38 21:54 08.05.2020
3542 Clear -2 1024 78 0 1.93 38 21:36 08.05.2020
3543 Clear -1 1024 80 0 1.67 27 21:18 08.05.2020
3544 Clear -1 1024 80 0 1.67 27 20:41 08.05.2020
3545 Clear -1 1024 77 0 1.79 20 20:23 08.05.2020
3546 Clear -1 1024 77 0 1.79 20 19:56 08.05.2020
3547 Clear -1 1024 77 0 1.79 20 19:37 08.05.2020
3548 Clear 0 1023 74 0 2.23 15 19:19 08.05.2020
3549 Clear 0 1023 74 0 2.23 15 18:44 08.05.2020
3550 Clear 0 1023 74 0 2.23 15 18:44 08.05.2020
3551 Clouds 0 1022 70 0 2.47 15 18:26 08.05.2020
3552 Clouds 0 1022 70 0 2.47 15 17:43 08.05.2020
3553 Clouds 1 1021 65 0 3.34 17 17:20 08.05.2020
3554 Clouds 1 1021 65 0 3.34 17 16:55 08.05.2020
3555 Clouds 1 1021 65 0 3.34 17 16:37 08.05.2020
3556 Clouds 2 1020 61 0 4.55 3 16:18 08.05.2020
3557 Clouds 2 1020 61 0 4.55 3 15:42 08.05.2020
3558 Clear 4 1018 58 0 4.32 345 15:20 08.05.2020
3559 Clear 4 1018 58 0 4.32 345 14:56 08.05.2020
3560 Clear 4 1018 58 0 4.32 345 14:37 08.05.2020
3561 Clouds 6 1017 53 0 6.56 344 14:18 08.05.2020
3562 Clouds 6 1017 53 0 6.56 344 13:41 08.05.2020
3563 Clouds 7 1016 48 0 7.14 341 13:20 08.05.2020
3564 Clouds 7 1016 48 0 7.14 341 12:56 08.05.2020
3565 Clouds 7 1016 48 0 7.14 341 12:38 08.05.2020
3566 Clouds 9 1015 43 0 7.37 326 12:20 08.05.2020
3567 Clouds 9 1015 43 0 7.37 326 12:20 08.05.2020
3568 Clouds 9 1015 43 0 7.37 326 11:44 08.05.2020
3569 Clouds 9 1014 41 0 8.07 311 11:23 08.05.2020
3570 Clouds 9 1014 41 0 8.07 311 10:59 08.05.2020
3571 Clouds 9 1014 41 0 8.07 311 10:40 08.05.2020
3572 Clouds 9 1014 42 0 8.61 307 10:19 08.05.2020
3573 Clouds 9 1014 42 0 8.61 307 09:56 08.05.2020
3574 Clouds 9 1014 42 0 8.61 307 09:38 08.05.2020
3575 Snow 8 1015 52 0 9.07 305 09:18 08.05.2020
3576 Snow 8 1015 52 0 9.07 305 08:42 08.05.2020
3577 Snow 9 1015 48 0 4.63 285 08:21 08.05.2020
3578 Snow 9 1015 48 0 4.63 285 07:43 08.05.2020
3579 Snow 9 1015 48 0 4.63 285 07:43 08.05.2020
3580 Snow 6 1015 64 0 3.47 264 07:23 08.05.2020
3581 Snow 6 1015 64 0 3.47 264 06:51 08.05.2020
3582 Snow 5 1016 67 0 3.03 254 06:23 08.05.2020
3583 Snow 5 1016 67 0 3.03 254 05:42 08.05.2020
3584 Snow 3 1017 74 0 2.28 236 04:32 08.05.2020
3585 Snow 2 1018 77 0 1.45 265 02:33 08.05.2020
3586 Clouds 3 1019 70 0 1.4 226 01:47 08.05.2020
3587 Clouds 3 1020 66 0 1.33 172 01:27 08.05.2020
3588 Clouds 3 1020 66 0 1.33 172 00:51 08.05.2020
3589 Clouds 3 1020 66 0 1.33 172 00:29 08.05.2020
3590 Clouds 3 1020 64 0 1.17 200 23:58 07.05.2020
3591 Clouds 3 1020 64 0 1.17 200 23:40 07.05.2020
3592 Clouds 1 1020 72 0 1 228 23:21 07.05.2020
3593 Clouds 1 1020 72 0 1 228 22:55 07.05.2020
3594 Clouds 1 1020 72 0 1 228 22:37 07.05.2020
3595 Clouds 1 1019 72 0 0.78 235 22:19 07.05.2020
3596 Clouds 1 1019 72 0 0.78 235 21:55 07.05.2020
3597 Clouds 1 1020 71 0 0.96 224 21:36 07.05.2020
3598 Clear 1 1020 72 0 0.84 240 21:18 07.05.2020
3599 Clear 1 1020 72 0 0.84 240 20:42 07.05.2020
3600 Clear 1 1021 70 0 0.42 230 20:21 07.05.2020
3601 Clear 1 1021 70 0 0.42 230 19:54 07.05.2020
3602 Clear 1 1021 70 0 0.42 230 19:36 07.05.2020
3603 Clear 2 1022 67 0 0.7 338 19:18 07.05.2020
3604 Clear 2 1022 67 0 0.7 338 18:41 07.05.2020
3605 Clear 3 1022 64 0 1.06 352 18:23 07.05.2020
3606 Clear 3 1022 64 0 1.06 352 17:43 07.05.2020
3607 Clear 3 1021 60 0 1.63 353 17:21 07.05.2020
3608 Clear 3 1021 60 0 1.63 353 17:21 07.05.2020
3609 Clear 3 1021 60 0 1.63 353 16:56 07.05.2020
3610 Clear 3 1021 60 0 1.63 353 16:38 07.05.2020
3611 Clear 4 1021 56 0 2.8 341 16:18 07.05.2020
3612 Clear 4 1021 56 0 2.8 341 15:55 07.05.2020
3613 Clear 4 1021 56 0 2.8 341 15:36 07.05.2020
3614 Clear 6 1019 50 0 3.96 333 15:18 07.05.2020
3615 Clear 6 1019 50 0 3.96 333 14:41 07.05.2020
3616 Clouds 8 1018 43 0 4.9 331 14:20 07.05.2020
3617 Clouds 8 1018 43 0 4.9 331 13:44 07.05.2020
3618 Clouds 9 1018 39 0 4.72 341 13:25 07.05.2020
3619 Clouds 9 1018 39 0 4.72 341 12:45 07.05.2020
3620 Clouds 9 1018 39 0 4.72 341 12:45 07.05.2020
3621 Clouds 9 1018 38 0 4.38 346 12:20 07.05.2020
3622 Clouds 9 1018 38 0 4.38 346 11:59 07.05.2020
3623 Clouds 9 1018 38 0 4.38 346 11:59 07.05.2020
3624 Clouds 9 1018 38 0 4.38 346 11:59 07.05.2020
3625 Clouds 9 1018 38 0 4.38 346 11:39 07.05.2020
3626 Clouds 9 1018 38 0 4.26 348 11:20 07.05.2020
3627 Clouds 9 1018 38 0 4.26 348 10:42 07.05.2020
3628 Clouds 9 1018 38 0 4.46 343 10:23 07.05.2020
3629 Clouds 9 1018 38 0 4.46 343 09:41 07.05.2020
3630 Clouds 9 1018 38 0 4.46 343 09:41 07.05.2020
3631 Clear 9 1019 38 0 4.47 349 09:20 07.05.2020
3632 Clear 9 1019 38 0 4.47 349 08:57 07.05.2020
3633 Clear 9 1019 38 0 4.47 349 08:38 07.05.2020
3634 Clear 8 1020 40 0 4 356 08:20 07.05.2020
3635 Clear 8 1020 40 0 4 356 07:45 07.05.2020
3636 Clouds 7 1021 43 0 3.88 2 07:26 07.05.2020
3637 Clouds 7 1021 43 0 3.88 2 06:52 07.05.2020
3638 Clouds 7 1021 43 0 3.88 2 06:33 07.05.2020
3639 Clouds 6 1022 47 0 3.56 8 05:32 07.05.2020
3640 Clouds 4 1023 58 0 3.88 20 03:55 07.05.2020
3641 Clouds 3 1024 65 0 3.28 17 03:25 07.05.2020
3642 Clouds 3 1024 65 0 3.28 17 02:53 07.05.2020
3643 Clouds 2 1024 70 0 3.06 22 01:45 07.05.2020
3644 Clouds 1 1024 76 0 2.62 22 01:24 07.05.2020
3645 Clouds 1 1024 76 0 2.62 22 00:46 07.05.2020
3646 Clouds 0 1024 80 0 2.53 32 00:27 07.05.2020
3647 Clouds 0 1024 80 0 2.53 32 00:27 07.05.2020
3648 Clouds 0 1024 80 0 2.53 32 23:47 06.05.2020
3649 Clouds 1 1023 77 0 2.82 34 23:25 06.05.2020
3650 Clouds 1 1023 77 0 2.82 34 22:58 06.05.2020
3651 Clouds 1 1023 77 0 2.82 34 22:40 06.05.2020
3652 Clouds 1 1022 74 0 3.66 35 22:20 06.05.2020
3653 Clouds 1 1022 74 0 3.66 35 21:57 06.05.2020
3654 Clouds 1 1022 74 0 3.66 35 21:39 06.05.2020
3655 Clouds 1 1021 77 0 4.34 35 21:20 06.05.2020
3656 Clouds 1 1021 77 0 4.34 35 20:43 06.05.2020
3657 Clouds 1 1021 78 0 5.24 29 20:24 06.05.2020
3658 Clouds 1 1021 78 0 5.24 29 19:58 06.05.2020
3659 Clouds 1 1021 78 0 5.24 29 19:58 06.05.2020
3660 Clouds 1 1021 78 0 5.24 29 19:39 06.05.2020
3661 Clouds 2 1020 71 0 5.2 30 19:20 06.05.2020
3662 Clouds 2 1020 71 0 5.2 30 18:59 06.05.2020
3663 Clouds 2 1020 71 0 5.2 30 18:59 06.05.2020
3664 Clouds 2 1020 71 0 5.2 30 18:40 06.05.2020
3665 Clouds 2 1020 71 0 5.2 30 18:40 06.05.2020
3666 Clouds 2 1019 66 0 6.17 24 18:21 06.05.2020
3667 Clouds 2 1019 66 0 6.17 24 17:59 06.05.2020
3668 Clouds 2 1019 66 0 6.17 24 17:39 06.05.2020
3669 Clouds 3 1018 60 0 6.12 22 17:21 06.05.2020
3670 Clouds 3 1018 60 0 6.12 22 17:21 06.05.2020
3671 Clouds 3 1018 60 0 6.12 22 16:58 06.05.2020
3672 Clouds 3 1018 60 0 6.12 22 16:40 06.05.2020
3673 Clouds 4 1017 56 0 6.31 19 16:21 06.05.2020
3674 Clouds 4 1017 56 0 6.31 19 15:58 06.05.2020
3675 Clouds 4 1017 56 0 6.31 19 15:40 06.05.2020
3676 Clouds 5 1015 53 0 6.12 24 15:21 06.05.2020
3677 Clouds 5 1015 53 0 6.12 24 14:55 06.05.2020
3678 Clouds 5 1015 53 0 6.12 24 14:36 06.05.2020
3679 Clouds 6 1014 50 0 6.39 29 14:18 06.05.2020
3680 Clouds 7 1014 49 0 7.35 34 13:43 06.05.2020
3681 Clouds 8 1013 46 0 7.19 31 13:24 06.05.2020
3682 Clouds 8 1013 46 0 7.19 31 12:56 06.05.2020
3683 Clouds 8 1013 46 0 7.19 31 12:37 06.05.2020
3684 Clouds 9 1012 45 0 6.16 20 12:19 06.05.2020
3685 Clouds 9 1012 45 0 6.16 20 11:40 06.05.2020
3686 Clouds 10 1012 43 0 5.53 11 11:21 06.05.2020
3687 Clouds 10 1012 43 0 5.53 11 10:57 06.05.2020
3688 Clouds 10 1012 43 0 5.53 11 10:38 06.05.2020
3689 Clouds 10 1012 42 0 4.98 358 10:19 06.05.2020
3690 Clouds 10 1012 42 0 4.98 358 09:44 06.05.2020
3691 Clouds 9 1013 46 0 5.77 10 09:23 06.05.2020
3692 Clouds 9 1013 46 0 5.77 10 08:49 06.05.2020
3693 Clouds 9 1013 47 0 5.13 6 08:24 06.05.2020
3694 Clouds 9 1013 47 0 5.13 6 07:59 06.05.2020
3695 Clouds 9 1013 47 0 5.13 6 07:40 06.05.2020
3696 Clouds 9 1014 47 0 3.99 355 07:21 06.05.2020
3697 Clouds 9 1014 47 0 3.99 355 06:53 06.05.2020
3698 Clouds 8 1014 51 0 4.15 350 06:22 06.05.2020
3699 Clouds 8 1014 51 0 4.15 350 05:55 06.05.2020
3700 Clouds 8 1014 51 0 4.15 350 05:37 06.05.2020
3701 Clear 8 1014 53 0 4.29 335 04:38 06.05.2020
3702 Clear 7 1014 55 0 3.64 301 03:42 06.05.2020
3703 Clear 6 1013 59 0 2.93 272 03:20 06.05.2020
3704 Clouds 6 1015 64 0 2.14 306 02:30 06.05.2020
3705 Clouds 4 1014 70 0 0.64 31 01:54 06.05.2020
3706 Clouds 4 1014 70 0 0.64 31 01:32 06.05.2020
3707 Clouds 5 1014 69 0 2.92 306 00:54 06.05.2020
3708 Clouds 6 1013 65 0 2.28 296 00:27 06.05.2020
3709 Clouds 6 1013 65 0 2.28 296 23:56 05.05.2020
3710 Clouds 6 1013 65 0 2.28 296 23:37 05.05.2020
3711 Clouds 5 1011 65 0 1.45 288 23:18 05.05.2020
3712 Clouds 5 1011 65 0 1.45 288 22:41 05.05.2020
3713 Clear 5 1010 65 0 1.76 292 22:20 05.05.2020
3714 Clear 5 1010 65 0 1.76 292 21:57 05.05.2020
3715 Clear 5 1010 65 0 1.76 292 21:39 05.05.2020
3716 Clear 6 1009 62 0 0.46 301 21:20 05.05.2020
3717 Clouds 7 1010 59 0 1.73 280 20:57 05.05.2020
3718 Clouds 7 1010 59 0 1.73 280 20:39 05.05.2020
3719 Clouds 8 1010 52 0 0.99 293 20:18 05.05.2020
3720 Clouds 8 1010 52 0 0.99 293 19:54 05.05.2020
3721 Clouds 8 1010 52 0 0.99 293 19:36 05.05.2020
3722 Clouds 9 1009 47 0 1.91 267 19:18 05.05.2020
3723 Clouds 9 1009 47 0 1.91 267 19:18 05.05.2020
3724 Clouds 9 1009 47 0 1.91 267 18:42 05.05.2020
3725 Clouds 9 1009 46 0 2.13 249 18:20 05.05.2020
3726 Clouds 9 1009 46 0 2.13 249 17:58 05.05.2020
3727 Clouds 9 1009 46 0 2.13 249 17:40 05.05.2020
3728 Clouds 11 1008 40 0 3.07 263 17:21 05.05.2020
3729 Clouds 11 1008 40 0 3.07 263 16:56 05.05.2020
3730 Clouds 11 1008 40 0 3.07 263 16:36 05.05.2020
3731 Clouds 11 1006 38 0 1.53 267 16:18 05.05.2020
3732 Clouds 11 1006 38 0 1.53 267 15:41 05.05.2020
3733 Clouds 12 1005 37 0 0.61 221 15:22 05.05.2020
3734 Clouds 12 1005 37 0 0.61 221 14:58 05.05.2020
3735 Clouds 12 1005 37 0 0.61 221 14:39 05.05.2020
3736 Clouds 15 1004 31 0 1.99 225 14:20 05.05.2020
3737 Clear 14 1004 31 0 2.75 276 13:58 05.05.2020
3738 Clear 14 1004 31 0 2.75 276 13:39 05.05.2020
3739 Clouds 16 1003 27 0 5.42 264 13:20 05.05.2020
3740 Clouds 16 1003 14 0 5.42 264 12:58 05.05.2020
3741 Clouds 16 1003 14 0 5.42 264 12:39 05.05.2020
3742 Clouds 16 1003 13 0 6.6 259 12:19 05.05.2020
3743 Clouds 16 1003 13 0 6.6 259 11:42 05.05.2020
3744 Clear 17 1003 13 0 7.59 252 11:21 05.05.2020
3745 Clear 17 1003 13 0 7.59 252 10:59 05.05.2020
3746 Clear 17 1003 13 0 7.59 252 10:39 05.05.2020
3747 Clear 17 1003 13 0 7.45 249 10:19 05.05.2020
3748 Clear 17 1003 13 0 7.45 249 09:57 05.05.2020
3749 Clear 17 1003 13 0 7.45 249 09:39 05.05.2020
3750 Clear 17 1003 13 0 5.97 245 09:20 05.05.2020
3751 Clear 17 1003 13 0 5.97 245 08:41 05.05.2020
3752 Clear 16 1004 14 0 4.46 249 08:20 05.05.2020
3753 Clear 16 1004 14 0 4.46 249 07:57 05.05.2020
3754 Clear 16 1004 14 0 4.46 249 07:38 05.05.2020
3755 Clear 15 1005 15 0 3.39 259 07:18 05.05.2020
3756 Clear 15 1005 15 0 3.39 259 06:45 05.05.2020
3757 Clear 14 1006 16 0 3.19 277 06:21 05.05.2020
3758 Clear 14 1006 16 0 3.19 277 05:36 05.05.2020
3759 Clear 12 1007 18 0 3.29 289 03:34 05.05.2020
3760 Clouds 8 1008 26 0 1.43 227 01:27 05.05.2020
3761 Clouds 8 1008 26 0 1.43 227 00:50 05.05.2020
3762 Clouds 7 1008 27 0 1.34 238 00:20 05.05.2020
3763 Clouds 7 1008 27 0 1.34 238 23:43 04.05.2020
3764 Clouds 8 1007 26 0 1.39 246 23:21 04.05.2020
3765 Clouds 8 1007 26 0 1.39 246 22:56 04.05.2020
3766 Clouds 8 1007 26 0 1.39 246 22:38 04.05.2020
3767 Clouds 10 1006 23 0 1.89 289 22:19 04.05.2020
3768 Clouds 10 1006 23 0 1.89 289 21:53 04.05.2020
3769 Clouds 10 1006 23 0 1.89 289 21:53 04.05.2020
3770 Clouds 10 1006 23 0 1.89 289 21:53 04.05.2020
3771 Clouds 10 1006 23 0 1.89 289 21:53 04.05.2020
3772 Clouds 10 1006 23 0 1.89 289 21:30 04.05.2020
3773 Clouds 10 1006 23 0 1.89 289 21:30 04.05.2020
3774 Clouds 10 1006 23 0 1.89 289 21:30 04.05.2020
3775 Clouds 10 1006 23 0 1.89 289 21:30 04.05.2020
3776 Clouds 10 1006 23 0 1.89 289 21:30 04.05.2020
3777 Clouds 12 1006 20 0 3.16 215 20:44 04.05.2020
3778 Clouds 12 1006 21 0 3.32 203 20:23 04.05.2020
3779 Clouds 12 1006 40 0 3.33 203 19:59 04.05.2020
3780 Clouds 12 1006 21 0 3.32 203 19:40 04.05.2020
3781 Clouds 12 1006 21 0 3.2 221 19:20 04.05.2020
3782 Clouds 12 1006 40 0 3.2 221 18:55 04.05.2020
3783 Clouds 12 1006 40 0 3.2 221 18:37 04.05.2020
3784 Clouds 14 1006 36 0 5.21 226 18:18 04.05.2020
3785 Clouds 14 1006 18 0 5.21 226 17:55 04.05.2020
3786 Clouds 14 1006 18 0 5.21 226 17:55 04.05.2020
3787 Clouds 14 1006 18 0 5.21 226 17:55 04.05.2020
3788 Clouds 14 1006 18 0 5.21 226 17:36 04.05.2020
3789 Clouds 15 1007 17 0 5.01 227 17:18 04.05.2020
3790 Clouds 15 1007 17 0 5.01 227 16:42 04.05.2020
3791 Clouds 15 1007 17 0 5.01 227 16:42 04.05.2020
3792 Clouds 15 1006 31 0 5.17 214 16:21 04.05.2020
3793 Clouds 15 1006 16 0 5.17 214 15:46 04.05.2020
3794 Clouds 16 1006 15 0 4.52 223 15:25 04.05.2020
3795 Clouds 16 1006 15 0 4.52 223 14:56 04.05.2020
3796 Clouds 16 1006 15 0 4.52 223 14:38 04.05.2020
3797 Clouds 16 1006 15 0 4.52 223 14:38 04.05.2020
3798 Clouds 16 1006 15 0 4.52 223 14:38 04.05.2020
3799 Clouds 16 1006 15 0 4.52 223 14:38 04.05.2020
3800 Clouds 16 1006 15 0 4.52 223 14:38 04.05.2020
3801 Clouds 17 1005 15 0 6.21 212 13:46 04.05.2020
3802 Clouds 17 1005 15 0 6.21 212 13:46 04.05.2020
3803 Clouds 17 1005 15 0 6.21 212 13:46 04.05.2020
3804 Clouds 17 1005 15 0 6.21 212 13:46 04.05.2020
3805 Clouds 17 1005 15 0 6.21 212 13:46 04.05.2020
3806 Clouds 18 1005 13 0 8.78 222 12:48 04.05.2020
3807 Clouds 18 1005 13 0 8.78 222 12:46 04.05.2020
3808 Clouds 18 1005 13 0 8.78 222 12:46 04.05.2020
3809 Clouds 19 1005 13 0 7.16 219 12:20 04.05.2020
3810 Clouds 19 1005 13 0 7.16 219 12:20 04.05.2020
3811 Clouds 19 1006 12 0 7.82 233 09:33 04.05.2020
3812 Clouds 19 1006 11 0 7.74 222 08:54 04.05.2020
3813 Clouds 19 1006 11 0 7.74 222 08:54 04.05.2020
3814 Clouds 19 1006 11 0 7.74 222 08:54 04.05.2020
3815 Clouds 19 1006 11 0 7.74 222 08:54 04.05.2020
3816 Clouds 19 1006 11 0 7.74 222 08:54 04.05.2020
3817 Clouds 19 1007 12 0 7.26 221 07:44 04.05.2020
3818 Clouds 19 1007 12 0 7.26 221 07:44 04.05.2020
3819 Clouds 18 1008 12 0 7.73 228 07:05 04.05.2020
3820 Clouds 18 1008 12 0 7.73 228 07:05 04.05.2020
3821 Clouds 18 1008 12 0 7.73 228 07:05 04.05.2020
3822 Clear 17 1009 13 0 6.5 235 04:55 04.05.2020
3823 Clear 13 1011 16 0 2.19 143 03:18 04.05.2020
3824 Clear 13 1011 16 0 2.19 143 03:18 04.05.2020
3825 Clear 13 1011 16 0 2.06 144 02:30 04.05.2020
3826 Clouds 8 1012 22 0 2.09 111 00:38 04.05.2020
3827 Clouds 7 1011 22 0 1.86 116 23:45 03.05.2020
3828 Clouds 8 1011 22 0 1.87 112 23:24 03.05.2020
3829 Clouds 8 1011 22 0 1.87 112 22:56 03.05.2020
3830 Clouds 8 1011 22 0 1.87 112 22:38 03.05.2020
3831 Clouds 8 1012 21 0 1.75 95 22:19 03.05.2020
3832 Clouds 8 1012 21 0 1.75 95 21:41 03.05.2020
3833 Clouds 8 1012 21 0 1.75 95 21:41 03.05.2020
3834 Clouds 8 1012 21 0 1.37 119 21:20 03.05.2020
3835 Clouds 8 1012 21 0 1.37 119 20:47 03.05.2020
3836 Clouds 8 1013 21 0 1.36 130 20:23 03.05.2020
3837 Clouds 8 1013 21 0 1.36 130 19:55 03.05.2020
3838 Clouds 8 1013 21 0 1.36 130 19:36 03.05.2020
3839 Clouds 9 1012 20 0 1.56 130 19:18 03.05.2020
3840 Clouds 9 1012 20 0 1.56 130 18:39 03.05.2020
3841 Clouds 9 1012 20 0 1.56 130 18:39 03.05.2020
3842 Clouds 9 1012 20 0 1.47 125 18:20 03.05.2020
3843 Clouds 9 1012 20 0 1.47 125 17:42 03.05.2020
3844 Clouds 10 1012 21 0 0.47 113 17:22 03.05.2020
3845 Clouds 10 1012 21 0 0.47 113 17:22 03.05.2020
3846 Clouds 10 1012 21 0 0.47 113 16:56 03.05.2020
3847 Clouds 10 1012 21 0 0.47 113 16:56 03.05.2020
3848 Clouds 10 1012 21 0 0.47 113 16:37 03.05.2020
3849 Clouds 10 1012 20 0 0.83 294 16:18 03.05.2020
3850 Clouds 10 1012 20 0 0.83 294 15:55 03.05.2020
3851 Clouds 10 1012 20 0 0.83 294 15:36 03.05.2020
3852 Clear 11 1012 18 0 1.4 266 15:18 03.05.2020
3853 Clear 11 1012 18 0 1.4 266 15:18 03.05.2020
3854 Clear 11 1012 18 0 1.4 266 14:41 03.05.2020
3855 Clear 15 1010 15 0 2.23 252 14:22 03.05.2020
3856 Clear 15 1010 15 0 2.23 252 13:56 03.05.2020
3857 Clear 15 1010 15 0 2.23 252 13:33 03.05.2020
3858 Clear 15 1010 15 0 2.23 252 13:33 03.05.2020
3859 Clear 15 1010 15 0 2.23 252 13:33 03.05.2020
3860 Clear 15 1010 15 0 2.23 252 13:33 03.05.2020
3861 Clear 15 1010 15 0 2.23 252 13:33 03.05.2020
3862 Clear 16 1010 12 0 4.1 252 12:47 03.05.2020
3863 Clear 17 1010 12 0 5.02 256 12:20 03.05.2020
3864 Clear 17 1010 12 0 5.02 256 11:57 03.05.2020
3865 Clear 17 1010 12 0 5.02 256 11:57 03.05.2020
3866 Clear 17 1010 12 0 5.02 256 11:39 03.05.2020
3867 Clear 17 1011 12 0 5.51 252 11:19 03.05.2020
3868 Clear 17 1011 12 0 5.51 252 10:50 03.05.2020
3869 Clear 17 1011 12 0 5.51 252 10:50 03.05.2020
3870 Clear 17 1011 12 0 5.84 249 10:01 03.05.2020
3871 Clear 17 1011 12 0 5.84 249 10:01 03.05.2020
3872 Clear 17 1011 12 0 5.84 249 10:01 03.05.2020
3873 Clear 17 1011 12 0 5.84 249 09:39 03.05.2020
3874 Clear 17 1011 12 0 6.06 245 08:57 03.05.2020
3875 Clear 17 1011 12 0 6.06 245 08:57 03.05.2020
3876 Clear 17 1011 12 0 6.06 245 08:57 03.05.2020
3877 Clear 17 1012 13 0 5.45 240 08:27 03.05.2020
3878 Clear 17 1012 13 0 5.45 240 07:40 03.05.2020
3879 Clear 17 1012 13 0 5.45 240 07:40 03.05.2020
3880 Clear 16 1013 14 0 4.27 226 06:31 03.05.2020
3881 Clear 16 1013 14 0 4.27 226 06:31 03.05.2020
3882 Clear 16 1013 14 0 4.27 226 06:31 03.05.2020
3883 Clear 15 1014 16 0 3.63 217 05:49 03.05.2020
3884 Clear 15 1014 16 0 3.63 217 05:29 03.05.2020
3885 Clear 12 1016 18 0 1.95 189 04:27 03.05.2020
3886 Clear 12 1016 18 0 1.95 189 04:27 03.05.2020
3887 Clear 12 1016 18 0 1.95 189 03:29 03.05.2020
3888 Clear 11 1016 20 0 1.64 137 02:30 03.05.2020
3889 Clear 8 1016 23 0 1.6 103 01:46 03.05.2020
3890 Clear 5 1016 28 0 1.56 93 01:27 03.05.2020
3891 Clear 5 1016 28 0 1.56 93 00:56 03.05.2020
3892 Clear 5 1016 28 0 1.56 93 00:38 03.05.2020
3893 Clear 4 1016 29 0 1.41 87 00:19 03.05.2020
3894 Clear 4 1016 29 0 1.41 87 23:44 02.05.2020
3895 Clear 5 1015 28 0 1.5 89 23:25 02.05.2020
3896 Clear 5 1015 28 0 1.5 89 22:44 02.05.2020
3897 Clear 5 1015 28 0 1.37 90 22:24 02.05.2020
3898 Clear 5 1015 28 0 1.37 90 21:58 02.05.2020
3899 Clear 5 1015 28 0 1.37 90 21:40 02.05.2020
3900 Clear 6 1015 27 0 1.38 85 21:19 02.05.2020
3901 Clear 6 1016 27 0 1.4 85 20:57 02.05.2020
3902 Clear 6 1016 27 0 1.4 85 20:37 02.05.2020
3903 Clear 6 1016 26 0 1.53 71 20:19 02.05.2020
3904 Clear 6 1016 26 0 1.53 71 19:57 02.05.2020
3905 Clear 6 1016 26 0 1.53 71 19:38 02.05.2020
3906 Clear 6 1016 26 0 1.53 71 19:38 02.05.2020
3907 Clear 6 1016 26 0 1.53 71 19:38 02.05.2020
3908 Clear 7 1016 25 0 1.51 63 19:19 02.05.2020
3909 Clear 7 1016 25 0 1.51 63 18:55 02.05.2020
3910 Clear 7 1016 25 0 1.51 63 18:37 02.05.2020
3911 Clear 7 1016 24 0 1.55 63 18:18 02.05.2020
3912 Clear 7 1016 24 0 1.55 63 17:40 02.05.2020
3913 Clear 8 1015 23 0 1.7 61 17:20 02.05.2020
3914 Clear 8 1015 23 0 1.7 61 16:59 02.05.2020
3915 Clear 8 1015 23 0 1.7 61 16:40 02.05.2020
3916 Clear 9 1015 22 0 1.77 52 16:22 02.05.2020
3917 Clear 9 1015 22 0 1.77 52 15:43 02.05.2020
3918 Clear 10 1014 21 0 1.89 41 15:21 02.05.2020
3919 Clear 10 1014 21 0 1.89 41 14:59 02.05.2020
3920 Clear 10 1014 21 0 1.89 41 14:40 02.05.2020
3921 Clear 12 1014 18 0 1.75 27 14:22 02.05.2020
3922 Clear 12 1014 18 0 1.75 27 13:40 02.05.2020
3923 Clear 14 1013 16 0 2.35 23 13:22 02.05.2020
3924 Clear 14 1013 16 0 2.35 23 12:56 02.05.2020
3925 Clear 14 1013 16 0 2.35 23 12:37 02.05.2020
3926 Clear 14 1013 15 0 2.73 22 12:19 02.05.2020
3927 Clear 14 1013 15 0 2.73 22 11:42 02.05.2020
3928 Clear 14 1013 15 0 3.06 23 11:23 02.05.2020
3929 Clear 14 1013 15 0 3.06 23 10:59 02.05.2020
3930 Clear 14 1013 15 0 3.06 23 10:39 02.05.2020
3931 Clear 14 1014 15 0 3.37 20 10:21 02.05.2020
3932 Clear 14 1014 15 0 3.37 20 09:57 02.05.2020
3933 Clear 14 1014 15 0 3.37 20 09:38 02.05.2020
3934 Clear 13 1014 16 0 3.56 17 09:20 02.05.2020
3935 Clear 13 1015 16 0 3.89 19 08:50 02.05.2020
3936 Clear 13 1015 16 0 3.89 19 08:30 02.05.2020
3937 Clear 13 1015 16 0 3.55 13 07:49 02.05.2020
3938 Clear 13 1015 16 0 3.55 13 07:29 02.05.2020
3939 Clear 12 1016 17 0 3.19 8 06:53 02.05.2020
3940 Clear 11 1017 18 0 2.95 16 06:18 02.05.2020
3941 Clear 9 1017 20 0 2.65 19 05:27 02.05.2020
3942 Clear 8 1018 23 0 2.25 18 04:25 02.05.2020
3943 Clear 8 1018 23 0 2.25 18 03:34 02.05.2020
3944 Clear 6 1018 26 0 1.81 24 02:39 02.05.2020
3945 Clouds 5 1018 29 0 1.86 34 01:51 02.05.2020
3946 Clouds 4 1018 33 0 2.18 33 00:58 02.05.2020
3947 Clouds 4 1018 33 0 2.18 33 00:39 02.05.2020
3948 Clouds 3 1018 34 0 2.23 35 00:18 02.05.2020
3949 Clouds 3 1018 34 0 2.23 35 23:40 01.05.2020
3950 Clouds 4 1017 34 0 2.51 27 23:20 01.05.2020
3951 Clouds 4 1017 34 0 2.51 27 22:57 01.05.2020
3952 Clouds 4 1017 34 0 2.51 27 22:38 01.05.2020
3953 Clouds 4 1017 34 0 2.49 24 22:18 01.05.2020
3954 Clouds 4 1017 34 0 2.49 24 22:18 01.05.2020
3955 Clouds 4 1017 34 0 2.49 24 21:56 01.05.2020
3956 Clouds 4 1017 34 0 2.49 24 21:38 01.05.2020
3957 Clouds 4 1017 34 0 2.49 24 21:38 01.05.2020
3958 Clouds 5 1016 34 0 3 11 21:18 01.05.2020
3959 Clouds 5 1016 34 0 3 11 21:18 01.05.2020
3960 Clouds 5 1016 34 0 3 11 20:56 01.05.2020
3961 Clouds 5 1016 34 0 3 11 20:37 01.05.2020
3962 Clouds 6 1016 35 0 2.56 351 20:18 01.05.2020
3963 Clouds 6 1016 35 0 2.56 351 19:42 01.05.2020
3964 Clouds 6 1016 35 0 2.56 351 19:42 01.05.2020
3965 Clouds 6 1015 34 0 1.85 13 19:22 01.05.2020
3966 Clouds 6 1015 34 0 1.85 13 18:58 01.05.2020
3967 Clouds 6 1015 34 0 1.85 13 18:39 01.05.2020
3968 Clouds 7 1014 33 0 2.87 346 18:20 01.05.2020
3969 Clouds 7 1014 33 0 2.87 346 17:57 01.05.2020
3970 Clouds 7 1014 33 0 2.87 346 17:38 01.05.2020
3971 Clouds 8 1013 34 0 3.37 9 17:20 01.05.2020
3972 Clouds 8 1013 34 0 3.37 9 16:55 01.05.2020
3973 Clouds 8 1013 34 0 3.37 9 16:55 01.05.2020
3974 Clouds 8 1013 34 0 3.37 9 16:37 01.05.2020
3975 Clouds 9 1012 35 0 3.26 357 16:19 01.05.2020
3976 Clouds 9 1012 35 0 3.26 357 15:42 01.05.2020
3977 Clear 11 1011 33 0 3.46 1 15:24 01.05.2020
3978 Clear 11 1011 33 0 3.46 1 14:59 01.05.2020
3979 Clear 11 1011 33 0 3.46 1 14:40 01.05.2020
3980 Clouds 13 1009 29 0 6.04 335 14:22 01.05.2020
3981 Clouds 13 1009 29 0 6.04 335 13:41 01.05.2020
3982 Clouds 15 1008 22 0 7.9 286 13:22 01.05.2020
3983 Clouds 15 1008 22 0 7.9 286 13:22 01.05.2020
3984 Clouds 15 1008 22 0 7.9 286 12:58 01.05.2020
3985 Clouds 15 1008 22 0 7.9 286 12:40 01.05.2020
3986 Clouds 16 1008 21 0 7.8 282 12:20 01.05.2020
3987 Clouds 16 1008 21 0 7.8 282 11:58 01.05.2020
3988 Clouds 16 1008 21 0 7.8 282 11:58 01.05.2020
3989 Clouds 16 1008 21 0 7.8 282 11:39 01.05.2020
3990 Clouds 16 1007 23 0 5.1 294 11:19 01.05.2020
3991 Clouds 16 1007 23 0 5.1 294 10:41 01.05.2020
3992 Clouds 14 1006 30 0 5.13 306 10:20 01.05.2020
3993 Clouds 14 1006 30 0 5.13 306 09:55 01.05.2020
3994 Clouds 14 1006 30 0 5.13 306 09:37 01.05.2020
3995 Rain 14 1005 33 0 10.27 298 09:18 01.05.2020
3996 Rain 14 1005 33 0 10.27 298 08:42 01.05.2020
3997 Clouds 19 1004 23 0 9.03 284 08:24 01.05.2020
3998 Clouds 19 1004 23 0 9.03 284 07:47 01.05.2020
3999 Clouds 20 1004 18 0 8.25 255 07:23 01.05.2020
4000 Clouds 20 1004 18 0 8.25 255 06:56 01.05.2020
4001 Clouds 21 1004 17 0 7.73 246 05:39 01.05.2020
4002 Clouds 20 1004 17 0 5.6 243 05:19 01.05.2020
4003 Clouds 19 1004 17 0 3.06 218 03:41 01.05.2020
4004 Clear 17 1005 20 0 1.54 148 02:48 01.05.2020
4005 Clear 17 1005 20 0 1.54 148 02:30 01.05.2020
4006 Clouds 15 1006 24 0 1.94 105 01:37 01.05.2020
4007 Clouds 12 1006 27 0 1.96 102 01:18 01.05.2020
4008 Clouds 12 1006 27 0 1.96 102 00:38 01.05.2020
4009 Clouds 12 1006 28 0 1.9 95 00:20 01.05.2020
4010 Clouds 12 1006 28 0 1.9 95 23:56 30.04.2020
4011 Clouds 12 1006 28 0 1.9 95 23:38 30.04.2020
4012 Clouds 12 1006 29 0 1.67 88 23:19 30.04.2020
4013 Clouds 12 1006 29 0 1.67 88 22:42 30.04.2020
4014 Clouds 12 1006 30 0 1.55 88 22:21 30.04.2020
4015 Clouds 12 1006 30 0 1.55 88 21:58 30.04.2020
4016 Clouds 12 1006 30 0 1.55 88 21:39 30.04.2020
4017 Clouds 13 1007 29 0 1.94 74 21:20 30.04.2020
4018 Clouds 14 1007 27 0 1.83 79 20:55 30.04.2020
4019 Clouds 14 1007 27 0 1.83 79 20:37 30.04.2020
4020 Clouds 13 1008 28 0 1.93 76 20:18 30.04.2020
4021 Clouds 13 1008 28 0 1.93 76 20:18 30.04.2020
4022 Clouds 13 1008 28 0 1.93 76 19:44 30.04.2020
4023 Clouds 13 1009 27 0 2.29 75 19:25 30.04.2020
4024 Clouds 13 1009 27 0 2.29 75 18:56 30.04.2020
4025 Clouds 13 1009 27 0 2.29 75 18:38 30.04.2020
4026 Clouds 14 1009 26 0 2.28 60 18:20 30.04.2020
4027 Clouds 14 1009 26 0 2.28 60 17:57 30.04.2020
4028 Clouds 14 1009 26 0 2.28 60 17:57 30.04.2020
4029 Clouds 14 1009 26 0 2.28 60 17:39 30.04.2020
4030 Clouds 14 1009 26 0 2.28 60 17:39 30.04.2020
4031 Clouds 14 1009 24 0 2.3 53 17:20 30.04.2020
4032 Clouds 14 1009 24 0 2.3 53 16:55 30.04.2020
4033 Clouds 14 1009 24 0 2.3 53 16:36 30.04.2020
4034 Clouds 15 1009 22 0 1.95 35 16:18 30.04.2020
4035 Clouds 15 1009 22 0 1.95 35 15:44 30.04.2020
4036 Clouds 16 1008 21 0 1.6 349 15:23 30.04.2020
4037 Clouds 16 1008 21 0 1.6 349 14:43 30.04.2020
4038 Clouds 19 1006 18 0 3.9 317 14:22 30.04.2020
4039 Clouds 19 1006 18 0 3.9 317 13:59 30.04.2020
4040 Clouds 19 1006 18 0 3.9 317 13:41 30.04.2020
4041 Clouds 21 1006 15 0 6.46 309 13:22 30.04.2020
4042 Clouds 21 1006 15 0 6.46 309 12:59 30.04.2020
4043 Clouds 21 1006 15 0 6.46 309 12:40 30.04.2020
4044 Clouds 22 1006 13 0 7.55 303 12:19 30.04.2020
4045 Clouds 22 1006 13 0 7.55 303 11:38 30.04.2020
4046 Clouds 23 1005 11 0 8.44 291 11:19 30.04.2020
4047 Clouds 23 1005 11 0 8.44 291 10:58 30.04.2020
4048 Clouds 23 1005 11 0 8.44 291 10:38 30.04.2020
4049 Clear 23 1006 10 0 7.99 281 10:20 30.04.2020
4050 Clear 23 1006 10 0 7.99 281 09:55 30.04.2020
4051 Clear 24 1006 10 0 6.4 285 09:37 30.04.2020
4052 Clear 23 1006 11 0 7.22 286 09:18 30.04.2020
4053 Clear 24 1006 11 0 7.14 288 08:43 30.04.2020
4054 Clouds 23 1006 12 0 5.83 280 08:23 30.04.2020
4055 Clouds 23 1006 12 0 5.83 280 07:43 30.04.2020
4056 Clouds 22 1006 13 0 4.01 267 07:25 30.04.2020
4057 Clouds 22 1006 13 0 4.01 267 06:51 30.04.2020
4058 Clouds 21 1007 13 0 3.02 257 05:56 30.04.2020
4059 Clouds 21 1007 13 0 3.02 257 05:36 30.04.2020
4060 Clouds 20 1008 13 0 2.54 248 04:33 30.04.2020
4061 Clouds 19 1008 14 0 1.76 228 03:57 30.04.2020
4062 Clouds 17 1009 16 0 1.06 137 02:46 30.04.2020
4063 Clouds 14 1009 21 0 1.45 108 02:24 30.04.2020
4064 Clouds 14 1009 21 0 1.45 108 01:36 30.04.2020
4065 Clouds 12 1009 21 0 2.02 109 00:42 30.04.2020
4066 Clouds 11 1009 21 0 1.96 109 00:19 30.04.2020
4067 Clouds 11 1009 21 0 1.96 109 23:57 29.04.2020
4068 Clouds 11 1009 21 0 1.96 109 23:37 29.04.2020
4069 Clouds 11 1009 21 0 1.96 109 23:37 29.04.2020
4070 Clouds 11 1009 21 0 1.71 110 23:18 29.04.2020
4071 Clouds 11 1009 21 0 1.71 110 22:40 29.04.2020
4072 Clouds 11 1009 21 0 1.64 107 22:21 29.04.2020
4073 Clouds 11 1009 21 0 1.64 107 21:57 29.04.2020
4074 Clouds 11 1009 21 0 1.64 107 21:37 29.04.2020
4075 Clouds 12 1010 21 0 1.51 104 21:18 29.04.2020
4076 Clouds 12 1010 21 0 1.64 112 20:55 29.04.2020
4077 Clouds 12 1010 21 0 1.64 112 20:36 29.04.2020
4078 Clear 12 1011 20 0 1.4 115 20:18 29.04.2020
4079 Clear 12 1011 20 0 1.4 115 19:42 29.04.2020
4080 Clear 13 1011 20 0 1.42 135 19:20 29.04.2020
4081 Clear 13 1011 20 0 1.42 135 18:43 29.04.2020
4082 Clear 13 1011 19 0 1.5 169 18:25 29.04.2020
4083 -273 0 0 0 0 0 17:59 29.04.2020
4084 Clear 13 1011 19 0 1.5 169 17:41 29.04.2020
4085 Clear 14 1011 19 0 1.62 194 17:21 29.04.2020
4086 Clear 14 1011 19 0 1.62 194 16:39 29.04.2020
4087 Clear 15 1011 19 0 1.26 238 16:20 29.04.2020
4088 Clear 15 1011 19 0 1.26 238 15:58 29.04.2020
4089 Clear 15 1011 19 0 1.26 238 15:39 29.04.2020
4090 Clear 16 1010 18 0 1.88 277 15:21 29.04.2020
4091 Clear 16 1010 18 0 1.88 277 14:57 29.04.2020
4092 Clear 16 1010 18 0 1.88 277 14:39 29.04.2020
4093 Clouds 19 1009 17 0 2.97 288 14:20 29.04.2020
4094 Clouds 19 1009 17 0 2.97 288 13:42 29.04.2020
4095 Clouds 21 1009 14 0 4.6 288 13:21 29.04.2020
4096 Clouds 21 1009 14 0 4.6 288 12:59 29.04.2020
4097 Clouds 21 1009 14 0 4.6 288 12:40 29.04.2020
4098 Clouds 22 1009 14 0 4.34 289 12:19 29.04.2020
4099 Clouds 22 1009 14 0 4.34 289 11:58 29.04.2020
4100 Clouds 22 1009 14 0 4.34 289 11:36 29.04.2020
4101 Clear 22 1009 14 0 3.57 292 11:18 29.04.2020
4102 Clear 22 1009 14 0 3.57 292 10:37 29.04.2020
4103 Clear 22 1009 14 0 3.1 297 10:19 29.04.2020
4104 Clear 22 1009 14 0 3.1 297 09:57 29.04.2020
4105 Clear 22 1009 14 0 3.1 297 09:38 29.04.2020
4106 Clear 21 1010 15 0 2.83 305 09:18 29.04.2020
4107 Clear 21 1010 14 0 2.83 301 08:43 29.04.2020
4108 Clear 20 1010 15 0 2.88 314 08:24 29.04.2020
4109 Clear 20 1010 15 0 2.88 314 07:48 29.04.2020
4110 Clear 20 1011 16 0 2.95 319 07:25 29.04.2020
4111 Clear 20 1011 16 0 2.95 319 06:52 29.04.2020
4112 Clear 20 1011 16 0 2.95 319 06:31 29.04.2020
4113 Clear 17 1012 15 0 2.27 332 05:22 29.04.2020
4114 Clear 17 1012 15 0 2.27 332 04:47 29.04.2020
4115 Clear 16 1012 15 0 1.07 299 04:19 29.04.2020
4116 Clear 15 1012 16 0 0.15 61 02:49 29.04.2020
4117 Clear 11 1012 20 0 0.92 63 01:44 29.04.2020
4118 Clear 8 1012 24 0 0.82 73 01:26 29.04.2020
4119 Clear 8 1012 24 0 0.82 73 00:50 29.04.2020
4120 Clear 8 1012 24 0 0.82 73 00:50 29.04.2020
4121 Clear 7 1012 24 0 1.07 117 00:20 29.04.2020
4122 Clear 7 1012 24 0 1.07 117 23:56 28.04.2020
4123 Clear 7 1012 24 0 1.07 117 23:37 28.04.2020
4124 Clear 7 1011 24 0 0.84 109 23:18 28.04.2020
4125 Clear 7 1011 24 0 0.84 109 22:37 28.04.2020
4126 Clear 8 1011 24 0 0.9 74 22:19 28.04.2020
4127 Clear 8 1011 24 0 0.9 74 21:57 28.04.2020
4128 Clear 8 1011 24 0 0.77 92 21:39 28.04.2020
4129 Clear 8 1011 23 0 0.96 54 21:21 28.04.2020
4130 Clear 8 1011 23 0 0.96 54 20:55 28.04.2020
4131 Clear 8 1011 23 0 0.96 54 20:37 28.04.2020
4132 Clouds 9 1011 22 0 1.42 45 20:19 28.04.2020
4133 Clouds 9 1011 22 0 1.42 45 19:43 28.04.2020
4134 Clouds 10 1011 20 0 1.48 42 19:22 28.04.2020
4135 Clouds 10 1011 20 0 1.48 42 18:59 28.04.2020
4136 Clouds 10 1011 20 0 1.48 42 18:41 28.04.2020
4137 Clouds 11 1011 19 0 1.83 36 18:20 28.04.2020
4138 Clouds 11 1011 19 0 1.83 36 17:58 28.04.2020
4139 Clouds 11 1011 19 0 1.83 36 17:37 28.04.2020
4140 Clear 11 1011 18 0 1.54 26 17:18 28.04.2020
4141 Clear 11 1011 18 0 1.54 26 16:43 28.04.2020
4142 Clear 12 1010 18 0 1.06 6 16:24 28.04.2020
4143 Clear 12 1010 18 0 1.06 6 15:58 28.04.2020
4144 Clear 12 1010 18 0 1.06 6 15:40 28.04.2020
4145 Clear 13 1009 16 0 1.64 329 15:21 28.04.2020
4146 Clear 13 1009 16 0 1.64 329 14:59 28.04.2020
4147 Clear 13 1009 16 0 1.64 329 14:41 28.04.2020
4148 Clouds 17 1008 13 0 2.64 288 14:21 28.04.2020
4149 Clouds 17 1008 14 0 2.6 279 13:58 28.04.2020
4150 Clouds 17 1008 14 0 2.6 279 13:38 28.04.2020
4151 Clouds 19 1007 11 0 3.83 277 13:20 28.04.2020
4152 Clouds 19 1007 11 0 3.83 277 12:47 28.04.2020
4153 Clouds 20 1007 10 0 3.2 270 12:27 28.04.2020
4154 Clouds 20 1007 10 0 3.2 270 11:59 28.04.2020
4155 Clouds 20 1007 10 0 3.2 270 11:39 28.04.2020
4156 Clouds 20 1007 9 0 4.09 260 11:20 28.04.2020
4157 Clouds 20 1007 9 0 4.09 260 10:39 28.04.2020
4158 Clouds 20 1007 9 0 5.44 250 10:19 28.04.2020
4159 Clouds 20 1007 9 0 5.44 250 09:59 28.04.2020
4160 Clouds 20 1007 9 0 5.44 250 09:40 28.04.2020
4161 Clouds 20 1007 9 0 5.73 241 09:22 28.04.2020
4162 Clouds 21 1007 9 0 6.31 243 08:46 28.04.2020
4163 Clouds 21 1007 9 0 6.31 243 08:46 28.04.2020
4164 Clear 20 1008 9 0 5.98 232 08:27 28.04.2020
4165 Clear 20 1008 9 0 5.98 232 07:58 28.04.2020
4166 Clear 20 1008 9 0 5.98 232 07:38 28.04.2020
4167 Clear 20 1008 10 0 4.85 247 07:18 28.04.2020
4168 Clear 19 1009 10 0 4.39 253 06:28 28.04.2020
4169 Clear 19 1009 10 0 4.39 253 05:44 28.04.2020
4170 Clear 18 1009 10 0 2.33 226 05:25 28.04.2020
4171 Clear 18 1009 10 0 2.33 226 04:33 28.04.2020
4172 Clear 15 1010 14 0 1.73 110 02:36 28.04.2020
4173 Clear 8 1010 20 0 1.91 101 01:25 28.04.2020
4174 Clear 8 1010 20 0 1.91 101 00:59 28.04.2020
4175 Clear 7 1011 20 0 1.56 102 00:26 28.04.2020
4176 Clear 7 1011 20 0 1.56 102 23:47 27.04.2020
4177 Clear 8 1010 20 0 1.39 117 23:25 27.04.2020
4178 Clear 8 1010 20 0 1.39 117 22:56 27.04.2020
4179 Clear 8 1011 20 0 1.52 114 22:38 27.04.2020
4180 Clear 8 1011 20 0 1.44 131 22:20 27.04.2020
4181 Clear 8 1011 20 0 1.44 131 21:56 27.04.2020
4182 Clear 8 1011 20 0 1.44 131 21:38 27.04.2020
4183 Clear 9 1012 19 0 1.53 140 21:18 27.04.2020
4184 Clear 9 1012 19 0 1.53 140 20:44 27.04.2020
4185 Clear 9 1013 19 0 1.72 140 20:22 27.04.2020
4186 Clear 9 1013 19 0 1.72 140 20:22 27.04.2020
4187 Clear 9 1013 19 0 1.72 140 20:22 27.04.2020
4188 Clear 9 1013 19 0 1.72 140 19:59 27.04.2020
4189 Clear 9 1013 19 0 1.72 140 19:39 27.04.2020
4190 Clear 11 1014 17 0 2.32 148 19:21 27.04.2020
4191 Clear 11 1014 17 0 2.32 148 18:58 27.04.2020
4192 Clear 11 1014 17 0 2.32 148 18:40 27.04.2020
4193 Clear 12 1014 16 0 2.11 149 18:19 27.04.2020
4194 Clear 12 1014 16 0 2.11 149 17:54 27.04.2020
4195 Clear 12 1014 16 0 2.11 149 17:36 27.04.2020
4196 Clear 12 1014 16 0 1.53 153 17:18 27.04.2020
4197 Clear 12 1014 16 0 1.53 153 16:40 27.04.2020
4198 Clear 12 1013 16 0 0.96 157 16:21 27.04.2020
4199 Clear 12 1013 16 0 0.96 157 15:57 27.04.2020
4200 Clear 12 1013 16 0 0.96 157 15:38 27.04.2020
4201 Clear 12 1013 16 0 0.96 157 15:38 27.04.2020
4202 Clear 16 1012 13 0 2.34 260 15:19 27.04.2020
4203 Clear 16 1012 13 0 2.34 260 14:56 27.04.2020
4204 Clear 16 1012 13 0 2.34 260 14:37 27.04.2020
4205 Clear 16 1012 13 0 2.12 255 14:18 27.04.2020
4206 Clear 16 1012 13 0 2.12 255 13:42 27.04.2020
4207 Clear 16 1012 13 0 2.12 255 13:20 27.04.2020
4208 Clear 16 1012 13 0 2.12 255 12:56 27.04.2020
4209 Clear 16 1012 13 0 2.12 255 12:56 27.04.2020
4210 Clear 16 1012 13 0 2.12 255 12:38 27.04.2020
4211 Clear 21 1013 9 0 6.5 253 12:19 27.04.2020
4212 Clear 21 1013 9 0 6.5 253 11:41 27.04.2020
4213 Clear 21 1013 9 0 6.5 253 11:21 27.04.2020
4214 Clear 21 1013 9 0 6.5 253 10:57 27.04.2020
4215 Clear 21 1013 9 0 6.5 253 10:38 27.04.2020
4216 Clear 21 1013 9 0 6.5 253 10:20 27.04.2020
4217 Clear 21 1013 9 0 6.5 253 09:44 27.04.2020
4218 Clear 21 1015 9 0 6.65 242 09:19 27.04.2020
4219 Clear 21 1015 9 0 6.65 242 08:58 27.04.2020
4220 Clear 21 1015 9 0 6.65 242 08:38 27.04.2020
4221 Clear 21 1015 9 0 6.65 242 08:19 27.04.2020
4222 Clear 21 1015 9 0 6.65 242 07:44 27.04.2020
4223 Clear 21 1015 9 0 6.65 242 07:20 27.04.2020
4224 Clear 21 1015 9 0 6.65 242 06:47 27.04.2020
4225 Clear 19 1017 10 0 2.94 207 06:25 27.04.2020
4226 Clear 19 1017 10 0 2.94 207 05:50 27.04.2020
4227 Clear 19 1017 10 0 2.94 207 04:49 27.04.2020
4228 Clear 19 1017 10 0 2.94 207 03:49 27.04.2020
4229 Clear 11 1019 17 0 1.65 148 02:58 27.04.2020
4230 Clear 11 1019 18 0 1.61 146 01:35 27.04.2020
4231 Clear 11 1019 18 0 1.61 146 00:57 27.04.2020
4232 Clear 8 1019 19 0 1.37 150 00:20 27.04.2020
4233 Clear 8 1019 19 0 1.37 150 23:56 26.04.2020
4234 Clear 8 1019 19 0 1.37 150 23:37 26.04.2020
4235 Clear 8 1019 19 0 1.37 150 23:19 26.04.2020
4236 Clear 8 1019 19 0 1.37 150 22:58 26.04.2020
4237 Clear 8 1019 19 0 1.37 150 22:39 26.04.2020
4238 Clear 8 1019 19 0 1.37 150 22:19 26.04.2020
4239 Clear 8 1019 19 0 1.37 150 21:57 26.04.2020
4240 Clear 8 1019 19 0 1.37 150 21:37 26.04.2020
4241 Clear 9 1019 18 0 1.16 144 21:18 26.04.2020
4242 Clear 9 1019 18 0 1.16 144 20:42 26.04.2020
4243 Clear 9 1019 18 0 1.16 144 20:23 26.04.2020
4244 Clear 9 1019 18 0 1.16 144 19:59 26.04.2020
4245 Clear 9 1019 18 0 1.16 144 19:38 26.04.2020
4246 Clear 9 1019 18 0 1.16 144 19:20 26.04.2020
4247 Clear 9 1019 18 0 1.16 144 18:55 26.04.2020
4248 Clear 9 1019 18 0 1.16 144 18:36 26.04.2020
4249 Clear 11 1020 17 0 0.65 210 18:18 26.04.2020
4250 Clear 11 1020 17 0 0.65 210 17:41 26.04.2020
4251 Clear 11 1020 17 0 0.65 210 17:22 26.04.2020
4252 Clear 11 1020 17 0 0.65 210 16:55 26.04.2020
4253 Clear 11 1020 17 0 0.65 210 16:36 26.04.2020
4254 Clear 11 1020 17 0 0.65 210 16:18 26.04.2020
4255 Clear 11 1020 17 0 0.65 210 15:54 26.04.2020
4256 Clear 11 1020 17 0 0.65 210 15:36 26.04.2020
4257 Clear 16 1018 14 0 1.64 260 15:18 26.04.2020
4258 Clear 16 1018 14 0 1.64 260 14:40 26.04.2020
4259 Clear 16 1018 14 0 1.69 254 14:19 26.04.2020
4260 Clear 16 1018 14 0 1.69 254 14:19 26.04.2020
4261 Clear 16 1018 14 0 1.69 254 13:57 26.04.2020
4262 Clear 16 1018 14 0 1.69 254 13:38 26.04.2020
4263 Clear 16 1018 14 0 1.69 254 13:19 26.04.2020
4264 Clear 16 1018 14 0 1.69 254 12:54 26.04.2020
4265 Clear 16 1018 14 0 1.69 254 12:36 26.04.2020
4266 Clear 16 1018 14 0 1.69 254 12:36 26.04.2020
4267 Clear 20 1018 9 0 2.85 268 12:18 26.04.2020
4268 Clear 20 1018 9 0 2.85 268 11:41 26.04.2020
4269 Clear 20 1018 9 0 2.85 268 11:23 26.04.2020
4270 Clear 20 1018 9 0 2.85 268 10:58 26.04.2020
4271 Clear 20 1018 9 0 2.85 268 10:40 26.04.2020
4272 Clear 20 1018 9 0 2.85 268 10:40 26.04.2020
4273 Clear 20 1018 9 0 2.85 268 10:22 26.04.2020
4274 Clear 20 1018 9 0 2.85 268 09:57 26.04.2020
4275 Clear 20 1018 9 0 2.85 268 09:37 26.04.2020
4276 Clear 19 1019 10 0 2.73 263 09:18 26.04.2020
4277 Clear 19 1019 10 0 2.73 263 08:41 26.04.2020
4278 Clear 19 1019 10 0 2.73 263 08:20 26.04.2020
4279 Clear 19 1019 10 0 2.73 263 07:48 26.04.2020
4280 Clear 19 1019 10 0 2.73 263 07:22 26.04.2020
4281 Clear 19 1019 10 0 2.73 263 06:45 26.04.2020
4282 Clear 17 1021 12 0 0.97 240 06:18 26.04.2020
4283 Clear 17 1021 12 0 0.97 240 05:45 26.04.2020
4284 Clear 17 1021 12 0 0.97 240 05:25 26.04.2020
4285 Clear 17 1021 12 0 0.97 240 04:24 26.04.2020
4286 Clear 17 1021 12 0 0.97 240 03:32 26.04.2020
4287 Clear 10 1022 21 0 0.86 112 02:32 26.04.2020
4288 Clear 10 1022 21 0 0.92 116 01:52 26.04.2020
4289 Clear 10 1022 21 0 0.92 116 01:27 26.04.2020
4290 Clear 10 1022 21 0 0.92 116 00:40 26.04.2020
4291 Clear 7 1021 23 0 1.1 113 00:19 26.04.2020
4292 Clear 7 1021 23 0 1.1 113 23:40 25.04.2020
4293 Clear 7 1021 23 0 1.1 113 23:21 25.04.2020
4294 Clear 7 1021 23 0 1.1 113 22:59 25.04.2020
4295 Clear 7 1021 23 0 1.1 113 22:41 25.04.2020
4296 Clear 7 1021 23 0 1.1 113 22:19 25.04.2020
4297 Clear 7 1021 23 0 1.1 113 21:56 25.04.2020
4298 Clear 7 1021 23 0 1.1 113 21:37 25.04.2020
4299 Clear 8 1022 22 0 0.83 117 21:18 25.04.2020
4300 Clear 8 1022 22 0 0.83 117 20:42 25.04.2020
4301 Clear 8 1022 22 0 0.83 117 20:22 25.04.2020
4302 Clear 8 1022 22 0 0.83 117 19:58 25.04.2020
4303 Clear 8 1022 22 0 0.83 117 19:38 25.04.2020
4304 Clear 8 1022 22 0 0.83 117 19:19 25.04.2020
4305 Clear 8 1022 22 0 0.83 117 18:43 25.04.2020
4306 Clear 10 1022 20 0 0.5 205 18:21 25.04.2020
4307 Clear 10 1022 20 0 0.5 205 17:58 25.04.2020
4308 Clear 10 1022 20 0 0.5 205 17:39 25.04.2020
4309 Clear 10 1022 20 0 0.5 205 17:20 25.04.2020
4310 Clear 10 1022 20 0 0.5 205 16:59 25.04.2020
4311 Clear 10 1022 20 0 0.5 205 16:41 25.04.2020
4312 Clear 10 1022 20 0 0.5 205 16:21 25.04.2020
4313 Clear 10 1022 20 0 0.5 205 15:54 25.04.2020
4314 Clear 10 1022 20 0 0.5 205 15:36 25.04.2020
4315 Clear 14 1019 16 0 1.05 282 15:18 25.04.2020
4316 Clear 14 1019 16 0 1.05 282 14:39 25.04.2020
4317 Clear 15 1019 16 0 1.61 292 14:20 25.04.2020
4318 Clear 15 1019 16 0 1.61 292 13:55 25.04.2020
4319 Clear 15 1019 16 0 1.61 292 13:55 25.04.2020
4320 Clear 15 1019 16 0 1.61 292 13:37 25.04.2020
4321 Clear 15 1019 16 0 1.61 292 13:18 25.04.2020
4322 Clear 15 1019 16 0 1.61 292 12:54 25.04.2020
4323 Clear 15 1019 16 0 1.61 292 12:36 25.04.2020
4324 Clear 18 1019 12 0 1.62 304 12:18 25.04.2020
4325 Clear 18 1019 12 0 1.62 304 11:41 25.04.2020
4326 Clear 18 1019 12 0 1.62 304 11:23 25.04.2020
4327 Clear 18 1019 12 0 1.62 304 10:54 25.04.2020
4328 Clear 18 1019 12 0 1.62 304 10:36 25.04.2020
4329 Clear 18 1019 12 0 1.62 304 10:18 25.04.2020
4330 Clear 18 1019 12 0 1.62 304 09:41 25.04.2020
4331 Clear 16 1019 13 0 1.98 320 09:21 25.04.2020
4332 Clear 16 1019 13 0 1.98 320 08:42 25.04.2020
4333 Clear 16 1019 13 0 1.98 320 08:22 25.04.2020
4334 Clear 16 1019 13 0 1.98 320 07:59 25.04.2020
4335 Clear 16 1020 13 0 2.14 325 07:41 25.04.2020
4336 Clear 16 1019 13 0 1.98 320 06:57 25.04.2020
4337 Clear 16 1019 13 0 1.98 320 06:38 25.04.2020
4338 Clear 14 1022 15 0 1.3 331 05:42 25.04.2020
4339 Clear 14 1022 15 0 1.3 331 05:24 25.04.2020
4340 Clear 14 1023 15 0 1.29 333 03:56 25.04.2020
4341 Clear 8 1023 23 0 1.05 89 02:38 25.04.2020
4342 Clear 8 1023 23 0 1.05 89 01:56 25.04.2020
4343 Clear 8 1023 23 0 1.05 89 01:38 25.04.2020
4344 Clear 8 1023 23 0 1.05 89 01:19 25.04.2020
4345 Clear 8 1023 23 0 1.05 89 00:39 25.04.2020
4346 Clear 5 1022 26 0 1.23 87 00:18 25.04.2020
4347 Clear 5 1022 26 0 1.23 87 23:41 24.04.2020
4348 Clear 5 1022 26 0 1.23 87 23:20 24.04.2020
4349 Clear 5 1022 26 0 1.23 87 22:41 24.04.2020
4350 Clear 5 1022 26 0 1.23 87 22:21 24.04.2020
4351 Clear 5 1022 26 0 1.23 87 21:59 24.04.2020
4352 Clear 4 1022 26 0 1.43 84 21:40 24.04.2020
4353 Clear 6 1022 24 0 1.4 66 21:22 24.04.2020
4354 Clear 6 1022 24 0 1.4 66 20:58 24.04.2020
4355 Clear 6 1022 24 0 1.4 66 20:40 24.04.2020
4356 Clear 6 1022 24 0 1.4 66 20:19 24.04.2020
4357 Clear 6 1022 24 0 1.4 66 19:47 24.04.2020
4358 Clear 6 1022 24 0 1.4 66 19:28 24.04.2020
4359 Clear 6 1022 24 0 1.4 66 18:58 24.04.2020
4360 Clear 6 1022 24 0 1.4 66 18:38 24.04.2020
4361 Clear 8 1022 22 0 0.97 83 18:20 24.04.2020
4362 Clear 8 1022 22 0 0.97 83 18:20 24.04.2020
4363 Clear 8 1022 22 0 0.97 83 17:42 24.04.2020
4364 Clear 8 1022 22 0 0.97 83 17:24 24.04.2020
4365 Clear 8 1022 22 0 0.97 83 16:59 24.04.2020
4366 Clear 8 1022 22 0 0.97 83 16:41 24.04.2020
4367 Clear 8 1022 22 0 0.97 83 16:41 24.04.2020
4368 Clear 8 1022 22 0 0.97 83 16:41 24.04.2020
4369 Clear 8 1022 22 0 0.97 83 16:22 24.04.2020
4370 Clear 8 1022 22 0 0.97 83 15:59 24.04.2020
4371 Clear 8 1022 22 0 0.97 83 15:37 24.04.2020
4372 Clear 12 1020 17 0 0.87 340 15:18 24.04.2020
4373 Clear 12 1020 17 0 0.87 340 15:18 24.04.2020
4374 Clear 12 1020 17 0 0.87 340 14:40 24.04.2020
4375 Clear 12 1020 17 0 1.33 314 14:20 24.04.2020
4376 Clear 12 1020 17 0 1.33 314 13:56 24.04.2020
4377 Clear 12 1020 17 0 1.33 314 13:38 24.04.2020
4378 Clear 12 1020 17 0 1.33 314 13:18 24.04.2020
4379 Clear 12 1020 17 0 1.33 314 12:41 24.04.2020
4380 Clear 15 1019 13 0 2.38 325 12:22 24.04.2020
4381 Clear 15 1019 13 0 2.38 325 11:58 24.04.2020
4382 Clear 15 1019 13 0 2.38 325 11:38 24.04.2020
4383 Clear 15 1019 13 0 2.38 325 11:19 24.04.2020
4384 Clear 15 1019 13 0 2.38 325 10:54 24.04.2020
4385 Clear 15 1019 13 0 2.38 325 10:36 24.04.2020
4386 Clear 15 1019 13 0 2.38 325 10:18 24.04.2020
4387 Clear 15 1019 13 0 2.38 325 09:45 24.04.2020
4388 Clear 14 1020 14 0 2.75 338 09:24 24.04.2020
4389 Clear 14 1020 14 0 2.58 337 08:55 24.04.2020
4390 Clear 14 1020 14 0 2.58 337 08:37 24.04.2020
4391 Clear 14 1020 14 0 2.58 337 08:18 24.04.2020
4392 Clear 14 1020 14 0 2.58 337 07:44 24.04.2020
4393 Clear 14 1020 14 0 2.58 337 07:26 24.04.2020
4394 Clear 14 1020 14 0 2.58 337 06:51 24.04.2020
4395 Clear 14 1020 14 0 2.58 337 06:32 24.04.2020
4396 Clear 11 1022 16 0 1.77 329 05:44 24.04.2020
4397 Clear 11 1022 16 0 1.77 329 04:26 24.04.2020
4398 Clear 6 1024 24 0 0.57 56 02:58 24.04.2020
4399 Clear 6 1024 24 0 0.66 52 02:38 24.04.2020
4400 Clear 6 1024 24 0 0.66 52 02:19 24.04.2020
4401 Clear 6 1024 24 0 0.66 52 01:18 24.04.2020
4402 Clear 6 1024 24 0 0.66 52 00:36 24.04.2020
4403 Clear 2 1023 28 0 0.7 80 00:18 24.04.2020
4404 Clear 2 1023 28 0 0.7 80 23:42 23.04.2020
4405 Clear 2 1023 28 0 0.7 80 23:23 23.04.2020
4406 Clear 2 1023 28 0 0.7 80 22:55 23.04.2020
4407 Clear 2 1023 28 0 0.7 80 22:36 23.04.2020
4408 Clear 2 1023 28 0 0.7 80 22:18 23.04.2020
4409 Clear 2 1023 28 0 0.7 80 21:55 23.04.2020
4410 Clear 2 1023 28 0 0.7 80 21:37 23.04.2020
4411 Clear 3 1024 27 0 0.15 134 21:19 23.04.2020
4412 Clear 3 1024 27 0 0.15 134 20:41 23.04.2020
4413 Clear 3 1024 27 0 0.15 134 20:22 23.04.2020
4414 Clear 3 1024 27 0 0.15 134 19:58 23.04.2020
4415 Clear 3 1024 27 0 0.15 134 19:40 23.04.2020
4416 Clear 3 1024 27 0 0.15 134 19:21 23.04.2020
4417 Clear 3 1024 27 0 0.15 134 18:56 23.04.2020
4418 Clear 3 1024 27 0 0.15 134 18:36 23.04.2020
4419 Clear 5 1024 25 0 0.91 259 18:18 23.04.2020
4420 Clear 5 1024 25 0 0.91 259 17:55 23.04.2020
4421 Clear 5 1024 25 0 0.91 259 17:36 23.04.2020
4422 Clear 5 1024 25 0 0.91 259 17:36 23.04.2020
4423 Clear 5 1024 25 0 0.91 259 17:18 23.04.2020
4424 Clear 5 1024 25 0 0.91 259 16:42 23.04.2020
4425 Clear 5 1024 25 0 0.91 259 16:19 23.04.2020
4426 Clear 5 1024 25 0 0.91 259 15:42 23.04.2020
4427 Clear 10 1023 19 0 1.98 275 15:23 23.04.2020
4428 Clear 10 1023 19 0 1.98 275 14:58 23.04.2020
4429 Clear 10 1023 19 0 1.98 275 14:38 23.04.2020
4430 Clear 10 1022 19 0 1.97 278 14:20 23.04.2020
4431 Clear 10 1022 19 0 1.97 278 13:56 23.04.2020
4432 Clear 10 1022 19 0 1.97 278 13:38 23.04.2020
4433 Clear 10 1022 19 0 1.97 278 13:38 23.04.2020
4434 Clear 10 1022 19 0 1.97 278 13:19 23.04.2020
4435 Clear 10 1022 19 0 1.97 278 12:44 23.04.2020
4436 Clear 13 1022 14 0 2.75 300 12:25 23.04.2020
4437 Clear 13 1022 14 0 2.75 300 11:58 23.04.2020
4438 Clear 13 1022 14 0 2.75 300 11:40 23.04.2020
4439 Clear 13 1022 14 0 2.75 300 11:21 23.04.2020
4440 Clear 13 1022 14 0 2.75 300 10:41 23.04.2020
4441 Clear 13 1022 14 0 2.75 300 10:22 23.04.2020
4442 Clear 13 1022 14 0 2.75 300 09:55 23.04.2020
4443 Clear 13 1022 14 0 2.75 300 09:37 23.04.2020
4444 Clear 11 1024 15 0 2.53 300 09:18 23.04.2020
4445 Clear 11 1024 15 0 2.53 300 08:42 23.04.2020
4446 Clear 11 1024 15 0 2.53 300 08:23 23.04.2020
4447 Clear 11 1024 15 0 2.53 300 07:43 23.04.2020
4448 Clear 11 1024 15 0 2.53 300 07:23 23.04.2020
4449 Clear 11 1024 15 0 2.53 300 06:49 23.04.2020
4450 Clear 9 1026 18 0 1.47 296 06:27 23.04.2020
4451 Clear 9 1026 18 0 1.47 296 05:31 23.04.2020
4452 Clear 9 1026 18 0 1.47 296 04:52 23.04.2020
4453 Clear 4 1029 26 0 0.83 119 02:24 23.04.2020
4454 Clear 4 1029 26 0 0.83 119 01:49 23.04.2020
4455 Clear 4 1029 26 0 0.83 119 01:28 23.04.2020
4456 Clear 4 1029 26 0 0.83 119 00:47 23.04.2020
4457 Clear 1 1028 30 0 0.89 107 00:20 23.04.2020
4458 Clear 1 1028 30 0 0.89 107 23:49 22.04.2020
4459 Clear 1 1028 30 0 0.89 107 23:23 22.04.2020
4460 Clear 1 1028 30 0 0.89 107 22:56 22.04.2020
4461 Clear 1 1028 30 0 0.89 107 22:37 22.04.2020
4462 Clear 1 1028 30 0 0.89 107 22:19 22.04.2020
4463 Clear 1 1028 30 0 0.89 107 21:56 22.04.2020
4464 Clear 1 1028 30 0 1.03 119 21:37 22.04.2020
4465 Clear 2 1028 29 0 1.06 117 21:19 22.04.2020
4466 Clear 2 1028 29 0 1.06 117 20:43 22.04.2020
4467 Clear 2 1028 29 0 1.06 117 20:19 22.04.2020
4468 Clear 2 1028 29 0 1.06 117 19:58 22.04.2020
4469 Clear 2 1028 29 0 1.06 117 19:38 22.04.2020
4470 Clear 2 1028 29 0 1.06 117 19:19 22.04.2020
4471 Clear 2 1028 29 0 1.06 117 18:59 22.04.2020
4472 Clear 2 1028 29 0 1.06 117 18:40 22.04.2020
4473 Clear 3 1027 27 0 1.56 89 18:22 22.04.2020
4474 Clear 3 1027 27 0 1.56 89 17:56 22.04.2020
4475 Clear 3 1027 27 0 1.56 89 17:37 22.04.2020
4476 Clear 3 1027 27 0 1.56 89 17:19 22.04.2020
4477 Clear 3 1027 27 0 1.56 89 16:42 22.04.2020
4478 Clear 3 1027 27 0 1.56 89 16:42 22.04.2020
4479 Clear 3 1027 27 0 1.56 89 16:23 22.04.2020
4480 Clear 3 1027 27 0 1.56 89 15:43 22.04.2020
4481 Clear 7 1024 22 0 1.83 56 15:25 22.04.2020
4482 Clear 7 1024 22 0 1.83 56 14:59 22.04.2020
4483 Clear 7 1024 22 0 1.83 56 14:41 22.04.2020
4484 Clear 7 1024 22 0 1.1 29 14:20 22.04.2020
4485 Clear 7 1024 22 0 1.1 29 13:56 22.04.2020
4486 Clear 7 1024 22 0 1.1 29 13:38 22.04.2020
4487 Clear 7 1024 22 0 1.1 29 13:19 22.04.2020
4488 Clear 7 1024 22 0 1.1 29 12:41 22.04.2020
4489 Clear 9 1023 17 0 2.16 352 12:23 22.04.2020
4490 Clear 9 1023 17 0 2.16 352 11:57 22.04.2020
4491 Clear 9 1023 17 0 2.16 352 11:36 22.04.2020
4492 Clear 9 1023 17 0 2.16 352 11:18 22.04.2020
4493 Clear 9 1023 17 0 2.16 352 10:41 22.04.2020
4494 Clear 9 1023 17 0 2.16 352 10:21 22.04.2020
4495 Clear 9 1022 17 0 1.89 357 09:41 22.04.2020
4496 Clear 8 1023 18 0 1.43 346 09:23 22.04.2020
4497 Clear 8 1023 18 0 1.43 346 08:59 22.04.2020
4498 Clear 8 1023 18 0 1.43 346 08:59 22.04.2020
4499 Clear 8 1023 18 0 1.43 346 08:41 22.04.2020
4500 Clear 8 1023 18 0 1.43 346 08:22 22.04.2020
4501 Clear 8 1023 18 0 1.43 346 07:53 22.04.2020
4502 Clear 8 1023 18 0 1.43 346 07:33 22.04.2020
4503 Clear 8 1023 18 0 1.43 346 06:53 22.04.2020
4504 Clear 6 1025 21 0 1.15 359 06:23 22.04.2020
4505 Clear 6 1025 21 0 1.15 359 05:38 22.04.2020
4506 Clear 6 1025 21 0 1.15 359 04:32 22.04.2020
4507 Clear 2 1027 27 0 1.75 67 02:59 22.04.2020
4508 Clear 2 1027 27 0 1.72 67 01:55 22.04.2020
4509 Clear 2 1027 27 0 1.72 67 01:28 22.04.2020
4510 Clear 2 1027 27 0 1.72 67 00:59 22.04.2020
4511 Clear 2 1027 27 0 1.72 67 00:41 22.04.2020
4512 Clear 1 1026 31 0 1.79 69 00:19 22.04.2020
4513 Clear 1 1026 31 0 1.79 69 23:43 21.04.2020
4514 Clear 1 1026 31 0 1.79 69 23:20 21.04.2020
4515 Clear 1 1026 31 0 1.79 69 22:41 21.04.2020
4516 Clear 1 1026 31 0 1.79 69 22:22 21.04.2020
4517 Clear 1 1026 31 0 1.79 69 21:59 21.04.2020
4518 Clear 1 1026 31 0 1.79 69 21:41 21.04.2020
4519 Clear 1 1026 30 0 2.17 62 21:23 21.04.2020
4520 Clear 2 1026 30 0 2.21 63 20:57 21.04.2020
4521 Clear 2 1026 30 0 2.21 63 20:39 21.04.2020
4522 Clear 2 1026 30 0 2.21 63 20:21 21.04.2020
4523 Clear 2 1026 30 0 2.21 63 19:41 21.04.2020
4524 Clear 1 1026 30 0 2.17 62 19:20 21.04.2020
4525 Clear 2 1026 30 0 2.21 63 18:59 21.04.2020
4526 Clear 2 1026 30 0 2.21 63 18:59 21.04.2020
4527 Clear 2 1026 30 0 2.21 63 18:39 21.04.2020
4528 Clear 3 1025 28 0 2.81 71 18:19 21.04.2020
4529 Clear 3 1025 28 0 2.81 71 17:59 21.04.2020
4530 Clear 3 1025 28 0 2.81 71 17:38 21.04.2020
4531 Clear 3 1025 28 0 2.81 71 17:19 21.04.2020
4532 Clear 3 1025 29 0 2.79 67 16:39 21.04.2020
4533 Clear 3 1025 28 0 2.81 71 16:19 21.04.2020
4534 Clear 3 1025 28 0 2.81 71 15:59 21.04.2020
4535 Clear 3 1025 28 0 2.81 71 15:41 21.04.2020
4536 Clouds 6 1022 24 0 2.72 55 15:22 21.04.2020
4537 Clouds 6 1022 24 0 2.72 55 14:58 21.04.2020
4538 Clouds 6 1022 24 0 2.72 55 14:40 21.04.2020
4539 Clouds 6 1022 24 0 2.72 55 14:22 21.04.2020
4540 Clouds 6 1022 24 0 2.72 55 13:42 21.04.2020
4541 Clouds 6 1022 24 0 2.72 55 13:23 21.04.2020
4542 Clouds 6 1022 24 0 2.72 55 12:58 21.04.2020
4543 Clouds 6 1022 24 0 2.72 55 12:37 21.04.2020
4544 Clouds 8 1021 19 0 2.3 8 12:19 21.04.2020
4545 Clouds 8 1021 19 0 2.3 8 11:56 21.04.2020
4546 Clouds 8 1021 19 0 2.3 8 11:37 21.04.2020
4547 Clouds 8 1021 19 0 2.3 8 11:18 21.04.2020
4548 Clouds 8 1021 19 0 2.3 8 10:56 21.04.2020
4549 Clouds 8 1021 19 0 2.3 8 10:38 21.04.2020
4550 Clouds 8 1021 19 0 2.3 8 10:20 21.04.2020
4551 Clouds 8 1021 20 0 2.07 7 09:37 21.04.2020
4552 Clouds 7 1022 21 0 2.13 354 09:19 21.04.2020
4553 Clouds 7 1022 21 0 2.13 354 08:57 21.04.2020
4554 Clouds 7 1022 21 0 2.13 354 08:39 21.04.2020
4555 Clouds 7 1022 21 0 2.13 354 08:19 21.04.2020
4556 Clouds 7 1022 21 0 2.13 354 07:44 21.04.2020
4557 Clouds 7 1022 21 0 2.13 354 07:22 21.04.2020
4558 Clouds 7 1022 21 0 2.13 354 06:49 21.04.2020
4559 Clouds 6 1025 23 0 1.54 7 06:20 21.04.2020
4560 Clouds 6 1025 23 0 1.54 7 05:48 21.04.2020
4561 Clouds 6 1025 23 0 1.54 7 04:20 21.04.2020
4562 Clouds 6 1025 23 0 1.54 7 03:42 21.04.2020
4563 Clouds 2 1027 30 0 1.7 58 01:46 21.04.2020
4564 Clouds 2 1027 30 0 1.7 58 01:18 21.04.2020
4565 Clouds 2 1027 30 0 1.7 58 00:35 21.04.2020
4566 Clear 0 1025 33 0 1.71 62 23:45 20.04.2020
4567 Clear 0 1025 33 0 1.71 62 23:25 20.04.2020
4568 Clear 0 1025 33 0 1.71 62 22:58 20.04.2020
4569 Clear 0 1025 33 0 1.71 62 22:38 20.04.2020
4570 Clear 0 1025 33 0 1.71 62 22:19 20.04.2020
4571 Clear 0 1025 33 0 1.71 62 21:57 20.04.2020
4572 Clear 0 1026 32 0 1.81 61 21:38 20.04.2020
4573 Clear 1 1026 32 0 1.94 69 21:19 20.04.2020
4574 Clear 1 1026 32 0 1.94 69 20:57 20.04.2020
4575 Clear 1 1026 32 0 1.94 69 20:38 20.04.2020
4576 Clear 1 1026 32 0 1.94 69 20:18 20.04.2020
4577 Clear 1 1026 32 0 1.94 69 20:18 20.04.2020
4578 Clear 1 1026 32 0 1.94 69 19:57 20.04.2020
4579 Clear 1 1026 32 0 1.94 69 19:38 20.04.2020
4580 Clear 1 1026 32 0 1.94 69 19:19 20.04.2020
4581 Clear 1 1026 32 0 1.94 69 18:42 20.04.2020
4582 Clear 2 1025 30 0 2.33 55 18:22 20.04.2020
4583 Clear 2 1025 30 0 2.33 55 17:55 20.04.2020
4584 Clear 2 1025 30 0 2.33 55 17:37 20.04.2020
4585 Clear 2 1025 30 0 2.33 55 17:19 20.04.2020
4586 Clear 2 1025 30 0 2.33 55 16:57 20.04.2020
4587 Clear 2 1025 30 0 2.33 55 16:38 20.04.2020
4588 Clear 2 1025 30 0 2.33 55 16:18 20.04.2020
4589 Clear 2 1025 30 0 2.33 55 15:42 20.04.2020
4590 Clear 5 1023 25 0 2.56 29 15:23 20.04.2020
4591 Clear 5 1023 25 0 2.56 29 14:55 20.04.2020
4592 Clear 5 1023 25 0 2.56 29 14:36 20.04.2020
4593 Clear 5 1023 25 0 2.92 31 14:18 20.04.2020
4594 Clear 5 1023 25 0 2.92 31 13:41 20.04.2020
4595 Clear 5 1023 25 0 2.92 31 13:22 20.04.2020
4596 Clear 5 1023 25 0 2.92 31 12:54 20.04.2020
4597 Clear 5 1023 25 0 2.92 31 12:36 20.04.2020
4598 Clear 8 1021 19 0 3.45 9 12:18 20.04.2020
4599 Clear 8 1021 19 0 3.45 9 11:40 20.04.2020
4600 Clear 8 1021 19 0 3.45 9 11:21 20.04.2020
4601 Clear 8 1021 19 0 3.45 9 10:57 20.04.2020
4602 Clear 8 1021 19 0 3.45 9 10:57 20.04.2020
4603 Clear 8 1021 19 0 3.45 9 10:38 20.04.2020
4604 Clear 8 1021 19 0 3.45 9 10:19 20.04.2020
4605 Clear 8 1021 19 0 3.45 9 09:55 20.04.2020
4606 Clear 8 1021 19 0 3.62 7 09:36 20.04.2020
4607 Clear 7 1022 20 0 2.55 356 09:18 20.04.2020
4608 Clear 7 1022 20 0 2.55 356 08:41 20.04.2020
4609 Clear 7 1022 20 0 2.55 356 08:19 20.04.2020
4610 Clear 7 1022 20 0 2.55 356 07:52 20.04.2020
4611 Clear 7 1022 20 0 2.55 356 07:29 20.04.2020
4612 Clear 7 1022 20 0 2.55 356 06:55 20.04.2020
4613 Clear 7 1022 20 0 2.55 356 06:36 20.04.2020
4614 Clear 4 1025 25 0 1.89 7 05:38 20.04.2020
4615 Clear 4 1025 25 0 1.89 7 03:45 20.04.2020
4616 Clear 1 1027 34 0 1.6 49 02:44 20.04.2020
4617 Clear 1 1027 34 0 1.52 47 01:37 20.04.2020
4618 Clear 1 1027 34 0 1.52 47 01:19 20.04.2020
4619 Clear 1 1027 34 0 1.52 47 00:35 20.04.2020
4620 Clear -1 1027 37 0 1.21 63 23:56 19.04.2020
4621 Clear -1 1027 37 0 1.21 63 23:38 19.04.2020
4622 Clear -1 1027 37 0 1.21 63 23:19 19.04.2020
4623 Clear -1 1027 37 0 1.21 63 22:40 19.04.2020
4624 Clear -1 1027 37 0 1.21 63 22:22 19.04.2020
4625 Clear -1 1027 37 0 1.21 63 21:58 19.04.2020
4626 Clear -1 1027 37 0 1.21 63 21:39 19.04.2020
4627 Clear -1 1027 37 0 1.21 63 21:39 19.04.2020
4628 Clear 0 1027 35 0 1.27 69 21:20 19.04.2020
4629 Clear 0 1027 35 0 1.27 69 20:55 19.04.2020
4630 Clear 0 1027 35 0 1.27 69 20:36 19.04.2020
4631 Clear 0 1027 35 0 1.27 69 20:18 19.04.2020
4632 Clear 0 1027 35 0 1.27 69 19:41 19.04.2020
4633 Clear 0 1027 35 0 1.27 69 19:22 19.04.2020
4634 Clear 0 1027 35 0 1.27 69 18:58 19.04.2020
4635 Clear 0 1027 35 0 1.27 69 18:40 19.04.2020
4636 Clear 1 1027 34 0 1.23 74 18:20 19.04.2020
4637 Clear 1 1027 34 0 1.23 74 17:58 19.04.2020
4638 Clear 1 1027 34 0 1.23 74 17:40 19.04.2020
4639 Clear 1 1027 34 0 1.23 74 17:21 19.04.2020
4640 Clear 1 1027 34 0 1.23 74 16:58 19.04.2020
4641 Clear 1 1027 34 0 1.23 74 16:38 19.04.2020
4642 Clear 1 1027 34 0 1.23 74 16:38 19.04.2020
4643 Clear 1 1027 34 0 1.23 74 16:20 19.04.2020
4644 Clear 1 1027 34 0 1.23 74 16:20 19.04.2020
4645 Clear 1 1027 34 0 1.23 74 15:43 19.04.2020
4646 Clear 4 1025 28 0 2.16 60 15:22 19.04.2020
4647 Clear 4 1025 28 0 2.16 60 14:56 19.04.2020
4648 Clear 4 1025 28 0 2.16 60 14:37 19.04.2020
4649 Clear 4 1025 28 0 1.96 59 14:19 19.04.2020
4650 Clear 4 1025 28 0 1.96 59 13:40 19.04.2020
4651 Clear 4 1025 28 0 1.96 59 13:21 19.04.2020
4652 Clear 4 1025 28 0 1.96 59 12:58 19.04.2020
4653 Clear 4 1025 28 0 1.96 59 12:40 19.04.2020
4654 Clear 6 1024 23 0 2.96 16 12:20 19.04.2020
4655 Clear 6 1024 23 0 2.96 16 11:37 19.04.2020
4656 Clear 6 1024 23 0 2.96 16 11:37 19.04.2020
4657 Clear 6 1024 23 0 2.96 16 11:19 19.04.2020
4658 Clear 6 1024 23 0 2.96 16 10:58 19.04.2020
4659 Clear 6 1024 23 0 2.96 16 10:39 19.04.2020
4660 Clear 6 1024 23 0 2.96 16 10:19 19.04.2020
4661 Clear 6 1024 23 0 2.96 16 09:46 19.04.2020
4662 Clear 4 1026 25 0 3.06 2 09:28 19.04.2020
4663 Clear 4 1026 25 0 3.1 360 08:42 19.04.2020
4664 Clear 4 1026 25 0 3.02 359 08:24 19.04.2020
4665 Clear 4 1026 25 0 3.1 360 07:59 19.04.2020
4666 Clear 4 1026 25 0 3.02 359 07:41 19.04.2020
4667 Clear 4 1026 25 0 3.1 360 07:23 19.04.2020
4668 Clear 4 1026 25 0 3.1 360 07:23 19.04.2020
4669 Clear 4 1026 25 0 3.02 359 06:30 19.04.2020
4670 Clear 1 1030 31 0 1.78 11 05:56 19.04.2020
4671 Clear 1 1030 31 0 1.46 8 04:48 19.04.2020
4672 Clear -3 1032 42 0 1.24 68 02:59 19.04.2020
4673 Clear -3 1032 42 0 1.21 64 02:21 19.04.2020
4674 Clear -3 1032 42 0 1.21 64 01:39 19.04.2020
4675 Clear -3 1032 42 0 1.21 64 00:49 19.04.2020
4676 Clear -3 1031 44 0 1.18 50 00:25 19.04.2020
4677 Clear -3 1031 44 0 1.18 50 23:56 18.04.2020
4678 Clear -3 1031 44 0 1.18 50 23:36 18.04.2020
4679 Clear -3 1031 44 0 1.18 50 23:18 18.04.2020
4680 Clear -3 1031 44 0 1.18 50 22:41 18.04.2020
4681 Clear -3 1031 44 0 1.18 50 22:21 18.04.2020
4682 Clear -3 1031 44 0 1.18 50 21:57 18.04.2020
4683 Clear -3 1031 44 0 1.23 46 21:38 18.04.2020
4684 Clear -2 1030 42 0 1.78 38 21:19 18.04.2020
4685 Clear -2 1030 42 0 1.78 38 20:42 18.04.2020
4686 Clear -2 1030 42 0 1.78 38 20:42 18.04.2020
4687 Clear -2 1030 42 0 1.78 38 20:22 18.04.2020
4688 Clear -2 1030 42 0 1.78 38 19:59 18.04.2020
4689 Clear -2 1030 42 0 1.78 38 19:38 18.04.2020
4690 Clear -2 1030 42 0 1.78 38 19:19 18.04.2020
4691 Clear -2 1030 42 0 1.78 38 18:38 18.04.2020
4692 Clear -1 1028 38 0 6.17 42 18:19 18.04.2020
4693 Clear -1 1028 38 0 6.17 42 17:45 18.04.2020
4694 Clear -1 1028 38 0 6.17 42 17:22 18.04.2020
4695 Clear -1 1028 38 0 6.17 42 16:58 18.04.2020
4696 Clear -1 1028 38 0 6.17 42 16:39 18.04.2020
4697 Clear -1 1028 38 0 6.17 42 16:21 18.04.2020
4698 Clear -1 1028 38 0 6.17 42 15:40 18.04.2020
4699 Clouds 1 1023 35 0 8.02 23 15:22 18.04.2020
4700 Clouds 1 1023 35 0 8.02 23 14:48 18.04.2020
4701 Snow 2 1022 36 0 7.12 24 14:29 18.04.2020
4702 Snow 2 1022 36 0 7.12 24 13:59 18.04.2020
4703 Snow 2 1022 36 0 7.12 24 13:41 18.04.2020
4704 Snow 2 1022 36 0 7.12 24 13:20 18.04.2020
4705 Snow 2 1022 36 0 7.12 24 12:42 18.04.2020
4706 Snow 2 1022 36 0 7.12 24 12:42 18.04.2020
4707 Clouds 6 1018 26 0 8.22 335 12:24 18.04.2020
4708 Clouds 6 1018 26 0 8.22 335 11:57 18.04.2020
4709 Clouds 6 1018 26 0 8.22 335 11:38 18.04.2020
4710 Clouds 6 1018 26 0 8.22 335 11:19 18.04.2020
4711 Clouds 6 1018 26 0 8.22 335 10:42 18.04.2020
4712 Clouds 6 1018 26 0 8.22 335 10:22 18.04.2020
4713 Clouds 6 1018 26 0 8.22 335 09:58 18.04.2020
4714 Clouds 6 1018 28 0 4.58 343 09:39 18.04.2020
4715 Clear 5 1017 27 0 2.95 331 09:20 18.04.2020
4716 Clear 5 1017 27 0 2.95 331 08:42 18.04.2020
4717 Clear 5 1017 27 0 2.95 331 08:21 18.04.2020
4718 Clear 5 1017 27 0 2.95 331 07:45 18.04.2020
4719 Clear 5 1017 27 0 2.95 331 07:23 18.04.2020
4720 Clear 5 1017 27 0 2.95 331 06:39 18.04.2020
4721 Clear 3 1019 32 0 1.4 355 05:48 18.04.2020
4722 Clear 3 1019 32 0 1.4 355 04:54 18.04.2020
4723 Clear 3 1019 32 0 1.4 355 04:30 18.04.2020
4724 Clouds -1 1021 43 0 1.33 51 02:59 18.04.2020
4725 Clouds -1 1021 43 0 1.33 51 02:40 18.04.2020
4726 Clouds -1 1021 43 0 1.3 50 02:20 18.04.2020
4727 Clouds -1 1021 43 0 1.3 50 01:37 18.04.2020
4728 Clouds -1 1021 43 0 1.3 50 00:54 18.04.2020
4729 Clouds 0 1020 44 0 1.41 46 00:24 18.04.2020
4730 Clouds 0 1020 44 0 1.41 46 23:57 17.04.2020
4731 Clouds 0 1020 44 0 1.41 46 23:57 17.04.2020
4732 Clouds 0 1020 44 0 1.41 46 23:39 17.04.2020
4733 Clouds 0 1020 44 0 1.41 46 23:19 17.04.2020
4734 Clouds 0 1020 44 0 1.41 46 22:56 17.04.2020
4735 Clouds 0 1020 44 0 1.41 46 22:38 17.04.2020
4736 Clouds 0 1020 44 0 1.41 46 22:19 17.04.2020
4737 Clouds 0 1020 44 0 1.41 46 21:44 17.04.2020
4738 Clouds 1 1020 42 0 1.29 24 21:22 17.04.2020
4739 Clouds 1 1020 42 0 1.29 24 20:59 17.04.2020
4740 Clouds 1 1020 42 0 1.29 24 20:38 17.04.2020
4741 Clouds 1 1020 42 0 1.29 24 20:19 17.04.2020
4742 Clouds 1 1020 42 0 1.29 24 19:59 17.04.2020
4743 Clouds 1 1020 42 0 1.29 24 19:41 17.04.2020
4744 Clouds 1 1020 42 0 1.29 24 19:22 17.04.2020
4745 Clouds 1 1020 42 0 1.29 24 18:44 17.04.2020
4746 Rain 3 1019 45 0 1.48 39 18:24 17.04.2020
4747 Rain 3 1019 45 0 1.48 39 17:56 17.04.2020
4748 Rain 3 1019 45 0 1.48 39 17:37 17.04.2020
4749 Rain 3 1019 45 0 1.48 39 17:18 17.04.2020
4750 Rain 3 1019 45 0 1.48 39 16:43 17.04.2020
4751 Rain 3 1019 45 0 1.48 39 16:23 17.04.2020
4752 Rain 3 1019 45 0 1.48 39 15:44 17.04.2020
4753 Rain 4 1017 46 0 1.11 309 15:24 17.04.2020
4754 Rain 4 1017 46 0 1.11 309 14:57 17.04.2020
4755 Rain 4 1017 46 0 1.11 309 14:39 17.04.2020
4756 Rain 4 1017 46 0 1.45 330 14:20 17.04.2020
4757 Rain 4 1017 46 0 1.45 330 13:55 17.04.2020
4758 Rain 4 1017 46 0 1.45 330 13:36 17.04.2020
4759 Rain 4 1017 46 0 1.45 330 13:18 17.04.2020
4760 Rain 4 1017 46 0 1.45 330 12:43 17.04.2020
4761 Rain 5 1015 47 0 1.2 299 12:22 17.04.2020
4762 Rain 5 1015 47 0 1.2 299 11:41 17.04.2020
4763 Rain 5 1015 47 0 1.2 299 11:19 17.04.2020
4764 Rain 5 1015 47 0 1.2 299 10:56 17.04.2020
4765 Rain 5 1015 47 0 1.2 299 10:37 17.04.2020
4766 Rain 5 1015 47 0 1.2 299 10:18 17.04.2020
4767 Clouds 5 1016 44 0 0.85 300 09:40 17.04.2020
4768 Rain 5 1016 46 0 1.78 261 09:20 17.04.2020
4769 Rain 5 1016 46 0 1.78 261 08:56 17.04.2020
4770 Rain 5 1016 46 0 1.78 261 08:38 17.04.2020
4771 Rain 5 1016 46 0 1.78 261 08:19 17.04.2020
4772 Rain 5 1016 46 0 1.78 261 07:43 17.04.2020
4773 Rain 5 1016 46 0 1.78 261 07:21 17.04.2020
4774 Rain 5 1016 46 0 1.78 261 06:45 17.04.2020
4775 Rain 4 1017 48 0 1.72 241 06:22 17.04.2020
4776 Rain 4 1017 48 0 1.72 241 04:46 17.04.2020
4777 Rain 4 1017 46 0 1.55 140 03:19 17.04.2020
4778 Rain 4 1018 47 0 1.02 135 01:58 17.04.2020
4779 Rain 4 1018 47 0 1.02 135 01:27 17.04.2020
4780 Rain 4 1018 47 0 1.02 135 00:45 17.04.2020
4781 Rain 4 1016 43 0 1.52 182 00:18 17.04.2020
4782 Rain 4 1016 43 0 1.52 182 23:40 16.04.2020
4783 Rain 4 1016 43 0 1.52 182 23:22 16.04.2020
4784 Rain 4 1016 43 0 1.52 182 22:56 16.04.2020
4785 Rain 4 1016 43 0 1.52 182 22:37 16.04.2020
4786 Rain 4 1016 43 0 1.52 182 22:19 16.04.2020
4787 Rain 4 1016 43 0 1.52 182 21:41 16.04.2020
4788 Snow 5 1017 33 0 1.47 110 21:20 16.04.2020
4789 Snow 5 1017 33 0 1.47 110 20:58 16.04.2020
4790 Snow 5 1017 33 0 1.47 110 20:39 16.04.2020
4791 Snow 5 1017 33 0 1.47 110 20:19 16.04.2020
4792 Snow 5 1017 33 0 1.47 110 19:54 16.04.2020
4793 Snow 5 1017 33 0 1.47 110 19:36 16.04.2020
4794 Snow 5 1017 33 0 1.47 110 19:18 16.04.2020
4795 Snow 5 1017 33 0 1.47 110 18:41 16.04.2020
4796 Snow 5 1017 33 0 1.47 110 18:41 16.04.2020
4797 Clouds 7 1017 26 0 2.1 99 18:21 16.04.2020
4798 Clouds 7 1017 26 0 2.1 99 17:56 16.04.2020
4799 Clouds 7 1017 26 0 2.1 99 17:38 16.04.2020
4800 Clouds 7 1017 26 0 2.1 99 17:18 16.04.2020
4801 Clouds 7 1017 26 0 2.1 99 16:42 16.04.2020
4802 Clouds 7 1017 26 0 2.1 99 16:23 16.04.2020
4803 Clouds 7 1017 26 0 2.1 99 15:45 16.04.2020
4804 Clouds 8 1015 24 0 1.33 81 15:20 16.04.2020
4805 Clouds 8 1015 24 0 1.33 81 14:58 16.04.2020
4806 Clouds 8 1015 24 0 1.33 81 14:40 16.04.2020
4807 Clouds 8 1015 24 0 1.39 78 14:21 16.04.2020
4808 Clouds 8 1015 24 0 1.39 78 14:21 16.04.2020
4809 Clouds 8 1015 24 0 1.39 78 13:57 16.04.2020
4810 Clouds 8 1015 24 0 1.39 78 13:57 16.04.2020
4811 Clouds 8 1015 24 0 1.39 78 13:38 16.04.2020
4812 Clouds 8 1015 24 0 1.39 78 13:19 16.04.2020
4813 Clouds 8 1015 24 0 1.39 78 12:57 16.04.2020
4814 Clouds 8 1015 24 0 1.39 78 12:38 16.04.2020
4815 Clouds 11 1014 20 0 0.86 352 12:19 16.04.2020
4816 Clouds 11 1014 20 0 0.86 352 11:55 16.04.2020
4817 Clouds 11 1014 20 0 0.86 352 11:37 16.04.2020
4818 Clouds 11 1014 20 0 0.86 352 11:18 16.04.2020
4819 Clouds 11 1014 20 0 0.86 352 10:40 16.04.2020
4820 Clouds 11 1014 20 0 0.86 352 10:19 16.04.2020
4821 Clouds 11 1014 20 0 0.86 352 09:59 16.04.2020
4822 Clouds 11 1014 20 0 0.86 352 09:38 16.04.2020
4823 Clear 10 1017 21 0 0.9 333 09:19 16.04.2020
4824 Clear 10 1017 21 0 0.9 333 08:43 16.04.2020
4825 Clear 10 1017 21 0 0.9 333 08:23 16.04.2020
4826 Clear 10 1017 21 0 0.9 333 07:46 16.04.2020
4827 Clear 10 1017 21 0 0.84 315 07:28 16.04.2020
4828 Clear 10 1017 21 0 0.9 333 07:28 16.04.2020
4829 Clear 10 1017 21 0 0.9 333 06:46 16.04.2020
4830 Clear 8 1018 25 0 0.23 100 06:27 16.04.2020
4831 Clear 8 1018 25 0 0.23 100 05:59 16.04.2020
4832 Clear 8 1019 25 0 0.25 156 04:44 16.04.2020
4833 Clear 2 1020 34 0 1.44 107 03:24 16.04.2020
4834 Clear 2 1020 34 0 1.44 107 02:52 16.04.2020
4835 Clear 2 1021 34 0 1.43 104 02:32 16.04.2020
4836 Clear 2 1021 34 0 1.43 104 01:20 16.04.2020
4837 Clear 2 1021 34 0 1.43 104 00:38 16.04.2020
4838 Clear 1 1019 36 0 1.78 96 00:00 16.04.2020
4839 Clear 1 1019 36 0 1.78 96 23:41 15.04.2020
4840 Clear 1 1019 36 0 1.78 96 23:22 15.04.2020
4841 Clear 1 1019 36 0 1.78 96 22:41 15.04.2020
4842 Clear 1 1019 36 0 1.78 96 22:22 15.04.2020
4843 Clear 1 1019 36 0 1.78 96 22:22 15.04.2020
4844 Clear 1 1019 36 0 1.78 96 22:00 15.04.2020
4845 Clear 1 1019 36 0 1.78 96 21:41 15.04.2020
4846 Clouds 2 1019 35 0 1.84 91 21:23 15.04.2020
4847 Clouds 2 1019 35 0 1.84 91 20:59 15.04.2020
4848 Clouds 2 1019 35 0 1.84 91 20:40 15.04.2020
4849 Clouds 2 1019 35 0 1.84 91 20:22 15.04.2020
4850 Clouds 2 1019 35 0 1.84 91 19:46 15.04.2020
4851 Clouds 2 1019 35 0 1.84 91 19:21 15.04.2020
4852 Clouds 2 1019 35 0 1.84 91 18:58 15.04.2020
4853 Clouds 2 1019 35 0 1.84 91 18:39 15.04.2020
4854 Clouds 3 1018 33 0 1.56 87 18:21 15.04.2020
4855 Clouds 3 1018 33 0 1.56 87 17:55 15.04.2020
4856 Clouds 3 1018 33 0 1.56 87 17:36 15.04.2020
4857 Clouds 3 1018 33 0 1.56 87 17:36 15.04.2020
4858 Clouds 3 1018 33 0 1.56 87 17:18 15.04.2020
4859 Clouds 3 1018 33 0 1.56 87 17:18 15.04.2020
4860 Clouds 3 1018 33 0 1.56 87 16:54 15.04.2020
4861 Clouds 3 1018 33 0 1.56 87 16:36 15.04.2020
4862 Clouds 3 1018 33 0 1.56 87 16:18 15.04.2020
4863 Clouds 3 1018 33 0 1.56 87 15:55 15.04.2020
4864 Clouds 3 1018 33 0 1.56 87 15:36 15.04.2020
4865 Clouds 6 1016 28 0 2.09 47 15:18 15.04.2020
4866 Clouds 6 1016 28 0 2.09 47 14:41 15.04.2020
4867 Clouds 6 1016 28 0 1.75 70 14:23 15.04.2020
4868 Clouds 6 1016 28 0 1.75 70 13:59 15.04.2020
4869 Clouds 6 1016 28 0 1.75 70 13:40 15.04.2020
4870 Clouds 6 1016 28 0 1.75 70 13:21 15.04.2020
4871 Clouds 6 1016 28 0 1.75 70 12:58 15.04.2020
4872 Clouds 6 1016 28 0 1.75 70 12:39 15.04.2020
4873 Clear 9 1015 22 0 2.04 345 12:21 15.04.2020
4874 Clear 9 1015 22 0 2.04 345 11:57 15.04.2020
4875 Clear 9 1015 22 0 2.04 345 11:38 15.04.2020
4876 Clear 9 1015 22 0 2.04 345 11:20 15.04.2020
4877 Clear 9 1015 22 0 2.04 345 10:38 15.04.2020
4878 Clear 9 1015 22 0 2.04 345 10:19 15.04.2020
4879 Clear 9 1015 22 0 2.04 345 09:56 15.04.2020
4880 Clear 9 1015 22 0 2.04 345 09:38 15.04.2020
4881 Clouds 8 1015 23 0 1.46 356 09:19 15.04.2020
4882 Clouds 8 1015 23 0 1.46 356 08:42 15.04.2020
4883 Clouds 8 1015 23 0 1.46 356 08:23 15.04.2020
4884 Clouds 8 1015 23 0 1.46 356 07:59 15.04.2020
4885 Clouds 8 1015 23 0 1.46 356 07:40 15.04.2020
4886 Clouds 8 1015 23 0 1.46 356 07:00 15.04.2020
4887 Clouds 5 1017 28 0 1.76 41 06:24 15.04.2020
4888 Clouds 5 1017 28 0 1.76 41 05:34 15.04.2020
4889 Clouds 5 1017 28 0 1.76 41 04:47 15.04.2020
4890 Clouds 5 1017 28 0 1.76 41 04:18 15.04.2020
4891 Clouds 1 1019 37 0 2.17 57 03:22 15.04.2020
4892 Clouds 1 1019 37 0 2.17 57 02:45 15.04.2020
4893 Clouds 1 1019 37 0 2.17 57 01:51 15.04.2020
4894 Clouds 1 1019 37 0 2.17 57 01:25 15.04.2020
4895 Clouds 1 1019 37 0 2.17 57 00:47 15.04.2020
4896 Clouds 1 1017 38 0 2.22 56 00:24 15.04.2020
4897 Clouds 1 1017 38 0 2.22 56 23:55 14.04.2020
4898 Clouds 1 1017 38 0 2.22 56 23:37 14.04.2020
4899 Clouds 1 1017 38 0 2.22 56 23:19 14.04.2020
4900 Clouds 1 1017 38 0 2.22 56 22:56 14.04.2020
4901 Clouds 1 1017 38 0 2.22 56 22:38 14.04.2020
4902 Clouds 1 1017 38 0 2.22 56 22:20 14.04.2020
4903 Clouds 1 1017 38 0 2.22 56 21:56 14.04.2020
4904 Clouds 1 1017 38 0 2.22 56 21:37 14.04.2020
4905 Clouds 1 1016 37 0 2.22 61 21:19 14.04.2020
4906 Clouds 1 1016 36 0 2.36 59 20:41 14.04.2020
4907 Clouds 1 1016 36 0 2.36 59 20:23 14.04.2020
4908 Clouds 1 1016 37 0 2.22 61 19:59 14.04.2020
4909 Clouds 1 1016 37 0 2.22 61 19:40 14.04.2020
4910 Clouds 1 1016 37 0 2.22 61 19:40 14.04.2020
4911 Clouds 1 1016 37 0 2.22 61 19:21 14.04.2020
4912 Clouds 1 1016 37 0 2.22 61 18:57 14.04.2020
4913 Clouds 1 1016 36 0 2.36 59 18:39 14.04.2020
4914 Clouds 1 1016 37 0 2.22 61 18:39 14.04.2020
4915 Clouds 3 1015 34 0 2.27 59 18:20 14.04.2020
4916 Clouds 3 1015 34 0 2.27 59 17:56 14.04.2020
4917 Clouds 2 1016 35 0 2.25 57 17:37 14.04.2020
4918 Clouds 2 1016 35 0 2.25 57 17:19 14.04.2020
4919 Clouds 2 1016 35 0 2.25 57 16:43 14.04.2020
4920 Clouds 3 1015 34 0 2.27 59 16:24 14.04.2020
4921 Clouds 3 1015 34 0 2.27 59 15:58 14.04.2020
4922 Clouds 3 1015 34 0 2.27 59 15:58 14.04.2020
4923 Clouds 3 1015 34 0 2.27 59 15:58 14.04.2020
4924 Clouds 2 1016 35 0 2.25 57 15:40 14.04.2020
4925 Clouds 5 1013 30 0 2.66 38 15:21 14.04.2020
4926 Clouds 5 1014 30 0 2.71 30 14:59 14.04.2020
4927 Clouds 5 1013 30 0 2.66 38 14:40 14.04.2020
4928 Clouds 5 1013 30 0 2.66 38 14:22 14.04.2020
4929 Clouds 5 1013 30 0 2.66 38 13:57 14.04.2020
4930 Clouds 5 1013 30 0 2.66 38 13:39 14.04.2020
4931 Clouds 5 1013 30 0 2.66 38 13:20 14.04.2020
4932 Clouds 5 1013 30 0 2.66 38 12:42 14.04.2020
4933 Clouds 9 1011 24 0 3.82 357 12:21 14.04.2020
4934 Clouds 9 1011 24 0 3.82 357 11:55 14.04.2020
4935 Clouds 9 1011 24 0 3.82 357 11:37 14.04.2020
4936 Clouds 9 1011 24 0 3.82 357 11:18 14.04.2020
4937 Clouds 9 1011 24 0 3.82 357 10:44 14.04.2020
4938 Clouds 9 1011 24 0 3.82 357 10:24 14.04.2020
4939 Clouds 9 1011 24 0 3.82 357 09:55 14.04.2020
4940 Clouds 9 1011 24 0 3.82 357 09:37 14.04.2020
4941 Clouds 9 1012 24 0 3.4 320 09:18 14.04.2020
4942 Clouds 9 1012 24 0 3.4 320 08:41 14.04.2020
4943 Clouds 9 1012 24 0 3.4 320 08:22 14.04.2020
4944 Clouds 9 1012 24 0 3.4 320 07:53 14.04.2020
4945 Clouds 9 1012 24 0 3.4 320 07:30 14.04.2020
4946 Clouds 9 1012 24 0 3.4 320 06:49 14.04.2020
4947 Clouds 7 1013 26 0 1.68 325 06:18 14.04.2020
4948 Clouds 7 1013 26 0 1.68 325 03:52 14.04.2020
4949 Clouds 3 1014 33 0 0.82 5 02:56 14.04.2020
4950 Clouds 3 1014 33 0 0.77 4 01:46 14.04.2020
4951 Clouds 3 1014 33 0 0.77 4 01:24 14.04.2020
4952 Clouds 3 1014 33 0 0.77 4 00:38 14.04.2020
4953 Clouds 1 1013 36 0 0.83 12 00:18 14.04.2020
4954 Clouds 1 1013 36 0 0.83 12 23:44 13.04.2020
4955 Clouds 1 1013 36 0 0.83 12 23:25 13.04.2020
4956 Clouds 1 1013 36 0 0.83 12 22:57 13.04.2020
4957 Clouds 1 1013 36 0 0.83 12 22:39 13.04.2020
4958 Clouds 1 1013 36 0 0.83 12 22:20 13.04.2020
4959 Clouds 1 1013 36 0 0.83 12 21:55 13.04.2020
4960 Clouds 1 1013 36 0 0.83 12 21:37 13.04.2020
4961 Clouds 3 1012 33 0 0.31 318 21:18 13.04.2020
4962 Clouds 3 1012 33 0 0.31 318 20:41 13.04.2020
4963 Clouds 3 1012 33 0 0.31 318 20:20 13.04.2020
4964 -273 0 0 0 0 0 20:00 13.04.2020
4965 -273 0 0 0 0 0 20:00 13.04.2020
4966 Clouds 3 1012 33 0 0.31 318 19:38 13.04.2020
4967 Clouds 3 1012 33 0 0.31 318 19:19 13.04.2020
4968 Clouds 3 1012 33 0 0.31 318 19:19 13.04.2020
4969 Clouds 3 1012 33 0 0.31 318 18:59 13.04.2020
4970 Clouds 3 1012 33 0 0.31 318 18:39 13.04.2020
4971 Clouds 4 1012 31 0 1.01 359 18:20 13.04.2020
4972 Clouds 4 1012 31 0 1.01 359 17:58 13.04.2020
4973 Clouds 4 1012 31 0 1.01 359 17:38 13.04.2020
4974 Clouds 4 1012 31 0 1.01 359 17:19 13.04.2020
4975 Clouds 4 1012 31 0 1.01 359 16:58 13.04.2020
4976 Clouds 4 1012 31 0 1.01 359 16:40 13.04.2020
4977 Clouds 4 1012 31 0 1.01 359 16:20 13.04.2020
4978 Clouds 4 1012 31 0 1.01 359 15:57 13.04.2020
4979 Clouds 4 1012 31 0 1.01 359 15:39 13.04.2020
4980 Clouds 7 1010 26 0 2.64 284 15:20 13.04.2020
4981 Clouds 7 1010 26 0 2.64 284 14:54 13.04.2020
4982 Clouds 7 1010 26 0 2.64 284 14:36 13.04.2020
4983 Clouds 6 1010 27 0 2.51 283 14:18 13.04.2020
4984 Clouds 6 1010 27 0 2.51 283 13:54 13.04.2020
4985 Clouds 6 1010 27 0 2.46 283 13:36 13.04.2020
4986 Clouds 6 1010 27 0 2.51 283 13:18 13.04.2020
4987 Clouds 6 1010 27 0 2.51 283 12:40 13.04.2020
4988 Clouds 10 1008 22 0 4.06 278 12:21 13.04.2020
4989 Clouds 10 1008 22 0 4.06 278 12:21 13.04.2020
4990 Clouds 10 1008 22 0 4.06 278 11:59 13.04.2020
4991 Clouds 10 1008 22 0 4.06 278 11:41 13.04.2020
4992 Clouds 10 1008 22 0 4.06 278 11:18 13.04.2020
4993 Clouds 10 1008 22 0 4.06 278 11:18 13.04.2020
4994 Clouds 10 1008 22 0 4.06 278 11:18 13.04.2020
4995 Clouds 10 1008 22 0 4.06 278 10:55 13.04.2020
4996 Clouds 10 1008 22 0 4.06 278 10:37 13.04.2020
4997 Clouds 10 1008 22 0 4.06 278 10:18 13.04.2020
4998 Clouds 10 1009 22 0 4.38 280 09:44 13.04.2020
4999 Clouds 10 1010 22 0 3.85 267 09:26 13.04.2020
5000 Clouds 10 1010 22 0 3.85 267 08:48 13.04.2020
5001 Clouds 10 1010 22 0 3.85 267 08:48 13.04.2020
5002 Clouds 10 1010 22 0 3.85 267 08:29 13.04.2020
5003 Clouds 10 1010 22 0 3.85 267 07:58 13.04.2020
5004 Clouds 10 1010 22 0 3.85 267 07:38 13.04.2020
5005 Clouds 10 1010 22 0 3.85 267 07:20 13.04.2020
5006 Clouds 10 1010 22 0 3.85 267 06:47 13.04.2020
5007 Clear 7 1012 25 0 1.5 195 05:56 13.04.2020
5008 Clear 7 1012 25 0 1.5 195 05:28 13.04.2020
5009 Clear 7 1012 25 0 1.5 195 04:52 13.04.2020
5010 Clear 7 1012 25 0 1.5 195 04:22 13.04.2020
5011 Clear 7 1012 25 0 1.5 195 03:45 13.04.2020
5012 Clouds 2 1015 32 0 1.94 133 02:50 13.04.2020
5013 Clouds 2 1015 33 0 1.99 130 01:54 13.04.2020
5014 Clouds 2 1015 33 0 1.99 130 01:35 13.04.2020
5015 Clouds 2 1015 33 0 1.99 130 00:55 13.04.2020
5016 Clouds 2 1015 33 0 1.99 130 00:36 13.04.2020
5017 Clouds 2 1014 33 0 2.21 145 00:18 13.04.2020
5018 Clouds 2 1014 33 0 2.21 145 23:42 12.04.2020
5019 Clouds 2 1014 33 0 2.21 145 23:22 12.04.2020
5020 Clouds 2 1014 33 0 2.21 145 22:55 12.04.2020
5021 Clouds 2 1014 33 0 2.21 145 22:36 12.04.2020
5022 Clouds 2 1014 33 0 2.21 145 22:18 12.04.2020
5023 Clouds 1 1015 33 0 2.03 153 21:39 12.04.2020
5024 Clouds 2 1017 31 0 2.28 166 21:20 12.04.2020
5025 Clouds 2 1017 31 0 2.28 166 21:20 12.04.2020
5026 Clouds 2 1017 31 0 2.28 166 20:56 12.04.2020
5027 Clouds 2 1017 31 0 2.28 166 20:37 12.04.2020
5028 Clouds 2 1017 31 0 2.28 166 20:37 12.04.2020
5029 Clouds 2 1017 31 0 2.28 166 20:19 12.04.2020
5030 Clouds 2 1017 31 0 2.28 166 19:41 12.04.2020
5031 Clouds 2 1017 31 0 2.28 166 19:20 12.04.2020
5032 Clouds 2 1017 31 0 2.28 166 18:59 12.04.2020
5033 Clouds 2 1017 31 0 2.28 166 18:40 12.04.2020
5034 Clouds 3 1017 28 0 2.75 153 18:20 12.04.2020
5035 Clouds 3 1017 28 0 2.75 153 18:20 12.04.2020
5036 Clouds 3 1017 28 0 2.75 153 17:56 12.04.2020
5037 Clouds 3 1017 28 0 2.75 153 17:38 12.04.2020
5038 Clouds 3 1017 28 0 2.75 153 17:18 12.04.2020
5039 Clouds 3 1017 28 0 2.75 153 16:54 12.04.2020
5040 Clouds 3 1017 28 0 2.75 153 16:54 12.04.2020
5041 Clouds 3 1017 28 0 2.75 153 16:36 12.04.2020
5042 Clouds 3 1017 28 0 2.75 153 16:18 12.04.2020
5043 Clouds 3 1017 28 0 2.75 153 15:41 12.04.2020
5044 Clouds 5 1016 26 0 1.87 235 15:21 12.04.2020
5045 Clouds 5 1016 25 0 2.09 212 14:39 12.04.2020
5046 Clouds 5 1016 25 0 2.09 212 14:21 12.04.2020
5047 Clouds 5 1016 25 0 2.09 212 13:58 12.04.2020
5048 Clouds 5 1016 25 0 2.09 212 13:58 12.04.2020
5049 Clouds 5 1016 25 0 2.09 212 13:37 12.04.2020
5050 Clouds 5 1016 25 0 2.09 212 13:19 12.04.2020
5051 Clouds 5 1016 25 0 2.09 212 12:46 12.04.2020
5052 Clouds 10 1016 21 0 4.08 249 12:22 12.04.2020
5053 Clouds 10 1016 21 0 4.08 249 11:59 12.04.2020
5054 Clouds 10 1016 21 0 4.08 249 11:38 12.04.2020
5055 Clouds 10 1016 21 0 4.08 249 11:19 12.04.2020
5056 Clouds 10 1016 21 0 4.08 249 10:56 12.04.2020
5057 Clouds 10 1016 21 0 4.08 249 10:38 12.04.2020
5058 Clouds 10 1016 21 0 4.08 249 10:20 12.04.2020
5059 Clouds 10 1016 21 0 4.08 249 09:56 12.04.2020
5060 Clouds 10 1016 21 0 4.08 249 09:37 12.04.2020
5061 Clouds 9 1018 22 0 4.27 200 09:19 12.04.2020
5062 Clouds 9 1018 22 0 4.27 200 08:50 12.04.2020
5063 Clouds 9 1018 22 0 4.27 200 08:30 12.04.2020
5064 Clouds 9 1018 22 0 4.27 200 07:47 12.04.2020
5065 Clouds 9 1018 22 0 4.27 200 07:19 12.04.2020
5066 Clouds 9 1018 22 0 4.27 200 06:54 12.04.2020
5067 Clouds 7 1021 25 0 2.74 166 06:26 12.04.2020
5068 Clouds 7 1021 25 0 2.74 166 05:42 12.04.2020
5069 Clouds 7 1021 25 0 2.74 166 04:26 12.04.2020
5070 Clouds 1 1023 32 0 2.6 137 03:29 12.04.2020
5071 Clouds 1 1023 32 0 2.6 137 02:48 12.04.2020
5072 Clouds 1 1023 32 0 2.6 137 02:27 12.04.2020
5073 Clouds 1 1023 32 0 2.32 130 01:22 12.04.2020
5074 Clouds 1 1023 32 0 2.32 130 01:22 12.04.2020
5075 Clouds 1 1023 32 0 2.32 130 00:43 12.04.2020
5076 Clouds 1 1022 33 0 2.18 133 00:21 12.04.2020
5077 Clouds 1 1022 33 0 2.18 133 00:21 12.04.2020
5078 Clouds 1 1022 33 0 2.18 133 23:47 11.04.2020
5079 Clouds 1 1022 33 0 2.18 133 23:26 11.04.2020
5080 Clouds 1 1022 33 0 2.18 133 22:59 11.04.2020
5081 Clouds 1 1022 33 0 2.18 133 22:37 11.04.2020
5082 Clouds 1 1022 33 0 2.18 133 22:18 11.04.2020
5083 Clouds 1 1022 33 0 2.18 133 21:55 11.04.2020
5084 Clouds 1 1022 33 0 2.18 133 21:36 11.04.2020
5085 Clouds 2 1023 32 0 1.79 127 21:18 11.04.2020
5086 Clouds 2 1023 32 0 1.79 127 20:55 11.04.2020
5087 Clouds 2 1023 32 0 1.79 127 20:37 11.04.2020
5088 Clouds 2 1023 32 0 1.79 127 20:37 11.04.2020
5089 Clouds 2 1023 32 0 1.79 127 20:19 11.04.2020
5090 Clouds 2 1023 32 0 1.79 127 19:56 11.04.2020
5091 Clouds 2 1023 32 0 1.79 127 19:56 11.04.2020
5092 Clouds 2 1023 32 0 1.79 127 19:37 11.04.2020
5093 Clouds 2 1023 32 0 1.79 127 19:37 11.04.2020
5094 Clouds 2 1023 32 0 1.79 127 19:18 11.04.2020
5095 Clouds 2 1023 32 0 1.79 127 19:18 11.04.2020
5096 Clouds 2 1023 32 0 1.79 127 18:55 11.04.2020
5097 Clouds 2 1023 32 0 1.79 127 18:36 11.04.2020
5098 Clouds 3 1022 30 0 1.5 139 18:18 11.04.2020
5099 Clouds 3 1022 30 0 1.5 139 17:56 11.04.2020
5100 Clouds 3 1022 30 0 1.5 139 17:36 11.04.2020
5101 Clouds 3 1022 30 0 1.5 139 17:18 11.04.2020
5102 Clouds 3 1022 30 0 1.5 139 16:42 11.04.2020
5103 Clouds 3 1022 30 0 1.5 139 16:21 11.04.2020
5104 Clouds 3 1022 30 0 1.5 139 15:41 11.04.2020
5105 Clouds 5 1021 28 0 1.66 152 15:20 11.04.2020
5106 Clouds 5 1021 28 0 1.66 152 14:57 11.04.2020
5107 Clouds 5 1020 28 0 0.97 158 14:39 11.04.2020
5108 Clouds 5 1020 28 0 0.97 158 14:20 11.04.2020
5109 Clouds 5 1020 28 0 0.97 158 14:20 11.04.2020
5110 Clouds 5 1020 28 0 0.97 158 13:42 11.04.2020
5111 Clouds 5 1020 28 0 0.97 158 13:24 11.04.2020
5112 Clouds 5 1020 28 0 0.97 158 12:59 11.04.2020
5113 Clouds 5 1020 28 0 0.97 158 12:37 11.04.2020
5114 Clouds 9 1019 22 0 2.95 163 12:18 11.04.2020
5115 Clouds 9 1019 22 0 2.95 163 11:42 11.04.2020
5116 Clouds 9 1019 22 0 2.95 163 11:20 11.04.2020
5117 Clouds 9 1019 22 0 2.95 163 10:56 11.04.2020
5118 Clouds 9 1019 22 0 2.95 163 10:37 11.04.2020
5119 Clouds 9 1019 22 0 2.95 163 10:19 11.04.2020
5120 Clouds 9 1019 22 0 2.95 163 09:57 11.04.2020
5121 Clouds 9 1019 22 0 2.95 163 09:37 11.04.2020
5122 Clouds 9 1019 22 0 2.95 163 09:37 11.04.2020
5123 Clouds 7 1022 29 0 2 156 09:18 11.04.2020
5124 Clouds 7 1022 29 0 2 156 08:42 11.04.2020
5125 Clouds 7 1022 29 0 2 156 08:23 11.04.2020
5126 Clouds 7 1022 29 0 2 156 07:48 11.04.2020
5127 Clouds 7 1022 29 0 2 156 07:27 11.04.2020
5128 Clouds 7 1022 29 0 2 156 06:42 11.04.2020
5129 Clouds 6 1025 29 0 1.97 148 05:58 11.04.2020
5130 Clouds 6 1025 29 0 1.97 148 04:31 11.04.2020
5131 Clouds 6 1025 29 0 1.97 148 03:30 11.04.2020
5132 Clouds 1 1027 35 0 2.35 122 01:48 11.04.2020
5133 Clouds 1 1027 35 0 2.35 122 01:19 11.04.2020
5134 Clouds 1 1027 35 0 2.35 122 00:42 11.04.2020
5135 Clouds 0 1026 36 0 2.4 120 00:19 11.04.2020
5136 Clouds 0 1026 36 0 2.4 120 23:55 10.04.2020
5137 Clouds 0 1026 36 0 2.4 120 23:36 10.04.2020
5138 Clouds 0 1026 36 0 2.4 120 23:36 10.04.2020
5139 Clouds 0 1026 36 0 2.4 120 23:18 10.04.2020
5140 Clouds 0 1026 36 0 2.4 120 22:42 10.04.2020
5141 Clouds 0 1026 36 0 2.4 120 22:20 10.04.2020
5142 Clouds 0 1026 36 0 2.4 120 21:42 10.04.2020
5143 Clouds 0 1027 36 0 2.62 125 21:22 10.04.2020
5144 Clouds 0 1027 36 0 2.62 125 20:59 10.04.2020
5145 Clouds 0 1027 36 0 2.62 125 20:41 10.04.2020
5146 Clouds 0 1027 36 0 2.62 125 20:23 10.04.2020
5147 Clouds 0 1027 36 0 2.62 125 19:57 10.04.2020
5148 Clouds 0 1027 36 0 2.62 125 19:39 10.04.2020
5149 Clouds 0 1027 36 0 2.62 125 19:19 10.04.2020
5150 Clouds 0 1027 36 0 2.62 125 18:56 10.04.2020
5151 Clouds 0 1027 36 0 2.62 125 18:38 10.04.2020
5152 Clouds 0 1027 36 0 2.62 125 18:38 10.04.2020
5153 Clouds 1 1027 34 0 3.03 122 18:20 10.04.2020
5154 Clouds 1 1027 34 0 3.03 122 17:58 10.04.2020
5155 Clouds 1 1027 34 0 3.03 122 17:39 10.04.2020
5156 Clouds 1 1027 34 0 3.03 122 17:19 10.04.2020
5157 Clouds 1 1027 34 0 3.03 122 16:46 10.04.2020
5158 Clouds 1 1027 34 0 3.03 122 16:24 10.04.2020
5159 Clouds 1 1027 34 0 3.03 122 15:59 10.04.2020
5160 Clouds 1 1027 34 0 3.03 122 15:40 10.04.2020
5161 Clear 2 1025 33 0 2.47 113 15:22 10.04.2020
5162 Clear 2 1025 33 0 2.47 113 15:00 10.04.2020
5163 Clear 2 1025 33 0 2.47 113 14:41 10.04.2020
5164 Clear 3 1025 33 0 2.54 114 14:23 10.04.2020
5165 Clear 3 1025 33 0 2.54 114 13:57 10.04.2020
5166 Clear 3 1025 33 0 2.54 114 13:39 10.04.2020
5167 Clear 3 1025 33 0 2.54 114 13:20 10.04.2020
5168 Clear 3 1025 33 0 2.54 114 12:42 10.04.2020
5169 Clear 7 1023 27 0 2.47 139 12:22 10.04.2020
5170 Clear 7 1023 27 0 2.47 139 11:55 10.04.2020
5171 Clear 7 1023 27 0 2.47 139 11:36 10.04.2020
5172 Clear 7 1023 27 0 2.47 139 11:36 10.04.2020
5173 Clear 7 1023 27 0 2.47 139 11:18 10.04.2020
5174 Clear 7 1023 27 0 2.47 139 10:42 10.04.2020
5175 Clear 7 1023 27 0 2.47 139 10:22 10.04.2020
5176 Clear 7 1023 27 0 2.47 139 09:45 10.04.2020
5177 Clear 6 1025 29 0 2.44 148 09:25 10.04.2020
5178 Clear 6 1025 29 0 2.44 148 08:56 10.04.2020
5179 Clear 6 1025 29 0 2.44 148 08:38 10.04.2020
5180 Clear 6 1025 29 0 2.44 148 08:38 10.04.2020
5181 Clear 6 1025 29 0 2.44 148 08:18 10.04.2020
5182 Clear 6 1025 29 0 2.44 148 07:44 10.04.2020
5183 Clear 6 1025 29 0 2.44 148 07:22 10.04.2020
5184 Clear 6 1025 29 0 2.44 148 06:45 10.04.2020
5185 Clear 4 1028 32 0 2.29 131 06:25 10.04.2020
5186 Clear 4 1028 32 0 2.29 131 05:38 10.04.2020
5187 Clear 4 1028 32 0 2.29 131 04:57 10.04.2020
5188 Clear 4 1028 32 0 2.29 131 03:41 10.04.2020
5189 Clear -3 1031 41 0 2.64 112 02:59 10.04.2020
5190 Clear -3 1031 41 0 2.64 112 02:38 10.04.2020
5191 Clear -3 1031 41 0 2.67 112 02:19 10.04.2020
5192 Clear -3 1031 41 0 2.67 112 01:29 10.04.2020
5193 Clear -3 1031 41 0 2.67 112 00:49 10.04.2020
5194 Clear -3 1030 42 0 2.84 116 00:23 10.04.2020
5195 Clear -3 1030 42 0 2.84 116 23:44 09.04.2020
5196 Clear -3 1030 42 0 2.84 116 23:26 09.04.2020
5197 Clear -3 1030 42 0 2.84 116 22:59 09.04.2020
5198 Clear -3 1030 42 0 2.84 116 22:40 09.04.2020
5199 Clear -3 1030 42 0 2.84 116 22:22 09.04.2020
5200 Clear -3 1030 42 0 2.84 116 21:45 09.04.2020
5201 Clear -3 1030 43 0 2.76 117 21:26 09.04.2020
5202 Clear -3 1030 43 0 2.76 117 20:57 09.04.2020
5203 Clear -3 1030 43 0 2.76 117 20:38 09.04.2020
5204 Clear -3 1030 43 0 2.76 117 20:19 09.04.2020
5205 Clear -3 1030 43 0 2.76 117 19:41 09.04.2020
5206 Clear -3 1030 43 0 2.76 117 19:23 09.04.2020
5207 Clear -3 1030 43 0 2.76 117 18:59 09.04.2020
5208 Clear -3 1030 43 0 2.76 117 18:40 09.04.2020
5209 Clear -2 1028 43 0 3 115 18:18 09.04.2020
5210 Clear -2 1028 43 0 3 115 17:40 09.04.2020
5211 Clear -2 1028 43 0 3 115 17:21 09.04.2020
5212 Clear -2 1028 43 0 3 115 16:42 09.04.2020
5213 Clear -2 1028 43 0 3 115 16:23 09.04.2020
5214 Clear -2 1028 43 0 3 115 15:58 09.04.2020
5215 Clear -2 1028 43 0 3 115 15:39 09.04.2020
5216 Clear -2 1028 43 0 3 115 15:39 09.04.2020
5217 Clear -2 1028 43 0 3 115 15:39 09.04.2020
5218 Clear -2 1028 43 0 3 115 15:39 09.04.2020
5219 Clear 0 1024 38 0 3.15 134 15:21 09.04.2020
5220 Clear 0 1024 38 0 3.15 134 14:59 09.04.2020
5221 Clear 0 1024 38 0 3.15 134 14:39 09.04.2020
5222 Clear 0 1024 38 0 3.03 133 14:20 09.04.2020
5223 Clear 0 1024 38 0 3.03 133 13:42 09.04.2020
5224 Clear 0 1024 38 0 3.03 133 13:24 09.04.2020
5225 Clear 0 1024 38 0 3.03 133 12:59 09.04.2020
5226 Clear 0 1024 38 0 3.03 133 12:39 09.04.2020
5227 Clear 5 1022 30 0 2.6 133 12:21 09.04.2020
5228 Clear 5 1022 30 0 2.6 133 11:55 09.04.2020
5229 Clear 5 1022 30 0 2.6 133 11:36 09.04.2020
5230 Clear 5 1022 30 0 2.6 133 11:18 09.04.2020
5231 Clear 5 1022 30 0 2.6 133 10:41 09.04.2020
5232 Clear 5 1022 30 0 2.6 133 10:22 09.04.2020
5233 Clear 5 1022 30 0 2.6 133 09:58 09.04.2020
5234 Clear 5 1022 31 0 2.57 134 09:40 09.04.2020
5235 Clear 4 1023 32 0 2.52 127 09:21 09.04.2020
5236 Clear 4 1023 32 0 2.52 127 09:21 09.04.2020
5237 Clear 4 1023 32 0 2.52 127 08:56 09.04.2020
5238 Clear 4 1023 32 0 2.52 127 08:37 09.04.2020
5239 Clear 4 1023 32 0 2.52 127 08:18 09.04.2020
5240 Clear 4 1023 32 0 2.52 127 07:37 09.04.2020
5241 Clear 4 1023 32 0 2.52 127 07:18 09.04.2020
5242 Clear 4 1023 32 0 2.52 127 06:35 09.04.2020
5243 Clear 0 1026 39 0 2.92 100 05:49 09.04.2020
5244 Clear 0 1026 39 0 2.92 100 05:24 09.04.2020
5245 Clouds -5 1029 54 0 3.51 74 02:36 09.04.2020
5246 Clouds -5 1029 54 0 3.53 71 01:46 09.04.2020
5247 Clouds -5 1029 54 0 3.53 71 01:27 09.04.2020
5248 Clouds -5 1029 54 0 3.53 71 00:54 09.04.2020
5249 Clouds -5 1029 54 0 3.53 71 00:36 09.04.2020
5250 Clouds -5 1026 53 0 3.34 64 00:18 09.04.2020
5251 Clouds -5 1026 53 0 3.34 64 00:18 09.04.2020
5252 Clouds -5 1026 53 0 3.34 64 23:41 08.04.2020
5253 Clouds -5 1026 53 0 3.34 64 23:41 08.04.2020
5254 Clouds -5 1026 53 0 3.34 64 23:22 08.04.2020
5255 Clouds -5 1026 53 0 3.34 64 22:44 08.04.2020
5256 Clouds -5 1026 53 0 3.34 64 22:25 08.04.2020
5257 Clouds -5 1026 53 0 3.34 64 21:57 08.04.2020
5258 Clouds -5 1026 53 0 3.34 64 21:57 08.04.2020
5259 Clouds -5 1026 53 0 3.34 64 21:39 08.04.2020
5260 Clear -4 1025 51 0 3.34 58 21:21 08.04.2020
5261 Clear -4 1025 51 0 3.34 58 20:59 08.04.2020
5262 Clear -4 1025 51 0 3.34 58 20:40 08.04.2020
5263 Clear -4 1025 51 0 3.34 58 20:21 08.04.2020
5264 Clear -4 1025 51 0 3.34 58 19:59 08.04.2020
5265 Clear -4 1025 51 0 3.34 58 19:38 08.04.2020
5266 Clear -4 1025 51 0 3.34 58 19:20 08.04.2020
5267 Clear -4 1025 51 0 3.34 58 18:45 08.04.2020
5268 Clear -4 1025 51 0 3.34 58 18:45 08.04.2020
5269 Clear -2 1023 44 0 2.75 57 18:26 08.04.2020
5270 Clear -2 1023 44 0 2.75 57 17:56 08.04.2020
5271 Clear -2 1023 44 0 2.75 57 17:38 08.04.2020
5272 Clear -2 1023 44 0 2.75 57 17:19 08.04.2020
5273 Clear -2 1023 44 0 2.75 57 16:43 08.04.2020
5274 Clear -2 1023 44 0 2.75 57 16:24 08.04.2020
5275 Clear -2 1023 44 0 2.75 57 15:59 08.04.2020
5276 Clear -2 1023 44 0 2.75 57 15:38 08.04.2020
5277 Clear 1 1019 38 0 1.98 56 15:20 08.04.2020
5278 Clear 1 1019 38 0 1.98 56 14:45 08.04.2020
5279 Clear 1 1019 37 0 1.75 53 14:25 08.04.2020
5280 Clear 1 1019 37 0 1.75 53 13:57 08.04.2020
5281 Clear 1 1019 37 0 1.75 53 13:39 08.04.2020
5282 Clear 1 1019 37 0 1.75 53 13:20 08.04.2020
5283 Clear 1 1019 37 0 1.75 53 12:42 08.04.2020
5284 Clear 6 1016 30 0 1.38 357 12:19 08.04.2020
5285 Clear 6 1016 30 0 1.38 357 11:58 08.04.2020
5286 Clear 6 1016 30 0 1.38 357 11:39 08.04.2020
5287 Clear 6 1016 30 0 1.38 357 11:21 08.04.2020
5288 Clear 6 1016 30 0 1.38 357 10:56 08.04.2020
5289 Clear 6 1016 30 0 1.38 357 10:56 08.04.2020
5290 Clear 6 1016 30 0 1.38 357 10:56 08.04.2020
5291 Clear 6 1016 30 0 1.38 357 10:37 08.04.2020
5292 Clear 6 1016 30 0 1.38 357 10:18 08.04.2020
5293 Clear 6 1016 30 0 1.38 357 09:55 08.04.2020
5294 Clear 6 1016 30 0 1.38 357 09:36 08.04.2020
5295 Clear 5 1018 31 0 0.88 340 09:18 08.04.2020
5296 Clear 5 1018 31 0 0.88 340 08:42 08.04.2020
5297 Clear 5 1018 31 0 0.88 340 08:22 08.04.2020
5298 Clear 5 1018 31 0 0.88 340 07:44 08.04.2020
5299 Clear 5 1018 31 0 0.88 340 07:25 08.04.2020
5300 Clear 5 1018 31 0 0.88 340 06:56 08.04.2020
5301 Clear 3 1021 33 0 0.49 69 05:56 08.04.2020
5302 Clear 3 1021 33 0 0.49 69 03:49 08.04.2020
5303 Clear -3 1023 45 0 1.53 84 02:49 08.04.2020
5304 Clear -3 1023 45 0 1.6 83 02:19 08.04.2020
5305 Clear -3 1023 45 0 1.6 83 01:43 08.04.2020
5306 Clear -3 1023 45 0 1.6 83 01:22 08.04.2020
5307 Clear -3 1023 45 0 1.6 83 00:41 08.04.2020
5308 Clear -4 1022 46 0 1.71 77 00:21 08.04.2020
5309 Clear -4 1022 46 0 1.71 77 23:39 07.04.2020
5310 Clear -4 1022 46 0 1.71 77 23:20 07.04.2020
5311 Clear -4 1022 46 0 1.71 77 22:57 07.04.2020
5312 Clear -4 1022 46 0 1.71 77 22:57 07.04.2020
5313 Clear -4 1022 46 0 1.71 77 22:39 07.04.2020
5314 Clear -4 1022 46 0 1.71 77 22:19 07.04.2020
5315 Clear -4 1022 46 0 1.71 77 21:56 07.04.2020
5316 Clear -4 1022 46 0 1.71 77 21:56 07.04.2020
5317 Clear -4 1023 47 0 1.69 78 21:38 07.04.2020
5318 Clear -4 1023 45 0 1.84 77 21:19 07.04.2020
5319 Clear -4 1023 45 0 1.84 77 20:55 07.04.2020
5320 Clear -4 1023 45 0 1.84 77 20:37 07.04.2020
5321 Clear -4 1023 45 0 1.84 77 20:18 07.04.2020
5322 Clear -4 1023 45 0 1.84 77 20:18 07.04.2020
5323 Clear -4 1023 45 0 1.84 77 19:55 07.04.2020
5324 Clear -4 1023 45 0 1.84 77 19:36 07.04.2020
5325 Clear -4 1023 45 0 1.84 77 19:18 07.04.2020
5326 Clear -4 1023 45 0 1.84 77 18:42 07.04.2020
5327 Clear -3 1023 42 0 1.99 72 18:21 07.04.2020
5328 Clear -3 1023 42 0 1.99 72 17:59 07.04.2020
5329 Clear -3 1023 42 0 1.99 72 17:40 07.04.2020
5330 Clear -3 1023 42 0 1.99 72 17:20 07.04.2020
5331 Clear -3 1023 42 0 1.99 72 17:20 07.04.2020
5332 Clear -3 1023 42 0 1.99 72 16:45 07.04.2020
5333 Clear -3 1023 42 0 1.99 72 16:26 07.04.2020
5334 Clear -3 1023 42 0 1.99 72 15:47 07.04.2020
5335 Clear -1 1020 40 0 1.66 64 15:27 07.04.2020
5336 Clear -1 1020 40 0 1.66 64 14:58 07.04.2020
5337 Clear -1 1020 40 0 1.66 64 14:39 07.04.2020
5338 Clear -1 1020 40 0 1.58 64 14:20 07.04.2020
5339 Clear -1 1020 40 0 1.58 64 13:54 07.04.2020
5340 Clear -1 1020 40 0 1.58 64 13:36 07.04.2020
5341 Clear -1 1020 40 0 1.58 64 13:18 07.04.2020
5342 Clear -1 1020 40 0 1.58 64 12:40 07.04.2020
5343 Clear 5 1018 30 0 1.27 16 12:22 07.04.2020
5344 Clear 5 1018 30 0 1.27 16 11:59 07.04.2020
5345 Clear 5 1018 30 0 1.27 16 11:41 07.04.2020
5346 Clear 5 1018 30 0 1.27 16 11:21 07.04.2020
5347 Clear 5 1018 30 0 1.27 16 10:56 07.04.2020
5348 Clear 5 1018 30 0 1.27 16 10:37 07.04.2020
5349 Clear 5 1018 30 0 1.27 16 10:18 07.04.2020
5350 Clear 5 1018 30 0 1.27 16 09:44 07.04.2020
5351 Clear 3 1019 33 0 0.35 311 09:18 07.04.2020
5352 Clear 3 1019 33 0 0.35 311 08:42 07.04.2020
5353 Clear 3 1019 33 0 0.35 311 08:24 07.04.2020
5354 Clear 3 1019 33 0 0.35 311 07:58 07.04.2020
5355 Clear 3 1019 33 0 0.35 311 07:40 07.04.2020
5356 Clear 3 1019 33 0 0.35 311 07:21 07.04.2020
5357 Clear 3 1019 33 0 0.35 311 06:48 07.04.2020
5358 Clear 0 1023 38 0 0.91 76 06:20 07.04.2020
5359 Clear 0 1023 38 0 0.91 76 05:32 07.04.2020
5360 Clear 0 1023 38 0 0.91 76 04:35 07.04.2020
5361 Clear -6 1025 51 0 1.62 86 03:24 07.04.2020
5362 Clear -6 1025 51 0 1.62 86 02:48 07.04.2020
5363 Clear -6 1025 51 0 1.6 86 01:47 07.04.2020
5364 Clear -6 1025 51 0 1.6 86 01:23 07.04.2020
5365 Clear -7 1024 53 0 1.32 90 00:27 07.04.2020
5366 Clear -7 1024 53 0 1.32 90 23:44 06.04.2020
5367 Clear -7 1024 53 0 1.32 90 23:23 06.04.2020
5368 Clear -7 1024 53 0 1.32 90 22:58 06.04.2020
5369 Clear -7 1024 53 0 1.32 90 22:38 06.04.2020
5370 Clear -7 1024 53 0 1.32 90 22:20 06.04.2020
5371 Clear -7 1024 53 0 1.32 90 21:57 06.04.2020
5372 Clear -7 1024 53 0 1.32 90 21:38 06.04.2020
5373 Clouds -6 1024 51 0 1.37 105 21:18 06.04.2020
5374 Clouds -6 1024 51 0 1.37 105 20:54 06.04.2020
5375 Clouds -6 1024 51 0 1.37 105 20:36 06.04.2020
5376 Clouds -6 1024 51 0 1.37 105 20:18 06.04.2020
5377 Clouds -6 1024 51 0 1.37 105 19:40 06.04.2020
5378 Clouds -6 1024 51 0 1.37 105 19:22 06.04.2020
5379 Clouds -6 1024 51 0 1.37 105 18:57 06.04.2020
5380 Clouds -6 1024 51 0 1.37 105 18:39 06.04.2020
5381 Clear -5 1023 50 0 1.44 106 18:20 06.04.2020
5382 Clear -5 1023 50 0 1.44 106 17:42 06.04.2020
5383 Clear -5 1023 50 0 1.44 106 17:20 06.04.2020
5384 Clear -5 1023 50 0 1.44 106 17:20 06.04.2020
5385 Clear -5 1023 50 0 1.44 106 17:20 06.04.2020
5386 Clear -5 1023 50 0 1.44 106 16:50 06.04.2020
5387 Clear -5 1023 50 0 1.44 106 16:31 06.04.2020
5388 Clear -5 1023 50 0 1.44 106 15:41 06.04.2020
5389 Clear -4 1021 48 0 1.11 110 13:46 06.04.2020
5390 Clear -4 1021 48 0 1.11 110 13:24 06.04.2020
5391 -273 0 0 0 0 0 13:00 06.04.2020
5392 Clear -4 1021 48 0 1.11 110 12:59 06.04.2020
5393 -273 0 0 0 0 0 12:58 06.04.2020
5394 -273 0 0 0 0 0 12:58 06.04.2020
5395 Clear -4 1021 48 0 1.11 110 12:22 06.04.2020
5396 Clear -4 1021 48 0 1.11 110 12:22 06.04.2020
5397 Clear 2 1017 36 0 0.48 222 11:54 06.04.2020
5398 Clear 2 1017 36 0 0.48 222 11:32 06.04.2020
5399 Clear 2 1017 36 0 0.48 222 11:32 06.04.2020
5400 Clear 2 1017 36 0 0.48 222 11:32 06.04.2020
5401 Clear 2 1017 36 0 0.48 222 11:32 06.04.2020
5402 Clear 2 1017 36 0 0.48 222 10:51 06.04.2020
5403 Clear 2 1017 36 0 0.48 222 10:51 06.04.2020
5404 Clear 2 1017 36 0 0.48 222 10:51 06.04.2020
5405 Clear 2 1017 36 0 0.48 222 10:51 06.04.2020
5406 Clear 2 1017 36 0 0.48 222 10:51 06.04.2020
5407 Clear 2 1017 36 0 0.48 222 10:21 06.04.2020
5408 Clear 2 1017 36 0 0.48 222 09:47 06.04.2020
5409 Clear 2 1017 36 0 0.48 222 09:47 06.04.2020
5410 Clear 2 1017 36 0 0.48 222 09:47 06.04.2020
5411 Clear 2 1017 36 0 0.48 222 09:47 06.04.2020
5412 Clear 2 1017 36 0 0.48 222 09:47 06.04.2020
5413 Clear 2 1017 36 0 0.48 222 09:21 06.04.2020
5414 Clear 2 1017 36 0 0.48 222 09:21 06.04.2020
5415 Clear 2 1018 35 0 1.47 244 08:54 06.04.2020
5416 Clear 2 1018 35 0 1.47 244 08:30 06.04.2020
5417 Clear 2 1018 35 0 1.47 244 07:30 06.04.2020
5418 Clear 2 1018 35 0 1.47 244 06:41 06.04.2020
5419 Clear 2 1018 35 0 1.47 244 06:22 06.04.2020
5420 Clear 0 1020 39 0 1.26 222 04:19 06.04.2020
5421 Clear -5 1022 47 0 1.37 184 02:57 06.04.2020
5422 Clear -5 1022 48 0 1.21 184 02:25 06.04.2020
5423 Clear -5 1022 48 0 1.21 184 01:23 06.04.2020
5424 Clear -5 1022 48 0 1.21 184 00:41 06.04.2020
5425 Clear -5 1022 48 0 1.21 184 00:21 06.04.2020
5426 Clear -5 1022 48 0 1.21 184 00:21 06.04.2020
5427 Clear -5 1022 48 0 1.21 184 00:21 06.04.2020
5428 Clear -5 1022 48 0 1.21 184 00:21 06.04.2020
5429 Clear -5 1020 46 0 1.92 176 23:43 05.04.2020
5430 Clear -5 1020 46 0 1.92 176 23:23 05.04.2020
5431 Clear -5 1020 46 0 1.92 176 23:23 05.04.2020
5432 Clear -5 1020 46 0 1.92 176 23:23 05.04.2020
5433 Clear -5 1020 46 0 1.92 176 22:55 05.04.2020
5434 Clear -5 1020 46 0 1.92 176 22:37 05.04.2020
5435 Clear -5 1020 46 0 1.92 176 22:18 05.04.2020
5436 Clear -5 1020 46 0 1.92 176 21:44 05.04.2020
5437 Clear -5 1020 46 0 1.92 176 21:44 05.04.2020
5438 Clear -5 1020 46 0 1.92 176 21:44 05.04.2020
5439 Clear -5 1020 46 0 2.01 171 21:23 05.04.2020
5440 Clear -4 1020 42 0 2.81 145 20:26 05.04.2020
5441 Clear -4 1020 42 0 2.81 145 20:26 05.04.2020
5442 Clear -4 1020 42 0 2.81 145 20:26 05.04.2020
5443 Clear -4 1020 42 0 2.81 145 19:45 05.04.2020
5444 Clear -4 1020 42 0 2.81 145 19:26 05.04.2020
5445 Clear -4 1020 42 0 2.81 145 18:50 05.04.2020
5446 Clear -4 1020 42 0 2.81 145 18:28 05.04.2020
5447 Clear -4 1020 42 0 2.81 145 18:28 05.04.2020
5448 Clear -4 1020 42 0 2.81 145 18:27 05.04.2020
5449 Clear -4 1020 42 0 2.81 145 18:27 05.04.2020
5450 Clear -4 1020 42 0 2.81 145 18:27 05.04.2020
5451 Clear -2 1018 40 0 2.94 138 17:49 05.04.2020
5452 Clear -2 1018 40 0 2.94 138 17:49 05.04.2020
5453 Clear -2 1018 40 0 2.94 138 17:49 05.04.2020
5454 Clear -2 1018 40 0 2.94 138 17:49 05.04.2020
5455 Clear -2 1018 40 0 2.94 138 17:49 05.04.2020
5456 Clear -2 1018 40 0 2.94 138 17:23 05.04.2020
5457 Clear -2 1018 40 0 2.94 138 16:47 05.04.2020
5458 Clear -2 1018 40 0 2.94 138 16:19 05.04.2020
5459 Clear -2 1018 40 0 2.94 138 15:46 05.04.2020
5460 Clear -2 1018 40 0 2.94 138 15:46 05.04.2020
5461 Clear -2 1018 40 0 2.94 138 15:28 05.04.2020
5462 Clear 0 1016 38 0 2.29 133 14:48 05.04.2020
5463 Clear 0 1016 38 0 2.29 133 14:48 05.04.2020
5464 Clear 0 1016 38 0 2.29 133 14:48 05.04.2020
5465 Clear 0 1016 38 0 2.29 133 14:48 05.04.2020
5466 Clear 0 1016 38 0 2.29 133 14:21 05.04.2020
5467 Clear 0 1016 38 0 2.29 133 14:21 05.04.2020
5468 Clear 0 1016 38 0 2.29 133 14:20 05.04.2020
5469 -273 0 0 0 0 0 14:20 05.04.2020
5470 Clear 0 1016 38 0 2.29 133 14:18 05.04.2020
5471 Clear -1 1016 39 0 2.48 129 13:40 05.04.2020
5472 Clear -1 1016 39 0 2.48 129 12:22 05.04.2020
5473 Clear -1 1016 39 0 2.48 129 12:21 05.04.2020
5474 Clear 5 1015 33 0 1.43 111 11:40 05.04.2020
5475 Clear 5 1015 33 0 1.43 111 11:20 05.04.2020
5476 Clear 5 1015 33 0 1.43 111 10:47 05.04.2020
5477 Clear 5 1015 33 0 1.43 111 10:23 05.04.2020
5478 Clear 5 1015 33 0 1.43 111 09:55 05.04.2020
5479 Clear 5 1015 31 0 1.65 123 09:27 05.04.2020
5480 Clear 5 1015 31 0 1.65 123 09:27 05.04.2020
5481 Clear 5 1017 32 0 1.55 158 08:34 05.04.2020
5482 Clear 5 1017 32 0 1.55 158 08:34 05.04.2020
5483 Clear 5 1017 32 0 1.55 158 08:34 05.04.2020
5484 Clear 5 1017 32 0 1.55 158 07:21 05.04.2020
5485 Clear 5 1017 32 0 1.55 158 07:21 05.04.2020
5486 Clear 5 1017 32 0 1.55 158 07:21 05.04.2020
5487 Clear 3 1021 34 0 1.7 143 04:32 05.04.2020
5488 Clear 3 1021 34 0 1.7 143 03:29 05.04.2020
5489 Clear -4 1025 41 0 2.04 121 02:46 05.04.2020
5490 Clear -4 1025 41 0 2.07 120 01:45 05.04.2020
5491 Clear -4 1025 41 0 2.07 120 01:23 05.04.2020
5492 Clear -4 1025 41 0 2.07 120 00:37 05.04.2020
5493 Clear -4 1025 41 0 1.96 109 00:19 05.04.2020
5494 Clear -4 1025 41 0 1.96 109 23:42 04.04.2020
5495 Clear -4 1025 41 0 1.96 109 23:22 04.04.2020
5496 Clear -4 1025 41 0 1.96 109 22:57 04.04.2020
5497 Clear -4 1025 41 0 1.96 109 22:39 04.04.2020
5498 Clear -4 1025 41 0 1.96 109 22:20 04.04.2020
5499 Clear -4 1025 41 0 1.96 109 21:57 04.04.2020
5500 Clear -4 1025 41 0 1.96 109 21:57 04.04.2020
5501 Clear -4 1025 41 0 1.96 109 21:39 04.04.2020
5502 Clear -4 1026 40 0 2.08 106 21:19 04.04.2020
5503 Clear -4 1027 41 0 2.11 103 20:55 04.04.2020
5504 Clear -4 1027 40 0 2.07 106 20:37 04.04.2020
5505 Clear -4 1027 41 0 2.11 103 20:19 04.04.2020
5506 Clear -4 1027 41 0 2.11 103 19:55 04.04.2020
5507 Clear -4 1027 41 0 2.11 103 19:36 04.04.2020
5508 Clear -4 1027 41 0 2.11 103 19:18 04.04.2020
5509 Clear -4 1027 41 0 2.11 103 18:54 04.04.2020
5510 Clear -4 1027 41 0 2.11 103 18:36 04.04.2020
5511 Clear -3 1027 40 0 2.01 99 18:18 04.04.2020
5512 Clear -3 1027 40 0 2.01 99 17:39 04.04.2020
5513 Clear -3 1027 40 0 2.01 99 17:20 04.04.2020
5514 Clear -3 1027 39 0 2 105 16:46 04.04.2020
5515 Clear -3 1027 40 0 2.01 99 16:28 04.04.2020
5516 Clear -3 1027 40 0 2.01 99 15:59 04.04.2020
5517 Clear -3 1027 40 0 2.01 99 15:39 04.04.2020
5518 Clear -3 1027 40 0 2.01 99 15:20 04.04.2020
5519 Clear -3 1027 40 0 2.01 99 15:20 04.04.2020
5520 Clouds -1 1025 39 0 1.42 97 14:56 04.04.2020
5521 Clouds -1 1025 38 0 1.52 103 14:38 04.04.2020
5522 Clouds -1 1025 38 0 1.52 103 14:20 04.04.2020
5523 Clouds -1 1025 38 0 1.52 103 13:54 04.04.2020
5524 Clouds -1 1025 38 0 1.52 103 13:36 04.04.2020
5525 Clouds -1 1025 38 0 1.52 103 13:18 04.04.2020
5526 Clouds -1 1025 38 0 1.52 103 12:42 04.04.2020
5527 Clouds -1 1025 38 0 1.52 103 12:23 04.04.2020
5528 Clouds 5 1024 31 0 0.61 67 11:54 04.04.2020
5529 Clouds 5 1024 31 0 0.61 67 11:36 04.04.2020
5530 Clouds 5 1024 31 0 0.61 67 11:18 04.04.2020
5531 Clouds 5 1024 31 0 0.61 67 10:55 04.04.2020
5532 Clouds 5 1024 31 0 0.61 67 10:37 04.04.2020
5533 Clouds 5 1024 31 0 0.61 67 10:18 04.04.2020
5534 Clouds 5 1024 31 0 0.61 67 09:42 04.04.2020
5535 Clouds 5 1024 31 0 0.61 67 09:24 04.04.2020
5536 Clouds 4 1026 42 0 0.07 292 08:56 04.04.2020
5537 Clouds 4 1026 42 0 0.07 292 08:37 04.04.2020
5538 Clouds 4 1026 42 0 0.07 292 08:19 04.04.2020
5539 Clouds 4 1026 42 0 0.07 292 07:40 04.04.2020
5540 Clouds 4 1026 42 0 0.07 292 07:22 04.04.2020
5541 Clouds 4 1026 42 0 0.07 292 07:22 04.04.2020
5542 Clouds 4 1026 42 0 0.07 292 06:40 04.04.2020
5543 Clouds 3 1028 35 0 1.02 119 05:54 04.04.2020
5544 Clouds 3 1028 35 0 1.02 119 05:33 04.04.2020
5545 Clouds 3 1028 35 0 1.02 119 04:40 04.04.2020
5546 Clouds 3 1028 35 0 1.02 119 04:20 04.04.2020
5547 Clouds 3 1028 35 0 1.02 119 03:45 04.04.2020
5548 Clear -4 1031 40 0 1.84 101 02:49 04.04.2020
5549 Clear -4 1031 40 0 1.86 97 02:30 04.04.2020
5550 Clear -4 1031 40 0 1.86 97 01:48 04.04.2020
5551 Clear -4 1031 40 0 1.86 97 01:21 04.04.2020
5552 Clear -4 1031 40 0 1.86 97 00:45 04.04.2020
5553 Clear -4 1031 40 0 1.86 97 00:26 04.04.2020
5554 Clear -4 1030 39 0 1.92 96 23:38 03.04.2020
5555 Clear -4 1030 39 0 1.92 96 23:19 03.04.2020
5556 Clear -4 1030 39 0 1.92 96 22:55 03.04.2020
5557 Clear -4 1030 39 0 1.92 96 22:36 03.04.2020
5558 Clear -4 1030 39 0 1.92 96 22:18 03.04.2020
5559 Clear -4 1030 39 0 1.92 96 21:42 03.04.2020
5560 Clear -4 1030 40 0 1.97 97 21:22 03.04.2020
5561 Clear -4 1030 39 0 2.06 100 20:56 03.04.2020
5562 Clear -4 1030 39 0 2.06 100 20:36 03.04.2020
5563 Clear -4 1030 39 0 2.06 100 20:18 03.04.2020
5564 Clear -4 1030 39 0 2.06 100 20:18 03.04.2020
5565 Clear -4 1030 39 0 2.06 100 19:56 03.04.2020
5566 Clear -4 1030 39 0 2.06 100 19:37 03.04.2020
5567 Clear -4 1030 39 0 2.06 100 19:19 03.04.2020
5568 Clear -4 1030 39 0 2.06 100 18:58 03.04.2020
5569 Clear -4 1030 39 0 2.06 100 18:40 03.04.2020
5570 Clear -4 1030 39 0 2.06 100 18:21 03.04.2020
5571 Clear -4 1029 39 0 2.11 100 17:42 03.04.2020
5572 Clear -4 1029 39 0 2.11 100 17:20 03.04.2020
5573 Clear -4 1029 39 0 2.11 100 16:57 03.04.2020
5574 Clear -4 1029 39 0 2.11 100 16:38 03.04.2020
5575 Clear -4 1029 39 0 2.11 100 16:20 03.04.2020
5576 Clear -4 1029 39 0 2.11 100 15:56 03.04.2020
5577 Clear -4 1029 39 0 2.11 100 15:37 03.04.2020
5578 Clear -2 1027 40 0 1.71 91 15:19 03.04.2020
5579 Clear -2 1027 40 0 1.71 91 14:41 03.04.2020
5580 Clear -2 1027 40 0 1.62 91 14:22 03.04.2020
5581 Clear -2 1027 40 0 1.62 91 13:57 03.04.2020
5582 Clear -2 1027 40 0 1.62 91 13:37 03.04.2020
5583 Clear -2 1027 40 0 1.62 91 13:18 03.04.2020
5584 Clear -2 1027 40 0 1.62 91 12:43 03.04.2020
5585 Clear 5 1025 34 0 0.76 103 12:20 03.04.2020
5586 Clear 5 1025 34 0 0.76 103 11:56 03.04.2020
5587 Clear 5 1025 34 0 0.76 103 11:37 03.04.2020
5588 Clear 5 1025 34 0 0.76 103 11:18 03.04.2020
5589 Clear 5 1025 34 0 0.76 103 10:57 03.04.2020
5590 Clear 5 1025 34 0 0.76 103 10:38 03.04.2020
5591 Clear 5 1025 34 0 0.76 103 10:20 03.04.2020
5592 Clear 5 1025 34 0 0.76 103 09:57 03.04.2020
5593 Clear 5 1025 34 0 0.76 103 09:57 03.04.2020
5594 Clear 5 1025 34 0 0.76 103 09:38 03.04.2020
5595 Clear 4 1026 40 0 0.58 135 09:20 03.04.2020
5596 Clear 4 1026 40 0 0.58 135 08:45 03.04.2020
5597 Clear 4 1026 40 0 0.58 135 08:26 03.04.2020
5598 Clear 4 1026 40 0 0.58 135 07:59 03.04.2020
5599 Clear 4 1026 40 0 0.58 135 07:40 03.04.2020
5600 Clear 4 1026 40 0 0.58 135 07:22 03.04.2020
5601 Clear 4 1026 40 0 0.58 135 06:29 03.04.2020
5602 Clear 2 1029 35 0 1.36 105 05:43 03.04.2020
5603 Clear 2 1029 35 0 1.36 105 04:30 03.04.2020
5604 Clear 2 1029 35 0 1.36 105 03:35 03.04.2020
5605 Clear -5 1032 41 0 2 103 02:40 03.04.2020
5606 Clear -5 1032 41 0 2 102 01:27 03.04.2020
5607 Clear -5 1032 41 0 2 102 00:52 03.04.2020
5608 Clear -5 1032 41 0 2 102 00:33 03.04.2020
5609 Clear -6 1031 42 0 2.04 104 23:55 02.04.2020
5610 Clear -6 1031 42 0 2.04 104 23:37 02.04.2020
5611 Clear -6 1031 42 0 2.04 104 23:18 02.04.2020
5612 Clear -6 1031 42 0 2.04 104 23:18 02.04.2020
5613 Clear -6 1031 42 0 2.04 104 22:41 02.04.2020
5614 Clear -6 1031 42 0 2.04 104 22:22 02.04.2020
5615 Clear -6 1031 42 0 2.04 104 21:59 02.04.2020
5616 Clear -6 1031 42 0 2.04 104 21:37 02.04.2020
5617 Clear -5 1031 42 0 2.1 110 21:18 02.04.2020
5618 Clear -5 1031 42 0 2.1 110 20:45 02.04.2020
5619 Clear -5 1031 42 0 2.1 110 20:25 02.04.2020
5620 Clear -5 1031 42 0 2.1 110 19:57 02.04.2020
5621 Clear -5 1031 42 0 2.1 110 19:39 02.04.2020
5622 Clear -5 1031 42 0 2.1 110 19:20 02.04.2020
5623 Clear -5 1031 42 0 2.1 110 18:55 02.04.2020
5624 Clear -5 1031 42 0 2.1 110 18:36 02.04.2020
5625 Clear -5 1030 43 0 2.14 106 18:18 02.04.2020
5626 Clear -5 1030 43 0 2.14 106 18:18 02.04.2020
5627 Clear -5 1030 43 0 2.14 106 17:42 02.04.2020
5628 Clear -5 1030 43 0 2.14 106 17:24 02.04.2020
5629 Clear -5 1030 43 0 2.14 106 16:58 02.04.2020
5630 Clear -5 1030 43 0 2.14 106 16:40 02.04.2020
5631 Clear -5 1030 43 0 2.14 106 16:21 02.04.2020
5632 Clear -5 1030 43 0 2.14 106 15:56 02.04.2020
5633 Clear -5 1030 43 0 2.14 106 15:38 02.04.2020
5634 Clear -3 1027 45 0 1.68 102 15:18 02.04.2020
5635 Clear -3 1027 45 0 1.68 102 14:56 02.04.2020
5636 Clear -3 1027 45 0 1.68 102 14:37 02.04.2020
5637 Clear -3 1027 45 0 1.67 102 14:18 02.04.2020
5638 Clear -3 1027 45 0 1.67 102 13:54 02.04.2020
5639 Clear -3 1027 45 0 1.67 102 13:36 02.04.2020
5640 Clear -3 1027 45 0 1.67 102 13:18 02.04.2020
5641 Clear -3 1027 45 0 1.67 102 12:41 02.04.2020
5642 Clear 3 1026 36 0 0.59 89 12:19 02.04.2020
5643 Clear 3 1026 36 0 0.59 89 11:57 02.04.2020
5644 Clear 3 1026 36 0 0.59 89 11:38 02.04.2020
5645 Clear 3 1026 36 0 0.59 89 11:19 02.04.2020
5646 Clear 3 1026 36 0 0.59 89 10:56 02.04.2020
5647 Clear 3 1026 36 0 0.59 89 10:37 02.04.2020
5648 Clear 3 1026 36 0 0.59 89 10:19 02.04.2020
5649 Clear 3 1026 36 0 0.59 89 09:58 02.04.2020
5650 Clear 3 1026 36 0 0.59 89 09:39 02.04.2020
5651 Clear 2 1027 35 0 0.44 167 09:19 02.04.2020
5652 Clear 2 1027 35 0 0.41 156 08:47 02.04.2020
5653 Clear 2 1027 35 0 0.41 156 08:27 02.04.2020
5654 Clear 2 1027 35 0 0.41 156 07:45 02.04.2020
5655 Clear 2 1027 35 0 0.41 156 07:21 02.04.2020
5656 Clear 2 1027 35 0 0.41 156 06:59 02.04.2020
5657 Clear 2 1027 35 0 0.41 156 06:22 02.04.2020
5658 Clear 0 1031 39 0 1.1 123 05:45 02.04.2020
5659 Clear 0 1031 39 0 1.1 123 04:46 02.04.2020
5660 Clear -8 1033 50 0 1.77 106 02:18 02.04.2020
5661 Clear -8 1033 49 0 1.75 104 00:54 02.04.2020
5662 Clear -8 1033 49 0 1.75 104 00:31 02.04.2020
5663 Clear -8 1033 52 0 1.75 100 23:59 01.04.2020
5664 Clear -8 1033 52 0 1.75 100 23:37 01.04.2020
5665 Clear -8 1033 52 0 1.75 100 23:18 01.04.2020
5666 Clear -8 1033 52 0 1.75 100 22:41 01.04.2020
5667 Clear -8 1033 52 0 1.75 100 22:22 01.04.2020
5668 Clear -8 1033 52 0 1.75 100 21:58 01.04.2020
5669 Clear -8 1033 52 0 1.75 100 21:58 01.04.2020
5670 Clear -8 1033 52 0 1.75 100 21:39 01.04.2020
5671 Clear -8 1032 54 0 1.76 95 21:19 01.04.2020
5672 Clear -8 1033 54 0 1.81 96 21:19 01.04.2020
5673 Clear -8 1033 54 0 1.81 96 20:55 01.04.2020
5674 Clear -8 1033 54 0 1.81 96 20:37 01.04.2020
5675 Clear -8 1033 54 0 1.81 96 20:18 01.04.2020
5676 Clear -8 1033 54 0 1.81 96 19:43 01.04.2020
5677 Clear -8 1033 54 0 1.81 96 19:43 01.04.2020
5678 Clear -8 1033 54 0 1.81 96 19:23 01.04.2020
5679 Clear -8 1033 54 0 1.81 96 18:59 01.04.2020
5680 Clear -8 1033 54 0 1.81 96 18:41 01.04.2020
5681 Clear -8 1033 54 0 1.81 96 18:21 01.04.2020
5682 Clear -8 1032 56 0 2.07 88 17:56 01.04.2020
5683 Clear -8 1032 56 0 2.07 88 17:37 01.04.2020
5684 Clear -8 1032 56 0 2.07 88 17:18 01.04.2020
5685 Clear -8 1032 56 0 2.07 88 16:54 01.04.2020
5686 Clear -8 1032 56 0 2.07 88 16:36 01.04.2020
5687 Clear -8 1032 56 0 2.07 88 16:18 01.04.2020
5688 Clear -8 1032 56 0 2.07 88 15:42 01.04.2020
5689 Clear -8 1032 56 0 2.07 88 15:22 01.04.2020
5690 Clear -7 1029 55 0 1.58 71 14:58 01.04.2020
5691 Clear -7 1029 55 0 1.58 71 14:39 01.04.2020
5692 Clear -7 1029 55 0 1.56 73 14:20 01.04.2020
5693 Clear -7 1029 55 0 1.56 73 13:58 01.04.2020
5694 Clear -7 1029 55 0 1.56 73 13:38 01.04.2020
5695 Clear -7 1029 55 0 1.56 73 13:19 01.04.2020
5696 Clear -7 1029 55 0 1.56 73 12:56 01.04.2020
5697 Clear -7 1029 55 0 1.56 73 12:37 01.04.2020
5698 Clear -1 1027 42 0 0.7 346 12:18 01.04.2020
5699 Clear -1 1027 42 0 0.7 346 11:54 01.04.2020
5700 Clear -1 1027 42 0 0.7 346 11:36 01.04.2020
5701 Clear -1 1027 42 0 0.7 346 11:18 01.04.2020
5702 Clear -1 1027 42 0 0.7 346 10:38 01.04.2020
5703 Clear -1 1027 42 0 0.7 346 10:20 01.04.2020
5704 Clear -1 1027 42 0 0.7 346 09:57 01.04.2020
5705 Clear -1 1027 42 0 0.7 346 09:39 01.04.2020
5706 Clear -2 1029 39 0 0.62 325 09:19 01.04.2020
5707 Clear -2 1029 39 0 0.62 325 08:43 01.04.2020
5708 Clear -2 1029 39 0 0.62 325 08:18 01.04.2020
5709 Clear -2 1029 39 0 0.62 325 07:48 01.04.2020
5710 Clear -2 1029 39 0 0.62 325 07:22 01.04.2020
5711 Clear -2 1029 39 0 0.62 325 06:58 01.04.2020
5712 Clear -2 1029 39 0 0.62 325 06:27 01.04.2020
5713 Clear -5 1033 46 0 0.94 96 05:59 01.04.2020
5714 Clear -5 1033 46 0 0.94 96 04:38 01.04.2020
5715 Clear -5 1033 46 0 0.94 96 03:35 01.04.2020
5716 Clear -12 1037 54 0 1.64 101 02:57 01.04.2020
5717 Clear -12 1037 54 0 1.68 101 02:21 01.04.2020
5718 Clear -12 1037 54 0 1.68 101 01:40 01.04.2020
5719 Clear -12 1037 54 0 1.68 101 01:22 01.04.2020
5720 Clear -12 1037 54 0 1.68 101 00:46 01.04.2020
5721 Clear -12 1037 54 0 1.68 101 00:46 01.04.2020
5722 Clear -12 1037 54 0 1.68 101 00:21 01.04.2020
5723 Clear -13 1037 54 0 1.84 109 23:49 31.03.2020
5724 Clear -13 1037 54 0 1.84 109 23:28 31.03.2020
5725 Clear -13 1037 54 0 1.84 109 22:59 31.03.2020
5726 Clear -13 1037 54 0 1.84 109 22:37 31.03.2020
5727 Clear -13 1037 54 0 1.84 109 22:19 31.03.2020
5728 Clear -13 1037 54 0 1.84 109 21:57 31.03.2020
5729 Clear -13 1037 54 0 1.84 109 21:39 31.03.2020
5730 Clear -13 1037 55 0 1.86 110 21:20 31.03.2020
5731 Clear -13 1037 54 0 1.84 109 21:20 31.03.2020
5732 Clear -13 1037 55 0 1.86 110 21:20 31.03.2020
5733 Clear -13 1038 57 0 1.83 105 20:56 31.03.2020
5734 Clear -13 1038 57 0 1.83 105 20:37 31.03.2020
5735 Clear -13 1038 57 0 1.83 105 20:18 31.03.2020
5736 Clear -13 1038 57 0 1.83 105 19:42 31.03.2020
5737 Clear -13 1038 57 0 1.83 105 19:24 31.03.2020
5738 Clear -13 1038 57 0 1.83 105 18:59 31.03.2020
5739 Clear -13 1038 57 0 1.83 105 18:41 31.03.2020
5740 Clear -13 1038 62 0 2.1 100 18:19 31.03.2020
5741 Clear -13 1038 62 0 2.1 100 17:56 31.03.2020
5742 Clear -13 1038 62 0 2.1 100 17:37 31.03.2020
5743 Clear -13 1038 62 0 2.1 100 17:37 31.03.2020
5744 Clear -13 1038 62 0 2.1 100 17:19 31.03.2020
5745 Clear -13 1038 62 0 2.1 100 16:41 31.03.2020
5746 Clear -13 1038 62 0 2.1 100 16:20 31.03.2020
5747 Clear -13 1038 62 0 2.1 100 15:59 31.03.2020
5748 Clear -13 1038 62 0 2.1 100 15:41 31.03.2020
5749 Clear -13 1038 62 0 2.1 100 15:23 31.03.2020
5750 Clear -12 1037 68 0 1.46 86 14:59 31.03.2020
5751 Clear -12 1037 68 0 1.46 86 14:40 31.03.2020
5752 Clear -12 1036 68 0 1.48 87 14:21 31.03.2020
5753 Clear -12 1036 68 0 1.48 87 13:54 31.03.2020
5754 Clear -12 1036 68 0 1.48 87 13:36 31.03.2020
5755 Clear -12 1036 68 0 1.48 87 13:18 31.03.2020
5756 Clear -12 1036 68 0 1.48 87 12:42 31.03.2020
5757 Clear -6 1034 51 0 0.27 342 12:20 31.03.2020
5758 Clear -6 1034 51 0 0.27 342 11:55 31.03.2020
5759 Clear -6 1034 51 0 0.27 342 11:36 31.03.2020
5760 Clear -6 1034 51 0 0.27 342 11:18 31.03.2020
5761 Clear -6 1034 51 0 0.27 342 10:54 31.03.2020
5762 Clear -6 1034 51 0 0.27 342 10:36 31.03.2020
5763 Clear -6 1034 51 0 0.27 342 10:18 31.03.2020
5764 Clear -6 1034 51 0 0.27 342 09:42 31.03.2020
5765 Clear -6 1034 51 0 0.27 342 09:24 31.03.2020
5766 Clear -7 1036 50 0 0.72 234 08:57 31.03.2020
5767 Clear -7 1036 50 0 0.72 234 08:39 31.03.2020
5768 Clear -7 1036 50 0 0.72 234 08:19 31.03.2020
5769 Clear -7 1036 50 0 0.72 234 08:19 31.03.2020
5770 Clear -7 1036 50 0 0.72 234 07:56 31.03.2020
5771 Clear -7 1036 50 0 0.72 234 07:37 31.03.2020
5772 Clear -7 1036 50 0 0.72 234 07:18 31.03.2020
5773 Clear -7 1036 50 0 0.72 234 06:45 31.03.2020
5774 Clear -10 1040 59 0 1 118 06:20 31.03.2020
5775 Clear -10 1040 59 0 1 118 05:39 31.03.2020
5776 Clear -10 1040 59 0 1 118 03:34 31.03.2020
5777 Clear -18 1045 58 0 2.19 90 01:59 31.03.2020
5778 Clear -18 1045 58 0 2.19 90 01:40 31.03.2020
5779 Clear -18 1045 58 0 2.19 90 00:47 31.03.2020
5780 Clear -18 1045 58 0 2.19 90 00:25 31.03.2020
5781 Clear -18 1045 58 0 2.19 90 00:25 31.03.2020
5782 Clear -19 1043 62 0 2.55 79 23:42 30.03.2020
5783 Clear -19 1043 62 0 2.55 79 23:20 30.03.2020
5784 Clear -19 1043 62 0 2.55 79 23:20 30.03.2020
5785 Clear -19 1043 62 0 2.55 79 22:58 30.03.2020
5786 Clear -19 1043 62 0 2.55 79 22:39 30.03.2020
5787 Clear -19 1043 62 0 2.55 79 22:21 30.03.2020
5788 Clear -19 1043 62 0 2.55 79 21:58 30.03.2020
5789 Clear -19 1043 62 0 2.55 79 21:39 30.03.2020
5790 Clear -19 1043 62 0 2.54 81 21:21 30.03.2020
5791 Clear -18 1043 65 0 2.86 70 20:59 30.03.2020
5792 Clear -18 1043 65 0 2.86 70 20:39 30.03.2020
5793 Clear -18 1043 65 0 2.86 70 20:20 30.03.2020
5794 Clear -18 1043 65 0 2.86 70 19:57 30.03.2020
5795 Clear -18 1043 65 0 2.86 70 19:39 30.03.2020
5796 Clear -18 1043 65 0 2.86 70 19:39 30.03.2020
5797 Clear -18 1043 65 0 2.86 70 19:20 30.03.2020
5798 Clear -18 1043 65 0 2.86 70 18:44 30.03.2020
5799 Clear -18 1043 65 0 2.86 70 18:26 30.03.2020
5800 Clear -17 1040 67 0 2.83 66 17:58 30.03.2020
5801 Clear -17 1040 67 0 2.83 66 17:58 30.03.2020
5802 Clear -17 1040 67 0 2.83 66 17:40 30.03.2020
5803 Clear -17 1040 67 0 2.83 66 17:22 30.03.2020
5804 Clear -17 1040 67 0 2.83 66 16:59 30.03.2020
5805 Clear -17 1040 67 0 2.83 66 16:40 30.03.2020
5806 Clear -17 1040 67 0 2.83 66 16:21 30.03.2020
5807 Clear -17 1040 67 0 2.83 66 15:56 30.03.2020
5808 Clear -17 1040 67 0 2.83 66 15:38 30.03.2020
5809 Clouds -15 1036 68 0 2.52 42 15:20 30.03.2020
5810 Clouds -15 1036 68 0 2.52 42 14:58 30.03.2020
5811 Clouds -15 1036 68 0 2.52 42 14:37 30.03.2020
5812 Clouds -14 1036 69 0 2.56 44 14:19 30.03.2020
5813 Clouds -14 1036 69 0 2.56 44 13:57 30.03.2020
5814 Clouds -14 1036 69 0 2.56 44 13:38 30.03.2020
5815 Clouds -14 1036 69 0 2.56 44 13:19 30.03.2020
5816 Clouds -14 1036 69 0 2.56 44 12:45 30.03.2020
5817 Clouds -14 1036 69 0 2.56 44 12:21 30.03.2020
5818 Clouds -14 1036 69 0 2.56 44 12:21 30.03.2020
5819 Clouds -8 1031 59 0 3.02 25 11:58 30.03.2020
5820 Clouds -8 1031 59 0 3.02 25 11:40 30.03.2020
5821 Clouds -8 1031 59 0 3.02 25 11:21 30.03.2020
5822 Clouds -8 1031 59 0 3.02 25 10:55 30.03.2020
5823 Clouds -8 1031 59 0 3.02 25 10:37 30.03.2020
5824 Clouds -8 1031 59 0 3.02 25 10:18 30.03.2020
5825 Clouds -8 1031 59 0 3.02 25 09:40 30.03.2020
5826 Clouds -8 1031 59 0 2.82 21 09:19 30.03.2020
5827 Clouds -8 1031 59 0 2.82 21 08:56 30.03.2020
5828 Clouds -8 1031 59 0 2.82 21 08:36 30.03.2020
5829 Clouds -8 1031 59 0 2.82 21 08:18 30.03.2020
5830 Clouds -8 1031 59 0 2.82 21 07:42 30.03.2020
5831 Clouds -8 1031 59 0 2.82 21 07:20 30.03.2020
5832 Clouds -8 1031 59 0 2.82 21 06:43 30.03.2020
5833 Clouds -8 1031 59 0 2.82 21 06:25 30.03.2020
5834 Clouds -10 1032 68 0 2.68 34 05:43 30.03.2020
5835 Clouds -10 1032 68 0 2.68 34 04:29 30.03.2020
5836 Clouds -10 1032 68 0 2.68 34 03:54 30.03.2020
5837 Clouds -14 1031 72 0 2.48 50 02:44 30.03.2020
5838 Clouds -14 1032 72 0 2.47 49 01:55 30.03.2020
5839 Clouds -14 1032 72 0 2.47 49 00:57 30.03.2020
5840 Clouds -14 1032 72 0 2.47 49 00:27 30.03.2020
5841 Clouds -13 1026 73 0 2.65 41 23:55 29.03.2020
5842 Clouds -13 1026 73 0 2.65 41 23:36 29.03.2020
5843 Clouds -13 1026 73 0 2.65 41 23:18 29.03.2020
5844 Clouds -13 1026 73 0 2.65 41 22:40 29.03.2020
5845 Clouds -13 1026 73 0 2.65 41 22:20 29.03.2020
5846 Clouds -13 1026 73 0 2.65 41 21:59 29.03.2020
5847 Clouds -13 1026 73 0 2.65 41 21:38 29.03.2020
5848 Clouds -11 1024 72 0 2.47 34 21:20 29.03.2020
5849 Clouds -11 1024 72 0 2.47 34 20:55 29.03.2020
5850 Clouds -11 1024 72 0 2.47 34 20:55 29.03.2020
5851 Clouds -11 1024 72 0 2.47 34 20:37 29.03.2020
5852 Clouds -11 1024 72 0 2.47 34 20:19 29.03.2020
5853 Clouds -11 1024 72 0 2.47 34 19:56 29.03.2020
5854 Clouds -11 1024 72 0 2.47 34 19:38 29.03.2020
5855 Clouds -11 1024 72 0 2.47 34 19:19 29.03.2020
5856 Clouds -11 1024 72 0 2.47 34 18:56 29.03.2020
5857 Clouds -11 1024 72 0 2.47 34 18:38 29.03.2020
5858 Clouds -8 1020 60 0 1.8 34 18:18 29.03.2020
5859 Clouds -8 1020 60 0 1.8 34 17:55 29.03.2020
5860 Clouds -8 1020 60 0 1.8 34 17:36 29.03.2020
5861 Clouds -8 1020 60 0 1.8 34 17:18 29.03.2020
5862 Clouds -8 1020 60 0 1.8 34 16:55 29.03.2020
5863 Clouds -8 1020 60 0 1.8 34 16:36 29.03.2020
5864 Clouds -8 1020 60 0 1.8 34 16:18 29.03.2020
5865 Clouds -8 1020 60 0 1.8 34 15:41 29.03.2020
5866 Clouds -8 1020 60 0 1.8 34 15:23 29.03.2020
5867 Clouds -8 1020 60 0 1.8 34 15:23 29.03.2020
5868 Clouds -7 1015 57 0 1.27 50 14:57 29.03.2020
5869 Clouds -7 1015 57 0 1.27 50 14:39 29.03.2020
5870 Clouds -7 1015 56 0 1.02 61 14:19 29.03.2020
5871 Clouds -7 1015 56 0 1.02 61 13:56 29.03.2020
5872 Clouds -7 1015 56 0 1.02 61 13:38 29.03.2020
5873 Clouds -7 1015 56 0 1.02 61 13:19 29.03.2020
5874 Clouds -7 1015 56 0 1.02 61 12:55 29.03.2020
5875 Clouds -7 1015 56 0 1.02 61 12:37 29.03.2020
5876 Clouds -2 1011 45 0 2.65 289 12:18 29.03.2020
5877 Clouds -2 1011 45 0 2.65 289 11:40 29.03.2020
5878 Clouds -2 1011 45 0 2.65 289 11:21 29.03.2020
5879 Clouds -2 1011 45 0 2.65 289 10:59 29.03.2020
5880 Clouds -2 1011 45 0 2.65 289 10:38 29.03.2020
5881 Clouds -2 1011 45 0 2.65 289 10:18 29.03.2020
5882 Clouds -2 1011 45 0 2.65 289 09:40 29.03.2020
5883 Clouds -2 1012 41 0 2.85 263 09:20 29.03.2020
5884 Clouds -2 1012 41 0 2.85 263 08:54 29.03.2020
5885 Clouds -2 1012 41 0 2.85 263 08:28 29.03.2020
5886 Clouds -2 1012 41 0 2.85 263 07:58 29.03.2020
5887 Clouds -2 1012 41 0 2.85 263 07:58 29.03.2020
5888 Clouds -2 1012 41 0 2.85 263 07:40 29.03.2020
5889 Clouds -2 1012 41 0 2.85 263 07:20 29.03.2020
5890 Clouds -4 1015 46 0 1.23 197 04:59 29.03.2020
5891 Clouds -4 1015 46 0 1.23 197 03:55 29.03.2020
5892 Clouds -4 1015 46 0 1.23 197 03:26 29.03.2020
5893 Clouds -10 1017 53 0 1.2 160 01:51 29.03.2020
5894 Clouds -10 1017 53 0 1.29 150 01:23 29.03.2020
5895 Clouds -10 1017 53 0 1.29 150 00:55 29.03.2020
5896 Clouds -10 1017 53 0 1.29 150 00:31 29.03.2020
5897 Clouds -10 1017 53 0 1.29 150 23:43 28.03.2020
5898 Clouds -10 1017 53 0 1.29 150 23:43 28.03.2020
5899 Clouds -10 1017 53 0 1.29 150 23:23 28.03.2020
5900 Clear -10 1015 53 0 1.94 142 22:58 28.03.2020
5901 Clear -10 1015 53 0 1.94 142 22:38 28.03.2020
5902 Clear -10 1015 53 0 1.94 142 22:20 28.03.2020
5903 Clear -10 1015 53 0 1.94 142 21:43 28.03.2020
5904 Clear -10 1015 53 0 1.94 142 21:24 28.03.2020
5905 Clear -10 1015 53 0 1.94 142 20:59 28.03.2020
5906 Clear -10 1015 53 0 1.94 142 20:41 28.03.2020
5907 Clear -10 1015 54 0 1.96 139 20:23 28.03.2020
5908 Clear -10 1015 51 0 2.34 132 19:57 28.03.2020
5909 Clear -10 1015 51 0 2.34 132 19:38 28.03.2020
5910 Clear -10 1015 51 0 2.34 132 19:38 28.03.2020
5911 Clear -10 1015 51 0 2.34 132 19:20 28.03.2020
5912 Clear -10 1015 51 0 2.34 132 18:56 28.03.2020
5913 Clear -10 1015 51 0 2.34 132 18:38 28.03.2020
5914 Clear -10 1015 51 0 2.34 132 18:38 28.03.2020
5915 Clear -10 1015 51 0 2.34 132 18:19 28.03.2020
5916 Clear -10 1015 51 0 2.34 132 17:38 28.03.2020
5917 Clear -9 1015 51 0 2.48 132 17:20 28.03.2020
5918 Clear -9 1015 51 0 2.48 132 16:43 28.03.2020
5919 Clear -9 1015 51 0 2.48 132 16:20 28.03.2020
5920 Clear -9 1015 51 0 2.48 132 15:58 28.03.2020
5921 Clear -9 1015 51 0 2.48 132 15:39 28.03.2020
5922 Clear -9 1015 51 0 2.48 132 15:19 28.03.2020
5923 Clear -9 1015 51 0 2.48 132 14:43 28.03.2020
5924 Clear -9 1015 51 0 2.48 132 14:23 28.03.2020
5925 Clear -8 1013 54 0 2.3 134 13:59 28.03.2020
5926 Clear -8 1013 54 0 2.3 134 13:38 28.03.2020
5927 Clear -8 1013 53 0 2.37 135 13:19 28.03.2020
5928 Clear -8 1013 53 0 2.37 135 12:39 28.03.2020
5929 Clear -8 1013 53 0 2.37 135 12:21 28.03.2020
5930 Clear -8 1013 53 0 2.37 135 11:42 28.03.2020
5931 Clear -8 1013 53 0 2.37 135 11:21 28.03.2020
5932 Clear -2 1011 44 0 1.47 156 10:56 28.03.2020
5933 Clear -2 1011 44 0 1.47 156 10:37 28.03.2020
5934 Clear -2 1011 44 0 1.47 156 10:18 28.03.2020
5935 Clear -2 1011 44 0 1.47 156 09:41 28.03.2020
5936 Clear -2 1011 44 0 1.47 156 09:22 28.03.2020
5937 Clear -2 1011 44 0 1.47 156 08:45 28.03.2020
5938 Clear -2 1011 44 0 1.47 156 08:27 28.03.2020
5939 Clear -2 1014 43 0 1.93 178 07:59 28.03.2020
5940 Clear -2 1014 43 0 1.93 178 07:41 28.03.2020
5941 Clear -2 1014 43 0 1.93 178 06:55 28.03.2020
5942 Clear -2 1014 43 0 1.93 178 06:32 28.03.2020
5943 Clear -2 1014 43 0 1.93 178 05:40 28.03.2020
5944 Clear -5 1020 50 0 1.74 152 05:19 28.03.2020
5945 Clear -5 1020 50 0 1.74 152 04:39 28.03.2020
5946 Clear -5 1020 50 0 1.74 152 02:55 28.03.2020
5947 Clear -12 1024 59 0 2.04 115 01:48 28.03.2020
5948 Clear -12 1024 59 0 2.04 115 01:24 28.03.2020
5949 Clear -12 1024 58 0 2.03 115 00:54 28.03.2020
5950 Clear -12 1024 58 0 2.03 115 00:33 28.03.2020
5951 Clear -12 1024 58 0 2.03 115 23:45 27.03.2020
5952 Clear -12 1024 58 0 2.03 115 23:26 27.03.2020
5953 Clear -12 1024 58 0 2.03 115 23:26 27.03.2020
5954 Clear -12 1024 60 0 2.25 126 22:58 27.03.2020
5955 Clear -12 1024 60 0 2.25 126 22:39 27.03.2020
5956 Clear -12 1024 60 0 2.25 126 22:21 27.03.2020
5957 Clear -12 1024 60 0 2.25 126 21:59 27.03.2020
5958 Clear -12 1024 60 0 2.25 126 21:40 27.03.2020
5959 Clear -12 1024 60 0 2.25 126 21:22 27.03.2020
5960 Clear -12 1024 60 0 2.25 126 20:57 27.03.2020
5961 Clear -12 1024 60 0 2.25 126 20:39 27.03.2020
5962 Clear -11 1025 61 0 2.36 134 20:19 27.03.2020
5963 Clear -12 1026 61 0 2.45 134 19:55 27.03.2020
5964 Clear -12 1026 61 0 2.45 134 19:36 27.03.2020
5965 Clear -12 1026 61 0 2.45 134 19:18 27.03.2020
5966 Clear -12 1026 61 0 2.45 134 18:42 27.03.2020
5967 Clear -12 1026 61 0 2.45 134 18:23 27.03.2020
5968 Clear -12 1026 61 0 2.45 134 17:54 27.03.2020
5969 Clear -12 1026 61 0 2.45 134 17:36 27.03.2020
5970 Clear -11 1027 61 0 2.51 132 17:18 27.03.2020
5971 Clear -11 1027 61 0 2.51 132 16:43 27.03.2020
5972 Clear -11 1027 61 0 2.51 132 16:24 27.03.2020
5973 Clear -11 1027 61 0 2.51 132 15:44 27.03.2020
5974 Clear -11 1027 61 0 2.51 132 15:26 27.03.2020
5975 Clear -11 1027 61 0 2.51 132 14:56 27.03.2020
5976 Clear -11 1027 61 0 2.51 132 14:36 27.03.2020
5977 Clear -10 1026 63 0 2.18 128 14:18 27.03.2020
5978 Clear -10 1026 63 0 2.18 128 13:42 27.03.2020
5979 Clear -10 1026 63 0 2.18 128 13:21 27.03.2020
5980 Clear -10 1026 62 0 2.26 128 12:58 27.03.2020
5981 Clear -10 1026 62 0 2.26 128 12:39 27.03.2020
5982 Clear -10 1026 62 0 2.26 128 12:19 27.03.2020
5983 Clear -10 1026 62 0 2.26 128 11:42 27.03.2020
5984 Clear -10 1026 62 0 2.26 128 11:24 27.03.2020
5985 Clear -4 1025 49 0 1.14 157 10:55 27.03.2020
5986 Clear -4 1025 49 0 1.14 157 10:37 27.03.2020
5987 Clear -4 1025 49 0 1.14 157 10:19 27.03.2020
5988 Clear -4 1025 49 0 1.14 157 09:57 27.03.2020
5989 Clear -4 1025 49 0 1.14 157 09:38 27.03.2020
5990 Clear -4 1025 49 0 1.14 157 09:19 27.03.2020
5991 Clear -4 1025 49 0 1.14 157 08:56 27.03.2020
5992 Clear -4 1025 49 0 1.14 157 08:38 27.03.2020
5993 Clear -5 1029 49 0 1.43 194 08:20 27.03.2020
5994 Clear -5 1029 49 0 1.43 194 07:52 27.03.2020
5995 Clear -5 1029 49 0 1.43 194 07:25 27.03.2020
5996 Clear -5 1029 49 0 1.43 194 06:53 27.03.2020
5997 Clear -5 1029 49 0 1.43 194 06:35 27.03.2020
5998 Clear -9 1036 59 0 1.22 126 04:59 27.03.2020
5999 Clear -9 1036 59 0 1.22 126 02:36 27.03.2020
6000 Clear -16 1041 61 0 1.93 97 01:23 27.03.2020
6001 Clear -16 1041 61 0 1.95 98 00:51 27.03.2020
6002 Clear -16 1041 61 0 1.95 98 00:31 27.03.2020
6003 Clear -16 1041 61 0 1.95 98 23:44 26.03.2020
6004 Clear -16 1041 61 0 1.95 98 23:23 26.03.2020
6005 Clear -17 1042 62 0 1.77 97 22:59 26.03.2020
6006 Clear -17 1042 62 0 1.77 97 22:39 26.03.2020
6007 Clear -17 1042 62 0 1.77 97 22:20 26.03.2020
6008 Clear -17 1042 62 0 1.77 97 21:57 26.03.2020
6009 Clear -17 1042 62 0 1.77 97 21:39 26.03.2020
6010 Clear -17 1042 62 0 1.77 97 21:20 26.03.2020
6011 Clear -17 1042 62 0 1.77 97 20:58 26.03.2020
6012 Clear -17 1042 62 0 1.77 97 20:38 26.03.2020
6013 Clear -17 1042 62 0 1.77 97 20:38 26.03.2020
6014 Clear -17 1043 63 0 2.01 83 20:20 26.03.2020
6015 Clear -17 1043 63 0 2.01 83 19:55 26.03.2020
6016 Clear -17 1043 63 0 2.01 83 19:37 26.03.2020
6017 Clear -17 1043 63 0 2.01 83 19:19 26.03.2020
6018 Clear -17 1043 63 0 2.01 83 18:55 26.03.2020
6019 Clear -17 1043 63 0 2.01 83 18:36 26.03.2020
6020 Clear -17 1043 63 0 2.01 83 18:18 26.03.2020
6021 Clear -17 1043 63 0 2.01 83 17:42 26.03.2020
6022 Clear -17 1043 65 0 2.14 79 17:18 26.03.2020
6023 Clear -17 1043 65 0 2.14 79 16:45 26.03.2020
6024 Clear -17 1043 65 0 2.14 79 16:45 26.03.2020
6025 Clear -17 1043 65 0 2.14 79 16:26 26.03.2020
6026 Clear -17 1043 65 0 2.14 79 15:58 26.03.2020
6027 Clear -17 1043 65 0 2.14 79 15:40 26.03.2020
6028 Clear -17 1043 65 0 2.14 79 15:21 26.03.2020
6029 Clear -17 1043 65 0 2.14 79 14:57 26.03.2020
6030 Clear -17 1043 65 0 2.14 79 14:38 26.03.2020
6031 Clear -16 1040 67 0 1.36 60 14:18 26.03.2020
6032 Clear -16 1040 67 0 1.36 60 13:43 26.03.2020
6033 Clear -16 1040 67 0 1.39 61 13:23 26.03.2020
6034 Clear -16 1040 67 0 1.39 61 12:56 26.03.2020
6035 Clear -16 1040 67 0 1.39 61 12:37 26.03.2020
6036 Clear -16 1040 67 0 1.39 61 12:19 26.03.2020
6037 Clear -16 1040 67 0 1.39 61 11:44 26.03.2020
6038 Clear -10 1038 63 0 1.42 338 11:20 26.03.2020
6039 Clear -10 1038 63 0 1.42 338 10:56 26.03.2020
6040 Clear -10 1038 63 0 1.42 338 10:36 26.03.2020
6041 Clear -10 1038 63 0 1.42 338 10:18 26.03.2020
6042 Clear -10 1038 63 0 1.42 338 10:18 26.03.2020
6043 Clear -10 1038 63 0 1.42 338 09:42 26.03.2020
6044 Clear -10 1038 63 0 1.42 338 09:19 26.03.2020
6045 Clear -10 1038 63 0 1.42 338 08:46 26.03.2020
6046 Clear -10 1038 63 0 1.42 338 08:27 26.03.2020
6047 Clear -11 1040 63 0 1.49 315 07:58 26.03.2020
6048 Clear -11 1040 63 0 1.49 315 07:40 26.03.2020
6049 Clear -11 1040 63 0 1.49 315 07:20 26.03.2020
6050 Clear -11 1040 63 0 1.49 315 06:46 26.03.2020
6051 Clear -11 1040 63 0 1.49 315 05:52 26.03.2020
6052 Clear -14 1045 61 0 0.76 58 03:52 26.03.2020
6053 Clear -14 1045 61 0 0.76 58 03:33 26.03.2020
6054 Clear -14 1045 61 0 0.76 58 02:53 26.03.2020
6055 Clear -21 1048 54 0 1.62 75 01:20 26.03.2020
6056 Clear -21 1048 54 0 1.63 74 00:33 26.03.2020
6057 Clear -21 1048 54 0 1.63 74 23:44 25.03.2020
6058 Clear -21 1048 54 0 1.63 74 23:26 25.03.2020
6059 Clear -22 1047 53 0 1.34 82 22:56 25.03.2020
6060 Clear -22 1047 53 0 1.34 82 22:38 25.03.2020
6061 Clear -22 1047 53 0 1.34 82 22:19 25.03.2020
6062 Clear -22 1047 53 0 1.34 82 21:54 25.03.2020
6063 Clear -22 1047 53 0 1.34 82 21:36 25.03.2020
6064 Clear -22 1047 53 0 1.34 82 21:18 25.03.2020
6065 Clear -22 1047 53 0 1.34 82 20:39 25.03.2020
6066 Clear -23 1047 57 0 1.59 75 20:20 25.03.2020
6067 Clear -23 1048 56 0 1.59 78 19:57 25.03.2020
6068 Clear -23 1048 56 0 1.59 78 19:38 25.03.2020
6069 Clear -23 1048 56 0 1.59 78 19:20 25.03.2020
6070 Clear -23 1048 56 0 1.59 78 18:54 25.03.2020
6071 Clear -23 1048 56 0 1.59 78 18:36 25.03.2020
6072 Clear -23 1048 56 0 1.59 78 18:18 25.03.2020
6073 Clear -23 1048 56 0 1.59 78 17:41 25.03.2020
6074 Clear -22 1048 55 0 1.53 82 17:22 25.03.2020
6075 Clear -23 1048 56 0 1.59 78 17:22 25.03.2020
6076 Clear -22 1046 60 0 1.77 74 16:59 25.03.2020
6077 Clear -22 1046 60 0 1.77 74 16:39 25.03.2020
6078 -273 0 0 0 0 0 16:21 25.03.2020
6079 Clear -22 1046 60 0 1.83 76 16:21 25.03.2020
6080 -273 0 0 0 0 0 16:21 25.03.2020
6081 Clear -22 1046 60 0 1.77 74 15:43 25.03.2020
6082 Clear -22 1046 60 0 1.77 74 15:21 25.03.2020
6083 Clear -22 1046 60 0 1.77 74 14:59 25.03.2020
6084 Clear -22 1046 60 0 1.77 74 14:40 25.03.2020
6085 Clouds -21 1042 63 0 1.23 37 14:20 25.03.2020
6086 Clouds -21 1042 63 0 1.23 37 13:45 25.03.2020
6087 Clouds -21 1042 62 0 1.35 40 13:24 25.03.2020
6088 Clouds -21 1042 62 0 1.35 40 12:40 25.03.2020
6089 Clouds -21 1042 62 0 1.35 40 12:21 25.03.2020
6090 Clouds -21 1042 62 0 1.35 40 11:59 25.03.2020
6091 Clouds -21 1042 62 0 1.35 40 11:41 25.03.2020
6092 Clouds -21 1042 62 0 1.35 40 11:21 25.03.2020
6093 Clouds -21 1042 62 0 1.35 40 11:21 25.03.2020
6094 Clouds -13 1037 67 0 4.9 325 10:58 25.03.2020
6095 Clouds -13 1037 67 0 4.9 325 10:40 25.03.2020
6096 Clouds -13 1037 67 0 4.9 325 10:40 25.03.2020
6097 Clouds -13 1037 67 0 4.9 325 10:19 25.03.2020
6098 Clouds -13 1037 67 0 4.9 325 09:56 25.03.2020
6099 Clouds -13 1037 67 0 4.9 325 09:38 25.03.2020
6100 Clouds -13 1037 67 0 4.9 325 09:20 25.03.2020
6101 Clouds -13 1037 67 0 4.9 325 08:42 25.03.2020
6102 Clouds -13 1037 67 0 4.9 325 08:42 25.03.2020
6103 Clouds -13 1037 67 0 4.9 325 08:24 25.03.2020
6104 Clear -13 1037 65 0 4.23 315 07:57 25.03.2020
6105 Clear -13 1037 65 0 4.23 315 07:38 25.03.2020
6106 Clear -13 1037 65 0 4.23 315 07:18 25.03.2020
6107 Clear -13 1037 65 0 4.23 315 06:42 25.03.2020
6108 Clear -13 1037 65 0 4.23 315 06:23 25.03.2020
6109 Clear -13 1037 65 0 4.23 315 05:47 25.03.2020
6110 Clear -16 1037 63 0 1.51 11 04:46 25.03.2020
6111 Clear -16 1037 63 0 1.51 11 03:58 25.03.2020
6112 Clear -16 1037 63 0 1.51 11 03:33 25.03.2020
6113 Clear -22 1037 60 0 1.86 48 01:41 25.03.2020
6114 Clouds -22 1037 59 0 1.89 51 00:51 25.03.2020
6115 Clouds -22 1037 59 0 1.89 51 00:30 25.03.2020
6116 Clouds -22 1037 59 0 1.89 51 23:58 24.03.2020
6117 Clouds -22 1037 59 0 1.89 51 23:39 24.03.2020
6118 Clouds -21 1034 62 0 1.82 53 23:19 24.03.2020
6119 Clouds -21 1034 62 0 1.82 53 22:54 24.03.2020
6120 Clouds -21 1034 62 0 1.82 53 22:36 24.03.2020
6121 Clouds -21 1034 62 0 1.82 53 22:18 24.03.2020
6122 Clouds -21 1034 62 0 1.82 53 21:42 24.03.2020
6123 Clouds -21 1034 62 0 1.82 53 21:19 24.03.2020
6124 Clouds -21 1034 62 0 1.82 53 20:59 24.03.2020
6125 Clouds -21 1034 62 0 1.82 53 20:40 24.03.2020
6126 Clouds -21 1034 62 0 1.82 53 20:22 24.03.2020
6127 Clouds -20 1032 65 0 1.91 53 19:48 24.03.2020
6128 Clouds -20 1032 65 0 1.91 53 19:22 24.03.2020
6129 Clouds -20 1032 65 0 1.91 53 18:59 24.03.2020
6130 Clouds -20 1032 65 0 1.91 53 18:39 24.03.2020
6131 Clouds -20 1032 65 0 1.91 53 18:20 24.03.2020
6132 Clouds -20 1032 65 0 1.91 53 17:58 24.03.2020
6133 Clouds -20 1032 65 0 1.91 53 17:40 24.03.2020
6134 Clouds -20 1032 65 0 1.91 53 17:40 24.03.2020
6135 Clouds -20 1032 65 0 1.91 53 17:22 24.03.2020
6136 Clouds -21 1029 92 0 2.07 97 16:57 24.03.2020
6137 Clouds -21 1029 92 0 2.07 97 16:38 24.03.2020
6138 Clouds -21 1029 92 0 2.07 97 16:20 24.03.2020
6139 Clouds -21 1029 92 0 2.07 97 15:43 24.03.2020
6140 Clouds -21 1029 92 0 2.07 97 15:25 24.03.2020
6141 Clouds -21 1029 92 0 2.07 97 14:44 24.03.2020
6142 Clouds -21 1029 92 0 2.07 97 14:44 24.03.2020
6143 Clouds -18 1030 69 0 2.07 53 14:23 24.03.2020
6144 Clouds -16 1026 72 0 1.79 357 13:59 24.03.2020
6145 Clouds -16 1026 72 0 1.79 357 13:41 24.03.2020
6146 Clouds -16 1026 72 0 1.79 357 13:41 24.03.2020
6147 Clouds -16 1026 71 0 1.73 11 13:22 24.03.2020
6148 Clouds -16 1026 71 0 1.73 11 12:43 24.03.2020
6149 Clouds -16 1026 71 0 1.73 11 12:25 24.03.2020
6150 Clouds -16 1026 71 0 1.73 11 11:56 24.03.2020
6151 Clouds -16 1026 71 0 1.73 11 11:37 24.03.2020
6152 Snow -12 1021 75 0 5.91 301 11:18 24.03.2020
6153 Snow -12 1021 75 0 5.91 301 10:41 24.03.2020
6154 Snow -12 1021 75 0 5.91 301 10:19 24.03.2020
6155 Snow -12 1021 75 0 5.91 301 10:19 24.03.2020
6156 Snow -12 1021 75 0 5.91 301 09:47 24.03.2020
6157 Snow -12 1021 75 0 5.91 301 09:27 24.03.2020
6158 Snow -12 1021 75 0 5.91 301 08:58 24.03.2020
6159 Snow -12 1021 75 0 5.91 301 08:38 24.03.2020
6160 Snow -12 1021 83 0 6.45 277 08:20 24.03.2020
6161 Snow -12 1021 83 0 6.45 277 07:44 24.03.2020
6162 Snow -12 1021 83 0 6.45 277 07:22 24.03.2020
6163 Snow -12 1021 83 0 6.45 277 06:42 24.03.2020
6164 Snow -12 1021 83 0 6.45 277 06:21 24.03.2020
6165 Snow -12 1020 94 0 7.89 271 04:52 24.03.2020
6166 Snow -12 1020 94 0 7.89 271 03:41 24.03.2020
6167 Snow -12 1020 94 0 7.89 271 02:44 24.03.2020
6168 Clouds -13 1013 75 0 5.32 249 00:57 24.03.2020
6169 Clouds -13 1013 75 0 5.32 249 00:28 24.03.2020
6170 Clouds -13 1013 75 0 5.32 249 23:59 23.03.2020
6171 Clouds -13 1013 75 0 5.32 249 23:38 23.03.2020
6172 Clouds -4 1007 79 0 6.09 207 23:19 23.03.2020
6173 Clouds -4 1007 79 0 6.09 207 22:45 23.03.2020
6174 Clouds -4 1007 79 0 6.09 207 22:23 23.03.2020
6175 Clouds -4 1007 79 0 6.09 207 21:55 23.03.2020
6176 Clouds -4 1007 79 0 6.09 207 21:37 23.03.2020
6177 Clouds -4 1007 79 0 6.09 207 21:19 23.03.2020
6178 Clouds -4 1007 79 0 6.09 207 20:55 23.03.2020
6179 Clouds -4 1007 79 0 6.09 207 20:36 23.03.2020
6180 Clouds -6 1009 72 0 3.47 181 20:18 23.03.2020
6181 Clouds -6 1009 72 0 3.47 181 20:18 23.03.2020
6182 Clouds -6 1009 72 0 3.47 181 19:41 23.03.2020
6183 Clouds -6 1009 72 0 3.47 181 19:22 23.03.2020
6184 Clouds -6 1009 72 0 3.47 181 18:56 23.03.2020
6185 Clouds -6 1009 72 0 3.47 181 18:38 23.03.2020
6186 Clouds -6 1009 72 0 3.47 181 18:18 23.03.2020
6187 Clouds -6 1009 72 0 3.47 181 17:41 23.03.2020
6188 Clouds -4 1010 65 0 3.69 139 17:20 23.03.2020
6189 Clouds -4 1010 65 0 3.69 139 16:55 23.03.2020
6190 Clouds -4 1010 65 0 3.69 139 16:36 23.03.2020
6191 Clouds -4 1010 65 0 3.69 139 16:18 23.03.2020
6192 Clouds -4 1010 65 0 3.69 139 15:40 23.03.2020
6193 Clouds -4 1010 65 0 3.69 139 15:19 23.03.2020
6194 Clouds -4 1010 65 0 3.69 139 14:38 23.03.2020
6195 Clouds -3 1011 65 0 2.51 150 14:19 23.03.2020
6196 Clouds -3 1011 65 0 2.51 150 13:57 23.03.2020
6197 Clouds -3 1011 65 0 2.51 150 13:39 23.03.2020
6198 Clouds -3 1011 65 0 2.51 150 13:20 23.03.2020
6199 Clouds -3 1011 66 0 2.56 146 12:44 23.03.2020
6200 Clouds -3 1011 66 0 2.56 146 12:25 23.03.2020
6201 Clouds -3 1011 66 0 2.56 146 11:57 23.03.2020
6202 Clouds -3 1011 66 0 2.56 146 11:38 23.03.2020
6203 Clouds 0 1010 91 0 0.81 231 11:19 23.03.2020
6204 Clouds 0 1010 91 0 0.81 231 10:56 23.03.2020
6205 Clouds 0 1010 91 0 0.81 231 10:37 23.03.2020
6206 Clouds 0 1010 91 0 0.81 231 10:19 23.03.2020
6207 Clouds 0 1010 91 0 0.81 231 09:43 23.03.2020
6208 Clouds 0 1010 91 0 0.81 231 09:21 23.03.2020
6209 Clouds 0 1010 91 0 0.81 231 08:40 23.03.2020
6210 Clouds 0 1013 83 0 0.52 237 08:20 23.03.2020
6211 Clouds 0 1013 83 0 0.52 237 07:59 23.03.2020
6212 Clouds 0 1013 83 0 0.52 237 07:59 23.03.2020
6213 Clouds 0 1013 83 0 0.52 237 07:40 23.03.2020
6214 Clouds 0 1013 83 0 0.52 237 07:19 23.03.2020
6215 Clouds 0 1013 83 0 0.52 237 06:48 23.03.2020
6216 Clouds 0 1013 83 0 0.52 237 05:50 23.03.2020
6217 Clouds -1 1016 68 0 0.99 182 04:57 23.03.2020
6218 Clouds -1 1016 68 0 0.99 182 03:24 23.03.2020
6219 Clouds -6 1019 61 0 2.06 138 01:50 23.03.2020
6220 Clouds -6 1019 63 0 2.36 137 00:52 23.03.2020
6221 Clouds -6 1019 63 0 2.36 137 00:33 23.03.2020
6222 Clouds -6 1019 63 0 2.36 137 23:46 22.03.2020
6223 Clouds -6 1019 63 0 2.36 137 23:25 22.03.2020
6224 Clear -6 1018 65 0 3.19 136 22:45 22.03.2020
6225 Clear -6 1018 65 0 3.19 136 22:23 22.03.2020
6226 Clear -6 1018 65 0 3.19 136 21:55 22.03.2020
6227 Clear -6 1018 65 0 3.19 136 21:37 22.03.2020
6228 Clear -6 1018 65 0 3.19 136 21:19 22.03.2020
6229 Clear -6 1018 65 0 3.19 136 20:46 22.03.2020
6230 Clear -6 1018 65 0 3.19 136 20:25 22.03.2020
6231 Clear -6 1019 61 0 3.7 133 19:58 22.03.2020
6232 Clear -6 1019 61 0 3.7 133 19:40 22.03.2020
6233 Clear -6 1019 61 0 3.7 133 19:20 22.03.2020
6234 Clear -6 1019 61 0 3.7 133 18:59 22.03.2020
6235 Clear -6 1019 61 0 3.7 133 18:41 22.03.2020
6236 Clear -6 1019 61 0 3.7 133 18:22 22.03.2020
6237 Clear -6 1019 61 0 3.7 133 17:58 22.03.2020
6238 Clear -6 1019 61 0 3.7 133 17:38 22.03.2020
6239 Clear -6 1019 56 0 3.93 129 17:20 22.03.2020
6240 Clear -6 1019 56 0 3.93 129 16:57 22.03.2020
6241 Clear -6 1019 56 0 3.93 129 16:39 22.03.2020
6242 Clear -6 1019 56 0 3.93 129 16:21 22.03.2020
6243 Clear -6 1019 56 0 3.93 129 16:21 22.03.2020
6244 Clear -6 1019 56 0 3.93 129 15:44 22.03.2020
6245 Clear -6 1019 56 0 3.93 129 15:26 22.03.2020
6246 Clear -6 1019 56 0 3.93 129 14:46 22.03.2020
6247 Clear -5 1017 48 0 3.51 128 14:19 22.03.2020
6248 Clear -5 1017 48 0 3.51 128 13:45 22.03.2020
6249 Clear -5 1017 50 0 3.5 128 13:21 22.03.2020
6250 Clear -5 1017 50 0 3.5 128 12:59 22.03.2020
6251 Clear -5 1017 50 0 3.5 128 12:41 22.03.2020
6252 Clear -5 1017 50 0 3.5 128 12:19 22.03.2020
6253 Clear -5 1017 50 0 3.5 128 11:44 22.03.2020
6254 Clear -5 1017 50 0 3.5 128 11:25 22.03.2020
6255 Clear 1 1014 69 0 2.32 138 10:58 22.03.2020
6256 Clear 1 1014 69 0 2.32 138 10:40 22.03.2020
6257 Clear 1 1014 69 0 2.32 138 10:22 22.03.2020
6258 Clear 1 1014 69 0 2.32 138 09:47 22.03.2020
6259 Clear 1 1014 69 0 2.32 138 09:28 22.03.2020
6260 Clear 1 1014 69 0 2.32 138 08:51 22.03.2020
6261 Clear 1 1014 69 0 2.32 138 08:33 22.03.2020
6262 Clear 1 1014 69 0 2.32 138 08:33 22.03.2020
6263 Clear 1 1016 91 0 1.95 141 07:56 22.03.2020
6264 Clear 1 1016 91 0 1.95 141 07:38 22.03.2020
6265 Clear 1 1016 91 0 1.95 141 06:48 22.03.2020
6266 Clear 1 1016 91 0 1.95 141 05:52 22.03.2020
6267 Clear -2 1020 64 0 2.68 133 04:39 22.03.2020
6268 Clear -8 1022 39 0 3.26 122 01:47 22.03.2020
6269 Clear -8 1022 40 0 3.28 122 00:50 22.03.2020
6270 Clear -8 1022 40 0 3.28 122 00:31 22.03.2020
6271 Clear -8 1022 40 0 3.28 122 23:46 21.03.2020
6272 Clear -8 1022 40 0 3.28 122 23:22 21.03.2020
6273 Clear -8 1021 36 0 3.1 123 22:59 21.03.2020
6274 Clear -8 1021 36 0 3.1 123 22:38 21.03.2020
6275 Clear -8 1021 36 0 3.1 123 22:20 21.03.2020
6276 Clear -8 1021 36 0 3.1 123 21:58 21.03.2020
6277 Clear -8 1021 36 0 3.1 123 21:38 21.03.2020
6278 Clear -8 1021 36 0 3.1 123 21:19 21.03.2020
6279 Clear -8 1021 36 0 3.1 123 20:42 21.03.2020
6280 Clear -8 1022 38 0 3.18 122 20:22 21.03.2020
6281 Clear -8 1022 38 0 3.18 120 19:55 21.03.2020
6282 Clear -8 1022 38 0 3.18 120 19:36 21.03.2020
6283 Clear -8 1022 38 0 3.18 120 19:18 21.03.2020
6284 Clear -8 1022 38 0 3.18 120 18:41 21.03.2020
6285 Clear -8 1022 38 0 3.18 120 18:21 21.03.2020
6286 Clear -8 1022 38 0 3.18 120 17:58 21.03.2020
6287 Clear -8 1022 38 0 3.18 120 17:40 21.03.2020
6288 Clear -8 1022 38 0 3.18 120 17:22 21.03.2020
6289 Clear -8 1022 38 0 3.18 120 17:22 21.03.2020
6290 Clear -8 1021 41 0 3.06 120 16:42 21.03.2020
6291 Clear -8 1021 41 0 3.06 120 16:23 21.03.2020
6292 Clear -8 1021 41 0 3.06 120 15:59 21.03.2020
6293 Clear -8 1021 41 0 3.06 120 15:40 21.03.2020
6294 Clear -8 1021 41 0 3.06 120 15:40 21.03.2020
6295 Clear -8 1021 41 0 3.06 120 15:21 21.03.2020
6296 Clear -8 1021 41 0 3.06 120 14:56 21.03.2020
6297 Clear -8 1021 41 0 3.06 120 14:37 21.03.2020
6298 Clear -7 1019 58 0 2.52 120 14:19 21.03.2020
6299 Clear -7 1019 58 0 2.52 120 13:57 21.03.2020
6300 Clear -7 1019 58 0 2.52 120 13:38 21.03.2020
6301 Clear -6 1019 56 0 2.65 121 13:20 21.03.2020
6302 Clear -6 1019 56 0 2.65 121 12:54 21.03.2020
6303 Clear -6 1019 56 0 2.65 121 12:36 21.03.2020
6304 Clear -6 1019 56 0 2.65 121 12:18 21.03.2020
6305 Clear -6 1019 56 0 2.65 121 11:54 21.03.2020
6306 Clear -6 1019 56 0 2.65 121 11:36 21.03.2020
6307 Clear 0 1016 79 0 0.46 111 11:18 21.03.2020
6308 Clear 0 1016 79 0 0.46 111 10:55 21.03.2020
6309 Clear 0 1016 79 0 0.46 111 10:37 21.03.2020
6310 Clear 0 1016 79 0 0.46 111 10:18 21.03.2020
6311 Clear 0 1016 79 0 0.46 111 09:39 21.03.2020
6312 Clear 0 1016 79 0 0.46 111 09:21 21.03.2020
6313 Clear 0 1016 79 0 0.46 111 08:56 21.03.2020
6314 Clear 0 1016 79 0 0.46 111 08:38 21.03.2020
6315 Clear -1 1018 57 0 0.56 179 08:19 21.03.2020
6316 Clear -1 1018 57 0 0.56 179 07:39 21.03.2020
6317 Clear -1 1018 57 0 0.56 179 07:20 21.03.2020
6318 Clear -1 1018 57 0 0.56 179 06:44 21.03.2020
6319 Clear -1 1018 57 0 0.56 179 06:25 21.03.2020
6320 Clear -1 1018 57 0 0.56 179 05:40 21.03.2020
6321 Clear -4 1021 63 0 1.97 117 04:26 21.03.2020
6322 Clear -4 1021 63 0 1.97 117 02:37 21.03.2020
6323 Clear -11 1024 47 0 2.49 114 01:45 21.03.2020
6324 Clear -12 1024 46 0 2.52 115 01:25 21.03.2020
6325 Clear -12 1024 46 0 2.52 115 00:39 21.03.2020
6326 Clear -12 1024 46 0 2.52 115 00:21 21.03.2020
6327 Clear -12 1024 46 0 2.52 115 23:43 20.03.2020
6328 Clear -12 1024 46 0 2.52 115 23:22 20.03.2020
6329 Clear -12 1023 52 0 2.1 117 22:44 20.03.2020
6330 Clear -12 1023 52 0 2.1 117 22:25 20.03.2020
6331 Clear -12 1023 52 0 2.1 117 21:58 20.03.2020
6332 Clear -12 1023 52 0 2.1 117 21:40 20.03.2020
6333 Clear -12 1023 52 0 2.1 117 21:20 20.03.2020
6334 Clear -12 1023 52 0 2.1 117 20:58 20.03.2020
6335 Clear -12 1023 52 0 2.1 117 20:40 20.03.2020
6336 Clear -12 1022 58 0 1.75 115 20:20 20.03.2020
6337 Clear -13 1023 51 0 1.83 120 19:48 20.03.2020
6338 Clear -13 1023 51 0 1.83 120 19:21 20.03.2020
6339 Clear -13 1023 51 0 1.83 120 18:58 20.03.2020
6340 Clear -13 1023 51 0 1.83 120 18:38 20.03.2020
6341 Clear -13 1023 51 0 1.83 120 18:20 20.03.2020
6342 Clear -13 1023 51 0 1.83 120 17:56 20.03.2020
6343 Clear -13 1023 51 0 1.83 120 17:37 20.03.2020
6344 Clear -12 1022 71 0 1.95 117 17:19 20.03.2020
6345 Clear -12 1022 71 0 1.95 117 16:42 20.03.2020
6346 Clear -12 1022 71 0 1.95 117 16:21 20.03.2020
6347 Clear -12 1022 71 0 1.95 117 15:55 20.03.2020
6348 Clear -12 1022 71 0 1.95 117 15:37 20.03.2020
6349 Clear -12 1022 71 0 1.95 117 15:18 20.03.2020
6350 Clear -12 1022 71 0 1.95 117 14:42 20.03.2020
6351 Clear -12 1022 71 0 1.95 117 14:21 20.03.2020
6352 Clouds -12 1019 97 0 0.94 109 13:49 20.03.2020
6353 Clouds -12 1018 96 0 0.95 104 13:25 20.03.2020
6354 Clouds -12 1018 96 0 0.95 104 12:58 20.03.2020
6355 Clouds -12 1018 96 0 0.95 104 12:38 20.03.2020
6356 Clouds -12 1018 96 0 0.95 104 12:20 20.03.2020
6357 Clouds -12 1018 96 0 0.95 104 11:39 20.03.2020
6358 Clouds -12 1018 96 0 0.95 104 11:21 20.03.2020
6359 Clouds -5 1015 85 0 1.64 281 10:56 20.03.2020
6360 Clouds -5 1015 85 0 1.64 281 10:38 20.03.2020
6361 Clouds -5 1015 85 0 1.64 281 10:18 20.03.2020
6362 Clouds -5 1015 85 0 1.64 281 10:18 20.03.2020
6363 Clouds -5 1015 85 0 1.64 281 10:18 20.03.2020
6364 Clouds -5 1015 85 0 1.64 281 09:45 20.03.2020
6365 Clouds -5 1015 85 0 1.64 281 09:21 20.03.2020
6366 Clouds -5 1015 85 0 1.64 281 08:57 20.03.2020
6367 Clouds -5 1015 85 0 1.64 281 08:38 20.03.2020
6368 Clouds -5 1016 85 0 2.14 289 08:18 20.03.2020
6369 Clouds -5 1016 85 0 2.14 289 07:41 20.03.2020
6370 Clouds -5 1016 85 0 2.14 289 07:23 20.03.2020
6371 Clouds -5 1016 85 0 2.14 289 06:42 20.03.2020
6372 Clouds -5 1016 85 0 2.14 289 06:18 20.03.2020
6373 Snow -7 1018 91 0 1.27 325 04:39 20.03.2020
6374 Snow -7 1018 91 0 1.27 325 02:51 20.03.2020
6375 Snow -10 1016 96 0 0.16 10 01:50 20.03.2020
6376 Snow -12 1016 97 0 1.3 277 00:45 20.03.2020
6377 Snow -12 1016 97 0 1.3 277 00:23 20.03.2020
6378 Snow -12 1016 97 0 1.3 277 23:42 19.03.2020
6379 Snow -12 1016 97 0 1.3 277 23:23 19.03.2020
6380 Snow -8 1013 95 0 1.99 310 22:41 19.03.2020
6381 Snow -8 1013 95 0 1.99 310 22:23 19.03.2020
6382 Snow -8 1013 95 0 1.99 310 21:58 19.03.2020
6383 Snow -8 1013 95 0 1.99 310 21:38 19.03.2020
6384 Snow -8 1013 95 0 1.99 310 21:20 19.03.2020
6385 Snow -8 1013 95 0 1.99 310 20:54 19.03.2020
6386 Snow -8 1013 95 0 1.99 310 20:36 19.03.2020
6387 Clouds -8 1013 75 0 3.45 114 20:18 19.03.2020
6388 Clouds -8 1013 75 0 3.45 114 19:39 19.03.2020
6389 Clouds -8 1013 75 0 3.45 114 19:21 19.03.2020
6390 Clouds -8 1013 75 0 3.45 114 18:59 19.03.2020
6391 Clouds -8 1013 75 0 3.45 114 18:41 19.03.2020
6392 Clouds -8 1013 75 0 3.45 114 18:22 19.03.2020
6393 Clouds -8 1013 75 0 3.45 114 17:55 19.03.2020
6394 Clouds -8 1013 75 0 3.45 114 17:37 19.03.2020
6395 Clouds -11 1015 48 0 2.79 118 17:18 19.03.2020
6396 Clouds -11 1015 48 0 2.79 118 16:42 19.03.2020
6397 Clouds -11 1015 48 0 2.79 118 16:21 19.03.2020
6398 Clouds -11 1015 48 0 2.79 118 15:44 19.03.2020
6399 Clouds -11 1015 48 0 2.79 118 15:24 19.03.2020
6400 Clouds -11 1015 48 0 2.79 118 14:43 19.03.2020
6401 Clouds -11 1015 48 0 2.79 118 14:23 19.03.2020
6402 Clouds -10 1015 79 0 1.68 126 13:59 19.03.2020
6403 Clouds -10 1015 79 0 1.68 126 13:38 19.03.2020
6404 Clouds -9 1014 81 0 1.3 127 13:18 19.03.2020
6405 Clouds -9 1014 81 0 1.3 127 12:42 19.03.2020
6406 Clouds -9 1014 81 0 1.3 127 12:24 19.03.2020
6407 Clouds -9 1014 81 0 1.3 127 11:58 19.03.2020
6408 Clouds -9 1014 81 0 1.3 127 11:40 19.03.2020
6409 Clouds -9 1014 81 0 1.3 127 11:22 19.03.2020
6410 Clouds -3 1012 75 0 0.85 301 10:43 19.03.2020
6411 Clouds -3 1012 75 0 0.85 301 10:22 19.03.2020
6412 Clouds -3 1012 75 0 0.85 301 09:58 19.03.2020
6413 Clouds -3 1012 75 0 0.85 301 09:39 19.03.2020
6414 Clouds -3 1012 75 0 0.85 301 09:19 19.03.2020
6415 Clouds -3 1012 75 0 0.85 301 08:46 19.03.2020
6416 Clouds -3 1012 75 0 0.85 301 08:22 19.03.2020
6417 Clouds -3 1013 84 0 2.51 290 07:47 19.03.2020
6418 Clouds -3 1013 84 0 2.51 290 07:29 19.03.2020
6419 Clouds -3 1013 84 0 2.51 290 06:51 19.03.2020
6420 Clouds -3 1013 84 0 2.51 290 05:52 19.03.2020
6421 Snow -4 1015 87 0 2.11 257 05:19 19.03.2020
6422 Snow -4 1015 87 0 2.11 257 04:40 19.03.2020
6423 Snow -4 1015 87 0 2.11 257 03:20 19.03.2020
6424 Clouds -5 1015 68 0 1.36 227 01:27 19.03.2020
6425 Clouds -6 1016 65 0 0.92 209 00:37 19.03.2020
6426 Clouds -6 1016 65 0 0.92 209 23:58 18.03.2020
6427 Clouds -6 1016 65 0 0.92 209 23:36 18.03.2020
6428 Clear -7 1013 54 0 1.64 198 23:18 18.03.2020
6429 Clear -7 1013 54 0 1.64 198 22:42 18.03.2020
6430 Clear -7 1013 54 0 1.64 198 22:22 18.03.2020
6431 Clear -7 1013 54 0 1.64 198 21:54 18.03.2020
6432 Clear -7 1013 54 0 1.64 198 21:36 18.03.2020
6433 Clear -7 1013 54 0 1.64 198 21:18 18.03.2020
6434 Clear -7 1013 54 0 1.64 198 20:41 18.03.2020
6435 Clouds -7 1013 53 0 1.52 203 20:21 18.03.2020
6436 Clouds -4 1013 51 0 2.28 163 19:58 18.03.2020
6437 Clouds -4 1013 51 0 2.28 163 19:40 18.03.2020
6438 Clouds -4 1013 51 0 2.28 163 19:21 18.03.2020
6439 Clouds -4 1013 51 0 2.28 163 19:21 18.03.2020
6440 Clouds -4 1013 51 0 2.28 163 18:54 18.03.2020
6441 Clouds -4 1013 51 0 2.28 163 18:36 18.03.2020
6442 Clouds -4 1013 51 0 2.28 163 18:18 18.03.2020
6443 Clouds -4 1013 51 0 2.28 163 17:41 18.03.2020
6444 Clouds -4 1013 51 0 2.28 163 17:22 18.03.2020
6445 Clouds -5 1014 51 0 1.87 152 16:59 18.03.2020
6446 Clouds -5 1014 51 0 1.87 152 16:40 18.03.2020
6447 Clouds -5 1014 51 0 1.87 152 16:20 18.03.2020
6448 Clouds -5 1014 51 0 1.87 152 15:46 18.03.2020
6449 Clouds -5 1014 51 0 1.87 152 15:27 18.03.2020
6450 Clouds -5 1014 51 0 1.87 152 14:58 18.03.2020
6451 Clouds -5 1014 51 0 1.87 152 14:40 18.03.2020
6452 Clouds -5 1014 51 0 1.87 152 14:21 18.03.2020
6453 Clouds -5 1015 59 0 2.18 153 13:40 18.03.2020
6454 Clouds -5 1015 59 0 2.18 153 13:19 18.03.2020
6455 Clouds -5 1015 59 0 2.18 153 13:19 18.03.2020
6456 Clouds -5 1014 60 0 2.05 147 12:42 18.03.2020
6457 Clouds -5 1014 60 0 2.05 147 12:21 18.03.2020
6458 Clouds -5 1014 60 0 2.05 147 12:21 18.03.2020
6459 Clouds -5 1014 60 0 2.05 147 11:58 18.03.2020
6460 Clouds -5 1014 60 0 2.05 147 11:37 18.03.2020
6461 Clouds 0 1013 79 0 1.76 152 11:18 18.03.2020
6462 Clouds 0 1013 79 0 1.76 152 10:55 18.03.2020
6463 Clouds 0 1013 79 0 1.76 152 10:36 18.03.2020
6464 Clouds 0 1013 79 0 1.76 152 10:18 18.03.2020
6465 Clouds 0 1013 79 0 1.76 152 09:41 18.03.2020
6466 Clouds 0 1013 79 0 1.76 152 09:22 18.03.2020
6467 Clouds 0 1013 79 0 1.76 152 08:40 18.03.2020
6468 Clouds 0 1013 79 0 1.76 152 08:22 18.03.2020
6469 Clouds 0 1017 73 0 1.42 154 07:59 18.03.2020
6470 Clouds 0 1017 73 0 1.42 154 07:37 18.03.2020
6471 Clouds 0 1017 73 0 1.42 154 07:19 18.03.2020
6472 Clouds 0 1017 73 0 1.42 154 06:39 18.03.2020
6473 Clouds 0 1017 73 0 1.42 154 05:37 18.03.2020
6474 Clear -4 1023 50 0 1.62 149 04:38 18.03.2020
6475 Clear -4 1023 50 0 1.62 149 03:21 18.03.2020
6476 Clear -4 1023 50 0 1.62 149 02:37 18.03.2020
6477 Clouds -11 1027 25 0 2.23 126 01:43 18.03.2020
6478 Clear -11 1027 26 0 2.27 130 00:45 18.03.2020
6479 Clear -11 1027 26 0 2.27 130 00:21 18.03.2020
6480 Clear -11 1027 26 0 2.27 130 23:42 17.03.2020
6481 Clear -11 1027 26 0 2.27 130 23:21 17.03.2020
6482 Clear -11 1027 56 0 2.16 96 22:45 17.03.2020
6483 Clear -11 1026 59 0 1.62 105 22:26 17.03.2020
6484 Clear -11 1026 59 0 1.62 105 21:44 17.03.2020
6485 Clear -11 1026 59 0 1.62 105 21:25 17.03.2020
6486 Clear -11 1027 56 0 2.16 96 20:58 17.03.2020
6487 Clear -11 1027 56 0 2.16 96 20:38 17.03.2020
6488 Clear -11 1026 58 0 1.83 86 20:19 17.03.2020
6489 Clear -11 1026 58 0 1.83 86 19:42 17.03.2020
6490 Clear -11 1026 58 0 1.83 86 19:20 17.03.2020
6491 Clear -11 1026 58 0 1.83 86 18:57 17.03.2020
6492 Clear -11 1026 58 0 1.83 86 18:39 17.03.2020
6493 Clear -11 1026 58 0 1.83 86 18:21 17.03.2020
6494 Clear -11 1026 58 0 1.83 86 17:56 17.03.2020
6495 Clear -11 1026 58 0 1.83 86 17:37 17.03.2020
6496 Clear -10 1024 53 0 1.56 69 17:18 17.03.2020
6497 Clear -10 1024 53 0 1.56 69 16:41 17.03.2020
6498 Clear -10 1024 53 0 1.56 69 16:19 17.03.2020
6499 Clear -10 1024 53 0 1.56 69 15:45 17.03.2020
6500 Clear -10 1024 53 0 1.56 69 15:22 17.03.2020
6501 Clear -10 1024 53 0 1.56 69 14:44 17.03.2020
6502 Clear -10 1024 53 0 1.56 69 14:26 17.03.2020
6503 Clear -9 1021 52 0 0.69 230 13:58 17.03.2020
6504 Clear -9 1021 52 0 0.69 230 13:39 17.03.2020
6505 Clear -9 1021 52 0 0.69 230 13:21 17.03.2020
6506 Clear -9 1021 52 0 0.52 237 12:44 17.03.2020
6507 Clear -9 1021 52 0 0.52 237 12:24 17.03.2020
6508 Clear -9 1021 52 0 0.52 237 11:55 17.03.2020
6509 Clear -9 1021 54 0 0.23 220 11:37 17.03.2020
6510 Clear -2 1016 71 0 1.91 257 11:19 17.03.2020
6511 Clear -1 1016 71 0 1.86 253 10:54 17.03.2020
6512 Clear -1 1016 71 0 1.86 253 10:36 17.03.2020
6513 Clear -1 1016 71 0 1.86 253 10:18 17.03.2020
6514 Clear -2 1016 71 0 1.91 257 09:44 17.03.2020
6515 Clear -1 1016 71 0 1.86 253 09:20 17.03.2020
6516 Clear -1 1016 71 0 1.86 253 08:51 17.03.2020
6517 Clear -2 1016 71 0 1.91 257 08:24 17.03.2020
6518 Clouds 0 1017 66 0 1.93 244 07:58 17.03.2020
6519 Clouds 0 1017 66 0 1.93 244 07:39 17.03.2020
6520 Clouds 0 1017 66 0 1.93 244 07:19 17.03.2020
6521 Clouds 0 1017 66 0 1.93 244 06:40 17.03.2020
6522 Clouds 0 1017 66 0 1.93 244 06:19 17.03.2020
6523 Clouds -1 1020 60 0 0.92 227 04:40 17.03.2020
6524 Clouds -1 1020 60 0 0.92 227 03:19 17.03.2020
6525 Clouds -7 1022 30 0 1.2 144 01:49 17.03.2020
6526 Clouds -7 1022 30 0 1.2 144 01:28 17.03.2020
6527 Clouds -7 1022 30 0 1.34 135 00:48 17.03.2020
6528 Clouds -7 1022 30 0 1.34 135 23:51 16.03.2020
6529 Clouds -7 1022 30 0 1.34 135 23:32 16.03.2020
6530 Clouds -8 1022 27 0 1.64 139 22:43 16.03.2020
6531 Clouds -8 1022 27 0 1.64 139 22:25 16.03.2020
6532 Clouds -8 1022 27 0 1.64 139 21:59 16.03.2020
6533 Clouds -8 1022 27 0 1.64 139 21:40 16.03.2020
6534 Clouds -8 1022 27 0 1.64 139 21:22 16.03.2020
6535 Clouds -8 1022 27 0 1.64 139 20:56 16.03.2020
6536 Clouds -8 1022 27 0 1.64 139 20:38 16.03.2020
6537 Clouds -7 1022 33 0 2.72 134 20:19 16.03.2020
6538 Clouds -7 1022 33 0 2.72 134 19:41 16.03.2020
6539 Clouds -7 1022 33 0 2.72 134 19:21 16.03.2020
6540 Clouds -7 1022 33 0 2.72 134 18:56 16.03.2020
6541 Clouds -7 1022 33 0 2.72 134 18:37 16.03.2020
6542 Clouds -7 1022 33 0 2.72 134 18:18 16.03.2020
6543 Clouds -7 1022 33 0 2.72 134 17:42 16.03.2020
6544 Clouds -7 1022 33 0 2.72 134 17:22 16.03.2020
6545 Clouds -6 1023 37 0 3.02 136 16:46 16.03.2020
6546 Clouds -6 1023 37 0 3.02 136 16:27 16.03.2020
6547 Clouds -6 1023 37 0 3.02 136 15:56 16.03.2020
6548 Clouds -6 1023 37 0 3.02 136 15:37 16.03.2020
6549 Clouds -6 1023 37 0 3.02 136 15:18 16.03.2020
6550 Clouds -6 1023 37 0 3.02 136 14:39 16.03.2020
6551 Clouds -5 1022 42 0 3.16 136 14:19 16.03.2020
6552 Clouds -5 1022 42 0 3.16 136 13:41 16.03.2020
6553 Clouds -5 1022 42 0 3.16 136 13:22 16.03.2020
6554 Clouds -5 1021 42 0 3.15 137 12:45 16.03.2020
6555 Clouds -5 1021 42 0 3.15 137 12:26 16.03.2020
6556 Clouds -5 1021 42 0 3.15 137 11:56 16.03.2020
6557 Clouds -5 1021 42 0 3.15 137 11:37 16.03.2020
6558 Clouds 1 1020 73 0 1.78 159 11:18 16.03.2020
6559 Clouds 1 1020 73 0 1.78 159 10:40 16.03.2020
6560 Clouds 1 1020 73 0 1.78 159 10:19 16.03.2020
6561 Clouds 1 1020 73 0 1.78 159 09:42 16.03.2020
6562 Clouds 1 1020 73 0 1.78 159 09:24 16.03.2020
6563 Clouds 1 1020 73 0 1.78 159 08:53 16.03.2020
6564 Clouds 1 1020 73 0 1.78 159 08:25 16.03.2020
6565 Clouds 0 1023 91 0 1.12 163 07:49 16.03.2020
6566 Clouds 0 1023 91 0 1.12 163 07:27 16.03.2020
6567 Clouds 0 1023 91 0 1.12 163 06:54 16.03.2020
6568 Clouds 0 1023 91 0 1.12 163 06:25 16.03.2020
6569 Clouds 0 1023 91 0 1.12 163 05:42 16.03.2020
6570 Clouds -3 1027 64 0 2.01 130 02:44 16.03.2020
6571 Clouds -10 1031 31 0 2.26 121 01:20 16.03.2020
6572 Clouds -10 1031 31 0 2.26 121 00:39 16.03.2020
6573 Clouds -10 1031 31 0 2.26 121 00:39 16.03.2020
6574 Clouds -10 1031 31 0 2.26 121 23:47 15.03.2020
6575 Clear -10 1029 36 0 1.32 132 23:20 15.03.2020
6576 Clear -10 1029 36 0 1.32 132 22:43 15.03.2020
6577 Clear -10 1029 36 0 1.32 132 22:23 15.03.2020
6578 Clear -10 1029 36 0 1.32 132 21:58 15.03.2020
6579 Clear -10 1029 36 0 1.32 132 21:38 15.03.2020
6580 Clear -10 1029 36 0 1.32 132 21:18 15.03.2020
6581 Clear -10 1029 36 0 1.32 132 20:42 15.03.2020
6582 Clear -10 1029 33 0 1.44 129 20:21 15.03.2020
6583 Clear -10 1029 36 0 1.55 122 19:58 15.03.2020
6584 Clear -10 1029 36 0 1.55 122 19:39 15.03.2020
6585 Clear -10 1029 36 0 1.55 122 19:39 15.03.2020
6586 Clear -10 1029 36 0 1.55 122 19:20 15.03.2020
6587 Clear -10 1029 36 0 1.55 122 19:20 15.03.2020
6588 Clear -10 1029 36 0 1.55 122 18:55 15.03.2020
6589 Clear -10 1029 36 0 1.55 122 18:37 15.03.2020
6590 Clear -10 1029 36 0 1.55 122 18:19 15.03.2020
6591 Clear -10 1029 36 0 1.55 122 17:41 15.03.2020
6592 Clear -10 1029 36 0 1.55 122 17:21 15.03.2020
6593 Clear -10 1029 43 0 1.9 115 16:58 15.03.2020
6594 Clear -10 1029 43 0 1.9 115 16:39 15.03.2020
6595 Clear -10 1029 43 0 1.9 115 16:21 15.03.2020
6596 Clear -10 1029 43 0 1.9 115 15:46 15.03.2020
6597 Clear -10 1029 43 0 1.9 115 15:28 15.03.2020
6598 Clear -10 1029 43 0 1.9 115 14:58 15.03.2020
6599 Clear -10 1029 43 0 1.9 115 14:38 15.03.2020
6600 Clear -10 1027 53 0 1.12 143 14:19 15.03.2020
6601 Clear -10 1027 53 0 1.12 143 13:55 15.03.2020
6602 Clear -10 1027 53 0 1.12 143 13:36 15.03.2020
6603 Clear -10 1027 53 0 1.12 143 13:18 15.03.2020
6604 Clear -10 1027 54 0 1.14 129 12:40 15.03.2020
6605 Clear -10 1027 54 0 1.14 129 12:21 15.03.2020
6606 Clear -10 1027 54 0 1.14 129 12:21 15.03.2020
6607 Clear -10 1027 54 0 1.14 129 11:43 15.03.2020
6608 Clear -10 1027 54 0 1.14 129 11:24 15.03.2020
6609 Clear -2 1023 72 0 0.76 270 10:57 15.03.2020
6610 Clear -2 1023 72 0 0.76 270 10:39 15.03.2020
6611 Clear -2 1023 72 0 0.76 270 10:39 15.03.2020
6612 Clear -2 1023 72 0 0.76 270 10:21 15.03.2020
6613 Clear -2 1023 72 0 0.76 270 09:44 15.03.2020
6614 Clear -2 1023 72 0 0.76 270 09:25 15.03.2020
6615 Clear -2 1023 72 0 0.76 270 08:58 15.03.2020
6616 Clear -2 1023 72 0 0.76 270 08:40 15.03.2020
6617 Clear -2 1023 72 0 0.76 270 08:40 15.03.2020
6618 Clear -2 1025 49 0 1.27 295 08:18 15.03.2020
6619 Clear -3 1025 50 0 1.37 280 07:44 15.03.2020
6620 Clear -3 1025 50 0 1.37 280 06:59 15.03.2020
6621 Clear -3 1025 50 0 1.37 280 06:35 15.03.2020
6622 Clear -3 1025 50 0 1.37 280 05:46 15.03.2020
6623 Clear -5 1028 55 0 0.26 61 04:49 15.03.2020
6624 Clear -5 1028 55 0 0.26 61 04:29 15.03.2020
6625 Clear -5 1028 55 0 0.26 61 03:55 15.03.2020
6626 Clear -5 1028 55 0 0.26 61 02:48 15.03.2020
6627 Clear -12 1029 43 0 1.51 133 01:56 15.03.2020
6628 Clear -12 1029 42 0 1.49 137 00:53 15.03.2020
6629 Clear -12 1029 42 0 1.49 137 00:28 15.03.2020
6630 Clear -12 1029 42 0 1.49 137 23:58 14.03.2020
6631 Clear -12 1029 42 0 1.49 137 23:37 14.03.2020
6632 Clear -12 1027 42 0 1.27 153 23:19 14.03.2020
6633 Clear -12 1027 42 0 1.27 153 22:46 14.03.2020
6634 Clear -12 1027 42 0 1.27 153 22:27 14.03.2020
6635 Clear -12 1027 42 0 1.27 153 21:57 14.03.2020
6636 Clear -12 1027 42 0 1.27 153 21:37 14.03.2020
6637 Clear -12 1027 42 0 1.27 153 21:19 14.03.2020
6638 Clear -12 1027 42 0 1.27 153 21:19 14.03.2020
6639 Clear -12 1027 42 0 1.27 153 20:59 14.03.2020
6640 Clear -12 1027 42 0 1.27 153 20:41 14.03.2020
6641 Clear -11 1025 39 0 1.52 149 20:20 14.03.2020
6642 Clear -11 1026 40 0 1.44 147 19:59 14.03.2020
6643 Clear -11 1026 40 0 1.44 147 19:40 14.03.2020
6644 Clear -11 1026 40 0 1.44 147 19:20 14.03.2020
6645 Clear -11 1026 40 0 1.44 147 18:39 14.03.2020
6646 Clear -11 1026 40 0 1.44 147 18:19 14.03.2020
6647 Clear -11 1026 40 0 1.44 147 17:40 14.03.2020
6648 Clear -11 1026 40 0 1.44 147 17:21 14.03.2020
6649 Clear -10 1024 45 0 2.38 147 16:57 14.03.2020
6650 Clear -10 1024 45 0 2.38 147 16:38 14.03.2020
6651 Clear -10 1024 45 0 2.38 147 16:18 14.03.2020
6652 Clear -10 1024 45 0 2.38 147 15:28 14.03.2020
6653 Clear -10 1024 45 0 2.38 147 14:59 14.03.2020
6654 Clear -10 1024 45 0 2.38 147 14:38 14.03.2020
6655 Clouds -8 1022 52 0 3.16 144 14:20 14.03.2020
6656 Clouds -8 1022 52 0 3.16 144 13:56 14.03.2020
6657 Clouds -8 1022 52 0 3.16 144 13:38 14.03.2020
6658 Clouds -8 1022 52 0 2.83 145 13:18 14.03.2020
6659 Clouds -8 1022 52 0 2.83 145 12:43 14.03.2020
6660 Clouds -8 1022 52 0 2.83 145 12:43 14.03.2020
6661 Clouds -8 1022 52 0 2.83 145 12:24 14.03.2020
6662 Clouds -8 1022 52 0 2.83 145 11:43 14.03.2020
6663 Clouds -8 1022 52 0 2.83 145 11:43 14.03.2020
6664 Clouds -8 1022 52 0 2.83 145 11:25 14.03.2020
6665 Clouds -2 1019 70 0 2.86 147 10:47 14.03.2020
6666 Clouds -2 1019 70 0 2.86 147 10:47 14.03.2020
6667 Clouds -2 1019 70 0 2.86 147 10:28 14.03.2020
6668 Clouds -2 1019 70 0 2.86 147 09:59 14.03.2020
6669 Clouds -2 1019 70 0 2.86 147 09:40 14.03.2020
6670 Clouds -2 1019 70 0 2.86 147 09:21 14.03.2020
6671 Clouds -2 1019 70 0 2.86 147 08:46 14.03.2020
6672 Clouds -2 1019 70 0 2.86 147 08:26 14.03.2020
6673 Clouds -1 1021 76 0 2.57 141 07:40 14.03.2020
6674 Clouds -1 1021 76 0 2.57 141 07:21 14.03.2020
6675 Clouds -1 1021 76 0 2.57 141 06:55 14.03.2020
6676 Clouds -1 1021 76 0 2.57 141 06:34 14.03.2020
6677 Clear -4 1027 66 0 3.04 119 04:56 14.03.2020
6678 Clear -4 1027 66 0 3.04 119 03:37 14.03.2020
6679 Clear -4 1027 66 0 3.04 119 02:53 14.03.2020
6680 Clear -11 1031 50 0 3.34 117 01:47 14.03.2020
6681 Clear -11 1031 50 0 3.34 117 00:34 14.03.2020
6682 Clear -11 1031 50 0 3.34 117 23:42 13.03.2020
6683 Clear -11 1031 50 0 3.34 117 23:23 13.03.2020
6684 Clear -11 1033 53 0 2.78 118 22:45 13.03.2020
6685 Clear -11 1033 53 0 2.78 118 22:22 13.03.2020
6686 Clear -11 1033 53 0 2.78 118 21:41 13.03.2020
6687 Clear -11 1033 53 0 2.78 118 21:19 13.03.2020
6688 Clear -11 1033 53 0 2.78 118 20:43 13.03.2020
6689 Clear -11 1033 53 0 2.78 118 20:23 13.03.2020
6690 Clear -12 1036 55 0 2.7 116 19:58 13.03.2020
6691 Clear -12 1036 55 0 2.7 116 19:39 13.03.2020
6692 Clear -12 1036 55 0 2.7 116 19:19 13.03.2020
6693 Clear -12 1036 55 0 2.7 116 18:43 13.03.2020
6694 Clear -12 1036 55 0 2.7 116 18:23 13.03.2020
6695 Clear -12 1036 55 0 2.7 116 17:43 13.03.2020
6696 Clear -12 1036 55 0 2.7 116 17:21 13.03.2020
6697 Clear -12 1037 60 0 2.66 101 16:57 13.03.2020
6698 Clear -12 1037 60 0 2.66 101 16:38 13.03.2020
6699 Clear -12 1037 60 0 2.66 101 16:20 13.03.2020
6700 Clear -12 1037 60 0 2.66 101 15:45 13.03.2020
6701 Clear -12 1037 60 0 2.66 101 15:22 13.03.2020
6702 Clear -12 1037 60 0 2.66 101 14:58 13.03.2020
6703 Clear -12 1037 60 0 2.66 101 14:40 13.03.2020
6704 Clear -12 1037 60 0 2.66 101 14:21 13.03.2020
6705 Clear -13 1037 66 0 1.97 98 13:42 13.03.2020
6706 Clear -13 1037 66 0 2.06 99 13:24 13.03.2020
6707 Clear -13 1037 66 0 2.06 99 12:59 13.03.2020
6708 Clear -13 1037 66 0 2.06 99 12:38 13.03.2020
6709 Clear -13 1037 66 0 2.06 99 12:20 13.03.2020
6710 Clear -13 1037 66 0 2.06 99 11:56 13.03.2020
6711 Clear -13 1037 66 0 2.06 99 11:36 13.03.2020
6712 Clear -8 1034 69 0 1.05 314 11:18 13.03.2020
6713 Clear -8 1034 69 0 1.05 314 10:46 13.03.2020
6714 Clear -8 1034 69 0 1.05 314 10:26 13.03.2020
6715 Clear -8 1034 69 0 1.05 314 09:49 13.03.2020
6716 Clear -8 1034 69 0 1.05 314 09:30 13.03.2020
6717 Clear -8 1034 69 0 1.05 314 08:59 13.03.2020
6718 Clear -8 1034 69 0 1.05 314 08:41 13.03.2020
6719 Clear -8 1034 69 0 1.05 314 08:22 13.03.2020
6720 Clear -8 1036 57 0 1.6 295 07:44 13.03.2020
6721 Clear -8 1036 57 0 1.6 295 07:25 13.03.2020
6722 Clear -8 1036 57 0 1.6 295 06:46 13.03.2020
6723 Clear -8 1036 57 0 1.6 295 06:23 13.03.2020
6724 Clear -8 1036 57 0 1.6 295 05:46 13.03.2020
6725 Clear -12 1041 53 0 0.91 82 04:57 13.03.2020
6726 Clear -12 1041 53 0 0.91 82 04:26 13.03.2020
6727 Clear -12 1041 53 0 0.91 82 02:58 13.03.2020
6728 Clear -19 1044 47 0 1.76 99 01:39 13.03.2020
6729 Clear -19 1044 47 0 1.76 99 01:18 13.03.2020
6730 Clear -19 1044 47 0 1.66 99 00:42 13.03.2020
6731 Clear -19 1044 47 0 1.66 99 00:19 13.03.2020
6732 Clear -19 1044 47 0 1.66 99 23:39 12.03.2020
6733 Clear -20 1044 49 0 1.67 103 23:19 12.03.2020
6734 Clear -20 1044 49 0 1.67 103 22:47 12.03.2020
6735 Clear -20 1044 49 0 1.67 103 22:28 12.03.2020
6736 Clear -20 1044 49 0 1.67 103 21:57 12.03.2020
6737 Clear -20 1044 49 0 1.67 103 21:39 12.03.2020
6738 Clear -20 1044 49 0 1.67 103 21:20 12.03.2020
6739 Clear -20 1044 49 0 1.67 103 20:42 12.03.2020
6740 Clear -21 1045 53 0 1.64 110 20:20 12.03.2020
6741 Clear -21 1045 53 0 1.64 110 19:56 12.03.2020
6742 Clear -21 1045 53 0 1.64 110 19:37 12.03.2020
6743 Clear -21 1045 53 0 1.64 110 19:18 12.03.2020
6744 Clear -21 1045 53 0 1.64 110 18:42 12.03.2020
6745 Clear -21 1045 53 0 1.64 110 18:22 12.03.2020
6746 Clear -21 1045 53 0 1.64 110 17:56 12.03.2020
6747 Clear -21 1045 53 0 1.64 110 17:37 12.03.2020
6748 Clear -22 1045 67 0 1.69 108 17:18 12.03.2020
6749 Clear -22 1045 67 0 1.69 108 16:41 12.03.2020
6750 Clear -22 1045 67 0 1.69 108 16:22 12.03.2020
6751 Clear -22 1045 67 0 1.69 108 15:49 12.03.2020
6752 Clear -22 1045 67 0 1.69 108 15:28 12.03.2020
6753 Clear -22 1045 67 0 1.69 108 14:56 12.03.2020
6754 Clear -22 1045 67 0 1.69 108 14:38 12.03.2020
6755 Clouds -21 1043 85 0 0.99 120 14:18 12.03.2020
6756 Clouds -21 1043 85 0 0.99 120 13:40 12.03.2020
6757 Clouds -21 1043 85 0 0.95 118 13:21 12.03.2020
6758 Clouds -21 1043 85 0 0.95 118 12:55 12.03.2020
6759 Clouds -21 1043 85 0 0.95 118 12:55 12.03.2020
6760 Clouds -21 1043 85 0 0.95 118 12:37 12.03.2020
6761 Clouds -21 1043 85 0 0.95 118 12:18 12.03.2020
6762 Clouds -21 1043 85 0 0.95 118 11:55 12.03.2020
6763 Clouds -21 1043 85 0 0.95 118 11:36 12.03.2020
6764 Clear -15 1039 75 0 1.75 293 11:18 12.03.2020
6765 Clear -15 1039 75 0 1.75 293 10:43 12.03.2020
6766 Clear -15 1039 75 0 1.75 293 10:23 12.03.2020
6767 Clear -15 1039 75 0 1.75 293 09:59 12.03.2020
6768 Clear -15 1039 75 0 1.75 293 09:40 12.03.2020
6769 Clear -15 1039 75 0 1.75 293 09:22 12.03.2020
6770 Clear -15 1039 75 0 1.75 293 08:39 12.03.2020
6771 Clear -15 1042 62 0 1.74 299 08:18 12.03.2020
6772 Clear -15 1042 62 0 1.74 299 07:47 12.03.2020
6773 Clear -15 1042 62 0 1.74 299 07:22 12.03.2020
6774 Clear -15 1042 62 0 1.74 299 06:26 12.03.2020
6775 Clear -15 1042 62 0 1.74 299 05:35 12.03.2020
6776 Clear -19 1045 61 0 0.83 94 03:44 12.03.2020
6777 Clear -25 1047 62 0 2.16 107 01:58 12.03.2020
6778 Clear -25 1047 62 0 2.16 107 01:23 12.03.2020
6779 Clear -25 1047 62 0 2.14 107 00:42 12.03.2020
6780 Clear -25 1047 62 0 2.14 107 23:58 11.03.2020
6781 Clear -25 1047 62 0 2.14 107 23:29 11.03.2020
6782 Clear -25 1044 68 0 2.62 96 22:59 11.03.2020
6783 Clear -25 1044 68 0 2.62 96 22:40 11.03.2020
6784 Clear -25 1044 68 0 2.62 96 22:21 11.03.2020
6785 Clear -25 1044 68 0 2.62 96 21:58 11.03.2020
6786 Clear -25 1044 68 0 2.62 96 21:39 11.03.2020
6787 Clear -25 1044 68 0 2.62 96 21:21 11.03.2020
6788 Clear -25 1044 68 0 2.62 96 20:56 11.03.2020
6789 Clear -25 1044 68 0 2.62 96 20:37 11.03.2020
6790 Clear -25 1044 74 0 2.7 90 20:19 11.03.2020
6791 Clear -25 1044 74 0 2.7 90 19:42 11.03.2020
6792 Clear -25 1044 74 0 2.7 90 19:24 11.03.2020
6793 Clear -25 1044 74 0 2.7 90 18:57 11.03.2020
6794 Clear -25 1044 74 0 2.7 90 18:37 11.03.2020
6795 Clear -25 1044 74 0 2.7 90 18:18 11.03.2020
6796 Clear -25 1044 74 0 2.7 90 17:55 11.03.2020
6797 Clear -25 1044 74 0 2.7 90 17:37 11.03.2020
6798 Clear -24 1040 81 0 2.84 83 17:18 11.03.2020
6799 Clear -24 1040 81 0 2.84 83 16:43 11.03.2020
6800 Clear -24 1040 81 0 2.84 83 16:19 11.03.2020
6801 Clear -24 1040 81 0 2.84 83 15:43 11.03.2020
6802 Clear -24 1040 81 0 2.84 83 15:23 11.03.2020
6803 Clear -24 1040 81 0 2.84 83 15:23 11.03.2020
6804 Clear -24 1040 81 0 2.84 83 14:46 11.03.2020
6805 Clear -24 1040 81 0 2.84 83 14:25 11.03.2020
6806 Clouds -21 1036 89 0 1.74 56 13:59 11.03.2020
6807 Clouds -21 1036 89 0 1.74 56 13:40 11.03.2020
6808 Clouds -21 1036 92 0 1.38 43 13:22 11.03.2020
6809 Clouds -21 1036 92 0 1.38 43 12:56 11.03.2020
6810 Clouds -21 1036 92 0 1.38 43 12:37 11.03.2020
6811 Clouds -21 1036 92 0 1.38 43 12:18 11.03.2020
6812 Clouds -21 1036 92 0 1.38 43 11:40 11.03.2020
6813 Clouds -14 1029 76 0 2.53 312 11:20 11.03.2020
6814 Clouds -14 1029 76 0 2.53 312 10:47 11.03.2020
6815 Clouds -14 1029 76 0 2.53 312 10:20 11.03.2020
6816 Clouds -14 1029 76 0 2.53 312 09:58 11.03.2020
6817 Clouds -14 1029 76 0 2.53 312 09:38 11.03.2020
6818 Clouds -14 1029 76 0 2.53 312 09:19 11.03.2020
6819 Clouds -14 1029 76 0 2.53 312 08:42 11.03.2020
6820 Clouds -13 1029 76 0 2.5 318 08:23 11.03.2020
6821 Clouds -13 1028 67 0 2.38 315 07:47 11.03.2020
6822 Clouds -13 1028 67